
Distance (Route):
Temperature : 3.5°C
Humidity : 0%
Pressure : 0hPa| Receiver | Frames | First received | Last received |
|---|---|---|---|
| SQ6EMJ | 969 | 2026-09-05 11:24:05 | 2026-09-05 13:26:27 |
| SPACE-12 | 781 | 2026-09-05 13:16:28 | 2026-09-05 13:48:21 |
| SP6BVK | 379 | 2026-09-05 10:56:46 | 2026-09-05 13:33:53 |
| POL1PZ | 284 | 2026-09-05 11:44:14 | 2026-09-05 13:41:40 |
| OM5KV | 141 | 2026-09-05 12:52:29 | 2026-09-05 13:06:30 |
| OE3JTB-15 | 102 | 2026-09-05 11:20:07 | 2026-09-05 13:26:26 |
| DB0NH | 59 | 2026-09-05 12:15:41 | 2026-09-05 12:49:42 |
| DO3MHA-12 | 46 | 2026-09-05 12:32:32 | 2026-09-05 12:44:47 |
| OE5DRO-10 | 43 | 2026-09-05 12:28:05 | 2026-09-05 12:46:46 |
| EDDB2-11 | 34 | 2026-09-05 10:58:30 | 2026-09-05 13:00:05 |
| SONDE2-11 | 27 | 2026-09-05 11:00:40 | 2026-09-05 13:00:04 |
| NBG1-10 | 25 | 2026-09-05 12:11:29 | 2026-09-05 12:48:13 |
| EDDB2-12 | 16 | 2026-09-05 11:03:03 | 2026-09-05 12:46:02 |
| AM1SDL-15 | 11 | 2026-09-05 11:47:41 | 2026-09-05 11:58:44 |
| DAC517 | 9 | 2026-09-05 11:15:19 | 2026-09-05 11:19:35 |
| SP3WXH-11 | 3 | 2026-09-05 11:49:03 | 2026-09-05 12:20:05 |
| DL2RXE-15 | 2 | 2026-09-05 11:26:46 | 2026-09-05 11:45:27 |
| S3001 | 1 | 2026-09-05 11:31:04 | 2026-09-05 11:31:04 |
| OK1SLM-15 | 1 | 2026-09-05 12:23:15 | 2026-09-05 12:23:15 |
| SQ9EZE-14 | 1 | 2026-09-05 12:36:40 | 2026-09-05 12:36:40 |
| Receiver | Date | Latitude | Longitude | Direction | Speed | Altitude | Climb | Temperature | Humidity | Pressure | Voltage | Killtimer | Uptime | BKT | XDATA |
|---|---|---|---|---|---|---|---|---|---|---|---|---|---|---|---|
| SPACE-12 | 2026-09-05 13:48:21 | 51.08855 | 19.20383 | 96° | 60km/h | 2000m | -3.2m/s | 3.5°C | 0% | 0hPa | 0V | 00:00:00 | 00:00:00 | 00:00:00 | |
| SPACE-12 | 2026-09-05 13:48:09 | 51.08860 | 19.20114 | 91° | 57km/h | 2050m | -4.0m/s | 3.1°C | 0% | 0hPa | 0V | 00:00:00 | 00:00:00 | 00:00:00 | |
| SPACE-12 | 2026-09-05 13:48:08 | 51.08861 | 19.20067 | 92° | 60km/h | 2058m | -4.1m/s | 3.0°C | 0% | 0hPa | 0V | 00:00:00 | 00:00:00 | 00:00:00 | |
| SPACE-12 | 2026-09-05 13:47:46 | 51.08892 | 19.19573 | 93° | 55km/h | 2133m | -3.4m/s | 2.8°C | 0% | 0hPa | 0V | 00:00:00 | 00:00:00 | 00:00:00 | |
| SPACE-12 | 2026-09-05 13:47:33 | 51.08891 | 19.19270 | 92° | 64km/h | 2177m | -3.3m/s | 2.5°C | 0% | 0hPa | 0V | 00:00:00 | 00:00:00 | 00:00:00 | |
| SPACE-12 | 2026-09-05 13:47:30 | 51.08892 | 19.19193 | 95° | 64km/h | 2187m | -3.2m/s | 2.5°C | 0% | 0hPa | 0V | 00:00:00 | 00:00:00 | 00:00:00 | |
| SPACE-12 | 2026-09-05 13:47:29 | 51.08895 | 19.19140 | 95° | 64km/h | 2193m | -3.2m/s | 2.4°C | 0% | 0hPa | 0V | 00:00:00 | 00:00:00 | 00:00:00 | |
| SPACE-12 | 2026-09-05 13:47:27 | 51.08896 | 19.19114 | 96° | 66km/h | 2196m | -3.2m/s | 2.4°C | 0% | 0hPa | 0V | 00:00:00 | 00:00:00 | 00:00:00 | |
| SPACE-12 | 2026-09-05 13:47:25 | 51.08899 | 19.19063 | 98° | 64km/h | 2202m | -3.2m/s | 2.5°C | 0% | 0hPa | 0V | 00:00:00 | 00:00:00 | 00:00:00 | |
| SPACE-12 | 2026-09-05 13:46:40 | 51.08935 | 19.17997 | 91° | 66km/h | 2346m | -3.0m/s | 1.5°C | 0% | 0hPa | 0V | 00:00:00 | 00:00:00 | 00:00:00 | |
| SPACE-12 | 2026-09-05 13:46:38 | 51.08936 | 19.17944 | 91° | 68km/h | 2352m | -3.1m/s | 1.5°C | 0% | 0hPa | 0V | 00:00:00 | 00:00:00 | 00:00:00 | |
| SPACE-12 | 2026-09-05 13:46:35 | 51.08936 | 19.17862 | 93° | 68km/h | 2361m | -3.0m/s | 1.4°C | 0% | 0hPa | 0V | 00:00:00 | 00:00:00 | 00:00:00 | |
| SPACE-12 | 2026-09-05 13:46:34 | 51.08937 | 19.17835 | 94° | 66km/h | 2364m | -3.0m/s | 1.4°C | 0% | 0hPa | 0V | 00:00:00 | 00:00:00 | 00:00:00 | |
| SPACE-12 | 2026-09-05 13:46:33 | 51.08940 | 19.17781 | 96° | 68km/h | 2370m | -2.9m/s | 1.4°C | 0% | 0hPa | 0V | 00:00:00 | 00:00:00 | 00:00:00 | |
| SPACE-12 | 2026-09-05 13:46:31 | 51.08941 | 19.17754 | 96° | 68km/h | 2373m | -2.9m/s | 1.4°C | 0% | 0hPa | 0V | 00:00:00 | 00:00:00 | 00:00:00 | |
| SPACE-12 | 2026-09-05 13:46:16 | 51.08964 | 19.17383 | 94° | 57km/h | 2416m | -2.7m/s | 1.1°C | 0% | 0hPa | 0V | 00:00:00 | 00:00:00 | 00:00:00 | |
| SPACE-12 | 2026-09-05 13:46:07 | 51.08962 | 19.17173 | 87° | 62km/h | 2440m | -2.3m/s | 0.8°C | 0% | 0hPa | 0V | 00:00:00 | 00:00:00 | 00:00:00 | |
| SPACE-12 | 2026-09-05 13:46:05 | 51.08960 | 19.17122 | 88° | 66km/h | 2445m | -2.6m/s | 0.7°C | 0% | 0hPa | 0V | 00:00:00 | 00:00:00 | 00:00:00 | |
| SPACE-12 | 2026-09-05 13:45:51 | 51.08961 | 19.16743 | 94° | 69km/h | 2482m | -2.6m/s | 0.4°C | 0% | 0hPa | 0V | 00:00:00 | 00:00:00 | 00:00:00 | |
| SPACE-12 | 2026-09-05 13:45:41 | 51.08978 | 19.16484 | 94° | 60km/h | 2509m | -2.7m/s | 0.1°C | 0% | 0hPa | 0V | 00:00:00 | 00:00:00 | 00:00:00 | |
| SPACE-12 | 2026-09-05 13:45:39 | 51.08979 | 19.16437 | 92° | 58km/h | 2515m | -2.6m/s | -0.1°C | 0% | 0hPa | 0V | 00:00:00 | 00:00:00 | 00:00:00 | |
| SPACE-12 | 2026-09-05 13:45:37 | 51.08979 | 19.16388 | 89° | 62km/h | 2520m | -2.8m/s | -0.2°C | 0% | 0hPa | 0V | 00:00:00 | 00:00:00 | 00:00:00 | |
| SPACE-12 | 2026-09-05 13:45:35 | 51.08977 | 19.16336 | 88° | 68km/h | 2526m | -2.8m/s | -0.3°C | 0% | 0hPa | 0V | 00:00:00 | 00:00:00 | 00:00:00 | |
| SPACE-12 | 2026-09-05 13:45:33 | 51.08976 | 19.16281 | 91° | 69km/h | 2532m | -2.8m/s | -0.5°C | 0% | 0hPa | 0V | 00:00:00 | 00:00:00 | 00:00:00 | |
| SPACE-12 | 2026-09-05 13:45:31 | 51.08977 | 19.16224 | 94° | 71km/h | 2537m | -2.8m/s | -0.6°C | 0% | 0hPa | 0V | 00:00:00 | 00:00:00 | 00:00:00 | |
| SPACE-12 | 2026-09-05 13:45:29 | 51.08979 | 19.16169 | 97° | 68km/h | 2543m | -2.8m/s | -0.6°C | 0% | 0hPa | 0V | 00:00:00 | 00:00:00 | 00:00:00 | |
| SPACE-12 | 2026-09-05 13:45:24 | 51.08988 | 19.16041 | 96° | 60km/h | 2557m | -2.8m/s | -0.7°C | 0% | 0hPa | 0V | 00:00:00 | 00:00:00 | 00:00:00 | |
| SPACE-12 | 2026-09-05 13:45:22 | 51.08990 | 19.15993 | 94° | 60km/h | 2562m | -2.7m/s | -0.7°C | 0% | 0hPa | 0V | 00:00:00 | 00:00:00 | 00:00:00 | |
| SPACE-12 | 2026-09-05 13:45:21 | 51.08990 | 19.15969 | 92° | 58km/h | 2565m | -2.7m/s | -0.7°C | 0% | 0hPa | 0V | 00:00:00 | 00:00:00 | 00:00:00 | |
| SPACE-12 | 2026-09-05 13:45:18 | 51.08989 | 19.15897 | 87° | 62km/h | 2574m | -2.8m/s | -0.7°C | 0% | 0hPa | 0V | 00:00:00 | 00:00:00 | 00:00:00 | |
| SPACE-12 | 2026-09-05 13:45:15 | 51.08986 | 19.15820 | 86° | 64km/h | 2583m | -2.7m/s | -0.8°C | 0% | 0hPa | 0V | 00:00:00 | 00:00:00 | 00:00:00 | |
| SPACE-12 | 2026-09-05 13:45:14 | 51.08983 | 19.15767 | 87° | 68km/h | 2588m | -2.9m/s | -0.8°C | 0% | 0hPa | 0V | 00:00:00 | 00:00:00 | 00:00:00 | |
| SPACE-12 | 2026-09-05 13:45:11 | 51.08981 | 19.15711 | 89° | 69km/h | 2594m | -2.9m/s | -0.8°C | 0% | 0hPa | 0V | 00:00:00 | 00:00:00 | 00:00:00 | |
| SPACE-12 | 2026-09-05 13:45:07 | 51.08983 | 19.15570 | 95° | 69km/h | 2608m | -2.9m/s | -0.9°C | 0% | 0hPa | 0V | 00:00:00 | 00:00:00 | 00:00:00 | |
| SPACE-12 | 2026-09-05 13:44:58 | 51.08995 | 19.15360 | 94° | 60km/h | 2633m | -3.0m/s | -1.1°C | 0% | 0hPa | 0V | 00:00:00 | 00:00:00 | 00:00:00 | |
| SPACE-12 | 2026-09-05 13:44:56 | 51.08995 | 19.15312 | 92° | 60km/h | 2639m | -3.0m/s | -1.2°C | 0% | 0hPa | 0V | 00:00:00 | 00:00:00 | 00:00:00 | |
| SPACE-12 | 2026-09-05 13:44:54 | 51.08995 | 19.15264 | 89° | 60km/h | 2645m | -3.0m/s | -1.2°C | 0% | 0hPa | 0V | 00:00:00 | 00:00:00 | 00:00:00 | |
| SPACE-12 | 2026-09-05 13:44:43 | 51.08989 | 19.14940 | 95° | 69km/h | 2681m | -2.9m/s | -1.4°C | 0% | 0hPa | 0V | 00:00:00 | 00:00:00 | 00:00:00 | |
| SPACE-12 | 2026-09-05 13:44:39 | 51.08992 | 19.14857 | 96° | 68km/h | 2690m | -3.2m/s | -1.4°C | 0% | 0hPa | 0V | 00:00:00 | 00:00:00 | 00:00:00 | |
| SPACE-12 | 2026-09-05 13:44:38 | 51.08994 | 19.14830 | 97° | 66km/h | 2693m | -3.2m/s | -1.4°C | 0% | 0hPa | 0V | 00:00:00 | 00:00:00 | 00:00:00 | |
| SPACE-12 | 2026-09-05 13:44:34 | 51.09000 | 19.14730 | 95° | 60km/h | 2707m | -3.4m/s | -1.4°C | 0% | 0hPa | 0V | 00:00:00 | 00:00:00 | 00:00:00 | |
| SPACE-12 | 2026-09-05 13:44:33 | 51.09001 | 19.14682 | 94° | 58km/h | 2714m | -3.3m/s | -1.3°C | 0% | 0hPa | 0V | 00:00:00 | 00:00:00 | 00:00:00 | |
| SPACE-12 | 2026-09-05 13:44:28 | 51.09000 | 19.14586 | 86° | 62km/h | 2726m | -3.2m/s | -1.4°C | 0% | 0hPa | 0V | 00:00:00 | 00:00:00 | 00:00:00 | |
| SPACE-12 | 2026-09-05 13:44:26 | 51.08998 | 19.14536 | 86° | 64km/h | 2733m | -3.0m/s | -1.5°C | 0% | 0hPa | 0V | 00:00:00 | 00:00:00 | 00:00:00 | |
| SPACE-12 | 2026-09-05 13:44:25 | 51.08996 | 19.14510 | 85° | 66km/h | 2736m | -3.0m/s | -1.6°C | 0% | 0hPa | 0V | 00:00:00 | 00:00:00 | 00:00:00 | |
| SPACE-12 | 2026-09-05 13:44:20 | 51.08990 | 19.14373 | 89° | 71km/h | 2751m | -2.8m/s | -1.5°C | 0% | 0hPa | 0V | 00:00:00 | 00:00:00 | 00:00:00 | |
| SPACE-12 | 2026-09-05 13:44:09 | 51.08998 | 19.14086 | 92° | 58km/h | 2783m | -2.9m/s | -1.9°C | 0% | 0hPa | 0V | 00:00:00 | 00:00:00 | 00:00:00 | |
| SPACE-12 | 2026-09-05 13:44:08 | 51.08998 | 19.14062 | 91° | 60km/h | 2786m | -3.0m/s | -1.8°C | 0% | 0hPa | 0V | 00:00:00 | 00:00:00 | 00:00:00 | |
| SPACE-12 | 2026-09-05 13:44:06 | 51.08997 | 19.14014 | 89° | 60km/h | 2791m | -2.9m/s | -1.8°C | 0% | 0hPa | 0V | 00:00:00 | 00:00:00 | 00:00:00 | |
| SPACE-12 | 2026-09-05 13:44:04 | 51.08995 | 19.13965 | 86° | 62km/h | 2798m | -3.2m/s | -1.8°C | 0% | 0hPa | 0V | 00:00:00 | 00:00:00 | 00:00:00 | |
| SPACE-12 | 2026-09-05 13:44:02 | 51.08992 | 19.13914 | 85° | 64km/h | 2804m | -3.0m/s | -1.8°C | 0% | 0hPa | 0V | 00:00:00 | 00:00:00 | 00:00:00 | |
| SPACE-12 | 2026-09-05 13:44:01 | 51.08991 | 19.13889 | 86° | 64km/h | 2807m | -3.1m/s | -1.8°C | 0% | 0hPa | 0V | 00:00:00 | 00:00:00 | 00:00:00 | |
| SPACE-12 | 2026-09-05 13:44:00 | 51.08988 | 19.13836 | 86° | 66km/h | 2813m | -3.0m/s | -1.8°C | 0% | 0hPa | 0V | 00:00:00 | 00:00:00 | 00:00:00 | |
| SPACE-12 | 2026-09-05 13:43:58 | 51.08986 | 19.13810 | 87° | 68km/h | 2816m | -3.0m/s | -1.9°C | 0% | 0hPa | 0V | 00:00:00 | 00:00:00 | 00:00:00 | |
| SPACE-12 | 2026-09-05 13:43:54 | 51.08983 | 19.13699 | 90° | 71km/h | 2829m | -3.0m/s | -1.8°C | 0% | 0hPa | 0V | 00:00:00 | 00:00:00 | 00:00:00 | |
| SPACE-12 | 2026-09-05 13:43:53 | 51.08983 | 19.13670 | 90° | 71km/h | 2832m | -3.1m/s | -1.8°C | 0% | 0hPa | 0V | 00:00:00 | 00:00:00 | 00:00:00 | |
| SPACE-12 | 2026-09-05 13:43:51 | 51.08982 | 19.13612 | 92° | 71km/h | 2837m | -3.1m/s | -1.8°C | 0% | 0hPa | 0V | 00:00:00 | 00:00:00 | 00:00:00 | |
| SPACE-12 | 2026-09-05 13:43:47 | 51.08986 | 19.13498 | 96° | 69km/h | 2850m | -3.4m/s | -1.9°C | 0% | 0hPa | 0V | 00:00:00 | 00:00:00 | 00:00:00 | |
| SPACE-12 | 2026-09-05 13:43:45 | 51.08989 | 19.13444 | 97° | 68km/h | 2857m | -3.9m/s | -2.0°C | 0% | 0hPa | 0V | 00:00:00 | 00:00:00 | 00:00:00 | |
| SPACE-12 | 2026-09-05 13:43:41 | 51.08995 | 19.13341 | 95° | 62km/h | 2872m | -3.4m/s | -1.9°C | 0% | 0hPa | 0V | 00:00:00 | 00:00:00 | 00:00:00 | |
| SPACE-12 | 2026-09-05 13:43:39 | 51.08997 | 19.13292 | 93° | 60km/h | 2879m | -3.3m/s | -1.7°C | 0% | 0hPa | 0V | 00:00:00 | 00:00:00 | 00:00:00 | |
| SPACE-12 | 2026-09-05 13:43:38 | 51.08997 | 19.13268 | 92° | 58km/h | 2882m | -3.5m/s | -1.7°C | 0% | 0hPa | 0V | 00:00:00 | 00:00:00 | 00:00:00 | |
| SPACE-12 | 2026-09-05 13:43:34 | 51.08995 | 19.13173 | 87° | 62km/h | 2897m | -3.5m/s | -1.7°C | 0% | 0hPa | 0V | 00:00:00 | 00:00:00 | 00:00:00 | |
| SPACE-12 | 2026-09-05 13:43:32 | 51.08992 | 19.13122 | 86° | 66km/h | 2905m | -3.8m/s | -1.8°C | 0% | 0hPa | 0V | 00:00:00 | 00:00:00 | 00:00:00 | |
| SPACE-12 | 2026-09-05 13:43:30 | 51.08989 | 19.13069 | 87° | 68km/h | 2914m | -4.5m/s | -1.9°C | 0% | 0hPa | 0V | 00:00:00 | 00:00:00 | 00:00:00 | |
| SPACE-12 | 2026-09-05 13:43:28 | 51.08986 | 19.13014 | 86° | 71km/h | 2923m | -4.5m/s | -2.0°C | 0% | 0hPa | 0V | 00:00:00 | 00:00:00 | 00:00:00 | |
| SPACE-12 | 2026-09-05 13:43:26 | 51.08985 | 19.12955 | 89° | 75km/h | 2932m | -4.9m/s | -2.1°C | 0% | 0hPa | 0V | 00:00:00 | 00:00:00 | 00:00:00 | |
| SPACE-12 | 2026-09-05 13:43:25 | 51.08984 | 19.12925 | 88° | 77km/h | 2937m | -4.9m/s | -2.2°C | 0% | 0hPa | 0V | 00:00:00 | 00:00:00 | 00:00:00 | |
| SPACE-12 | 2026-09-05 13:43:23 | 51.08982 | 19.12863 | 87° | 77km/h | 2947m | -4.2m/s | -2.3°C | 0% | 0hPa | 0V | 00:00:00 | 00:00:00 | 00:00:00 | |
| SPACE-12 | 2026-09-05 13:43:22 | 51.08981 | 19.12832 | 90° | 78km/h | 2950m | -4.4m/s | -2.3°C | 0% | 0hPa | 0V | 00:00:00 | 00:00:00 | 00:00:00 | |
| SPACE-12 | 2026-09-05 13:43:19 | 51.08980 | 19.12738 | 93° | 77km/h | 2963m | -4.4m/s | -2.3°C | 0% | 0hPa | 0V | 00:00:00 | 00:00:00 | 00:00:00 | |
| SPACE-12 | 2026-09-05 13:43:18 | 51.08981 | 19.12708 | 93° | 77km/h | 2968m | -4.5m/s | -2.4°C | 0% | 0hPa | 0V | 00:00:00 | 00:00:00 | 00:00:00 | |
| SPACE-12 | 2026-09-05 13:43:15 | 51.08983 | 19.12617 | 94° | 73km/h | 2980m | -4.3m/s | -2.5°C | 0% | 0hPa | 0V | 00:00:00 | 00:00:00 | 00:00:00 | |
| SPACE-12 | 2026-09-05 13:43:13 | 51.08985 | 19.12560 | 94° | 69km/h | 2989m | -4.2m/s | -2.6°C | 0% | 0hPa | 0V | 00:00:00 | 00:00:00 | 00:00:00 | |
| SPACE-12 | 2026-09-05 13:43:09 | 51.08988 | 19.12451 | 91° | 66km/h | 3006m | -4.2m/s | -2.1°C | 0% | 0hPa | 0V | 00:00:00 | 00:00:00 | 00:00:00 | |
| SPACE-12 | 2026-09-05 13:43:04 | 51.08985 | 19.12316 | 87° | 69km/h | 3026m | -4.1m/s | -1.7°C | 0% | 0hPa | 0V | 00:00:00 | 00:00:00 | 00:00:00 | |
| SPACE-12 | 2026-09-05 13:43:00 | 51.08980 | 19.12201 | 86° | 73km/h | 3043m | -3.9m/s | -1.5°C | 0% | 0hPa | 0V | 00:00:00 | 00:00:00 | 00:00:00 | |
| SPACE-12 | 2026-09-05 13:42:57 | 51.08974 | 19.12111 | 86° | 77km/h | 3054m | -3.8m/s | -1.0°C | 0% | 0hPa | 0V | 00:00:00 | 00:00:00 | 00:00:00 | |
| SPACE-12 | 2026-09-05 13:42:56 | 51.08971 | 19.12051 | 86° | 75km/h | 3062m | -3.9m/s | -0.7°C | 0% | 0hPa | 0V | 00:00:00 | 00:00:00 | 00:00:00 | |
| SPACE-12 | 2026-09-05 13:42:54 | 51.08967 | 19.11989 | 86° | 78km/h | 3070m | -3.8m/s | -0.4°C | 0% | 0hPa | 0V | 00:00:00 | 00:00:00 | 00:00:00 | |
| SPACE-12 | 2026-09-05 13:42:51 | 51.08964 | 19.11926 | 87° | 80km/h | 3077m | -3.5m/s | -0.4°C | 0% | 0hPa | 0V | 00:00:00 | 00:00:00 | 00:00:00 | |
| SPACE-12 | 2026-09-05 13:42:49 | 51.08962 | 19.11862 | 88° | 80km/h | 3084m | -3.7m/s | -0.5°C | 0% | 0hPa | 0V | 00:00:00 | 00:00:00 | 00:00:00 | |
| SPACE-12 | 2026-09-05 13:42:47 | 51.08959 | 19.11797 | 87° | 82km/h | 3092m | -3.5m/s | -0.5°C | 0% | 0hPa | 0V | 00:00:00 | 00:00:00 | 00:00:00 | |
| SPACE-12 | 2026-09-05 13:42:45 | 51.08958 | 19.11730 | 90° | 86km/h | 3099m | -3.6m/s | -0.5°C | 0% | 0hPa | 0V | 00:00:00 | 00:00:00 | 00:00:00 | |
| SPACE-12 | 2026-09-05 13:42:43 | 51.08957 | 19.11662 | 90° | 86km/h | 3106m | -3.2m/s | -0.5°C | 0% | 0hPa | 0V | 00:00:00 | 00:00:00 | 00:00:00 | |
| SPACE-12 | 2026-09-05 13:42:42 | 51.08956 | 19.11627 | 88° | 88km/h | 3109m | -3.9m/s | -0.5°C | 0% | 0hPa | 0V | 00:00:00 | 00:00:00 | 00:00:00 | |
| SPACE-12 | 2026-09-05 13:42:41 | 51.08955 | 19.11557 | 91° | 88km/h | 3117m | -3.3m/s | -0.4°C | 0% | 0hPa | 0V | 00:00:00 | 00:00:00 | 00:00:00 | |
| SPACE-12 | 2026-09-05 13:42:38 | 51.08955 | 19.11486 | 92° | 86km/h | 3124m | -3.4m/s | -0.5°C | 0% | 0hPa | 0V | 00:00:00 | 00:00:00 | 00:00:00 | |
| SPACE-12 | 2026-09-05 13:42:37 | 51.08955 | 19.11417 | 94° | 84km/h | 3130m | -3.3m/s | -0.5°C | 0% | 0hPa | 0V | 00:00:00 | 00:00:00 | 00:00:00 | |
| SPACE-12 | 2026-09-05 13:42:33 | 51.08961 | 19.11317 | 97° | 82km/h | 3140m | -3.2m/s | -0.6°C | 0% | 0hPa | 0V | 00:00:00 | 00:00:00 | 00:00:00 | |
| SPACE-12 | 2026-09-05 13:42:31 | 51.08964 | 19.11253 | 97° | 78km/h | 3146m | -3.3m/s | -0.7°C | 0% | 0hPa | 0V | 00:00:00 | 00:00:00 | 00:00:00 | |
| SPACE-12 | 2026-09-05 13:42:29 | 51.08969 | 19.11190 | 97° | 80km/h | 3153m | -3.5m/s | -0.7°C | 0% | 0hPa | 0V | 00:00:00 | 00:00:00 | 00:00:00 | |
| SPACE-12 | 2026-09-05 13:42:26 | 51.08974 | 19.11096 | 95° | 77km/h | 3164m | -3.4m/s | -0.8°C | 0% | 0hPa | 0V | 00:00:00 | 00:00:00 | 00:00:00 | |
| SPACE-12 | 2026-09-05 13:42:21 | 51.08979 | 19.10943 | 92° | 77km/h | 3182m | -3.2m/s | -0.7°C | 0% | 0hPa | 0V | 00:00:00 | 00:00:00 | 00:00:00 | |
| SPACE-12 | 2026-09-05 13:42:19 | 51.08979 | 19.10880 | 90° | 78km/h | 3189m | -3.2m/s | -0.7°C | 0% | 0hPa | 0V | 00:00:00 | 00:00:00 | 00:00:00 | |
| SPACE-12 | 2026-09-05 13:42:17 | 51.08977 | 19.10817 | 90° | 80km/h | 3195m | -3.1m/s | -0.8°C | 0% | 0hPa | 0V | 00:00:00 | 00:00:00 | 00:00:00 | |
| SPACE-12 | 2026-09-05 13:42:15 | 51.08977 | 19.10751 | 90° | 82km/h | 3201m | -3.0m/s | -0.7°C | 0% | 0hPa | 0V | 00:00:00 | 00:00:00 | 00:00:00 | |
| SPACE-12 | 2026-09-05 13:42:14 | 51.08977 | 19.10717 | 90° | 82km/h | 3204m | -3.0m/s | -0.8°C | 0% | 0hPa | 0V | 00:00:00 | 00:00:00 | 00:00:00 | |
| SPACE-12 | 2026-09-05 13:42:12 | 51.08976 | 19.10651 | 90° | 84km/h | 3210m | -2.9m/s | -0.8°C | 0% | 0hPa | 0V | 00:00:00 | 00:00:00 | 00:00:00 | |
| SPACE-12 | 2026-09-05 13:42:10 | 51.08976 | 19.10582 | 92° | 86km/h | 3216m | -2.9m/s | -0.9°C | 0% | 0hPa | 0V | 00:00:00 | 00:00:00 | 00:00:00 | |
| SPACE-12 | 2026-09-05 13:42:08 | 51.08977 | 19.10512 | 93° | 88km/h | 3221m | -2.9m/s | -1.0°C | 0% | 0hPa | 0V | 00:00:00 | 00:00:00 | 00:00:00 | |
| SPACE-12 | 2026-09-05 13:42:06 | 51.08979 | 19.10441 | 95° | 88km/h | 3227m | -3.0m/s | -1.1°C | 0% | 0hPa | 0V | 00:00:00 | 00:00:00 | 00:00:00 | |
| SPACE-12 | 2026-09-05 13:42:05 | 51.08983 | 19.10371 | 96° | 88km/h | 3233m | -2.9m/s | -1.1°C | 0% | 0hPa | 0V | 00:00:00 | 00:00:00 | 00:00:00 | |
| SPACE-12 | 2026-09-05 13:42:02 | 51.08987 | 19.10300 | 98° | 88km/h | 3239m | -3.0m/s | -1.2°C | 0% | 0hPa | 0V | 00:00:00 | 00:00:00 | 00:00:00 | |
| SPACE-12 | 2026-09-05 13:42:01 | 51.08989 | 19.10266 | 98° | 86km/h | 3241m | -2.9m/s | -1.2°C | 0% | 0hPa | 0V | 00:00:00 | 00:00:00 | 00:00:00 | |
| SPACE-12 | 2026-09-05 13:41:59 | 51.08995 | 19.10199 | 99° | 84km/h | 3247m | -3.0m/s | -1.3°C | 0% | 0hPa | 0V | 00:00:00 | 00:00:00 | 00:00:00 | |
| SPACE-12 | 2026-09-05 13:41:57 | 51.09000 | 19.10133 | 98° | 80km/h | 3253m | -2.9m/s | -1.5°C | 0% | 0hPa | 0V | 00:00:00 | 00:00:00 | 00:00:00 | |
| SPACE-12 | 2026-09-05 13:41:55 | 51.09005 | 19.10069 | 98° | 80km/h | 3259m | -2.7m/s | -1.6°C | 0% | 0hPa | 0V | 00:00:00 | 00:00:00 | 00:00:00 | |
| SPACE-12 | 2026-09-05 13:41:53 | 51.09010 | 19.10005 | 97° | 78km/h | 3264m | -2.8m/s | -1.6°C | 0% | 0hPa | 0V | 00:00:00 | 00:00:00 | 00:00:00 | |
| SPACE-12 | 2026-09-05 13:41:52 | 51.09014 | 19.09943 | 97° | 78km/h | 3270m | -2.6m/s | -1.5°C | 0% | 0hPa | 0V | 00:00:00 | 00:00:00 | 00:00:00 | |
| SPACE-12 | 2026-09-05 13:41:49 | 51.09018 | 19.09881 | 95° | 77km/h | 3275m | -2.5m/s | -1.4°C | 0% | 0hPa | 0V | 00:00:00 | 00:00:00 | 00:00:00 | |
| SPACE-12 | 2026-09-05 13:41:47 | 51.09019 | 19.09818 | 93° | 78km/h | 3281m | -2.6m/s | -1.4°C | 0% | 0hPa | 0V | 00:00:00 | 00:00:00 | 00:00:00 | |
| SPACE-12 | 2026-09-05 13:41:46 | 51.09020 | 19.09787 | 92° | 78km/h | 3283m | -2.6m/s | -1.4°C | 0% | 0hPa | 0V | 00:00:00 | 00:00:00 | 00:00:00 | |
| SPACE-12 | 2026-09-05 13:41:44 | 51.09021 | 19.09723 | 91° | 80km/h | 3288m | -2.5m/s | -1.4°C | 0% | 0hPa | 0V | 00:00:00 | 00:00:00 | 00:00:00 | |
| SPACE-12 | 2026-09-05 13:41:43 | 51.09021 | 19.09658 | 91° | 82km/h | 3294m | -2.6m/s | -1.5°C | 0% | 0hPa | 0V | 00:00:00 | 00:00:00 | 00:00:00 | |
| SPACE-12 | 2026-09-05 13:41:41 | 51.09021 | 19.09592 | 90° | 84km/h | 3299m | -2.4m/s | -1.6°C | 0% | 0hPa | 0V | 00:00:00 | 00:00:00 | 00:00:00 | |
| POL1PZ | 2026-09-05 13:41:40 | 51.09021 | 19.09592 | 90° | 84km/h | 3299m | -2.4m/s | -1.6°C | 0% | 0hPa | 0V | 00:00:00 | 00:00:00 | 00:00:00 | |
| SPACE-12 | 2026-09-05 13:41:38 | 51.09021 | 19.09524 | 91° | 86km/h | 3303m | -2.5m/s | -1.7°C | 0% | 0hPa | 0V | 00:00:00 | 00:00:00 | 00:00:00 | |
| SPACE-12 | 2026-09-05 13:41:37 | 51.09021 | 19.09454 | 91° | 88km/h | 3309m | -2.6m/s | -1.7°C | 0% | 0hPa | 0V | 00:00:00 | 00:00:00 | 00:00:00 | |
| SPACE-12 | 2026-09-05 13:41:34 | 51.09022 | 19.09383 | 93° | 88km/h | 3314m | -2.7m/s | -1.7°C | 0% | 0hPa | 0V | 00:00:00 | 00:00:00 | 00:00:00 | |
| SPACE-12 | 2026-09-05 13:41:33 | 51.09023 | 19.09348 | 93° | 88km/h | 3317m | -2.7m/s | -1.7°C | 0% | 0hPa | 0V | 00:00:00 | 00:00:00 | 00:00:00 | |
| SPACE-12 | 2026-09-05 13:41:32 | 51.09025 | 19.09277 | 94° | 88km/h | 3322m | -2.6m/s | -1.7°C | 0% | 0hPa | 0V | 00:00:00 | 00:00:00 | 00:00:00 | |
| SPACE-12 | 2026-09-05 13:41:27 | 51.09032 | 19.09135 | 98° | 86km/h | 3332m | -2.6m/s | -1.9°C | 0% | 0hPa | 0V | 00:00:00 | 00:00:00 | 00:00:00 | |
| SPACE-12 | 2026-09-05 13:41:25 | 51.09037 | 19.09067 | 98° | 86km/h | 3337m | -2.6m/s | -2.0°C | 0% | 0hPa | 0V | 00:00:00 | 00:00:00 | 00:00:00 | |
| SPACE-12 | 2026-09-05 13:41:24 | 51.09042 | 19.08999 | 99° | 84km/h | 3342m | -2.6m/s | -2.1°C | 0% | 0hPa | 0V | 00:00:00 | 00:00:00 | 00:00:00 | |
| SPACE-12 | 2026-09-05 13:41:21 | 51.09048 | 19.08934 | 98° | 80km/h | 3348m | -2.8m/s | -2.3°C | 0% | 0hPa | 0V | 00:00:00 | 00:00:00 | 00:00:00 | |
| SPACE-12 | 2026-09-05 13:41:20 | 51.09053 | 19.08871 | 97° | 77km/h | 3353m | -2.6m/s | -2.3°C | 0% | 0hPa | 0V | 00:00:00 | 00:00:00 | 00:00:00 | |
| POL1PZ | 2026-09-05 13:41:19 | 51.09053 | 19.08871 | 97° | 77km/h | 3353m | -2.6m/s | -2.3°C | 0% | 0hPa | 0V | 00:00:00 | 00:00:00 | 00:00:00 | |
| SPACE-12 | 2026-09-05 13:41:18 | 51.09055 | 19.08840 | 97° | 77km/h | 3356m | -2.7m/s | -2.2°C | 0% | 0hPa | 0V | 00:00:00 | 00:00:00 | 00:00:00 | |
| SPACE-12 | 2026-09-05 13:41:17 | 51.09058 | 19.08778 | 96° | 78km/h | 3362m | -2.5m/s | -2.1°C | 0% | 0hPa | 0V | 00:00:00 | 00:00:00 | 00:00:00 | |
| SPACE-12 | 2026-09-05 13:41:14 | 51.09061 | 19.08716 | 95° | 77km/h | 3367m | -2.8m/s | -2.1°C | 0% | 0hPa | 0V | 00:00:00 | 00:00:00 | 00:00:00 | |
| SPACE-12 | 2026-09-05 13:41:12 | 51.09062 | 19.08654 | 93° | 77km/h | 3373m | -2.8m/s | -2.2°C | 0% | 0hPa | 0V | 00:00:00 | 00:00:00 | 00:00:00 | |
| SPACE-12 | 2026-09-05 13:41:10 | 51.09064 | 19.08592 | 92° | 78km/h | 3379m | -2.8m/s | -2.2°C | 0% | 0hPa | 0V | 00:00:00 | 00:00:00 | 00:00:00 | |
| SPACE-12 | 2026-09-05 13:41:08 | 51.09064 | 19.08528 | 92° | 80km/h | 3384m | -2.8m/s | -2.3°C | 0% | 0hPa | 0V | 00:00:00 | 00:00:00 | 00:00:00 | |
| SPACE-12 | 2026-09-05 13:41:06 | 51.09065 | 19.08464 | 92° | 80km/h | 3390m | -2.7m/s | -2.4°C | 0% | 0hPa | 0V | 00:00:00 | 00:00:00 | 00:00:00 | |
| SPACE-12 | 2026-09-05 13:41:05 | 51.09065 | 19.08431 | 91° | 82km/h | 3392m | -2.5m/s | -2.5°C | 0% | 0hPa | 0V | 00:00:00 | 00:00:00 | 00:00:00 | |
| SPACE-12 | 2026-09-05 13:41:03 | 51.09065 | 19.08364 | 91° | 84km/h | 3397m | -2.6m/s | -2.6°C | 0% | 0hPa | 0V | 00:00:00 | 00:00:00 | 00:00:00 | |
| SPACE-12 | 2026-09-05 13:41:02 | 51.09065 | 19.08331 | 92° | 82km/h | 3400m | -2.9m/s | -2.6°C | 0% | 0hPa | 0V | 00:00:00 | 00:00:00 | 00:00:00 | |
| POL1PZ | 2026-09-05 13:40:59 | 51.09067 | 19.08195 | 92° | 86km/h | 3412m | -2.9m/s | -2.7°C | 0% | 0hPa | 0V | 00:00:00 | 00:00:00 | 00:00:00 | |
| SPACE-12 | 2026-09-05 13:40:58 | 51.09068 | 19.08161 | 92° | 86km/h | 3414m | -3.0m/s | -2.7°C | 0% | 0hPa | 0V | 00:00:00 | 00:00:00 | 00:00:00 | |
| SPACE-12 | 2026-09-05 13:40:55 | 51.09069 | 19.08090 | 94° | 88km/h | 3420m | -3.0m/s | -2.8°C | 0% | 0hPa | 0V | 00:00:00 | 00:00:00 | 00:00:00 | |
| SPACE-12 | 2026-09-05 13:40:53 | 51.09072 | 19.08020 | 94° | 88km/h | 3427m | -3.0m/s | -2.8°C | 0% | 0hPa | 0V | 00:00:00 | 00:00:00 | 00:00:00 | |
| SPACE-12 | 2026-09-05 13:40:51 | 51.09074 | 19.07949 | 95° | 88km/h | 3433m | -3.0m/s | -2.8°C | 0% | 0hPa | 0V | 00:00:00 | 00:00:00 | 00:00:00 | |
| SPACE-12 | 2026-09-05 13:40:50 | 51.09076 | 19.07914 | 97° | 88km/h | 3436m | -3.0m/s | -2.9°C | 0% | 0hPa | 0V | 00:00:00 | 00:00:00 | 00:00:00 | |
| SPACE-12 | 2026-09-05 13:40:48 | 51.09081 | 19.07843 | 98° | 88km/h | 3442m | -3.1m/s | -3.0°C | 0% | 0hPa | 0V | 00:00:00 | 00:00:00 | 00:00:00 | |
| SPACE-12 | 2026-09-05 13:40:46 | 51.09086 | 19.07774 | 98° | 86km/h | 3448m | -3.1m/s | -3.0°C | 0% | 0hPa | 0V | 00:00:00 | 00:00:00 | 00:00:00 | |
| SPACE-12 | 2026-09-05 13:40:44 | 51.09092 | 19.07705 | 99° | 84km/h | 3454m | -3.1m/s | -3.1°C | 0% | 0hPa | 0V | 00:00:00 | 00:00:00 | 00:00:00 | |
| SPACE-12 | 2026-09-05 13:40:42 | 51.09098 | 19.07638 | 100° | 82km/h | 3460m | -3.3m/s | -3.2°C | 0% | 0hPa | 0V | 00:00:00 | 00:00:00 | 00:00:00 | |
| SPACE-12 | 2026-09-05 13:40:40 | 51.09104 | 19.07573 | 100° | 80km/h | 3466m | -3.2m/s | -3.4°C | 0% | 0hPa | 0V | 00:00:00 | 00:00:00 | 00:00:00 | |
| SPACE-12 | 2026-09-05 13:40:38 | 51.09110 | 19.07510 | 99° | 80km/h | 3473m | -3.2m/s | -3.6°C | 0% | 0hPa | 0V | 00:00:00 | 00:00:00 | 00:00:00 | |
| SPACE-12 | 2026-09-05 13:40:37 | 51.09113 | 19.07478 | 100° | 80km/h | 3476m | -3.2m/s | -3.7°C | 0% | 0hPa | 0V | 00:00:00 | 00:00:00 | 00:00:00 | |
| SPACE-12 | 2026-09-05 13:40:36 | 51.09119 | 19.07415 | 99° | 78km/h | 3483m | -3.1m/s | -3.7°C | 0% | 0hPa | 0V | 00:00:00 | 00:00:00 | 00:00:00 | |
| SPACE-12 | 2026-09-05 13:40:33 | 51.09125 | 19.07353 | 99° | 77km/h | 3489m | -3.2m/s | -3.6°C | 0% | 0hPa | 0V | 00:00:00 | 00:00:00 | 00:00:00 | |
| SPACE-12 | 2026-09-05 13:40:31 | 51.09130 | 19.07292 | 98° | 77km/h | 3496m | -3.3m/s | -3.4°C | 0% | 0hPa | 0V | 00:00:00 | 00:00:00 | 00:00:00 | |
| SPACE-12 | 2026-09-05 13:40:29 | 51.09134 | 19.07232 | 96° | 75km/h | 3503m | -3.2m/s | -3.5°C | 0% | 0hPa | 0V | 00:00:00 | 00:00:00 | 00:00:00 | |
| SPACE-12 | 2026-09-05 13:40:25 | 51.09138 | 19.07110 | 94° | 75km/h | 3517m | -3.5m/s | -3.5°C | 0% | 0hPa | 0V | 00:00:00 | 00:00:00 | 00:00:00 | |
| SPACE-12 | 2026-09-05 13:40:23 | 51.09140 | 19.07048 | 93° | 78km/h | 3524m | -3.4m/s | -3.6°C | 0% | 0hPa | 0V | 00:00:00 | 00:00:00 | 00:00:00 | |
| SPACE-12 | 2026-09-05 13:40:22 | 51.09140 | 19.07017 | 92° | 78km/h | 3528m | -3.5m/s | -3.7°C | 0% | 0hPa | 0V | 00:00:00 | 00:00:00 | 00:00:00 | |
| SPACE-12 | 2026-09-05 13:40:16 | 51.09143 | 19.06826 | 92° | 82km/h | 3549m | -3.6m/s | -3.8°C | 0% | 0hPa | 0V | 00:00:00 | 00:00:00 | 00:00:00 | |
| SPACE-12 | 2026-09-05 13:40:14 | 51.09144 | 19.06760 | 92° | 84km/h | 3556m | -3.4m/s | -3.9°C | 0% | 0hPa | 0V | 00:00:00 | 00:00:00 | 00:00:00 | |
| SPACE-12 | 2026-09-05 13:40:12 | 51.09145 | 19.06692 | 92° | 84km/h | 3563m | -3.4m/s | -3.9°C | 0% | 0hPa | 0V | 00:00:00 | 00:00:00 | 00:00:00 | |
| SPACE-12 | 2026-09-05 13:40:10 | 51.09146 | 19.06625 | 93° | 84km/h | 3570m | -3.4m/s | -4.0°C | 0% | 0hPa | 0V | 00:00:00 | 00:00:00 | 00:00:00 | |
| SPACE-12 | 2026-09-05 13:40:09 | 51.09147 | 19.06590 | 94° | 86km/h | 3573m | -3.5m/s | -4.0°C | 0% | 0hPa | 0V | 00:00:00 | 00:00:00 | 00:00:00 | |
| POL1PZ | 2026-09-05 13:40:06 | 51.09151 | 19.06487 | 95° | 86km/h | 3584m | -3.5m/s | -4.1°C | 0% | 0hPa | 0V | 00:00:00 | 00:00:00 | 00:00:00 | |
| SPACE-12 | 2026-09-05 13:40:03 | 51.09156 | 19.06384 | 96° | 86km/h | 3594m | -3.5m/s | -4.0°C | 0% | 0hPa | 0V | 00:00:00 | 00:00:00 | 00:00:00 | |
| SPACE-12 | 2026-09-05 13:40:01 | 51.09160 | 19.06316 | 97° | 84km/h | 3601m | -3.7m/s | -4.1°C | 0% | 0hPa | 0V | 00:00:00 | 00:00:00 | 00:00:00 | |
| SPACE-12 | 2026-09-05 13:39:59 | 51.09165 | 19.06248 | 97° | 84km/h | 3609m | -3.7m/s | -4.1°C | 0% | 0hPa | 0V | 00:00:00 | 00:00:00 | 00:00:00 | |
| SPACE-12 | 2026-09-05 13:39:57 | 51.09170 | 19.06179 | 98° | 86km/h | 3616m | -3.7m/s | -4.2°C | 0% | 0hPa | 0V | 00:00:00 | 00:00:00 | 00:00:00 | |
| SPACE-12 | 2026-09-05 13:39:56 | 51.09172 | 19.06145 | 98° | 86km/h | 3620m | -3.7m/s | -4.2°C | 0% | 0hPa | 0V | 00:00:00 | 00:00:00 | 00:00:00 | |
| SPACE-12 | 2026-09-05 13:39:54 | 51.09177 | 19.06076 | 97° | 86km/h | 3627m | -3.7m/s | -4.2°C | 0% | 0hPa | 0V | 00:00:00 | 00:00:00 | 00:00:00 | |
| SPACE-12 | 2026-09-05 13:39:52 | 51.09182 | 19.06008 | 97° | 86km/h | 3635m | -3.7m/s | -4.2°C | 0% | 0hPa | 0V | 00:00:00 | 00:00:00 | 00:00:00 | |
| SPACE-12 | 2026-09-05 13:39:50 | 51.09187 | 19.05939 | 99° | 86km/h | 3642m | -3.6m/s | -4.3°C | 0% | 0hPa | 0V | 00:00:00 | 00:00:00 | 00:00:00 | |
| SPACE-12 | 2026-09-05 13:39:48 | 51.09192 | 19.05870 | 97° | 86km/h | 3650m | -3.8m/s | -4.4°C | 0% | 0hPa | 0V | 00:00:00 | 00:00:00 | 00:00:00 | |
| SPACE-12 | 2026-09-05 13:39:46 | 51.09197 | 19.05801 | 97° | 88km/h | 3658m | -3.8m/s | -4.4°C | 0% | 0hPa | 0V | 00:00:00 | 00:00:00 | 00:00:00 | |
| SPACE-12 | 2026-09-05 13:39:44 | 51.09201 | 19.05732 | 97° | 88km/h | 3665m | -3.7m/s | -4.5°C | 0% | 0hPa | 0V | 00:00:00 | 00:00:00 | 00:00:00 | |
| SPACE-12 | 2026-09-05 13:39:42 | 51.09207 | 19.05662 | 98° | 88km/h | 3673m | -3.7m/s | -4.5°C | 0% | 0hPa | 0V | 00:00:00 | 00:00:00 | 00:00:00 | |
| SPACE-12 | 2026-09-05 13:39:41 | 51.09209 | 19.05627 | 98° | 88km/h | 3676m | -3.7m/s | -4.6°C | 0% | 0hPa | 0V | 00:00:00 | 00:00:00 | 00:00:00 | |
| SPACE-12 | 2026-09-05 13:39:39 | 51.09215 | 19.05557 | 98° | 88km/h | 3684m | -3.8m/s | -4.6°C | 0% | 0hPa | 0V | 00:00:00 | 00:00:00 | 00:00:00 | |
| SPACE-12 | 2026-09-05 13:39:37 | 51.09221 | 19.05487 | 97° | 88km/h | 3692m | -3.8m/s | -4.8°C | 0% | 0hPa | 0V | 00:00:00 | 00:00:00 | 00:00:00 | |
| SPACE-12 | 2026-09-05 13:39:36 | 51.09225 | 19.05417 | 97° | 88km/h | 3700m | -3.9m/s | -4.9°C | 0% | 0hPa | 0V | 00:00:00 | 00:00:00 | 00:00:00 | |
| POL1PZ | 2026-09-05 13:39:35 | 51.09225 | 19.05417 | 97° | 88km/h | 3700m | -3.9m/s | -4.9°C | 0% | 0hPa | 0V | 00:00:00 | 00:00:00 | 00:00:00 | |
| SPACE-12 | 2026-09-05 13:39:33 | 51.09229 | 19.05347 | 96° | 88km/h | 3708m | -4.0m/s | -5.0°C | 0% | 0hPa | 0V | 00:00:00 | 00:00:00 | 00:00:00 | |
| SPACE-12 | 2026-09-05 13:39:31 | 51.09233 | 19.05278 | 96° | 86km/h | 3716m | -3.9m/s | -5.1°C | 0% | 0hPa | 0V | 00:00:00 | 00:00:00 | 00:00:00 | |
| SPACE-12 | 2026-09-05 13:39:29 | 51.09237 | 19.05210 | 96° | 84km/h | 3723m | -3.8m/s | -5.1°C | 0% | 0hPa | 0V | 00:00:00 | 00:00:00 | 00:00:00 | |
| SPACE-12 | 2026-09-05 13:39:27 | 51.09241 | 19.05140 | 96° | 88km/h | 3731m | -3.7m/s | -5.2°C | 0% | 0hPa | 0V | 00:00:00 | 00:00:00 | 00:00:00 | |
| SPACE-12 | 2026-09-05 13:39:26 | 51.09243 | 19.05106 | 96° | 88km/h | 3735m | -3.7m/s | -5.2°C | 0% | 0hPa | 0V | 00:00:00 | 00:00:00 | 00:00:00 | |
| SPACE-12 | 2026-09-05 13:39:24 | 51.09247 | 19.05037 | 96° | 86km/h | 3742m | -3.8m/s | -5.3°C | 0% | 0hPa | 0V | 00:00:00 | 00:00:00 | 00:00:00 | |
| SPACE-12 | 2026-09-05 13:39:22 | 51.09250 | 19.04968 | 96° | 86km/h | 3750m | -4.0m/s | -5.4°C | 0% | 0hPa | 0V | 00:00:00 | 00:00:00 | 00:00:00 | |
| SPACE-12 | 2026-09-05 13:39:20 | 51.09254 | 19.04900 | 95° | 86km/h | 3758m | -3.6m/s | -5.5°C | 0% | 0hPa | 0V | 00:00:00 | 00:00:00 | 00:00:00 | |
| SPACE-12 | 2026-09-05 13:39:18 | 51.09257 | 19.04832 | 95° | 86km/h | 3765m | -3.7m/s | -5.6°C | 0% | 0hPa | 0V | 00:00:00 | 00:00:00 | 00:00:00 | |
| SPACE-12 | 2026-09-05 13:39:16 | 51.09260 | 19.04764 | 95° | 84km/h | 3772m | -3.7m/s | -5.6°C | 0% | 0hPa | 0V | 00:00:00 | 00:00:00 | 00:00:00 | |
| POL1PZ | 2026-09-05 13:39:15 | 51.09262 | 19.04730 | 95° | 84km/h | 3776m | -3.7m/s | -5.6°C | 0% | 0hPa | 0V | 00:00:00 | 00:00:00 | 00:00:00 | |
| SPACE-12 | 2026-09-05 13:39:14 | 51.09263 | 19.04696 | 95° | 86km/h | 3780m | -3.6m/s | -5.6°C | 0% | 0hPa | 0V | 00:00:00 | 00:00:00 | 00:00:00 | |
| SPACE-12 | 2026-09-05 13:39:13 | 51.09265 | 19.04662 | 95° | 86km/h | 3783m | -3.6m/s | -5.7°C | 0% | 0hPa | 0V | 00:00:00 | 00:00:00 | 00:00:00 | |
| SPACE-12 | 2026-09-05 13:39:11 | 51.09268 | 19.04593 | 96° | 84km/h | 3790m | -3.9m/s | -5.8°C | 0% | 0hPa | 0V | 00:00:00 | 00:00:00 | 00:00:00 | |
| SPACE-12 | 2026-09-05 13:39:09 | 51.09271 | 19.04526 | 96° | 84km/h | 3798m | -3.9m/s | -5.8°C | 0% | 0hPa | 0V | 00:00:00 | 00:00:00 | 00:00:00 | |
| SPACE-12 | 2026-09-05 13:39:07 | 51.09275 | 19.04458 | 96° | 84km/h | 3806m | -3.8m/s | -5.9°C | 0% | 0hPa | 0V | 00:00:00 | 00:00:00 | 00:00:00 | |
| SPACE-12 | 2026-09-05 13:39:05 | 51.09279 | 19.04389 | 96° | 86km/h | 3813m | -3.7m/s | -5.9°C | 0% | 0hPa | 0V | 00:00:00 | 00:00:00 | 00:00:00 | |
| SPACE-12 | 2026-09-05 13:39:03 | 51.09283 | 19.04321 | 96° | 84km/h | 3821m | -3.6m/s | -6.0°C | 0% | 0hPa | 0V | 00:00:00 | 00:00:00 | 00:00:00 | |
| SPACE-12 | 2026-09-05 13:39:01 | 51.09287 | 19.04253 | 96° | 86km/h | 3828m | -3.8m/s | -6.0°C | 0% | 0hPa | 0V | 00:00:00 | 00:00:00 | 00:00:00 | |
| SPACE-12 | 2026-09-05 13:38:59 | 51.09291 | 19.04184 | 96° | 88km/h | 3836m | -3.7m/s | -6.0°C | 0% | 0hPa | 0V | 00:00:00 | 00:00:00 | 00:00:00 | |
| SPACE-12 | 2026-09-05 13:38:58 | 51.09293 | 19.04149 | 96° | 88km/h | 3839m | -3.9m/s | -6.0°C | 0% | 0hPa | 0V | 00:00:00 | 00:00:00 | 00:00:00 | |
| SPACE-12 | 2026-09-05 13:38:57 | 51.09297 | 19.04081 | 96° | 86km/h | 3847m | -3.7m/s | -6.1°C | 0% | 0hPa | 0V | 00:00:00 | 00:00:00 | 00:00:00 | |
| SPACE-12 | 2026-09-05 13:38:54 | 51.09301 | 19.04013 | 96° | 86km/h | 3854m | -3.6m/s | -6.1°C | 0% | 0hPa | 0V | 00:00:00 | 00:00:00 | 00:00:00 | |
| SPACE-12 | 2026-09-05 13:38:52 | 51.09304 | 19.03944 | 96° | 86km/h | 3862m | -3.6m/s | -6.2°C | 0% | 0hPa | 0V | 00:00:00 | 00:00:00 | 00:00:00 | |
| SPACE-12 | 2026-09-05 13:38:50 | 51.09308 | 19.03877 | 96° | 84km/h | 3869m | -3.6m/s | -6.2°C | 0% | 0hPa | 0V | 00:00:00 | 00:00:00 | 00:00:00 | |
| SPACE-12 | 2026-09-05 13:38:48 | 51.09311 | 19.03810 | 95° | 84km/h | 3876m | -3.7m/s | -6.3°C | 0% | 0hPa | 0V | 00:00:00 | 00:00:00 | 00:00:00 | |
| SPACE-12 | 2026-09-05 13:38:46 | 51.09314 | 19.03743 | 95° | 86km/h | 3883m | -3.5m/s | -6.3°C | 0% | 0hPa | 0V | 00:00:00 | 00:00:00 | 00:00:00 | |
| SPACE-12 | 2026-09-05 13:38:45 | 51.09316 | 19.03709 | 95° | 84km/h | 3887m | -3.5m/s | -6.4°C | 0% | 0hPa | 0V | 00:00:00 | 00:00:00 | 00:00:00 | |
| SPACE-12 | 2026-09-05 13:38:43 | 51.09319 | 19.03641 | 96° | 82km/h | 3894m | -3.5m/s | -6.4°C | 0% | 0hPa | 0V | 00:00:00 | 00:00:00 | 00:00:00 | |
| SPACE-12 | 2026-09-05 13:38:41 | 51.09323 | 19.03575 | 96° | 84km/h | 3901m | -3.5m/s | -6.4°C | 0% | 0hPa | 0V | 00:00:00 | 00:00:00 | 00:00:00 | |
| SPACE-12 | 2026-09-05 13:38:39 | 51.09327 | 19.03508 | 96° | 82km/h | 3908m | -3.5m/s | -6.5°C | 0% | 0hPa | 0V | 00:00:00 | 00:00:00 | 00:00:00 | |
| SPACE-12 | 2026-09-05 13:38:37 | 51.09330 | 19.03442 | 95° | 82km/h | 3915m | -3.7m/s | -6.5°C | 0% | 0hPa | 0V | 00:00:00 | 00:00:00 | 00:00:00 | |
| SPACE-12 | 2026-09-05 13:38:35 | 51.09333 | 19.03376 | 96° | 82km/h | 3922m | -3.5m/s | -6.6°C | 0% | 0hPa | 0V | 00:00:00 | 00:00:00 | 00:00:00 | |
| POL1PZ | 2026-09-05 13:38:34 | 51.09337 | 19.03310 | 96° | 82km/h | 3929m | -3.4m/s | -6.6°C | 0% | 0hPa | 0V | 00:00:00 | 00:00:00 | 00:00:00 | |
| SPACE-12 | 2026-09-05 13:38:33 | 51.09337 | 19.03310 | 96° | 82km/h | 3929m | -3.4m/s | -6.6°C | 0% | 0hPa | 0V | 00:00:00 | 00:00:00 | 00:00:00 | |
| SPACE-12 | 2026-09-05 13:38:32 | 51.09339 | 19.03278 | 97° | 80km/h | 3932m | -3.5m/s | -6.6°C | 0% | 0hPa | 0V | 00:00:00 | 00:00:00 | 00:00:00 | |
| SPACE-12 | 2026-09-05 13:38:30 | 51.09343 | 19.03213 | 97° | 80km/h | 3939m | -3.5m/s | -6.6°C | 0% | 0hPa | 0V | 00:00:00 | 00:00:00 | 00:00:00 | |
| SPACE-12 | 2026-09-05 13:38:28 | 51.09347 | 19.03148 | 96° | 82km/h | 3946m | -3.4m/s | -6.8°C | 0% | 0hPa | 0V | 00:00:00 | 00:00:00 | 00:00:00 | |
| SPACE-12 | 2026-09-05 13:38:26 | 51.09351 | 19.03082 | 96° | 82km/h | 3953m | -3.4m/s | -6.8°C | 0% | 0hPa | 0V | 00:00:00 | 00:00:00 | 00:00:00 | |
| SPACE-12 | 2026-09-05 13:38:24 | 51.09354 | 19.03016 | 97° | 82km/h | 3960m | -3.5m/s | -7.0°C | 0% | 0hPa | 0V | 00:00:00 | 00:00:00 | 00:00:00 | |
| SPACE-12 | 2026-09-05 13:38:22 | 51.09358 | 19.02951 | 97° | 82km/h | 3967m | -3.5m/s | -7.0°C | 0% | 0hPa | 0V | 00:00:00 | 00:00:00 | 00:00:00 | |
| SPACE-12 | 2026-09-05 13:38:20 | 51.09363 | 19.02886 | 98° | 82km/h | 3974m | -3.5m/s | -7.0°C | 0% | 0hPa | 0V | 00:00:00 | 00:00:00 | 00:00:00 | |
| SPACE-12 | 2026-09-05 13:38:18 | 51.09368 | 19.02822 | 97° | 82km/h | 3981m | -3.4m/s | -7.0°C | 0% | 0hPa | 0V | 00:00:00 | 00:00:00 | 00:00:00 | |
| SPACE-12 | 2026-09-05 13:38:17 | 51.09370 | 19.02789 | 96° | 82km/h | 3984m | -3.3m/s | -7.1°C | 0% | 0hPa | 0V | 00:00:00 | 00:00:00 | 00:00:00 | |
| SPACE-12 | 2026-09-05 13:38:15 | 51.09374 | 19.02723 | 96° | 82km/h | 3991m | -3.2m/s | -7.1°C | 0% | 0hPa | 0V | 00:00:00 | 00:00:00 | 00:00:00 | |
| SPACE-12 | 2026-09-05 13:38:14 | 51.09378 | 19.02658 | 98° | 80km/h | 3998m | -3.2m/s | -7.2°C | 0% | 0hPa | 0V | 00:00:00 | 00:00:00 | 00:00:00 | |
| SPACE-12 | 2026-09-05 13:38:11 | 51.09383 | 19.02593 | 96° | 82km/h | 4004m | -3.4m/s | -7.2°C | 0% | 0hPa | 0V | 00:00:00 | 00:00:00 | 00:00:00 | |
| SPACE-12 | 2026-09-05 13:38:09 | 51.09386 | 19.02527 | 96° | 84km/h | 4011m | -3.3m/s | -7.3°C | 0% | 0hPa | 0V | 00:00:00 | 00:00:00 | 00:00:00 | |
| SPACE-12 | 2026-09-05 13:38:07 | 51.09390 | 19.02460 | 96° | 84km/h | 4018m | -3.2m/s | -7.4°C | 0% | 0hPa | 0V | 00:00:00 | 00:00:00 | 00:00:00 | |
| SPACE-12 | 2026-09-05 13:38:06 | 51.09393 | 19.02393 | 95° | 84km/h | 4024m | -3.2m/s | -7.4°C | 0% | 0hPa | 0V | 00:00:00 | 00:00:00 | 00:00:00 | |
| SPACE-12 | 2026-09-05 13:38:03 | 51.09396 | 19.02326 | 95° | 86km/h | 4030m | -3.0m/s | -7.5°C | 0% | 0hPa | 0V | 00:00:00 | 00:00:00 | 00:00:00 | |
| SPACE-12 | 2026-09-05 13:38:02 | 51.09398 | 19.02291 | 95° | 86km/h | 4034m | -3.0m/s | -7.5°C | 0% | 0hPa | 0V | 00:00:00 | 00:00:00 | 00:00:00 | |
| SPACE-12 | 2026-09-05 13:38:00 | 51.09401 | 19.02222 | 95° | 86km/h | 4040m | -3.1m/s | -7.5°C | 0% | 0hPa | 0V | 00:00:00 | 00:00:00 | 00:00:00 | |
| SPACE-12 | 2026-09-05 13:37:58 | 51.09404 | 19.02153 | 95° | 86km/h | 4046m | -3.2m/s | -7.6°C | 0% | 0hPa | 0V | 00:00:00 | 00:00:00 | 00:00:00 | |
| SPACE-12 | 2026-09-05 13:37:56 | 51.09407 | 19.02083 | 95° | 88km/h | 4052m | -3.0m/s | -7.7°C | 0% | 0hPa | 0V | 00:00:00 | 00:00:00 | 00:00:00 | |
| SPACE-12 | 2026-09-05 13:37:54 | 51.09411 | 19.02012 | 97° | 89km/h | 4058m | -2.9m/s | -7.8°C | 0% | 0hPa | 0V | 00:00:00 | 00:00:00 | 00:00:00 | |
| SPACE-12 | 2026-09-05 13:37:52 | 51.09415 | 19.01941 | 97° | 91km/h | 4064m | -3.0m/s | -7.8°C | 0% | 0hPa | 0V | 00:00:00 | 00:00:00 | 00:00:00 | |
| SPACE-12 | 2026-09-05 13:37:50 | 51.09420 | 19.01867 | 98° | 91km/h | 4070m | -2.9m/s | -7.8°C | 0% | 0hPa | 0V | 00:00:00 | 00:00:00 | 00:00:00 | |
| SPACE-12 | 2026-09-05 13:37:49 | 51.09423 | 19.01831 | 98° | 91km/h | 4073m | -2.9m/s | -7.8°C | 0% | 0hPa | 0V | 00:00:00 | 00:00:00 | 00:00:00 | |
| SPACE-12 | 2026-09-05 13:37:48 | 51.09428 | 19.01758 | 98° | 91km/h | 4079m | -2.7m/s | -7.9°C | 0% | 0hPa | 0V | 00:00:00 | 00:00:00 | 00:00:00 | |
| SPACE-12 | 2026-09-05 13:37:46 | 51.09434 | 19.01684 | 98° | 93km/h | 4085m | -2.9m/s | -7.9°C | 0% | 0hPa | 0V | 00:00:00 | 00:00:00 | 00:00:00 | |
| SPACE-12 | 2026-09-05 13:37:43 | 51.09440 | 19.01610 | 99° | 93km/h | 4091m | -2.9m/s | -7.9°C | 0% | 0hPa | 0V | 00:00:00 | 00:00:00 | 00:00:00 | |
| SPACE-12 | 2026-09-05 13:37:41 | 51.09446 | 19.01536 | 99° | 91km/h | 4096m | -2.8m/s | -8.0°C | 0% | 0hPa | 0V | 00:00:00 | 00:00:00 | 00:00:00 | |
| SPACE-12 | 2026-09-05 13:37:39 | 51.09453 | 19.01463 | 100° | 93km/h | 4102m | -2.8m/s | -8.0°C | 0% | 0hPa | 0V | 00:00:00 | 00:00:00 | 00:00:00 | |
| SPACE-12 | 2026-09-05 13:37:37 | 51.09462 | 19.01390 | 102° | 93km/h | 4107m | -2.8m/s | -8.0°C | 0% | 0hPa | 0V | 00:00:00 | 00:00:00 | 00:00:00 | |
| SPACE-12 | 2026-09-05 13:37:35 | 51.09471 | 19.01317 | 101° | 93km/h | 4113m | -2.8m/s | -8.0°C | 0% | 0hPa | 0V | 00:00:00 | 00:00:00 | 00:00:00 | |
| SPACE-12 | 2026-09-05 13:37:34 | 51.09475 | 19.01280 | 102° | 91km/h | 4115m | -2.5m/s | -8.0°C | 0% | 0hPa | 0V | 00:00:00 | 00:00:00 | 00:00:00 | |
| SPACE-12 | 2026-09-05 13:37:33 | 51.09483 | 19.01206 | 102° | 93km/h | 4121m | -2.7m/s | -8.2°C | 0% | 0hPa | 0V | 00:00:00 | 00:00:00 | 00:00:00 | |
| SPACE-12 | 2026-09-05 13:37:31 | 51.09492 | 19.01132 | 104° | 91km/h | 4126m | -3.0m/s | -8.2°C | 0% | 0hPa | 0V | 00:00:00 | 00:00:00 | 00:00:00 | |
| SPACE-12 | 2026-09-05 13:37:28 | 51.09503 | 19.01061 | 104° | 89km/h | 4131m | -2.3m/s | -8.3°C | 0% | 0hPa | 0V | 00:00:00 | 00:00:00 | 00:00:00 | |
| POL1PZ | 2026-09-05 13:37:26 | 51.09518 | 19.00958 | 104° | 84km/h | 4139m | -2.5m/s | -8.3°C | 0% | 0hPa | 0V | 00:00:00 | 00:00:00 | 00:00:00 | |
| SPACE-12 | 2026-09-05 13:37:24 | 51.09522 | 19.00925 | 101° | 84km/h | 4142m | -2.5m/s | -8.3°C | 0% | 0hPa | 0V | 00:00:00 | 00:00:00 | 00:00:00 | |
| SPACE-12 | 2026-09-05 13:37:22 | 51.09529 | 19.00858 | 99° | 86km/h | 4147m | -2.4m/s | -8.0°C | 0% | 0hPa | 0V | 00:00:00 | 00:00:00 | 00:00:00 | |
| SPACE-12 | 2026-09-05 13:37:21 | 51.09532 | 19.00824 | 98° | 88km/h | 4150m | -2.6m/s | -8.2°C | 0% | 0hPa | 0V | 00:00:00 | 00:00:00 | 00:00:00 | |
| SPACE-12 | 2026-09-05 13:37:19 | 51.09539 | 19.00752 | 99° | 91km/h | 4155m | -2.8m/s | -8.2°C | 0% | 0hPa | 0V | 00:00:00 | 00:00:00 | 00:00:00 | |
| SPACE-12 | 2026-09-05 13:37:17 | 51.09546 | 19.00678 | 102° | 95km/h | 4160m | -2.7m/s | -8.2°C | 0% | 0hPa | 0V | 00:00:00 | 00:00:00 | 00:00:00 | |
| SPACE-12 | 2026-09-05 13:37:15 | 51.09555 | 19.00604 | 104° | 93km/h | 4165m | -2.7m/s | -8.5°C | 0% | 0hPa | 0V | 00:00:00 | 00:00:00 | 00:00:00 | |
| SPACE-12 | 2026-09-05 13:37:13 | 51.09566 | 19.00534 | 104° | 86km/h | 4170m | -2.3m/s | -8.5°C | 0% | 0hPa | 0V | 00:00:00 | 00:00:00 | 00:00:00 | |
| SPACE-12 | 2026-09-05 13:37:11 | 51.09575 | 19.00467 | 103° | 86km/h | 4175m | -2.2m/s | -8.4°C | 0% | 0hPa | 0V | 00:00:00 | 00:00:00 | 00:00:00 | |
| SPACE-12 | 2026-09-05 13:37:09 | 51.09583 | 19.00397 | 100° | 93km/h | 4182m | -2.8m/s | -8.6°C | 0% | 0hPa | 0V | 00:00:00 | 00:00:00 | 00:00:00 | |
| SPACE-12 | 2026-09-05 13:37:07 | 51.09590 | 19.00323 | 101° | 97km/h | 4186m | -2.3m/s | -8.4°C | 0% | 0hPa | 0V | 00:00:00 | 00:00:00 | 00:00:00 | |
| SPACE-12 | 2026-09-05 13:37:06 | 51.09593 | 19.00286 | 99° | 91km/h | 4189m | -2.4m/s | -8.6°C | 0% | 0hPa | 0V | 00:00:00 | 00:00:00 | 00:00:00 | |
| SPACE-12 | 2026-09-05 13:37:04 | 51.09601 | 19.00212 | 99° | 89km/h | 4193m | -2.3m/s | -8.4°C | 0% | 0hPa | 0V | 00:00:00 | 00:00:00 | 00:00:00 | |
| POL1PZ | 2026-09-05 13:37:03 | 51.09608 | 19.00138 | 101° | 93km/h | 4199m | -2.9m/s | -8.5°C | 0% | 0hPa | 0V | 00:00:00 | 00:00:00 | 00:00:00 | |
| SPACE-12 | 2026-09-05 13:37:00 | 51.09614 | 19.00064 | 99° | 95km/h | 4203m | -2.6m/s | -8.5°C | 0% | 0hPa | 0V | 00:00:00 | 00:00:00 | 00:00:00 | |
| SPACE-12 | 2026-09-05 13:36:58 | 51.09623 | 18.99988 | 101° | 97km/h | 4208m | -2.5m/s | -8.7°C | 0% | 0hPa | 0V | 00:00:00 | 00:00:00 | 00:00:00 | |
| SPACE-12 | 2026-09-05 13:36:56 | 51.09632 | 18.99912 | 104° | 95km/h | 4213m | -2.5m/s | -8.5°C | 0% | 0hPa | 0V | 00:00:00 | 00:00:00 | 00:00:00 | |
| SPACE-12 | 2026-09-05 13:36:54 | 51.09642 | 18.99837 | 105° | 91km/h | 4218m | -2.4m/s | -8.9°C | 0% | 0hPa | 0V | 00:00:00 | 00:00:00 | 00:00:00 | |
| SPACE-12 | 2026-09-05 13:36:53 | 51.09648 | 18.99801 | 104° | 95km/h | 4221m | -2.5m/s | -9.1°C | 0% | 0hPa | 0V | 00:00:00 | 00:00:00 | 00:00:00 | |
| SPACE-12 | 2026-09-05 13:36:51 | 51.09660 | 18.99728 | 105° | 95km/h | 4225m | -2.4m/s | -8.8°C | 0% | 0hPa | 0V | 00:00:00 | 00:00:00 | 00:00:00 | |
| SPACE-12 | 2026-09-05 13:36:49 | 51.09671 | 18.99656 | 105° | 91km/h | 4230m | -2.2m/s | -8.9°C | 0% | 0hPa | 0V | 00:00:00 | 00:00:00 | 00:00:00 | |
| SPACE-12 | 2026-09-05 13:36:47 | 51.09681 | 18.99585 | 104° | 89km/h | 4235m | -2.3m/s | -8.7°C | 0% | 0hPa | 0V | 00:00:00 | 00:00:00 | 00:00:00 | |
| SPACE-12 | 2026-09-05 13:36:45 | 51.09690 | 18.99513 | 100° | 93km/h | 4239m | -2.7m/s | -8.7°C | 0% | 0hPa | 0V | 00:00:00 | 00:00:00 | 00:00:00 | |
| SPACE-12 | 2026-09-05 13:36:43 | 51.09700 | 18.99437 | 105° | 99km/h | 4244m | -2.2m/s | -8.7°C | 0% | 0hPa | 0V | 00:00:00 | 00:00:00 | 00:00:00 | |
| POL1PZ | 2026-09-05 13:36:42 | 51.09706 | 18.99398 | 104° | 99km/h | 4246m | -2.4m/s | -8.5°C | 0% | 0hPa | 0V | 00:00:00 | 00:00:00 | 00:00:00 | |
| SPACE-12 | 2026-09-05 13:36:41 | 51.09711 | 18.99359 | 104° | 100km/h | 4248m | -2.0m/s | -8.4°C | 0% | 0hPa | 0V | 00:00:00 | 00:00:00 | 00:00:00 | |
| SPACE-12 | 2026-09-05 13:36:39 | 51.09722 | 18.99282 | 105° | 97km/h | 4253m | -2.4m/s | -8.9°C | 0% | 0hPa | 0V | 00:00:00 | 00:00:00 | 00:00:00 | |
| SPACE-12 | 2026-09-05 13:36:38 | 51.09727 | 18.99243 | 102° | 99km/h | 4255m | -2.3m/s | -8.5°C | 0% | 0hPa | 0V | 00:00:00 | 00:00:00 | 00:00:00 | |
| SPACE-12 | 2026-09-05 13:36:36 | 51.09738 | 18.99164 | 102° | 100km/h | 4259m | -2.4m/s | -8.1°C | 0% | 0hPa | 0V | 00:00:00 | 00:00:00 | 00:00:00 | |
| SPACE-12 | 2026-09-05 13:36:34 | 51.09749 | 18.99086 | 105° | 99km/h | 4264m | -1.9m/s | -8.3°C | 0% | 0hPa | 0V | 00:00:00 | 00:00:00 | 00:00:00 | |
| SPACE-12 | 2026-09-05 13:36:32 | 51.09762 | 18.99008 | 106° | 99km/h | 4268m | -1.7m/s | -9.0°C | 0% | 0hPa | 0V | 00:00:00 | 00:00:00 | 00:00:00 | |
| SPACE-12 | 2026-09-05 13:36:30 | 51.09774 | 18.98934 | 104° | 93km/h | 4273m | -2.3m/s | -9.0°C | 0% | 0hPa | 0V | 00:00:00 | 00:00:00 | 00:00:00 | |
| SPACE-12 | 2026-09-05 13:36:28 | 51.09785 | 18.98862 | 104° | 93km/h | 4277m | -2.0m/s | -8.3°C | 0% | 0hPa | 0V | 00:00:00 | 00:00:00 | 00:00:00 | |
| SPACE-12 | 2026-09-05 13:36:26 | 51.09796 | 18.98789 | 103° | 93km/h | 4281m | -2.0m/s | -7.8°C | 0% | 0hPa | 0V | 00:00:00 | 00:00:00 | 00:00:00 | |
| SPACE-12 | 2026-09-05 13:36:25 | 51.09801 | 18.98752 | 102° | 95km/h | 4283m | -1.9m/s | -7.5°C | 0% | 0hPa | 0V | 00:00:00 | 00:00:00 | 00:00:00 | |
| SPACE-12 | 2026-09-05 13:36:24 | 51.09810 | 18.98678 | 102° | 95km/h | 4288m | -2.0m/s | -8.0°C | 0% | 0hPa | 0V | 00:00:00 | 00:00:00 | 00:00:00 | |
| SPACE-12 | 2026-09-05 13:36:22 | 51.09819 | 18.98603 | 101° | 102km/h | 4292m | -2.1m/s | -8.6°C | 0% | 0hPa | 0V | 00:00:00 | 00:00:00 | 00:00:00 | |
| SPACE-12 | 2026-09-05 13:36:19 | 51.09829 | 18.98525 | 104° | 100km/h | 4296m | -1.9m/s | -9.2°C | 0% | 0hPa | 0V | 00:00:00 | 00:00:00 | 00:00:00 | |
| SPACE-12 | 2026-09-05 13:36:17 | 51.09841 | 18.98447 | 105° | 100km/h | 4300m | -2.0m/s | -9.1°C | 0% | 0hPa | 0V | 00:00:00 | 00:00:00 | 00:00:00 | |
| SPACE-12 | 2026-09-05 13:36:16 | 51.09853 | 18.98373 | 106° | 93km/h | 4304m | -2.3m/s | -9.2°C | 0% | 0hPa | 0V | 00:00:00 | 00:00:00 | 00:00:00 | |
| SPACE-12 | 2026-09-05 13:36:13 | 51.09865 | 18.98301 | 106° | 95km/h | 4308m | -2.2m/s | -9.1°C | 0% | 0hPa | 0V | 00:00:00 | 00:00:00 | 00:00:00 | |
| SPACE-12 | 2026-09-05 13:36:11 | 51.09877 | 18.98229 | 106° | 89km/h | 4313m | -1.8m/s | -8.8°C | 0% | 0hPa | 0V | 00:00:00 | 00:00:00 | 00:00:00 | |
| SPACE-12 | 2026-09-05 13:36:10 | 51.09883 | 18.98194 | 103° | 91km/h | 4314m | -2.0m/s | -8.6°C | 0% | 0hPa | 0V | 00:00:00 | 00:00:00 | 00:00:00 | |
| SPACE-12 | 2026-09-05 13:36:08 | 51.09892 | 18.98122 | 101° | 91km/h | 4319m | -2.4m/s | -7.5°C | 0% | 0hPa | 0V | 00:00:00 | 00:00:00 | 00:00:00 | |
| SPACE-12 | 2026-09-05 13:36:06 | 51.09901 | 18.98049 | 100° | 95km/h | 4324m | -2.0m/s | -6.5°C | 0% | 0hPa | 0V | 00:00:00 | 00:00:00 | 00:00:00 | |
| SPACE-12 | 2026-09-05 13:36:04 | 51.09912 | 18.97973 | 104° | 95km/h | 4328m | -2.6m/s | -6.9°C | 0% | 0hPa | 0V | 00:00:00 | 00:00:00 | 00:00:00 | |
| SPACE-12 | 2026-09-05 13:36:03 | 51.09922 | 18.97897 | 105° | 95km/h | 4332m | -2.0m/s | -7.2°C | 0% | 0hPa | 0V | 00:00:00 | 00:00:00 | 00:00:00 | |
| POL1PZ | 2026-09-05 13:36:01 | 51.09927 | 18.97859 | 101° | 97km/h | 4334m | -1.8m/s | -7.4°C | 0% | 0hPa | 0V | 00:00:00 | 00:00:00 | 00:00:00 | |
| SPACE-12 | 2026-09-05 13:36:00 | 51.09932 | 18.97821 | 101° | 97km/h | 4336m | -2.4m/s | -7.6°C | 0% | 0hPa | 0V | 00:00:00 | 00:00:00 | 00:00:00 | |
| SPACE-12 | 2026-09-05 13:35:57 | 51.09947 | 18.97705 | 102° | 99km/h | 4343m | -2.1m/s | -9.0°C | 0% | 0hPa | 0V | 00:00:00 | 00:00:00 | 00:00:00 | |
| SPACE-12 | 2026-09-05 13:35:56 | 51.09957 | 18.97627 | 103° | 99km/h | 4346m | -1.8m/s | -8.7°C | 0% | 0hPa | 0V | 00:00:00 | 00:00:00 | 00:00:00 | |
| SPACE-12 | 2026-09-05 13:35:54 | 51.09966 | 18.97552 | 103° | 99km/h | 4350m | -2.0m/s | -8.3°C | 0% | 0hPa | 0V | 00:00:00 | 00:00:00 | 00:00:00 | |
| SPACE-12 | 2026-09-05 13:35:51 | 51.09976 | 18.97474 | 105° | 100km/h | 4354m | -2.0m/s | -7.6°C | 0% | 0hPa | 0V | 00:00:00 | 00:00:00 | 00:00:00 | |
| SPACE-12 | 2026-09-05 13:35:50 | 51.09989 | 18.97396 | 107° | 99km/h | 4358m | -2.0m/s | -8.0°C | 0% | 0hPa | 0V | 00:00:00 | 00:00:00 | 00:00:00 | |
| SPACE-12 | 2026-09-05 13:35:47 | 51.10002 | 18.97318 | 106° | 100km/h | 4362m | -1.9m/s | -8.3°C | 0% | 0hPa | 0V | 00:00:00 | 00:00:00 | 00:00:00 | |
| SPACE-12 | 2026-09-05 13:35:46 | 51.10015 | 18.97240 | 105° | 100km/h | 4366m | -1.9m/s | -8.7°C | 0% | 0hPa | 0V | 00:00:00 | 00:00:00 | 00:00:00 | |
| SPACE-12 | 2026-09-05 13:35:44 | 51.10021 | 18.97202 | 107° | 99km/h | 4368m | -1.9m/s | -9.2°C | 0% | 0hPa | 0V | 00:00:00 | 00:00:00 | 00:00:00 | |
| SPACE-12 | 2026-09-05 13:35:43 | 51.10035 | 18.97125 | 107° | 99km/h | 4372m | -2.5m/s | -9.6°C | 0% | 0hPa | 0V | 00:00:00 | 00:00:00 | 00:00:00 | |
| SPACE-12 | 2026-09-05 13:35:41 | 51.10049 | 18.97050 | 108° | 95km/h | 4376m | -1.8m/s | -9.6°C | 0% | 0hPa | 0V | 00:00:00 | 00:00:00 | 00:00:00 | |
| POL1PZ | 2026-09-05 13:35:40 | 51.10049 | 18.97050 | 108° | 95km/h | 4376m | -1.8m/s | -9.6°C | 0% | 0hPa | 0V | 00:00:00 | 00:00:00 | 00:00:00 | |
| SPACE-12 | 2026-09-05 13:35:38 | 51.10062 | 18.96977 | 108° | 95km/h | 4380m | -1.9m/s | -9.6°C | 0% | 0hPa | 0V | 00:00:00 | 00:00:00 | 00:00:00 | |
| SPACE-12 | 2026-09-05 13:35:36 | 51.10075 | 18.96905 | 102° | 93km/h | 4385m | -2.2m/s | -9.3°C | 0% | 0hPa | 0V | 00:00:00 | 00:00:00 | 00:00:00 | |
| SPACE-12 | 2026-09-05 13:35:34 | 51.10085 | 18.96832 | 103° | 91km/h | 4389m | -1.8m/s | -9.2°C | 0% | 0hPa | 0V | 00:00:00 | 00:00:00 | 00:00:00 | |
| SPACE-12 | 2026-09-05 13:35:33 | 51.10095 | 18.96756 | 102° | 95km/h | 4392m | -2.0m/s | -9.2°C | 0% | 0hPa | 0V | 00:00:00 | 00:00:00 | 00:00:00 | |
| SPACE-12 | 2026-09-05 13:35:30 | 51.10105 | 18.96680 | 104° | 100km/h | 4396m | -1.9m/s | -9.6°C | 0% | 0hPa | 0V | 00:00:00 | 00:00:00 | 00:00:00 | |
| SPACE-12 | 2026-09-05 13:35:29 | 51.10110 | 18.96641 | 103° | 99km/h | 4398m | -2.2m/s | -9.6°C | 0% | 0hPa | 0V | 00:00:00 | 00:00:00 | 00:00:00 | |
| SPACE-12 | 2026-09-05 13:35:27 | 51.10122 | 18.96563 | 107° | 99km/h | 4402m | -2.1m/s | -9.4°C | 0% | 0hPa | 0V | 00:00:00 | 00:00:00 | 00:00:00 | |
| SPACE-12 | 2026-09-05 13:35:26 | 51.10135 | 18.96487 | 107° | 97km/h | 4406m | -2.0m/s | -9.5°C | 0% | 0hPa | 0V | 00:00:00 | 00:00:00 | 00:00:00 | |
| SPACE-12 | 2026-09-05 13:35:23 | 51.10149 | 18.96412 | 107° | 95km/h | 4410m | -2.2m/s | -9.7°C | 0% | 0hPa | 0V | 00:00:00 | 00:00:00 | 00:00:00 | |
| SPACE-12 | 2026-09-05 13:35:21 | 51.10162 | 18.96339 | 107° | 95km/h | 4414m | -2.2m/s | -10.1°C | 0% | 0hPa | 0V | 00:00:00 | 00:00:00 | 00:00:00 | |
| SPACE-12 | 2026-09-05 13:35:19 | 51.10175 | 18.96267 | 106° | 91km/h | 4417m | -1.9m/s | -10.0°C | 0% | 0hPa | 0V | 00:00:00 | 00:00:00 | 00:00:00 | |
| SPACE-12 | 2026-09-05 13:35:17 | 51.10185 | 18.96193 | 102° | 97km/h | 4422m | -1.8m/s | -10.0°C | 0% | 0hPa | 0V | 00:00:00 | 00:00:00 | 00:00:00 | |
| SPACE-12 | 2026-09-05 13:35:16 | 51.10190 | 18.96156 | 102° | 95km/h | 4424m | -2.2m/s | -9.9°C | 0% | 0hPa | 0V | 00:00:00 | 00:00:00 | 00:00:00 | |
| SPACE-12 | 2026-09-05 13:35:14 | 51.10201 | 18.96079 | 103° | 100km/h | 4428m | -2.0m/s | -10.2°C | 0% | 0hPa | 0V | 00:00:00 | 00:00:00 | 00:00:00 | |
| SPACE-12 | 2026-09-05 13:35:13 | 51.10212 | 18.96000 | 105° | 95km/h | 4432m | -2.0m/s | -10.4°C | 0% | 0hPa | 0V | 00:00:00 | 00:00:00 | 00:00:00 | |
| SPACE-12 | 2026-09-05 13:35:10 | 51.10224 | 18.95927 | 105° | 95km/h | 4436m | -2.3m/s | -10.1°C | 0% | 0hPa | 0V | 00:00:00 | 00:00:00 | 00:00:00 | |
| SPACE-12 | 2026-09-05 13:35:08 | 51.10236 | 18.95853 | 103° | 95km/h | 4440m | -1.8m/s | -10.0°C | 0% | 0hPa | 0V | 00:00:00 | 00:00:00 | 00:00:00 | |
| SPACE-12 | 2026-09-05 13:35:06 | 51.10246 | 18.95779 | 105° | 95km/h | 4444m | -2.5m/s | -10.0°C | 0% | 0hPa | 0V | 00:00:00 | 00:00:00 | 00:00:00 | |
| SPACE-12 | 2026-09-05 13:35:04 | 51.10258 | 18.95706 | 106° | 93km/h | 4449m | -2.2m/s | -9.9°C | 0% | 0hPa | 0V | 00:00:00 | 00:00:00 | 00:00:00 | |
| SPACE-12 | 2026-09-05 13:35:02 | 51.10268 | 18.95631 | 102° | 99km/h | 4454m | -1.8m/s | -9.8°C | 0% | 0hPa | 0V | 00:00:00 | 00:00:00 | 00:00:00 | |
| SPACE-12 | 2026-09-05 13:35:01 | 51.10272 | 18.95593 | 102° | 93km/h | 4456m | -1.9m/s | -9.6°C | 0% | 0hPa | 0V | 00:00:00 | 00:00:00 | 00:00:00 | |
| SPACE-12 | 2026-09-05 13:34:59 | 51.10281 | 18.95518 | 103° | 102km/h | 4460m | -2.0m/s | -9.6°C | 0% | 0hPa | 0V | 00:00:00 | 00:00:00 | 00:00:00 | |
| SPACE-12 | 2026-09-05 13:34:55 | 51.10301 | 18.95359 | 105° | 102km/h | 4468m | -1.7m/s | -9.7°C | 0% | 0hPa | 0V | 00:00:00 | 00:00:00 | 00:00:00 | |
| SPACE-12 | 2026-09-05 13:34:54 | 51.10308 | 18.95320 | 104° | 99km/h | 4470m | -2.5m/s | -10.2°C | 0% | 0hPa | 0V | 00:00:00 | 00:00:00 | 00:00:00 | |
| SPACE-12 | 2026-09-05 13:34:53 | 51.10319 | 18.95242 | 105° | 100km/h | 4474m | -2.0m/s | -10.3°C | 0% | 0hPa | 0V | 00:00:00 | 00:00:00 | 00:00:00 | |
| SPACE-12 | 2026-09-05 13:34:51 | 51.10325 | 18.95203 | 106° | 99km/h | 4476m | -1.9m/s | -10.5°C | 0% | 0hPa | 0V | 00:00:00 | 00:00:00 | 00:00:00 | |
| SPACE-12 | 2026-09-05 13:34:49 | 51.10339 | 18.95125 | 107° | 99km/h | 4480m | -2.0m/s | -10.6°C | 0% | 0hPa | 0V | 00:00:00 | 00:00:00 | 00:00:00 | |
| SPACE-12 | 2026-09-05 13:34:47 | 51.10352 | 18.95050 | 107° | 99km/h | 4484m | -1.9m/s | -10.5°C | 0% | 0hPa | 0V | 00:00:00 | 00:00:00 | 00:00:00 | |
| SPACE-12 | 2026-09-05 13:34:46 | 51.10359 | 18.95012 | 107° | 100km/h | 4486m | -1.8m/s | -10.5°C | 0% | 0hPa | 0V | 00:00:00 | 00:00:00 | 00:00:00 | |
| SPACE-12 | 2026-09-05 13:34:45 | 51.10373 | 18.94935 | 106° | 100km/h | 4490m | -1.7m/s | -10.6°C | 0% | 0hPa | 0V | 00:00:00 | 00:00:00 | 00:00:00 | |
| SPACE-12 | 2026-09-05 13:34:43 | 51.10385 | 18.94861 | 107° | 95km/h | 4494m | -1.7m/s | -10.8°C | 0% | 0hPa | 0V | 00:00:00 | 00:00:00 | 00:00:00 | |
| SPACE-12 | 2026-09-05 13:34:40 | 51.10395 | 18.94786 | 102° | 95km/h | 4499m | -2.3m/s | -10.7°C | 0% | 0hPa | 0V | 00:00:00 | 00:00:00 | 00:00:00 | |
| SPACE-12 | 2026-09-05 13:34:39 | 51.10404 | 18.94710 | 101° | 99km/h | 4503m | -2.3m/s | -10.6°C | 0% | 0hPa | 0V | 00:00:00 | 00:00:00 | 00:00:00 | |
| SPACE-12 | 2026-09-05 13:34:35 | 51.10418 | 18.94553 | 102° | 100km/h | 4511m | -2.2m/s | -10.6°C | 0% | 0hPa | 0V | 00:00:00 | 00:00:00 | 00:00:00 | |
| POL1PZ | 2026-09-05 13:34:33 | 51.10427 | 18.94514 | 101° | 100km/h | 4513m | -2.1m/s | -11.0°C | 0% | 0hPa | 0V | 00:00:00 | 00:00:00 | 00:00:00 | |
| SPACE-12 | 2026-09-05 13:34:31 | 51.10443 | 18.94394 | 105° | 100km/h | 4520m | -2.3m/s | -10.8°C | 0% | 0hPa | 0V | 00:00:00 | 00:00:00 | 00:00:00 | |
| SPACE-12 | 2026-09-05 13:34:27 | 51.10467 | 18.94236 | 104° | 97km/h | 4528m | -2.5m/s | -11.0°C | 0% | 0hPa | 0V | 00:00:00 | 00:00:00 | 00:00:00 | |
| SPACE-12 | 2026-09-05 13:34:25 | 51.10472 | 18.94198 | 105° | 100km/h | 4531m | -2.3m/s | -11.1°C | 0% | 0hPa | 0V | 00:00:00 | 00:00:00 | 00:00:00 | |
| SPACE-12 | 2026-09-05 13:34:23 | 51.10485 | 18.94121 | 107° | 95km/h | 4535m | -2.0m/s | -11.2°C | 0% | 0hPa | 0V | 00:00:00 | 00:00:00 | 00:00:00 | |
| SPACE-12 | 2026-09-05 13:34:21 | 51.10498 | 18.94044 | 106° | 97km/h | 4539m | -2.3m/s | -11.4°C | 0% | 0hPa | 0V | 00:00:00 | 00:00:00 | 00:00:00 | |
| SPACE-12 | 2026-09-05 13:34:19 | 51.10510 | 18.93970 | 105° | 95km/h | 4545m | -2.6m/s | -11.4°C | 0% | 0hPa | 0V | 00:00:00 | 00:00:00 | 00:00:00 | |
| SPACE-12 | 2026-09-05 13:34:18 | 51.10517 | 18.93933 | 107° | 97km/h | 4547m | -2.1m/s | -11.4°C | 0% | 0hPa | 0V | 00:00:00 | 00:00:00 | 00:00:00 | |
| SPACE-12 | 2026-09-05 13:34:16 | 51.10528 | 18.93860 | 104° | 93km/h | 4552m | -2.6m/s | -11.4°C | 0% | 0hPa | 0V | 00:00:00 | 00:00:00 | 00:00:00 | |
| SPACE-12 | 2026-09-05 13:34:14 | 51.10538 | 18.93787 | 102° | 93km/h | 4556m | -2.2m/s | -11.2°C | 0% | 0hPa | 0V | 00:00:00 | 00:00:00 | 00:00:00 | |
| SPACE-12 | 2026-09-05 13:34:13 | 51.10543 | 18.93751 | 102° | 91km/h | 4558m | -2.2m/s | -11.2°C | 0% | 0hPa | 0V | 00:00:00 | 00:00:00 | 00:00:00 | |
| SPACE-12 | 2026-09-05 13:34:12 | 51.10552 | 18.93674 | 102° | 99km/h | 4563m | -2.2m/s | -11.4°C | 0% | 0hPa | 0V | 00:00:00 | 00:00:00 | 00:00:00 | |
| SPACE-12 | 2026-09-05 13:34:06 | 51.10584 | 18.93446 | 105° | 93km/h | 4577m | -2.2m/s | -10.9°C | 0% | 0hPa | 0V | 00:00:00 | 00:00:00 | 00:00:00 | |
| SPACE-12 | 2026-09-05 13:34:03 | 51.10594 | 18.93375 | 104° | 89km/h | 4581m | -2.4m/s | -10.9°C | 0% | 0hPa | 0V | 00:00:00 | 00:00:00 | 00:00:00 | |
| SPACE-12 | 2026-09-05 13:33:59 | 51.10610 | 18.93227 | 99° | 93km/h | 4590m | -2.7m/s | -11.5°C | 0% | 0hPa | 0V | 00:00:00 | 00:00:00 | 00:00:00 | |
| SPACE-12 | 2026-09-05 13:33:57 | 51.10619 | 18.93150 | 104° | 97km/h | 4595m | -2.5m/s | -11.6°C | 0% | 0hPa | 0V | 00:00:00 | 00:00:00 | 00:00:00 | |
| SPACE-12 | 2026-09-05 13:33:55 | 51.10629 | 18.93074 | 105° | 93km/h | 4601m | -2.5m/s | -11.8°C | 0% | 0hPa | 0V | 00:00:00 | 00:00:00 | 00:00:00 | |
| SP6BVK | 2026-09-05 13:33:53 | 51.10645 | 18.92966 | 104° | 91km/h | 4609m | -2.4m/s | 0°C | 0% | 0hPa | 0V | 00:00:00 | 00:00:00 | 00:00:00 | |
| SPACE-12 | 2026-09-05 13:33:51 | 51.10650 | 18.92930 | 102° | 89km/h | 4611m | -2.7m/s | -11.9°C | 0% | 0hPa | 0V | 00:00:00 | 00:00:00 | 00:00:00 | |
| SPACE-12 | 2026-09-05 13:33:50 | 51.10654 | 18.92895 | 100° | 89km/h | 4614m | -2.3m/s | -11.8°C | 0% | 0hPa | 0V | 00:00:00 | 00:00:00 | 00:00:00 | |
| SPACE-12 | 2026-09-05 13:33:48 | 51.10661 | 18.92823 | 99° | 89km/h | 4619m | -2.2m/s | -11.7°C | 0% | 0hPa | 0V | 00:00:00 | 00:00:00 | 00:00:00 | |
| SPACE-12 | 2026-09-05 13:33:46 | 51.10669 | 18.92748 | 100° | 97km/h | 4624m | -2.7m/s | -11.6°C | 0% | 0hPa | 0V | 00:00:00 | 00:00:00 | 00:00:00 | |
| SPACE-12 | 2026-09-05 13:33:44 | 51.10678 | 18.92672 | 103° | 97km/h | 4629m | -2.2m/s | -11.7°C | 0% | 0hPa | 0V | 00:00:00 | 00:00:00 | 00:00:00 | |
| SPACE-12 | 2026-09-05 13:33:42 | 51.10688 | 18.92598 | 104° | 95km/h | 4634m | -2.6m/s | -11.8°C | 0% | 0hPa | 0V | 00:00:00 | 00:00:00 | 00:00:00 | |
| SPACE-12 | 2026-09-05 13:33:40 | 51.10697 | 18.92526 | 100° | 88km/h | 4639m | -2.4m/s | -11.9°C | 0% | 0hPa | 0V | 00:00:00 | 00:00:00 | 00:00:00 | |
| SPACE-12 | 2026-09-05 13:33:38 | 51.10704 | 18.92456 | 100° | 86km/h | 4644m | -2.8m/s | -11.5°C | 0% | 0hPa | 0V | 00:00:00 | 00:00:00 | 00:00:00 | |
| SPACE-12 | 2026-09-05 13:33:37 | 51.10707 | 18.92420 | 98° | 91km/h | 4646m | -2.6m/s | -11.3°C | 0% | 0hPa | 0V | 00:00:00 | 00:00:00 | 00:00:00 | |
| POL1PZ | 2026-09-05 13:33:36 | 51.10713 | 18.92348 | 100° | 88km/h | 4652m | -3.1m/s | -11.7°C | 0% | 0hPa | 0V | 00:00:00 | 00:00:00 | 00:00:00 | |
| SPACE-12 | 2026-09-05 13:33:35 | 51.10713 | 18.92348 | 100° | 88km/h | 4652m | -3.1m/s | -11.7°C | 0% | 0hPa | 0V | 00:00:00 | 00:00:00 | 00:00:00 | |
| SPACE-12 | 2026-09-05 13:33:33 | 51.10719 | 18.92277 | 97° | 93km/h | 4657m | -2.6m/s | -11.9°C | 0% | 0hPa | 0V | 00:00:00 | 00:00:00 | 00:00:00 | |
| SPACE-12 | 2026-09-05 13:33:31 | 51.10726 | 18.92205 | 100° | 89km/h | 4663m | -2.5m/s | -12.0°C | 0% | 0hPa | 0V | 00:00:00 | 00:00:00 | 00:00:00 | |
| SPACE-12 | 2026-09-05 13:33:29 | 51.10733 | 18.92136 | 99° | 88km/h | 4669m | -2.9m/s | -11.8°C | 0% | 0hPa | 0V | 00:00:00 | 00:00:00 | 00:00:00 | |
| SPACE-12 | 2026-09-05 13:33:27 | 51.10739 | 18.92065 | 98° | 89km/h | 4675m | -2.6m/s | -11.9°C | 0% | 0hPa | 0V | 00:00:00 | 00:00:00 | 00:00:00 | |
| SPACE-12 | 2026-09-05 13:33:25 | 51.10744 | 18.91994 | 98° | 91km/h | 4681m | -2.5m/s | -11.7°C | 0% | 0hPa | 0V | 00:00:00 | 00:00:00 | 00:00:00 | |
| SPACE-12 | 2026-09-05 13:33:23 | 51.10751 | 18.91919 | 100° | 95km/h | 4686m | -2.8m/s | -11.9°C | 0% | 0hPa | 0V | 00:00:00 | 00:00:00 | 00:00:00 | |
| SPACE-12 | 2026-09-05 13:33:22 | 51.10755 | 18.91881 | 100° | 97km/h | 4689m | -2.9m/s | -11.9°C | 0% | 0hPa | 0V | 00:00:00 | 00:00:00 | 00:00:00 | |
| SPACE-12 | 2026-09-05 13:33:20 | 51.10763 | 18.91806 | 102° | 93km/h | 4695m | -2.9m/s | -12.1°C | 0% | 0hPa | 0V | 00:00:00 | 00:00:00 | 00:00:00 | |
| SPACE-12 | 2026-09-05 13:33:18 | 51.10773 | 18.91734 | 104° | 91km/h | 4701m | -2.8m/s | -12.1°C | 0% | 0hPa | 0V | 00:00:00 | 00:00:00 | 00:00:00 | |
| SPACE-12 | 2026-09-05 13:33:16 | 51.10781 | 18.91663 | 101° | 88km/h | 4706m | -3.6m/s | -11.7°C | 0% | 0hPa | 0V | 00:00:00 | 00:00:00 | 00:00:00 | |
| POL1PZ | 2026-09-05 13:33:15 | 51.10785 | 18.91628 | 101° | 89km/h | 4709m | -3.0m/s | -11.7°C | 0% | 0hPa | 0V | 00:00:00 | 00:00:00 | 00:00:00 | |
| SPACE-12 | 2026-09-05 13:33:14 | 51.10788 | 18.91593 | 97° | 88km/h | 4713m | -2.8m/s | -11.5°C | 0% | 0hPa | 0V | 00:00:00 | 00:00:00 | 00:00:00 | |
| SPACE-12 | 2026-09-05 13:33:12 | 51.10794 | 18.91519 | 99° | 93km/h | 4719m | -3.0m/s | -11.7°C | 0% | 0hPa | 0V | 00:00:00 | 00:00:00 | 00:00:00 | |
| SPACE-12 | 2026-09-05 13:33:11 | 51.10800 | 18.91446 | 98° | 93km/h | 4725m | -3.2m/s | -12.3°C | 0% | 0hPa | 0V | 00:00:00 | 00:00:00 | 00:00:00 | |
| SPACE-12 | 2026-09-05 13:33:09 | 51.10802 | 18.91409 | 98° | 93km/h | 4728m | -2.5m/s | -12.4°C | 0% | 0hPa | 0V | 00:00:00 | 00:00:00 | 00:00:00 | |
| SPACE-12 | 2026-09-05 13:33:07 | 51.10810 | 18.91334 | 102° | 95km/h | 4733m | -2.9m/s | -12.2°C | 0% | 0hPa | 0V | 00:00:00 | 00:00:00 | 00:00:00 | |
| SPACE-12 | 2026-09-05 13:33:05 | 51.10818 | 18.91258 | 102° | 95km/h | 4739m | -2.8m/s | -12.1°C | 0% | 0hPa | 0V | 00:00:00 | 00:00:00 | 00:00:00 | |
| SPACE-12 | 2026-09-05 13:33:04 | 51.10823 | 18.91222 | 102° | 88km/h | 4742m | -2.7m/s | -12.2°C | 0% | 0hPa | 0V | 00:00:00 | 00:00:00 | 00:00:00 | |
| SPACE-12 | 2026-09-05 13:33:01 | 51.10835 | 18.91117 | 98° | 95km/h | 4751m | -2.8m/s | -12.1°C | 0% | 0hPa | 0V | 00:00:00 | 00:00:00 | 00:00:00 | |
| SPACE-12 | 2026-09-05 13:32:59 | 51.10842 | 18.91041 | 100° | 91km/h | 4757m | -3.1m/s | -12.0°C | 0% | 0hPa | 0V | 00:00:00 | 00:00:00 | 00:00:00 | |
| SPACE-12 | 2026-09-05 13:32:57 | 51.10850 | 18.90966 | 100° | 97km/h | 4763m | -3.5m/s | -12.6°C | 0% | 0hPa | 0V | 00:00:00 | 00:00:00 | 00:00:00 | |
| SPACE-12 | 2026-09-05 13:32:56 | 51.10854 | 18.90928 | 102° | 97km/h | 4766m | -3.1m/s | -12.7°C | 0% | 0hPa | 0V | 00:00:00 | 00:00:00 | 00:00:00 | |
| SPACE-12 | 2026-09-05 13:32:53 | 51.10869 | 18.90819 | 103° | 89km/h | 4776m | -2.8m/s | -12.5°C | 0% | 0hPa | 0V | 00:00:00 | 00:00:00 | 00:00:00 | |
| SPACE-12 | 2026-09-05 13:32:50 | 51.10881 | 18.90714 | 100° | 88km/h | 4786m | -2.6m/s | -12.1°C | 0% | 0hPa | 0V | 00:00:00 | 00:00:00 | 00:00:00 | |
| SPACE-12 | 2026-09-05 13:32:49 | 51.10889 | 18.90640 | 100° | 93km/h | 4792m | -3.1m/s | -12.7°C | 0% | 0hPa | 0V | 00:00:00 | 00:00:00 | 00:00:00 | |
| SPACE-12 | 2026-09-05 13:32:47 | 51.10893 | 18.90604 | 99° | 91km/h | 4795m | -3.2m/s | -12.7°C | 0% | 0hPa | 0V | 00:00:00 | 00:00:00 | 00:00:00 | |
| SPACE-12 | 2026-09-05 13:32:44 | 51.10905 | 18.90491 | 103° | 99km/h | 4805m | -3.2m/s | -12.5°C | 0% | 0hPa | 0V | 00:00:00 | 00:00:00 | 00:00:00 | |
| SP6BVK | 2026-09-05 13:32:43 | 51.10910 | 18.90453 | 103° | 97km/h | 4807m | -2.8m/s | -12.5°C | 0% | 0hPa | 0V | 00:00:00 | 00:00:00 | 00:00:00 | |
| SPACE-12 | 2026-09-05 13:32:42 | 51.10915 | 18.90415 | 103° | 95km/h | 4810m | -3.0m/s | -12.5°C | 0% | 0hPa | 0V | 00:00:00 | 00:00:00 | 00:00:00 | |
| SPACE-12 | 2026-09-05 13:32:40 | 51.10926 | 18.90339 | 105° | 95km/h | 4816m | -3.1m/s | -12.6°C | 0% | 0hPa | 0V | 00:00:00 | 00:00:00 | 00:00:00 | |
| SPACE-12 | 2026-09-05 13:32:38 | 51.10943 | 18.90230 | 105° | 89km/h | 4826m | -2.9m/s | -12.9°C | 0% | 0hPa | 0V | 00:00:00 | 00:00:00 | 00:00:00 | |
| SPACE-12 | 2026-09-05 13:32:35 | 51.10952 | 18.90158 | 101° | 93km/h | 4833m | -3.3m/s | -12.9°C | 0% | 0hPa | 0V | 00:00:00 | 00:00:00 | 00:00:00 | |
| SPACE-12 | 2026-09-05 13:32:33 | 51.10967 | 18.90044 | 103° | 100km/h | 4841m | -3.5m/s | -12.7°C | 0% | 0hPa | 0V | 00:00:00 | 00:00:00 | 00:00:00 | |
| SPACE-12 | 2026-09-05 13:32:31 | 51.10973 | 18.90005 | 104° | 100km/h | 4844m | -3.2m/s | -12.7°C | 0% | 0hPa | 0V | 00:00:00 | 00:00:00 | 00:00:00 | |
| SPACE-12 | 2026-09-05 13:32:30 | 51.10979 | 18.89966 | 106° | 100km/h | 4848m | -3.1m/s | -12.7°C | 0% | 0hPa | 0V | 00:00:00 | 00:00:00 | 00:00:00 | |
| SPACE-12 | 2026-09-05 13:32:25 | 51.11011 | 18.89740 | 101° | 99km/h | 4866m | -3.1m/s | -12.5°C | 0% | 0hPa | 0V | 00:00:00 | 00:00:00 | 00:00:00 | |
| SPACE-12 | 2026-09-05 13:32:22 | 51.11021 | 18.89660 | 104° | 100km/h | 4873m | -3.2m/s | -12.7°C | 0% | 0hPa | 0V | 00:00:00 | 00:00:00 | 00:00:00 | |
| SP6BVK | 2026-09-05 13:32:21 | 51.11027 | 18.89620 | 104° | 104km/h | 4876m | -3.0m/s | -12.7°C | 0% | 0hPa | 0V | 00:00:00 | 00:00:00 | 00:00:00 | |
| SPACE-12 | 2026-09-05 13:32:20 | 51.11033 | 18.89581 | 105° | 97km/h | 4878m | -2.8m/s | -12.9°C | 0% | 0hPa | 0V | 00:00:00 | 00:00:00 | 00:00:00 | |
| SPACE-12 | 2026-09-05 13:32:18 | 51.11044 | 18.89506 | 104° | 95km/h | 4885m | -3.3m/s | -13.1°C | 0% | 0hPa | 0V | 00:00:00 | 00:00:00 | 00:00:00 | |
| SPACE-12 | 2026-09-05 13:32:16 | 51.11054 | 18.89430 | 103° | 102km/h | 4891m | -3.0m/s | -13.3°C | 0% | 0hPa | 0V | 00:00:00 | 00:00:00 | 00:00:00 | |
| SPACE-12 | 2026-09-05 13:32:15 | 51.11059 | 18.89390 | 104° | 102km/h | 4894m | -3.3m/s | -13.2°C | 0% | 0hPa | 0V | 00:00:00 | 00:00:00 | 00:00:00 | |
| SPACE-12 | 2026-09-05 13:32:12 | 51.11077 | 18.89270 | 105° | 99km/h | 4904m | -3.0m/s | -13.4°C | 0% | 0hPa | 0V | 00:00:00 | 00:00:00 | 00:00:00 | |
| SPACE-12 | 2026-09-05 13:32:09 | 51.11094 | 18.89157 | 104° | 95km/h | 4914m | -3.0m/s | -13.2°C | 0% | 0hPa | 0V | 00:00:00 | 00:00:00 | 00:00:00 | |
| SPACE-12 | 2026-09-05 13:32:07 | 51.11104 | 18.89080 | 102° | 102km/h | 4920m | -3.2m/s | -12.9°C | 0% | 0hPa | 0V | 00:00:00 | 00:00:00 | 00:00:00 | |
| SPACE-12 | 2026-09-05 13:32:05 | 51.11113 | 18.89000 | 101° | 104km/h | 4927m | -3.3m/s | -12.9°C | 0% | 0hPa | 0V | 00:00:00 | 00:00:00 | 00:00:00 | |
| SPACE-12 | 2026-09-05 13:32:03 | 51.11125 | 18.88918 | 106° | 102km/h | 4933m | -3.2m/s | -12.5°C | 0% | 0hPa | 0V | 00:00:00 | 00:00:00 | 00:00:00 | |
| SPACE-12 | 2026-09-05 13:32:01 | 51.11138 | 18.88838 | 107° | 102km/h | 4940m | -3.0m/s | -13.8°C | 0% | 0hPa | 0V | 00:00:00 | 00:00:00 | 00:00:00 | |
| SPACE-12 | 2026-09-05 13:32:00 | 51.11145 | 18.88800 | 105° | 95km/h | 4943m | -3.0m/s | -13.8°C | 0% | 0hPa | 0V | 00:00:00 | 00:00:00 | 00:00:00 | |
| SP6BVK | 2026-09-05 13:31:59 | 51.11151 | 18.88762 | 106° | 99km/h | 4946m | -3.5m/s | -13.7°C | 0% | 0hPa | 0V | 00:00:00 | 00:00:00 | 00:00:00 | |
| SPACE-12 | 2026-09-05 13:31:58 | 51.11158 | 18.88725 | 106° | 97km/h | 4950m | -3.2m/s | -13.8°C | 0% | 0hPa | 0V | 00:00:00 | 00:00:00 | 00:00:00 | |
| SPACE-12 | 2026-09-05 13:31:56 | 51.11169 | 18.88648 | 103° | 99km/h | 4957m | -3.2m/s | -13.6°C | 0% | 0hPa | 0V | 00:00:00 | 00:00:00 | 00:00:00 | |
| SPACE-12 | 2026-09-05 13:31:54 | 51.11179 | 18.88570 | 102° | 100km/h | 4964m | -3.5m/s | -13.2°C | 0% | 0hPa | 0V | 00:00:00 | 00:00:00 | 00:00:00 | |
| SPACE-12 | 2026-09-05 13:31:52 | 51.11190 | 18.88490 | 105° | 102km/h | 4970m | -3.5m/s | -13.7°C | 0% | 0hPa | 0V | 00:00:00 | 00:00:00 | 00:00:00 | |
| SPACE-12 | 2026-09-05 13:31:50 | 51.11204 | 18.88410 | 108° | 100km/h | 4977m | -3.2m/s | -13.2°C | 0% | 0hPa | 0V | 00:00:00 | 00:00:00 | 00:00:00 | |
| SPACE-12 | 2026-09-05 13:31:48 | 51.11218 | 18.88334 | 105° | 99km/h | 4984m | -3.0m/s | -13.5°C | 0% | 0hPa | 0V | 00:00:00 | 00:00:00 | 00:00:00 | |
| SPACE-12 | 2026-09-05 13:31:46 | 51.11229 | 18.88258 | 103° | 97km/h | 4990m | -3.1m/s | -12.8°C | 0% | 0hPa | 0V | 00:00:00 | 00:00:00 | 00:00:00 | |
| SPACE-12 | 2026-09-05 13:31:44 | 51.11241 | 18.88177 | 105° | 104km/h | 4997m | -3.2m/s | -14.0°C | 0% | 0hPa | 0V | 00:00:00 | 00:00:00 | 00:00:00 | |
| SPACE-12 | 2026-09-05 13:31:41 | 51.11260 | 18.88054 | 108° | 102km/h | 5007m | -3.0m/s | -14.2°C | 0% | 0hPa | 0V | 00:00:00 | 00:00:00 | 00:00:00 | |
| SPACE-12 | 2026-09-05 13:31:39 | 51.11275 | 18.87976 | 107° | 100km/h | 5013m | -3.2m/s | -14.1°C | 0% | 0hPa | 0V | 00:00:00 | 00:00:00 | 00:00:00 | |
| SP6BVK | 2026-09-05 13:31:38 | 51.11282 | 18.87938 | 106° | 97km/h | 5017m | -3.2m/s | -14.2°C | 0% | 0hPa | 0V | 00:00:00 | 00:00:00 | 00:00:00 | |
| SPACE-12 | 2026-09-05 13:31:37 | 51.11288 | 18.87900 | 104° | 100km/h | 5020m | -3.1m/s | -14.1°C | 0% | 0hPa | 0V | 00:00:00 | 00:00:00 | 00:00:00 | |
| SPACE-12 | 2026-09-05 13:31:35 | 51.11300 | 18.87821 | 104° | 100km/h | 5027m | -3.4m/s | -14.2°C | 0% | 0hPa | 0V | 00:00:00 | 00:00:00 | 00:00:00 | |
| SPACE-12 | 2026-09-05 13:31:33 | 51.11311 | 18.87740 | 104° | 104km/h | 5034m | -3.3m/s | -14.4°C | 0% | 0hPa | 0V | 00:00:00 | 00:00:00 | 00:00:00 | |
| SPACE-12 | 2026-09-05 13:31:32 | 51.11317 | 18.87700 | 106° | 104km/h | 5037m | -3.3m/s | -14.3°C | 0% | 0hPa | 0V | 00:00:00 | 00:00:00 | 00:00:00 | |
| SPACE-12 | 2026-09-05 13:31:31 | 51.11332 | 18.87617 | 107° | 108km/h | 5044m | -3.5m/s | -14.2°C | 0% | 0hPa | 0V | 00:00:00 | 00:00:00 | 00:00:00 | |
| SPACE-12 | 2026-09-05 13:31:29 | 51.11346 | 18.87535 | 108° | 104km/h | 5051m | -3.5m/s | -14.7°C | 0% | 0hPa | 0V | 00:00:00 | 00:00:00 | 00:00:00 | |
| SPACE-12 | 2026-09-05 13:31:26 | 51.11362 | 18.87456 | 109° | 102km/h | 5058m | -3.7m/s | -14.5°C | 0% | 0hPa | 0V | 00:00:00 | 00:00:00 | 00:00:00 | |
| SPACE-12 | 2026-09-05 13:31:24 | 51.11376 | 18.87378 | 106° | 99km/h | 5065m | -3.8m/s | -14.6°C | 0% | 0hPa | 0V | 00:00:00 | 00:00:00 | 00:00:00 | |
| SPACE-12 | 2026-09-05 13:31:22 | 51.11387 | 18.87300 | 104° | 102km/h | 5072m | -3.4m/s | -14.5°C | 0% | 0hPa | 0V | 00:00:00 | 00:00:00 | 00:00:00 | |
| SPACE-12 | 2026-09-05 13:31:21 | 51.11400 | 18.87218 | 106° | 108km/h | 5079m | -3.2m/s | -14.9°C | 0% | 0hPa | 0V | 00:00:00 | 00:00:00 | 00:00:00 | |
| SPACE-12 | 2026-09-05 13:31:18 | 51.11415 | 18.87134 | 107° | 110km/h | 5085m | -3.2m/s | -14.9°C | 0% | 0hPa | 0V | 00:00:00 | 00:00:00 | 00:00:00 | |
| SPACE-12 | 2026-09-05 13:31:17 | 51.11422 | 18.87093 | 109° | 102km/h | 5089m | -3.2m/s | -14.9°C | 0% | 0hPa | 0V | 00:00:00 | 00:00:00 | 00:00:00 | |
| SPACE-12 | 2026-09-05 13:31:15 | 51.11438 | 18.87016 | 108° | 100km/h | 5096m | -3.8m/s | -14.8°C | 0% | 0hPa | 0V | 00:00:00 | 00:00:00 | 00:00:00 | |
| SPACE-12 | 2026-09-05 13:31:13 | 51.11450 | 18.86936 | 105° | 108km/h | 5103m | -3.6m/s | -14.8°C | 0% | 0hPa | 0V | 00:00:00 | 00:00:00 | 00:00:00 | |
| POL1PZ | 2026-09-05 13:31:12 | 51.11457 | 18.86895 | 105° | 104km/h | 5106m | -3.5m/s | -15.3°C | 0% | 0hPa | 0V | 00:00:00 | 00:00:00 | 00:00:00 | |
| SPACE-12 | 2026-09-05 13:31:09 | 51.11478 | 18.86773 | 108° | 102km/h | 5116m | -3.4m/s | -15.3°C | 0% | 0hPa | 0V | 00:00:00 | 00:00:00 | 00:00:00 | |
| SPACE-12 | 2026-09-05 13:31:07 | 51.11494 | 18.86695 | 107° | 100km/h | 5124m | -3.6m/s | -15.5°C | 0% | 0hPa | 0V | 00:00:00 | 00:00:00 | 00:00:00 | |
| SPACE-12 | 2026-09-05 13:31:05 | 51.11506 | 18.86614 | 106° | 108km/h | 5131m | -3.3m/s | -15.2°C | 0% | 0hPa | 0V | 00:00:00 | 00:00:00 | 00:00:00 | |
| SPACE-12 | 2026-09-05 13:31:04 | 51.11514 | 18.86572 | 107° | 108km/h | 5134m | -3.5m/s | -15.1°C | 0% | 0hPa | 0V | 00:00:00 | 00:00:00 | 00:00:00 | |
| SPACE-12 | 2026-09-05 13:31:02 | 51.11529 | 18.86488 | 109° | 108km/h | 5142m | -3.6m/s | -15.3°C | 0% | 0hPa | 0V | 00:00:00 | 00:00:00 | 00:00:00 | |
| SPACE-12 | 2026-09-05 13:31:00 | 51.11545 | 18.86409 | 107° | 100km/h | 5149m | -3.3m/s | -15.9°C | 0% | 0hPa | 0V | 00:00:00 | 00:00:00 | 00:00:00 | |
| SPACE-12 | 2026-09-05 13:30:58 | 51.11558 | 18.86330 | 105° | 102km/h | 5156m | -3.3m/s | -15.8°C | 0% | 0hPa | 0V | 00:00:00 | 00:00:00 | 00:00:00 | |
| SPACE-12 | 2026-09-05 13:30:56 | 51.11572 | 18.86247 | 105° | 108km/h | 5163m | -3.6m/s | -15.8°C | 0% | 0hPa | 0V | 00:00:00 | 00:00:00 | 00:00:00 | |
| SPACE-12 | 2026-09-05 13:30:54 | 51.11586 | 18.86163 | 109° | 108km/h | 5170m | -3.3m/s | -15.8°C | 0% | 0hPa | 0V | 00:00:00 | 00:00:00 | 00:00:00 | |
| SPACE-12 | 2026-09-05 13:30:52 | 51.11602 | 18.86082 | 110° | 106km/h | 5177m | -3.4m/s | -15.5°C | 0% | 0hPa | 0V | 00:00:00 | 00:00:00 | 00:00:00 | |
| SPACE-12 | 2026-09-05 13:30:50 | 51.11617 | 18.86001 | 104° | 106km/h | 5184m | -3.2m/s | -15.7°C | 0% | 0hPa | 0V | 00:00:00 | 00:00:00 | 00:00:00 | |
| SPACE-12 | 2026-09-05 13:30:49 | 51.11623 | 18.85960 | 104° | 102km/h | 5187m | -3.7m/s | -15.5°C | 0% | 0hPa | 0V | 00:00:00 | 00:00:00 | 00:00:00 | |
| SPACE-12 | 2026-09-05 13:30:47 | 51.11635 | 18.85878 | 106° | 110km/h | 5194m | -3.3m/s | -15.4°C | 0% | 0hPa | 0V | 00:00:00 | 00:00:00 | 00:00:00 | |
| SPACE-12 | 2026-09-05 13:30:46 | 51.11650 | 18.85793 | 106° | 111km/h | 5201m | -3.7m/s | -16.3°C | 0% | 0hPa | 0V | 00:00:00 | 00:00:00 | 00:00:00 | |
| SPACE-12 | 2026-09-05 13:30:43 | 51.11665 | 18.85709 | 109° | 104km/h | 5208m | -3.2m/s | -16.6°C | 0% | 0hPa | 0V | 00:00:00 | 00:00:00 | 00:00:00 | |
| SPACE-12 | 2026-09-05 13:30:41 | 51.11682 | 18.85629 | 110° | 106km/h | 5216m | -3.6m/s | -16.8°C | 0% | 0hPa | 0V | 00:00:00 | 00:00:00 | 00:00:00 | |
| SPACE-12 | 2026-09-05 13:30:39 | 51.11697 | 18.85549 | 105° | 102km/h | 5223m | -3.4m/s | -16.7°C | 0% | 0hPa | 0V | 00:00:00 | 00:00:00 | 00:00:00 | |
| SPACE-12 | 2026-09-05 13:30:35 | 51.11724 | 18.85386 | 107° | 110km/h | 5237m | -4.0m/s | -16.6°C | 0% | 0hPa | 0V | 00:00:00 | 00:00:00 | 00:00:00 | |
| SPACE-12 | 2026-09-05 13:30:34 | 51.11732 | 18.85343 | 107° | 111km/h | 5241m | -3.6m/s | -16.6°C | 0% | 0hPa | 0V | 00:00:00 | 00:00:00 | 00:00:00 | |
| SPACE-12 | 2026-09-05 13:30:33 | 51.11747 | 18.85261 | 106° | 100km/h | 5248m | -3.8m/s | -17.0°C | 0% | 0hPa | 0V | 00:00:00 | 00:00:00 | 00:00:00 | |
| SPACE-12 | 2026-09-05 13:30:31 | 51.11754 | 18.85222 | 106° | 100km/h | 5252m | -3.9m/s | -17.1°C | 0% | 0hPa | 0V | 00:00:00 | 00:00:00 | 00:00:00 | |
| SPACE-12 | 2026-09-05 13:30:30 | 51.11768 | 18.85140 | 104° | 110km/h | 5259m | -3.5m/s | -16.9°C | 0% | 0hPa | 0V | 00:00:00 | 00:00:00 | 00:00:00 | |
| POL1PZ | 2026-09-05 13:30:28 | 51.11774 | 18.85097 | 104° | 110km/h | 5263m | -3.6m/s | -17.1°C | 0% | 0hPa | 0V | 00:00:00 | 00:00:00 | 00:00:00 | |
| SPACE-12 | 2026-09-05 13:30:26 | 51.11789 | 18.85011 | 109° | 104km/h | 5270m | -3.6m/s | -17.2°C | 0% | 0hPa | 0V | 00:00:00 | 00:00:00 | 00:00:00 | |
| SPACE-12 | 2026-09-05 13:30:24 | 51.11804 | 18.84934 | 108° | 104km/h | 5278m | -3.8m/s | -17.2°C | 0% | 0hPa | 0V | 00:00:00 | 00:00:00 | 00:00:00 | |
| SPACE-12 | 2026-09-05 13:30:22 | 51.11819 | 18.84854 | 104° | 106km/h | 5286m | -3.6m/s | -17.1°C | 0% | 0hPa | 0V | 00:00:00 | 00:00:00 | 00:00:00 | |
| SPACE-12 | 2026-09-05 13:30:21 | 51.11825 | 18.84812 | 104° | 108km/h | 5289m | -3.8m/s | -17.0°C | 0% | 0hPa | 0V | 00:00:00 | 00:00:00 | 00:00:00 | |
| SPACE-12 | 2026-09-05 13:30:20 | 51.11838 | 18.84727 | 107° | 110km/h | 5297m | -3.3m/s | -16.8°C | 0% | 0hPa | 0V | 00:00:00 | 00:00:00 | 00:00:00 | |
| SPACE-12 | 2026-09-05 13:30:17 | 51.11855 | 18.84646 | 108° | 104km/h | 5304m | -3.8m/s | -17.0°C | 0% | 0hPa | 0V | 00:00:00 | 00:00:00 | 00:00:00 | |
| SPACE-12 | 2026-09-05 13:30:15 | 51.11869 | 18.84566 | 104° | 104km/h | 5311m | -3.6m/s | -17.4°C | 0% | 0hPa | 0V | 00:00:00 | 00:00:00 | 00:00:00 | |
| SPACE-12 | 2026-09-05 13:30:13 | 51.11881 | 18.84482 | 104° | 108km/h | 5318m | -3.9m/s | -17.5°C | 0% | 0hPa | 0V | 00:00:00 | 00:00:00 | 00:00:00 | |
| SPACE-12 | 2026-09-05 13:30:09 | 51.11910 | 18.84317 | 108° | 104km/h | 5333m | -3.8m/s | -17.7°C | 0% | 0hPa | 0V | 00:00:00 | 00:00:00 | 00:00:00 | |
| POL1PZ | 2026-09-05 13:30:08 | 51.11918 | 18.84278 | 108° | 100km/h | 5337m | -3.7m/s | -17.7°C | 0% | 0hPa | 0V | 00:00:00 | 00:00:00 | 00:00:00 | |
| SPACE-12 | 2026-09-05 13:30:07 | 51.11925 | 18.84238 | 105° | 102km/h | 5341m | -3.7m/s | -17.7°C | 0% | 0hPa | 0V | 00:00:00 | 00:00:00 | 00:00:00 | |
| SPACE-12 | 2026-09-05 13:30:06 | 51.11931 | 18.84199 | 104° | 102km/h | 5344m | -3.7m/s | -17.7°C | 0% | 0hPa | 0V | 00:00:00 | 00:00:00 | 00:00:00 | |
| SPACE-12 | 2026-09-05 13:30:04 | 51.11943 | 18.84116 | 103° | 108km/h | 5352m | -3.7m/s | -17.8°C | 0% | 0hPa | 0V | 00:00:00 | 00:00:00 | 00:00:00 | |
| SPACE-12 | 2026-09-05 13:30:03 | 51.11948 | 18.84074 | 103° | 106km/h | 5356m | -4.0m/s | -17.9°C | 0% | 0hPa | 0V | 00:00:00 | 00:00:00 | 00:00:00 | |
| SPACE-12 | 2026-09-05 13:30:00 | 51.11970 | 18.83947 | 108° | 106km/h | 5366m | -3.7m/s | -18.1°C | 0% | 0hPa | 0V | 00:00:00 | 00:00:00 | 00:00:00 | |
| SPACE-12 | 2026-09-05 13:29:58 | 51.11986 | 18.83865 | 108° | 104km/h | 5374m | -3.7m/s | -18.3°C | 0% | 0hPa | 0V | 00:00:00 | 00:00:00 | 00:00:00 | |
| SPACE-12 | 2026-09-05 13:29:56 | 51.12000 | 18.83786 | 107° | 104km/h | 5382m | -3.8m/s | -18.3°C | 0% | 0hPa | 0V | 00:00:00 | 00:00:00 | 00:00:00 | |
| SPACE-12 | 2026-09-05 13:29:54 | 51.12015 | 18.83707 | 106° | 100km/h | 5389m | -3.3m/s | -18.2°C | 0% | 0hPa | 0V | 00:00:00 | 00:00:00 | 00:00:00 | |
| SPACE-12 | 2026-09-05 13:29:53 | 51.12021 | 18.83667 | 104° | 104km/h | 5393m | -3.5m/s | -18.2°C | 0% | 0hPa | 0V | 00:00:00 | 00:00:00 | 00:00:00 | |
| SP6BVK | 2026-09-05 13:29:52 | 51.12027 | 18.83626 | 103° | 106km/h | 5396m | -3.5m/s | -18.1°C | 0% | 0hPa | 0V | 00:00:00 | 00:00:00 | 00:00:00 | |
| SPACE-12 | 2026-09-05 13:29:51 | 51.12033 | 18.83584 | 103° | 106km/h | 5400m | -3.5m/s | -18.0°C | 0% | 0hPa | 0V | 00:00:00 | 00:00:00 | 00:00:00 | |
| SPACE-12 | 2026-09-05 13:29:49 | 51.12044 | 18.83502 | 103° | 106km/h | 5407m | -3.6m/s | -18.1°C | 0% | 0hPa | 0V | 00:00:00 | 00:00:00 | 00:00:00 | |
| SPACE-12 | 2026-09-05 13:29:48 | 51.12049 | 18.83460 | 104° | 110km/h | 5411m | -3.4m/s | -18.1°C | 0% | 0hPa | 0V | 00:00:00 | 00:00:00 | 00:00:00 | |
| SPACE-12 | 2026-09-05 13:29:47 | 51.12062 | 18.83373 | 105° | 110km/h | 5418m | -3.5m/s | -18.3°C | 0% | 0hPa | 0V | 00:00:00 | 00:00:00 | 00:00:00 | |
| SPACE-12 | 2026-09-05 13:29:45 | 51.12069 | 18.83330 | 104° | 110km/h | 5421m | -3.6m/s | -18.3°C | 0% | 0hPa | 0V | 00:00:00 | 00:00:00 | 00:00:00 | |
| SPACE-12 | 2026-09-05 13:29:43 | 51.12083 | 18.83245 | 107° | 110km/h | 5428m | -3.5m/s | -18.5°C | 0% | 0hPa | 0V | 00:00:00 | 00:00:00 | 00:00:00 | |
| SPACE-12 | 2026-09-05 13:29:42 | 51.12091 | 18.83203 | 107° | 108km/h | 5432m | -3.7m/s | -18.6°C | 0% | 0hPa | 0V | 00:00:00 | 00:00:00 | 00:00:00 | |
| SPACE-12 | 2026-09-05 13:29:39 | 51.12113 | 18.83081 | 105° | 102km/h | 5443m | -3.7m/s | -18.6°C | 0% | 0hPa | 0V | 00:00:00 | 00:00:00 | 00:00:00 | |
| SPACE-12 | 2026-09-05 13:29:38 | 51.12119 | 18.83041 | 104° | 102km/h | 5447m | -3.5m/s | -18.3°C | 0% | 0hPa | 0V | 00:00:00 | 00:00:00 | 00:00:00 | |
| SPACE-12 | 2026-09-05 13:29:36 | 51.12130 | 18.82961 | 103° | 102km/h | 5455m | -3.8m/s | -18.5°C | 0% | 0hPa | 0V | 00:00:00 | 00:00:00 | 00:00:00 | |
| SPACE-12 | 2026-09-05 13:29:35 | 51.12136 | 18.82921 | 103° | 102km/h | 5458m | -3.7m/s | -18.8°C | 0% | 0hPa | 0V | 00:00:00 | 00:00:00 | 00:00:00 | |
| SPACE-12 | 2026-09-05 13:29:31 | 51.12160 | 18.82749 | 104° | 111km/h | 5473m | -3.5m/s | -18.9°C | 0% | 0hPa | 0V | 00:00:00 | 00:00:00 | 00:00:00 | |
| SP6BVK | 2026-09-05 13:29:30 | 51.12167 | 18.82706 | 108° | 108km/h | 5476m | -3.3m/s | -19.0°C | 0% | 0hPa | 0V | 00:00:00 | 00:00:00 | 00:00:00 | |
| SPACE-12 | 2026-09-05 13:29:28 | 51.12182 | 18.82625 | 108° | 106km/h | 5483m | -3.7m/s | -19.1°C | 0% | 0hPa | 0V | 00:00:00 | 00:00:00 | 00:00:00 | |
| POL1PZ | 2026-09-05 13:29:27 | 51.12189 | 18.82585 | 105° | 100km/h | 5488m | -3.8m/s | -19.1°C | 0% | 0hPa | 0V | 00:00:00 | 00:00:00 | 00:00:00 | |
| SPACE-12 | 2026-09-05 13:29:26 | 51.12195 | 18.82545 | 104° | 102km/h | 5491m | -3.8m/s | -19.1°C | 0% | 0hPa | 0V | 00:00:00 | 00:00:00 | 00:00:00 | |
| SPACE-12 | 2026-09-05 13:29:24 | 51.12206 | 18.82466 | 104° | 100km/h | 5499m | -3.7m/s | -19.0°C | 0% | 0hPa | 0V | 00:00:00 | 00:00:00 | 00:00:00 | |
| SPACE-12 | 2026-09-05 13:29:16 | 51.12259 | 18.82132 | 107° | 102km/h | 5528m | -3.5m/s | -19.5°C | 0% | 0hPa | 0V | 00:00:00 | 00:00:00 | 00:00:00 | |
| SPACE-12 | 2026-09-05 13:29:15 | 51.12271 | 18.82050 | 103° | 108km/h | 5535m | -3.7m/s | -19.5°C | 0% | 0hPa | 0V | 00:00:00 | 00:00:00 | 00:00:00 | |
| SPACE-12 | 2026-09-05 13:29:11 | 51.12289 | 18.81921 | 105° | 111km/h | 5546m | -3.7m/s | -19.6°C | 0% | 0hPa | 0V | 00:00:00 | 00:00:00 | 00:00:00 | |
| SPACE-12 | 2026-09-05 13:29:10 | 51.12296 | 18.81878 | 107° | 108km/h | 5549m | -3.7m/s | -19.7°C | 0% | 0hPa | 0V | 00:00:00 | 00:00:00 | 00:00:00 | |
| SPACE-12 | 2026-09-05 13:29:08 | 51.12311 | 18.81794 | 107° | 110km/h | 5557m | -3.7m/s | -19.7°C | 0% | 0hPa | 0V | 00:00:00 | 00:00:00 | 00:00:00 | |
| SPACE-12 | 2026-09-05 13:29:07 | 51.12327 | 18.81713 | 106° | 100km/h | 5565m | -3.6m/s | -19.6°C | 0% | 0hPa | 0V | 00:00:00 | 00:00:00 | 00:00:00 | |
| POL1PZ | 2026-09-05 13:29:06 | 51.12327 | 18.81713 | 106° | 100km/h | 5565m | -3.6m/s | -19.6°C | 0% | 0hPa | 0V | 00:00:00 | 00:00:00 | 00:00:00 | |
| SPACE-12 | 2026-09-05 13:29:04 | 51.12338 | 18.81634 | 104° | 102km/h | 5573m | -3.7m/s | -19.8°C | 0% | 0hPa | 0V | 00:00:00 | 00:00:00 | 00:00:00 | |
| SPACE-12 | 2026-09-05 13:29:00 | 51.12364 | 18.81466 | 107° | 110km/h | 5588m | -3.8m/s | -20.0°C | 0% | 0hPa | 0V | 00:00:00 | 00:00:00 | 00:00:00 | |
| SPACE-12 | 2026-09-05 13:28:58 | 51.12380 | 18.81383 | 108° | 104km/h | 5595m | -4.0m/s | -20.2°C | 0% | 0hPa | 0V | 00:00:00 | 00:00:00 | 00:00:00 | |
| SPACE-12 | 2026-09-05 13:28:57 | 51.12387 | 18.81343 | 108° | 100km/h | 5599m | -3.8m/s | -20.3°C | 0% | 0hPa | 0V | 00:00:00 | 00:00:00 | 00:00:00 | |
| SPACE-12 | 2026-09-05 13:28:56 | 51.12399 | 18.81264 | 102° | 108km/h | 5607m | -3.9m/s | -20.2°C | 0% | 0hPa | 0V | 00:00:00 | 00:00:00 | 00:00:00 | |
| SPACE-12 | 2026-09-05 13:28:53 | 51.12412 | 18.81179 | 107° | 110km/h | 5615m | -3.8m/s | -20.3°C | 0% | 0hPa | 0V | 00:00:00 | 00:00:00 | 00:00:00 | |
| SPACE-12 | 2026-09-05 13:28:51 | 51.12426 | 18.81097 | 104° | 100km/h | 5623m | -3.7m/s | -20.5°C | 0% | 0hPa | 0V | 00:00:00 | 00:00:00 | 00:00:00 | |
| SPACE-12 | 2026-09-05 13:28:50 | 51.12432 | 18.81057 | 102° | 102km/h | 5627m | -3.9m/s | -20.4°C | 0% | 0hPa | 0V | 00:00:00 | 00:00:00 | 00:00:00 | |
| SP6BVK | 2026-09-05 13:28:49 | 51.12438 | 18.81015 | 104° | 111km/h | 5631m | -4.0m/s | -20.5°C | 0% | 0hPa | 0V | 00:00:00 | 00:00:00 | 00:00:00 | |
| SPACE-12 | 2026-09-05 13:28:47 | 51.12453 | 18.80932 | 107° | 102km/h | 5639m | -3.9m/s | -20.7°C | 0% | 0hPa | 0V | 00:00:00 | 00:00:00 | 00:00:00 | |
| POL1PZ | 2026-09-05 13:28:46 | 51.12459 | 18.80892 | 103° | 102km/h | 5643m | -3.7m/s | -20.7°C | 0% | 0hPa | 0V | 00:00:00 | 00:00:00 | 00:00:00 | |
| SPACE-12 | 2026-09-05 13:28:45 | 51.12464 | 18.80851 | 103° | 110km/h | 5647m | -3.9m/s | -20.7°C | 0% | 0hPa | 0V | 00:00:00 | 00:00:00 | 00:00:00 | |
| SPACE-12 | 2026-09-05 13:28:44 | 51.12471 | 18.80808 | 106° | 111km/h | 5651m | -3.7m/s | -20.7°C | 0% | 0hPa | 0V | 00:00:00 | 00:00:00 | 00:00:00 | |
| SPACE-12 | 2026-09-05 13:28:42 | 51.12486 | 18.80726 | 107° | 104km/h | 5659m | -3.7m/s | -20.7°C | 0% | 0hPa | 0V | 00:00:00 | 00:00:00 | 00:00:00 | |
| SPACE-12 | 2026-09-05 13:28:40 | 51.12498 | 18.80647 | 103° | 100km/h | 5667m | -3.8m/s | -20.7°C | 0% | 0hPa | 0V | 00:00:00 | 00:00:00 | 00:00:00 | |
| SPACE-12 | 2026-09-05 13:28:38 | 51.12510 | 18.80566 | 102° | 106km/h | 5675m | -4.1m/s | -20.8°C | 0% | 0hPa | 0V | 00:00:00 | 00:00:00 | 00:00:00 | |
| SPACE-12 | 2026-09-05 13:28:37 | 51.12521 | 18.80524 | 103° | 110km/h | 5679m | -3.9m/s | -20.3°C | 0% | 0hPa | 0V | 00:00:00 | 00:00:00 | 00:00:00 | |
| SPACE-12 | 2026-09-05 13:28:34 | 51.12535 | 18.80394 | 106° | 111km/h | 5691m | -4.0m/s | -19.9°C | 0% | 0hPa | 0V | 00:00:00 | 00:00:00 | 00:00:00 | |
| SPACE-12 | 2026-09-05 13:28:32 | 51.12549 | 18.80307 | 106° | 113km/h | 5699m | -4.1m/s | -20.5°C | 0% | 0hPa | 0V | 00:00:00 | 00:00:00 | 00:00:00 | |
| SPACE-12 | 2026-09-05 13:28:30 | 51.12564 | 18.80221 | 107° | 113km/h | 5708m | -4.0m/s | -20.5°C | 0% | 0hPa | 0V | 00:00:00 | 00:00:00 | 00:00:00 | |
| SPACE-12 | 2026-09-05 13:28:29 | 51.12572 | 18.80177 | 107° | 113km/h | 5712m | -4.1m/s | -20.6°C | 0% | 0hPa | 0V | 00:00:00 | 00:00:00 | 00:00:00 | |
| SP6BVK | 2026-09-05 13:28:28 | 51.12580 | 18.80133 | 106° | 113km/h | 5716m | -4.0m/s | -20.6°C | 0% | 0hPa | 0V | 00:00:00 | 00:00:00 | 00:00:00 | |
| SPACE-12 | 2026-09-05 13:28:27 | 51.12587 | 18.80089 | 106° | 113km/h | 5720m | -3.6m/s | -20.8°C | 0% | 0hPa | 0V | 00:00:00 | 00:00:00 | 00:00:00 | |
| SPACE-12 | 2026-09-05 13:28:25 | 51.12602 | 18.80001 | 106° | 113km/h | 5728m | -4.0m/s | -20.9°C | 0% | 0hPa | 0V | 00:00:00 | 00:00:00 | 00:00:00 | |
| SPACE-12 | 2026-09-05 13:28:23 | 51.12617 | 18.79912 | 106° | 113km/h | 5736m | -3.7m/s | -20.9°C | 0% | 0hPa | 0V | 00:00:00 | 00:00:00 | 00:00:00 | |
| SPACE-12 | 2026-09-05 13:28:21 | 51.12631 | 18.79823 | 105° | 115km/h | 5744m | -3.9m/s | -20.8°C | 0% | 0hPa | 0V | 00:00:00 | 00:00:00 | 00:00:00 | |
| SPACE-12 | 2026-09-05 13:28:19 | 51.12645 | 18.79733 | 105° | 115km/h | 5751m | -4.1m/s | -20.9°C | 0% | 0hPa | 0V | 00:00:00 | 00:00:00 | 00:00:00 | |
| SPACE-12 | 2026-09-05 13:28:17 | 51.12660 | 18.79643 | 105° | 115km/h | 5760m | -3.9m/s | -21.2°C | 0% | 0hPa | 0V | 00:00:00 | 00:00:00 | 00:00:00 | |
| SPACE-12 | 2026-09-05 13:28:15 | 51.12674 | 18.79553 | 105° | 115km/h | 5768m | -3.9m/s | -21.2°C | 0% | 0hPa | 0V | 00:00:00 | 00:00:00 | 00:00:00 | |
| SPACE-12 | 2026-09-05 13:28:14 | 51.12682 | 18.79509 | 107° | 115km/h | 5771m | -3.8m/s | -21.1°C | 0% | 0hPa | 0V | 00:00:00 | 00:00:00 | 00:00:00 | |
| SPACE-12 | 2026-09-05 13:28:13 | 51.12698 | 18.79419 | 106° | 117km/h | 5779m | -3.8m/s | -21.0°C | 0% | 0hPa | 0V | 00:00:00 | 00:00:00 | 00:00:00 | |
| SPACE-12 | 2026-09-05 13:28:10 | 51.12713 | 18.79328 | 106° | 117km/h | 5787m | -4.1m/s | -21.1°C | 0% | 0hPa | 0V | 00:00:00 | 00:00:00 | 00:00:00 | |
| SPACE-12 | 2026-09-05 13:28:09 | 51.12728 | 18.79237 | 106° | 117km/h | 5795m | -4.0m/s | -21.3°C | 0% | 0hPa | 0V | 00:00:00 | 00:00:00 | 00:00:00 | |
| SP6BVK | 2026-09-05 13:28:06 | 51.12742 | 18.79145 | 104° | 117km/h | 5804m | -4.0m/s | -21.4°C | 0% | 0hPa | 0V | 00:00:00 | 00:00:00 | 00:00:00 | |
| POL1PZ | 2026-09-05 13:28:05 | 51.12749 | 18.79099 | 103° | 117km/h | 5808m | -4.0m/s | -21.4°C | 0% | 0hPa | 0V | 00:00:00 | 00:00:00 | 00:00:00 | |
| SPACE-12 | 2026-09-05 13:28:04 | 51.12755 | 18.79054 | 102° | 117km/h | 5812m | -4.0m/s | -21.4°C | 0% | 0hPa | 0V | 00:00:00 | 00:00:00 | 00:00:00 | |
| SPACE-12 | 2026-09-05 13:28:02 | 51.12770 | 18.78961 | 107° | 119km/h | 5821m | -4.3m/s | -20.4°C | 0% | 0hPa | 0V | 00:00:00 | 00:00:00 | 00:00:00 | |
| SPACE-12 | 2026-09-05 13:28:01 | 51.12778 | 18.78915 | 107° | 119km/h | 5825m | -4.2m/s | -20.3°C | 0% | 0hPa | 0V | 00:00:00 | 00:00:00 | 00:00:00 | |
| SPACE-12 | 2026-09-05 13:28:00 | 51.12794 | 18.78823 | 107° | 119km/h | 5834m | -4.2m/s | -20.6°C | 0% | 0hPa | 0V | 00:00:00 | 00:00:00 | 00:00:00 | |
| SPACE-12 | 2026-09-05 13:27:58 | 51.12801 | 18.78777 | 105° | 120km/h | 5838m | -3.9m/s | -20.6°C | 0% | 0hPa | 0V | 00:00:00 | 00:00:00 | 00:00:00 | |
| SPACE-12 | 2026-09-05 13:27:55 | 51.12824 | 18.78634 | 104° | 124km/h | 5851m | -4.4m/s | -20.8°C | 0% | 0hPa | 0V | 00:00:00 | 00:00:00 | 00:00:00 | |
| SPACE-12 | 2026-09-05 13:27:53 | 51.12839 | 18.78539 | 106° | 120km/h | 5859m | -4.1m/s | -20.7°C | 0% | 0hPa | 0V | 00:00:00 | 00:00:00 | 00:00:00 | |
| SPACE-12 | 2026-09-05 13:27:51 | 51.12854 | 18.78443 | 105° | 122km/h | 5868m | -4.0m/s | -20.8°C | 0% | 0hPa | 0V | 00:00:00 | 00:00:00 | 00:00:00 | |
| SPACE-12 | 2026-09-05 13:27:50 | 51.12862 | 18.78395 | 105° | 122km/h | 5871m | -3.9m/s | -20.8°C | 0% | 0hPa | 0V | 00:00:00 | 00:00:00 | 00:00:00 | |
| SPACE-12 | 2026-09-05 13:27:47 | 51.12883 | 18.78249 | 103° | 124km/h | 5884m | -4.2m/s | -21.1°C | 0% | 0hPa | 0V | 00:00:00 | 00:00:00 | 00:00:00 | |
| SPACE-12 | 2026-09-05 13:27:46 | 51.12889 | 18.78199 | 102° | 128km/h | 5888m | -4.2m/s | -21.1°C | 0% | 0hPa | 0V | 00:00:00 | 00:00:00 | 00:00:00 | |
| POL1PZ | 2026-09-05 13:27:44 | 51.12902 | 18.78098 | 103° | 128km/h | 5896m | -4.3m/s | -21.4°C | 0% | 0hPa | 0V | 00:00:00 | 00:00:00 | 00:00:00 | |
| SPACE-12 | 2026-09-05 13:27:42 | 51.12916 | 18.77998 | 105° | 126km/h | 5905m | -4.3m/s | -20.9°C | 0% | 0hPa | 0V | 00:00:00 | 00:00:00 | 00:00:00 | |
| SPACE-12 | 2026-09-05 13:27:40 | 51.12931 | 18.77899 | 104° | 128km/h | 5913m | -4.2m/s | -20.8°C | 0% | 0hPa | 0V | 00:00:00 | 00:00:00 | 00:00:00 | |
| SPACE-12 | 2026-09-05 13:27:38 | 51.12945 | 18.77798 | 103° | 128km/h | 5922m | -4.2m/s | -20.9°C | 0% | 0hPa | 0V | 00:00:00 | 00:00:00 | 00:00:00 | |
| SPACE-12 | 2026-09-05 13:27:37 | 51.12952 | 18.77747 | 103° | 130km/h | 5926m | -4.3m/s | -20.9°C | 0% | 0hPa | 0V | 00:00:00 | 00:00:00 | 00:00:00 | |
| SPACE-12 | 2026-09-05 13:27:34 | 51.12973 | 18.77594 | 103° | 130km/h | 5939m | -4.3m/s | -21.3°C | 0% | 0hPa | 0V | 00:00:00 | 00:00:00 | 00:00:00 | |
| SPACE-12 | 2026-09-05 13:27:33 | 51.12979 | 18.77543 | 103° | 128km/h | 5943m | -3.7m/s | -21.3°C | 0% | 0hPa | 0V | 00:00:00 | 00:00:00 | 00:00:00 | |
| SPACE-12 | 2026-09-05 13:27:32 | 51.12992 | 18.77441 | 103° | 131km/h | 5951m | -4.1m/s | -21.3°C | 0% | 0hPa | 0V | 00:00:00 | 00:00:00 | 00:00:00 | |
| SPACE-12 | 2026-09-05 13:27:30 | 51.13000 | 18.77390 | 103° | 130km/h | 5955m | -4.0m/s | -21.3°C | 0% | 0hPa | 0V | 00:00:00 | 00:00:00 | 00:00:00 | |
| SPACE-12 | 2026-09-05 13:27:29 | 51.13014 | 18.77289 | 104° | 128km/h | 5963m | -3.9m/s | -21.2°C | 0% | 0hPa | 0V | 00:00:00 | 00:00:00 | 00:00:00 | |
| SPACE-12 | 2026-09-05 13:27:27 | 51.13021 | 18.77238 | 103° | 131km/h | 5967m | -4.4m/s | -21.4°C | 0% | 0hPa | 0V | 00:00:00 | 00:00:00 | 00:00:00 | |
| SP6BVK | 2026-09-05 13:27:26 | 51.13032 | 18.77135 | 99° | 128km/h | 5976m | -4.1m/s | -21.6°C | 0% | 0hPa | 0V | 00:00:00 | 00:00:00 | 00:00:00 | |
| SPACE-12 | 2026-09-05 13:27:25 | 51.13032 | 18.77135 | 99° | 128km/h | 5976m | -4.1m/s | -21.6°C | 0% | 0hPa | 0V | 00:00:00 | 00:00:00 | 00:00:00 | |
| POL1PZ | 2026-09-05 13:27:24 | 51.13038 | 18.77084 | 102° | 131km/h | 5980m | -4.2m/s | -21.6°C | 0% | 0hPa | 0V | 00:00:00 | 00:00:00 | 00:00:00 | |
| SPACE-12 | 2026-09-05 13:27:23 | 51.13044 | 18.77032 | 101° | 131km/h | 5984m | -4.4m/s | -21.5°C | 0% | 0hPa | 0V | 00:00:00 | 00:00:00 | 00:00:00 | |
| SPACE-12 | 2026-09-05 13:27:21 | 51.13055 | 18.76929 | 102° | 131km/h | 5993m | -4.4m/s | -21.5°C | 0% | 0hPa | 0V | 00:00:00 | 00:00:00 | 00:00:00 | |
| SPACE-12 | 2026-09-05 13:27:20 | 51.13068 | 18.76825 | 102° | 131km/h | 6001m | -4.4m/s | -21.5°C | 0% | 0hPa | 0V | 00:00:00 | 00:00:00 | 00:00:00 | |
| SPACE-12 | 2026-09-05 13:27:18 | 51.13074 | 18.76773 | 102° | 133km/h | 6005m | -4.3m/s | -21.5°C | 0% | 0hPa | 0V | 00:00:00 | 00:00:00 | 00:00:00 | |
| SPACE-12 | 2026-09-05 13:27:16 | 51.13085 | 18.76668 | 100° | 133km/h | 6014m | -4.1m/s | -21.6°C | 0% | 0hPa | 0V | 00:00:00 | 00:00:00 | 00:00:00 | |
| SPACE-12 | 2026-09-05 13:27:14 | 51.13094 | 18.76564 | 99° | 126km/h | 6021m | -4.1m/s | -21.6°C | 0% | 0hPa | 0V | 00:00:00 | 00:00:00 | 00:00:00 | |
| SPACE-12 | 2026-09-05 13:27:12 | 51.13104 | 18.76466 | 102° | 122km/h | 6030m | -4.3m/s | -21.7°C | 0% | 0hPa | 0V | 00:00:00 | 00:00:00 | 00:00:00 | |
| SPACE-12 | 2026-09-05 13:27:10 | 51.13116 | 18.76368 | 102° | 128km/h | 6039m | -4.3m/s | -21.4°C | 0% | 0hPa | 0V | 00:00:00 | 00:00:00 | 00:00:00 | |
| SPACE-12 | 2026-09-05 13:27:08 | 51.13129 | 18.76266 | 102° | 131km/h | 6047m | -4.0m/s | -21.7°C | 0% | 0hPa | 0V | 00:00:00 | 00:00:00 | 00:00:00 | |
| SPACE-12 | 2026-09-05 13:27:06 | 51.13140 | 18.76160 | 100° | 133km/h | 6055m | -4.4m/s | -21.9°C | 0% | 0hPa | 0V | 00:00:00 | 00:00:00 | 00:00:00 | |
| SP6BVK | 2026-09-05 13:27:05 | 51.13145 | 18.76107 | 99° | 133km/h | 6060m | -4.1m/s | -22.0°C | 0% | 0hPa | 0V | 00:00:00 | 00:00:00 | 00:00:00 | |
| SPACE-12 | 2026-09-05 13:27:04 | 51.13155 | 18.76001 | 100° | 133km/h | 6068m | -4.3m/s | -21.8°C | 0% | 0hPa | 0V | 00:00:00 | 00:00:00 | 00:00:00 | |
| POL1PZ | 2026-09-05 13:27:03 | 51.13155 | 18.76001 | 100° | 133km/h | 6068m | -4.3m/s | -21.8°C | 0% | 0hPa | 0V | 00:00:00 | 00:00:00 | 00:00:00 | |
| SPACE-12 | 2026-09-05 13:27:02 | 51.13160 | 18.75947 | 99° | 133km/h | 6073m | -3.8m/s | -21.8°C | 0% | 0hPa | 0V | 00:00:00 | 00:00:00 | 00:00:00 | |
| SPACE-12 | 2026-09-05 13:26:57 | 51.13180 | 18.75687 | 98° | 128km/h | 6091m | -3.8m/s | -21.7°C | 0% | 0hPa | 0V | 00:00:00 | 00:00:00 | 00:00:00 | |
| SPACE-12 | 2026-09-05 13:26:55 | 51.13190 | 18.75587 | 101° | 126km/h | 6099m | -3.8m/s | -21.8°C | 0% | 0hPa | 0V | 00:00:00 | 00:00:00 | 00:00:00 | |
| SPACE-12 | 2026-09-05 13:26:53 | 51.13202 | 18.75485 | 102° | 131km/h | 6107m | -3.9m/s | -21.6°C | 0% | 0hPa | 0V | 00:00:00 | 00:00:00 | 00:00:00 | |
| SPACE-12 | 2026-09-05 13:26:48 | 51.13230 | 18.75223 | 99° | 131km/h | 6126m | -3.7m/s | -22.2°C | 0% | 0hPa | 0V | 00:00:00 | 00:00:00 | 00:00:00 | |
| SPACE-12 | 2026-09-05 13:26:47 | 51.13238 | 18.75120 | 98° | 128km/h | 6134m | -4.1m/s | -22.2°C | 0% | 0hPa | 0V | 00:00:00 | 00:00:00 | 00:00:00 | |
| SP6BVK | 2026-09-05 13:26:45 | 51.13247 | 18.75015 | 100° | 131km/h | 6142m | -3.5m/s | -22.1°C | 0% | 0hPa | 0V | 00:00:00 | 00:00:00 | 00:00:00 | |
| SPACE-12 | 2026-09-05 13:26:44 | 51.13247 | 18.75015 | 100° | 131km/h | 6142m | -3.5m/s | -22.1°C | 0% | 0hPa | 0V | 00:00:00 | 00:00:00 | 00:00:00 | |
| SPACE-12 | 2026-09-05 13:26:42 | 51.13256 | 18.74912 | 98° | 126km/h | 6149m | -3.9m/s | -22.2°C | 0% | 0hPa | 0V | 00:00:00 | 00:00:00 | 00:00:00 | |
| SPACE-12 | 2026-09-05 13:26:40 | 51.13266 | 18.74813 | 102° | 122km/h | 6157m | -3.8m/s | -22.4°C | 0% | 0hPa | 0V | 00:00:00 | 00:00:00 | 00:00:00 | |
| SPACE-12 | 2026-09-05 13:26:38 | 51.13279 | 18.74714 | 103° | 130km/h | 6165m | -3.7m/s | -22.5°C | 0% | 0hPa | 0V | 00:00:00 | 00:00:00 | 00:00:00 | |
| SPACE-12 | 2026-09-05 13:26:37 | 51.13285 | 18.74664 | 103° | 126km/h | 6168m | -3.6m/s | -22.4°C | 0% | 0hPa | 0V | 00:00:00 | 00:00:00 | 00:00:00 | |
| SPACE-12 | 2026-09-05 13:26:35 | 51.13298 | 18.74566 | 103° | 126km/h | 6176m | -3.6m/s | -22.7°C | 0% | 0hPa | 0V | 00:00:00 | 00:00:00 | 00:00:00 | |
| SPACE-12 | 2026-09-05 13:26:33 | 51.13310 | 18.74463 | 100° | 130km/h | 6183m | -3.8m/s | -23.0°C | 0% | 0hPa | 0V | 00:00:00 | 00:00:00 | 00:00:00 | |
| SPACE-12 | 2026-09-05 13:26:31 | 51.13320 | 18.74359 | 101° | 131km/h | 6191m | -3.8m/s | -23.0°C | 0% | 0hPa | 0V | 00:00:00 | 00:00:00 | 00:00:00 | |
| SPACE-12 | 2026-09-05 13:26:29 | 51.13333 | 18.74258 | 103° | 128km/h | 6198m | -3.7m/s | -22.6°C | 0% | 0hPa | 0V | 00:00:00 | 00:00:00 | 00:00:00 | |
| SQ6EMJ | 2026-09-05 13:26:27 | 51.13352 | 18.74104 | 101° | 128km/h | 6210m | -3.5m/s | -23.1°C | 0% | 0hPa | 0V | 00:00:00 | 00:00:00 | 00:00:00 | |
| OE3JTB-15 | 2026-09-05 13:26:26 | 51.13351 | 18.74104 | 100° | 124km/h | 6210m | -3.4m/s | 0°C | 0% | 0hPa | 0V | 00:00:00 | 00:00:00 | 00:00:00 | |
| SPACE-12 | 2026-09-05 13:26:25 | 51.13357 | 18.74053 | 101° | 130km/h | 6213m | -3.5m/s | -23.1°C | 0% | 0hPa | 0V | 00:00:00 | 00:00:00 | 00:00:00 | |
| SP6BVK | 2026-09-05 13:26:24 | 51.13362 | 18.74001 | 100° | 130km/h | 6217m | -3.7m/s | -23.2°C | 0% | 0hPa | 0V | 00:00:00 | 00:00:00 | 00:00:00 | |
| SPACE-12 | 2026-09-05 13:26:23 | 51.13368 | 18.73950 | 102° | 130km/h | 6221m | -3.5m/s | -23.2°C | 0% | 0hPa | 0V | 00:00:00 | 00:00:00 | 00:00:00 | |
| POL1PZ | 2026-09-05 13:26:22 | 51.13374 | 18.73900 | 103° | 124km/h | 6224m | -3.4m/s | -23.1°C | 0% | 0hPa | 0V | 00:00:00 | 00:00:00 | 00:00:00 | |
| SPACE-12 | 2026-09-05 13:26:20 | 51.13388 | 18.73801 | 102° | 130km/h | 6231m | -3.5m/s | -23.1°C | 0% | 0hPa | 0V | 00:00:00 | 00:00:00 | 00:00:00 | |
| SPACE-12 | 2026-09-05 13:26:18 | 51.13400 | 18.73700 | 103° | 126km/h | 6238m | -3.6m/s | -23.6°C | 0% | 0hPa | 0V | 00:00:00 | 00:00:00 | 00:00:00 | |
| SPACE-12 | 2026-09-05 13:26:16 | 51.13411 | 18.73602 | 99° | 120km/h | 6246m | -3.5m/s | -23.7°C | 0% | 0hPa | 0V | 00:00:00 | 00:00:00 | 00:00:00 | |
| SPACE-12 | 2026-09-05 13:26:14 | 51.13420 | 18.73503 | 100° | 130km/h | 6254m | -3.7m/s | -23.5°C | 0% | 0hPa | 0V | 00:00:00 | 00:00:00 | 00:00:00 | |
| SPACE-12 | 2026-09-05 13:26:12 | 51.13432 | 18.73401 | 102° | 126km/h | 6261m | -3.8m/s | -23.5°C | 0% | 0hPa | 0V | 00:00:00 | 00:00:00 | 00:00:00 | |
| SPACE-12 | 2026-09-05 13:26:09 | 51.13448 | 18.73257 | 101° | 120km/h | 6273m | -3.7m/s | -23.5°C | 0% | 0hPa | 0V | 00:00:00 | 00:00:00 | 00:00:00 | |
| SPACE-12 | 2026-09-05 13:26:07 | 51.13457 | 18.73162 | 99° | 120km/h | 6281m | -3.3m/s | -23.4°C | 0% | 0hPa | 0V | 00:00:00 | 00:00:00 | 00:00:00 | |
| SPACE-12 | 2026-09-05 13:26:06 | 51.13465 | 18.73065 | 98° | 119km/h | 6288m | -3.4m/s | -23.8°C | 0% | 0hPa | 0V | 00:00:00 | 00:00:00 | 00:00:00 | |
| SPACE-12 | 2026-09-05 13:26:03 | 51.13472 | 18.72968 | 96° | 124km/h | 6295m | -3.5m/s | -23.9°C | 0% | 0hPa | 0V | 00:00:00 | 00:00:00 | 00:00:00 | |
| POL1PZ | 2026-09-05 13:26:01 | 51.13479 | 18.72866 | 100° | 130km/h | 6302m | -3.6m/s | -23.9°C | 0% | 0hPa | 0V | 00:00:00 | 00:00:00 | 00:00:00 | |
| SPACE-12 | 2026-09-05 13:25:59 | 51.13489 | 18.72767 | 99° | 120km/h | 6309m | -3.3m/s | -24.0°C | 0% | 0hPa | 0V | 00:00:00 | 00:00:00 | 00:00:00 | |
| SPACE-12 | 2026-09-05 13:25:55 | 51.13501 | 18.72571 | 97° | 130km/h | 6323m | -3.5m/s | -24.0°C | 0% | 0hPa | 0V | 00:00:00 | 00:00:00 | 00:00:00 | |
| OE3JTB-15 | 2026-09-05 13:25:52 | 51.13513 | 18.72421 | 97° | 126km/h | 6338m | -3.4m/s | 0°C | 0% | 0hPa | 0V | 00:00:00 | 00:00:00 | 00:00:00 | |
| SPACE-12 | 2026-09-05 13:25:50 | 51.13519 | 18.72325 | 94° | 124km/h | 6341m | -3.3m/s | -24.1°C | 0% | 0hPa | 0V | 00:00:00 | 00:00:00 | 00:00:00 | |
| SPACE-12 | 2026-09-05 13:25:48 | 51.13523 | 18.72223 | 98° | 128km/h | 6348m | -3.5m/s | -24.0°C | 0% | 0hPa | 0V | 00:00:00 | 00:00:00 | 00:00:00 | |
| SPACE-12 | 2026-09-05 13:25:46 | 51.13532 | 18.72124 | 98° | 119km/h | 6355m | -3.6m/s | -24.1°C | 0% | 0hPa | 0V | 00:00:00 | 00:00:00 | 00:00:00 | |
| SPACE-12 | 2026-09-05 13:25:44 | 51.13537 | 18.72027 | 95° | 126km/h | 6362m | -3.3m/s | -24.2°C | 0% | 0hPa | 0V | 00:00:00 | 00:00:00 | 00:00:00 | |
| SP6BVK | 2026-09-05 13:25:43 | 51.13540 | 18.71976 | 96° | 130km/h | 6365m | -3.5m/s | -24.2°C | 0% | 0hPa | 0V | 00:00:00 | 00:00:00 | 00:00:00 | |
| POL1PZ | 2026-09-05 13:25:42 | 51.13547 | 18.71873 | 100° | 126km/h | 6372m | -3.4m/s | -24.2°C | 0% | 0hPa | 0V | 00:00:00 | 00:00:00 | 00:00:00 | |
| SPACE-12 | 2026-09-05 13:25:39 | 51.13554 | 18.71773 | 95° | 126km/h | 6379m | -3.2m/s | -24.4°C | 0% | 0hPa | 0V | 00:00:00 | 00:00:00 | 00:00:00 | |
| SPACE-12 | 2026-09-05 13:25:35 | 51.13569 | 18.71571 | 95° | 126km/h | 6392m | -3.3m/s | -24.5°C | 0% | 0hPa | 0V | 00:00:00 | 00:00:00 | 00:00:00 | |
| SPACE-12 | 2026-09-05 13:25:33 | 51.13577 | 18.71467 | 100° | 128km/h | 6399m | -3.4m/s | -24.5°C | 0% | 0hPa | 0V | 00:00:00 | 00:00:00 | 00:00:00 | |
| SPACE-12 | 2026-09-05 13:25:32 | 51.13581 | 18.71417 | 97° | 124km/h | 6402m | -3.4m/s | -24.6°C | 0% | 0hPa | 0V | 00:00:00 | 00:00:00 | 00:00:00 | |
| SPACE-12 | 2026-09-05 13:25:31 | 51.13588 | 18.71313 | 100° | 131km/h | 6409m | -3.5m/s | -24.5°C | 0% | 0hPa | 0V | 00:00:00 | 00:00:00 | 00:00:00 | |
| SPACE-12 | 2026-09-05 13:25:29 | 51.13592 | 18.71262 | 99° | 124km/h | 6412m | -3.4m/s | -24.5°C | 0% | 0hPa | 0V | 00:00:00 | 00:00:00 | 00:00:00 | |
| SPACE-12 | 2026-09-05 13:25:27 | 51.13600 | 18.71161 | 97° | 131km/h | 6419m | -3.2m/s | -24.5°C | 0% | 0hPa | 0V | 00:00:00 | 00:00:00 | 00:00:00 | |
| SPACE-12 | 2026-09-05 13:25:26 | 51.13604 | 18.71108 | 100° | 131km/h | 6423m | -3.4m/s | -24.5°C | 0% | 0hPa | 0V | 00:00:00 | 00:00:00 | 00:00:00 | |
| SPACE-12 | 2026-09-05 13:25:24 | 51.13613 | 18.71008 | 96° | 128km/h | 6429m | -3.4m/s | -24.6°C | 0% | 0hPa | 0V | 00:00:00 | 00:00:00 | 00:00:00 | |
| OE3JTB-15 | 2026-09-05 13:25:23 | 51.13617 | 18.70955 | 99° | 128km/h | 6436m | -3.8m/s | 0°C | 0% | 0hPa | 0V | 00:00:00 | 00:00:00 | 00:00:00 | |
| SPACE-12 | 2026-09-05 13:25:22 | 51.13622 | 18.70904 | 101° | 124km/h | 6436m | -3.9m/s | -24.3°C | 0% | 0hPa | 0V | 00:00:00 | 00:00:00 | 00:00:00 | |
| POL1PZ | 2026-09-05 13:25:20 | 51.13630 | 18.70806 | 97° | 126km/h | 6444m | -3.5m/s | -24.0°C | 0% | 0hPa | 0V | 00:00:00 | 00:00:00 | 00:00:00 | |
| SPACE-12 | 2026-09-05 13:25:16 | 51.13642 | 18.70601 | 97° | 131km/h | 6458m | -3.7m/s | -23.8°C | 0% | 0hPa | 0V | 00:00:00 | 00:00:00 | 00:00:00 | |
| SPACE-12 | 2026-09-05 13:25:14 | 51.13651 | 18.70497 | 100° | 128km/h | 6465m | -3.7m/s | -23.7°C | 0% | 0hPa | 0V | 00:00:00 | 00:00:00 | 00:00:00 | |
| SPACE-12 | 2026-09-05 13:25:13 | 51.13656 | 18.70447 | 99° | 126km/h | 6468m | -3.8m/s | -23.7°C | 0% | 0hPa | 0V | 00:00:00 | 00:00:00 | 00:00:00 | |
| SPACE-12 | 2026-09-05 13:25:12 | 51.13664 | 18.70347 | 99° | 126km/h | 6476m | -3.4m/s | -23.7°C | 0% | 0hPa | 0V | 00:00:00 | 00:00:00 | 00:00:00 | |
| SPACE-12 | 2026-09-05 13:25:09 | 51.13673 | 18.70246 | 100° | 128km/h | 6483m | -3.8m/s | -23.7°C | 0% | 0hPa | 0V | 00:00:00 | 00:00:00 | 00:00:00 | |
| SPACE-12 | 2026-09-05 13:25:07 | 51.13682 | 18.70145 | 99° | 128km/h | 6490m | -3.7m/s | -23.9°C | 0% | 0hPa | 0V | 00:00:00 | 00:00:00 | 00:00:00 | |
| SPACE-12 | 2026-09-05 13:25:05 | 51.13691 | 18.70043 | 100° | 128km/h | 6498m | -3.7m/s | -24.2°C | 0% | 0hPa | 0V | 00:00:00 | 00:00:00 | 00:00:00 | |
| SPACE-12 | 2026-09-05 13:25:04 | 51.13696 | 18.69992 | 99° | 130km/h | 6501m | -3.7m/s | -24.3°C | 0% | 0hPa | 0V | 00:00:00 | 00:00:00 | 00:00:00 | |
| SP6BVK | 2026-09-05 13:25:02 | 51.13706 | 18.69890 | 99° | 128km/h | 6509m | -3.8m/s | -24.3°C | 0% | 0hPa | 0V | 00:00:00 | 00:00:00 | 00:00:00 | |
| SPACE-12 | 2026-09-05 13:25:01 | 51.13710 | 18.69839 | 99° | 130km/h | 6513m | -3.5m/s | -24.3°C | 0% | 0hPa | 0V | 00:00:00 | 00:00:00 | 00:00:00 | |
| POL1PZ | 2026-09-05 13:25:00 | 51.13714 | 18.69788 | 98° | 126km/h | 6516m | -3.5m/s | -24.2°C | 0% | 0hPa | 0V | 00:00:00 | 00:00:00 | 00:00:00 | |
| SPACE-12 | 2026-09-05 13:24:59 | 51.13718 | 18.69738 | 99° | 126km/h | 6520m | -3.5m/s | -24.1°C | 0% | 0hPa | 0V | 00:00:00 | 00:00:00 | 00:00:00 | |
| SPACE-12 | 2026-09-05 13:24:58 | 51.13723 | 18.69687 | 99° | 130km/h | 6524m | -3.7m/s | -24.0°C | 0% | 0hPa | 0V | 00:00:00 | 00:00:00 | 00:00:00 | |
| SPACE-12 | 2026-09-05 13:24:56 | 51.13732 | 18.69586 | 100° | 128km/h | 6531m | -3.7m/s | -23.7°C | 0% | 0hPa | 0V | 00:00:00 | 00:00:00 | 00:00:00 | |
| OE3JTB-15 | 2026-09-05 13:24:54 | 51.13742 | 18.69482 | 98° | 128km/h | 6541m | -3.3m/s | 0°C | 0% | 0hPa | 0V | 00:00:00 | 00:00:00 | 00:00:00 | |
| SPACE-12 | 2026-09-05 13:24:52 | 51.13749 | 18.69377 | 97° | 126km/h | 6545m | -3.3m/s | -23.9°C | 0% | 0hPa | 0V | 00:00:00 | 00:00:00 | 00:00:00 | |
| SPACE-12 | 2026-09-05 13:24:51 | 51.13753 | 18.69327 | 100° | 128km/h | 6548m | -3.3m/s | -23.9°C | 0% | 0hPa | 0V | 00:00:00 | 00:00:00 | 00:00:00 | |
| SPACE-12 | 2026-09-05 13:24:48 | 51.13764 | 18.69170 | 96° | 128km/h | 6559m | -3.6m/s | -23.9°C | 0% | 0hPa | 0V | 00:00:00 | 00:00:00 | 00:00:00 | |
| SPACE-12 | 2026-09-05 13:24:46 | 51.13772 | 18.69070 | 100° | 126km/h | 6566m | -3.3m/s | -24.0°C | 0% | 0hPa | 0V | 00:00:00 | 00:00:00 | 00:00:00 | |
| SPACE-12 | 2026-09-05 13:24:45 | 51.13777 | 18.69018 | 100° | 131km/h | 6570m | -3.3m/s | -24.0°C | 0% | 0hPa | 0V | 00:00:00 | 00:00:00 | 00:00:00 | |
| SPACE-12 | 2026-09-05 13:24:43 | 51.13787 | 18.68913 | 97° | 131km/h | 6576m | -3.6m/s | -24.1°C | 0% | 0hPa | 0V | 00:00:00 | 00:00:00 | 00:00:00 | |
| SP6BVK | 2026-09-05 13:24:42 | 51.13793 | 18.68810 | 98° | 124km/h | 6584m | -3.5m/s | -24.1°C | 0% | 0hPa | 0V | 00:00:00 | 00:00:00 | 00:00:00 | |
| POL1PZ | 2026-09-05 13:24:39 | 51.13803 | 18.68710 | 101° | 128km/h | 6591m | -3.5m/s | -24.3°C | 0% | 0hPa | 0V | 00:00:00 | 00:00:00 | 00:00:00 | |
| SPACE-12 | 2026-09-05 13:24:37 | 51.13814 | 18.68606 | 99° | 133km/h | 6598m | -3.4m/s | -24.2°C | 0% | 0hPa | 0V | 00:00:00 | 00:00:00 | 00:00:00 | |
| SPACE-12 | 2026-09-05 13:24:35 | 51.13821 | 18.68504 | 97° | 124km/h | 6605m | -3.7m/s | -24.3°C | 0% | 0hPa | 0V | 00:00:00 | 00:00:00 | 00:00:00 | |
| SPACE-12 | 2026-09-05 13:24:33 | 51.13830 | 18.68405 | 100° | 124km/h | 6612m | -3.5m/s | -24.3°C | 0% | 0hPa | 0V | 00:00:00 | 00:00:00 | 00:00:00 | |
| SPACE-12 | 2026-09-05 13:24:32 | 51.13834 | 18.68355 | 100° | 126km/h | 6616m | -3.6m/s | -24.3°C | 0% | 0hPa | 0V | 00:00:00 | 00:00:00 | 00:00:00 | |
| SPACE-12 | 2026-09-05 13:24:30 | 51.13845 | 18.68252 | 98° | 133km/h | 6623m | -3.7m/s | -24.2°C | 0% | 0hPa | 0V | 00:00:00 | 00:00:00 | 00:00:00 | |
| SPACE-12 | 2026-09-05 13:24:28 | 51.13851 | 18.68147 | 96° | 128km/h | 6630m | -3.7m/s | -24.2°C | 0% | 0hPa | 0V | 00:00:00 | 00:00:00 | 00:00:00 | |
| OE3JTB-15 | 2026-09-05 13:24:25 | 51.13862 | 18.67996 | 97° | 130km/h | 6644m | -3.6m/s | 0°C | 0% | 0hPa | 0V | 00:00:00 | 00:00:00 | 00:00:00 | |
| SPACE-12 | 2026-09-05 13:24:22 | 51.13873 | 18.67836 | 96° | 131km/h | 6651m | -3.5m/s | -24.5°C | 0% | 0hPa | 0V | 00:00:00 | 00:00:00 | 00:00:00 | |
| SPACE-12 | 2026-09-05 13:24:20 | 51.13878 | 18.67733 | 96° | 126km/h | 6658m | -3.7m/s | -24.6°C | 0% | 0hPa | 0V | 00:00:00 | 00:00:00 | 00:00:00 | |
| POL1PZ | 2026-09-05 13:24:19 | 51.13881 | 18.67682 | 97° | 126km/h | 6662m | -3.7m/s | -24.9°C | 0% | 0hPa | 0V | 00:00:00 | 00:00:00 | 00:00:00 | |
| SPACE-12 | 2026-09-05 13:24:18 | 51.13884 | 18.67633 | 99° | 126km/h | 6666m | -3.5m/s | -25.0°C | 0% | 0hPa | 0V | 00:00:00 | 00:00:00 | 00:00:00 | |
| SPACE-12 | 2026-09-05 13:24:17 | 51.13889 | 18.67582 | 99° | 130km/h | 6669m | -3.6m/s | -25.1°C | 0% | 0hPa | 0V | 00:00:00 | 00:00:00 | 00:00:00 | |
| SPACE-12 | 2026-09-05 13:24:16 | 51.13899 | 18.67479 | 100° | 130km/h | 6676m | -3.5m/s | -25.1°C | 0% | 0hPa | 0V | 00:00:00 | 00:00:00 | 00:00:00 | |
| SPACE-12 | 2026-09-05 13:24:13 | 51.13910 | 18.67377 | 100° | 130km/h | 6684m | -3.7m/s | -25.2°C | 0% | 0hPa | 0V | 00:00:00 | 00:00:00 | 00:00:00 | |
| SPACE-12 | 2026-09-05 13:24:11 | 51.13920 | 18.67274 | 100° | 128km/h | 6692m | -3.8m/s | -25.1°C | 0% | 0hPa | 0V | 00:00:00 | 00:00:00 | 00:00:00 | |
| SPACE-12 | 2026-09-05 13:24:07 | 51.13940 | 18.67067 | 99° | 130km/h | 6707m | -3.6m/s | -25.8°C | 0% | 0hPa | 0V | 00:00:00 | 00:00:00 | 00:00:00 | |
| SPACE-12 | 2026-09-05 13:24:05 | 51.13949 | 18.66964 | 100° | 128km/h | 6714m | -3.8m/s | -25.8°C | 0% | 0hPa | 0V | 00:00:00 | 00:00:00 | 00:00:00 | |
| SPACE-12 | 2026-09-05 13:24:03 | 51.13959 | 18.66863 | 99° | 126km/h | 6721m | -3.9m/s | -25.9°C | 0% | 0hPa | 0V | 00:00:00 | 00:00:00 | 00:00:00 | |
| SPACE-12 | 2026-09-05 13:24:02 | 51.13963 | 18.66813 | 98° | 126km/h | 6725m | -3.6m/s | -25.9°C | 0% | 0hPa | 0V | 00:00:00 | 00:00:00 | 00:00:00 | |
| SPACE-12 | 2026-09-05 13:24:00 | 51.13970 | 18.66713 | 97° | 126km/h | 6732m | -3.6m/s | -26.0°C | 0% | 0hPa | 0V | 00:00:00 | 00:00:00 | 00:00:00 | |
| SPACE-12 | 2026-09-05 13:23:59 | 51.13976 | 18.66612 | 95° | 130km/h | 6740m | -3.8m/s | -25.9°C | 0% | 0hPa | 0V | 00:00:00 | 00:00:00 | 00:00:00 | |
| POL1PZ | 2026-09-05 13:23:58 | 51.13976 | 18.66612 | 95° | 130km/h | 6740m | -3.8m/s | -25.9°C | 0% | 0hPa | 0V | 00:00:00 | 00:00:00 | 00:00:00 | |
| OE3JTB-15 | 2026-09-05 13:23:56 | 51.13980 | 18.66506 | 94° | 130km/h | 6751m | -3.7m/s | 0°C | 0% | 0hPa | 0V | 00:00:00 | 00:00:00 | 00:00:00 | |
| SPACE-12 | 2026-09-05 13:23:54 | 51.13984 | 18.66402 | 94° | 131km/h | 6755m | -3.8m/s | -26.0°C | 0% | 0hPa | 0V | 00:00:00 | 00:00:00 | 00:00:00 | |
| SPACE-12 | 2026-09-05 13:23:52 | 51.13989 | 18.66295 | 95° | 135km/h | 6762m | -3.6m/s | -25.9°C | 0% | 0hPa | 0V | 00:00:00 | 00:00:00 | 00:00:00 | |
| SPACE-12 | 2026-09-05 13:23:49 | 51.14001 | 18.66136 | 98° | 128km/h | 6773m | -3.5m/s | -25.9°C | 0% | 0hPa | 0V | 00:00:00 | 00:00:00 | 00:00:00 | |
| SPACE-12 | 2026-09-05 13:23:47 | 51.14007 | 18.66036 | 96° | 124km/h | 6780m | -3.7m/s | -25.3°C | 0% | 0hPa | 0V | 00:00:00 | 00:00:00 | 00:00:00 | |
| SPACE-12 | 2026-09-05 13:23:45 | 51.14012 | 18.65934 | 95° | 126km/h | 6788m | -4.0m/s | -24.9°C | 0% | 0hPa | 0V | 00:00:00 | 00:00:00 | 00:00:00 | |
| SPACE-12 | 2026-09-05 13:23:43 | 51.14016 | 18.65832 | 95° | 126km/h | 6795m | -3.9m/s | -25.1°C | 0% | 0hPa | 0V | 00:00:00 | 00:00:00 | 00:00:00 | |
| SPACE-12 | 2026-09-05 13:23:41 | 51.14020 | 18.65731 | 95° | 126km/h | 6803m | -3.9m/s | -25.2°C | 0% | 0hPa | 0V | 00:00:00 | 00:00:00 | 00:00:00 | |
| SP6BVK | 2026-09-05 13:23:40 | 51.14022 | 18.65680 | 95° | 126km/h | 6806m | -3.8m/s | -25.2°C | 0% | 0hPa | 0V | 00:00:00 | 00:00:00 | 00:00:00 | |
| SPACE-12 | 2026-09-05 13:23:39 | 51.14025 | 18.65629 | 96° | 128km/h | 6810m | -3.9m/s | -25.3°C | 0% | 0hPa | 0V | 00:00:00 | 00:00:00 | 00:00:00 | |
| POL1PZ | 2026-09-05 13:23:38 | 51.14027 | 18.65578 | 96° | 126km/h | 6814m | -4.0m/s | -25.3°C | 0% | 0hPa | 0V | 00:00:00 | 00:00:00 | 00:00:00 | |
| SPACE-12 | 2026-09-05 13:23:37 | 51.14030 | 18.65527 | 97° | 126km/h | 6818m | -3.9m/s | -25.3°C | 0% | 0hPa | 0V | 00:00:00 | 00:00:00 | 00:00:00 | |
| SPACE-12 | 2026-09-05 13:23:35 | 51.14037 | 18.65426 | 98° | 128km/h | 6826m | -3.8m/s | -25.2°C | 0% | 0hPa | 0V | 00:00:00 | 00:00:00 | 00:00:00 | |
| SPACE-12 | 2026-09-05 13:23:34 | 51.14042 | 18.65374 | 98° | 131km/h | 6830m | -3.9m/s | -25.3°C | 0% | 0hPa | 0V | 00:00:00 | 00:00:00 | 00:00:00 | |
| SPACE-12 | 2026-09-05 13:23:32 | 51.14049 | 18.65267 | 97° | 135km/h | 6838m | -3.8m/s | -25.5°C | 0% | 0hPa | 0V | 00:00:00 | 00:00:00 | 00:00:00 | |
| SPACE-12 | 2026-09-05 13:23:30 | 51.14056 | 18.65158 | 96° | 135km/h | 6845m | -3.9m/s | -25.5°C | 0% | 0hPa | 0V | 00:00:00 | 00:00:00 | 00:00:00 | |
| SPACE-12 | 2026-09-05 13:23:28 | 51.14062 | 18.65049 | 95° | 135km/h | 6853m | -4.0m/s | -25.5°C | 0% | 0hPa | 0V | 00:00:00 | 00:00:00 | 00:00:00 | |
| OE3JTB-15 | 2026-09-05 13:23:27 | 51.14064 | 18.64995 | 95° | 139km/h | 6860m | -3.9m/s | 0°C | 0% | 0hPa | 0V | 00:00:00 | 00:00:00 | 00:00:00 | |
| SPACE-12 | 2026-09-05 13:23:26 | 51.14067 | 18.64942 | 95° | 131km/h | 6860m | -4.0m/s | -25.8°C | 0% | 0hPa | 0V | 00:00:00 | 00:00:00 | 00:00:00 | |
| SPACE-12 | 2026-09-05 13:23:22 | 51.14079 | 18.64734 | 97° | 131km/h | 6876m | -3.9m/s | -26.6°C | 0% | 0hPa | 0V | 00:00:00 | 00:00:00 | 00:00:00 | |
| SPACE-12 | 2026-09-05 13:23:21 | 51.14083 | 18.64682 | 98° | 130km/h | 6881m | -4.0m/s | -26.7°C | 0% | 0hPa | 0V | 00:00:00 | 00:00:00 | 00:00:00 | |
| SP6BVK | 2026-09-05 13:23:20 | 51.14091 | 18.64577 | 98° | 131km/h | 6889m | -4.0m/s | -26.8°C | 0% | 0hPa | 0V | 00:00:00 | 00:00:00 | 00:00:00 | |
| SPACE-12 | 2026-09-05 13:23:19 | 51.14091 | 18.64577 | 98° | 131km/h | 6889m | -4.0m/s | -26.8°C | 0% | 0hPa | 0V | 00:00:00 | 00:00:00 | 00:00:00 | |
| SPACE-12 | 2026-09-05 13:23:18 | 51.14099 | 18.64472 | 97° | 131km/h | 6897m | -3.8m/s | -26.6°C | 0% | 0hPa | 0V | 00:00:00 | 00:00:00 | 00:00:00 | |
| POL1PZ | 2026-09-05 13:23:17 | 51.14099 | 18.64472 | 97° | 131km/h | 6897m | -3.8m/s | -26.6°C | 0% | 0hPa | 0V | 00:00:00 | 00:00:00 | 00:00:00 | |
| SPACE-12 | 2026-09-05 13:23:15 | 51.14106 | 18.64367 | 97° | 133km/h | 6905m | -3.7m/s | -26.9°C | 0% | 0hPa | 0V | 00:00:00 | 00:00:00 | 00:00:00 | |
| SPACE-12 | 2026-09-05 13:23:13 | 51.14112 | 18.64257 | 97° | 139km/h | 6912m | -4.2m/s | -26.8°C | 0% | 0hPa | 0V | 00:00:00 | 00:00:00 | 00:00:00 | |
| SPACE-12 | 2026-09-05 13:23:12 | 51.14117 | 18.64202 | 97° | 139km/h | 6916m | -4.2m/s | -26.9°C | 0% | 0hPa | 0V | 00:00:00 | 00:00:00 | 00:00:00 | |
| SPACE-12 | 2026-09-05 13:23:11 | 51.14124 | 18.64091 | 98° | 141km/h | 6924m | -3.9m/s | -26.9°C | 0% | 0hPa | 0V | 00:00:00 | 00:00:00 | 00:00:00 | |
| SPACE-12 | 2026-09-05 13:23:09 | 51.14128 | 18.64035 | 98° | 139km/h | 6928m | -3.9m/s | -27.0°C | 0% | 0hPa | 0V | 00:00:00 | 00:00:00 | 00:00:00 | |
| SPACE-12 | 2026-09-05 13:23:07 | 51.14138 | 18.63923 | 99° | 141km/h | 6935m | -4.1m/s | -26.9°C | 0% | 0hPa | 0V | 00:00:00 | 00:00:00 | 00:00:00 | |
| SPACE-12 | 2026-09-05 13:23:06 | 51.14142 | 18.63868 | 99° | 139km/h | 6939m | -3.9m/s | -26.9°C | 0% | 0hPa | 0V | 00:00:00 | 00:00:00 | 00:00:00 | |
| SPACE-12 | 2026-09-05 13:23:05 | 51.14153 | 18.63758 | 99° | 137km/h | 6947m | -3.9m/s | -27.1°C | 0% | 0hPa | 0V | 00:00:00 | 00:00:00 | 00:00:00 | |
| SPACE-12 | 2026-09-05 13:23:02 | 51.14163 | 18.63650 | 99° | 133km/h | 6955m | -3.7m/s | -27.2°C | 0% | 0hPa | 0V | 00:00:00 | 00:00:00 | 00:00:00 | |
| SPACE-12 | 2026-09-05 13:23:00 | 51.14172 | 18.63544 | 98° | 133km/h | 6963m | -4.0m/s | -26.7°C | 0% | 0hPa | 0V | 00:00:00 | 00:00:00 | 00:00:00 | |
| SPACE-12 | 2026-09-05 13:22:59 | 51.14176 | 18.63491 | 98° | 131km/h | 6967m | -4.1m/s | -26.7°C | 0% | 0hPa | 0V | 00:00:00 | 00:00:00 | 00:00:00 | |
| SP6BVK | 2026-09-05 13:22:58 | 51.14180 | 18.63437 | 98° | 137km/h | 6970m | -3.8m/s | -26.8°C | 0% | 0hPa | 0V | 00:00:00 | 00:00:00 | 00:00:00 | |
| POL1PZ | 2026-09-05 13:22:57 | 51.14184 | 18.63383 | 97° | 133km/h | 6974m | -3.8m/s | -26.9°C | 0% | 0hPa | 0V | 00:00:00 | 00:00:00 | 00:00:00 | |
| SPACE-12 | 2026-09-05 13:22:56 | 51.14188 | 18.63327 | 98° | 142km/h | 6978m | -4.1m/s | -26.9°C | 0% | 0hPa | 0V | 00:00:00 | 00:00:00 | 00:00:00 | |
| SPACE-12 | 2026-09-05 13:22:54 | 51.14196 | 18.63215 | 98° | 142km/h | 6986m | -4.3m/s | -26.6°C | 0% | 0hPa | 0V | 00:00:00 | 00:00:00 | 00:00:00 | |
| SPACE-12 | 2026-09-05 13:22:53 | 51.14201 | 18.63158 | 97° | 141km/h | 6990m | -3.7m/s | -26.2°C | 0% | 0hPa | 0V | 00:00:00 | 00:00:00 | 00:00:00 | |
| SPACE-12 | 2026-09-05 13:22:51 | 51.14209 | 18.63045 | 98° | 142km/h | 6998m | -4.0m/s | -26.5°C | 0% | 0hPa | 0V | 00:00:00 | 00:00:00 | 00:00:00 | |
| SPACE-12 | 2026-09-05 13:22:49 | 51.14218 | 18.62931 | 98° | 142km/h | 7006m | -4.1m/s | -26.7°C | 0% | 0hPa | 0V | 00:00:00 | 00:00:00 | 00:00:00 | |
| SPACE-12 | 2026-09-05 13:22:47 | 51.14226 | 18.62816 | 97° | 142km/h | 7014m | -3.9m/s | -26.9°C | 0% | 0hPa | 0V | 00:00:00 | 00:00:00 | 00:00:00 | |
| SPACE-12 | 2026-09-05 13:22:45 | 51.14233 | 18.62702 | 96° | 142km/h | 7021m | -4.0m/s | -26.9°C | 0% | 0hPa | 0V | 00:00:00 | 00:00:00 | 00:00:00 | |
| SPACE-12 | 2026-09-05 13:22:43 | 51.14240 | 18.62591 | 97° | 137km/h | 7029m | -4.0m/s | -27.4°C | 0% | 0hPa | 0V | 00:00:00 | 00:00:00 | 00:00:00 | |
| SPACE-12 | 2026-09-05 13:22:42 | 51.14244 | 18.62536 | 98° | 139km/h | 7033m | -4.1m/s | -27.5°C | 0% | 0hPa | 0V | 00:00:00 | 00:00:00 | 00:00:00 | |
| SPACE-12 | 2026-09-05 13:22:39 | 51.14258 | 18.62368 | 99° | 142km/h | 7045m | -3.6m/s | -27.3°C | 0% | 0hPa | 0V | 00:00:00 | 00:00:00 | 00:00:00 | |
| OE3JTB-15 | 2026-09-05 13:22:38 | 51.14263 | 18.62312 | 98° | 146km/h | 7052m | -3.6m/s | 0°C | 0% | 0hPa | 0V | 00:00:00 | 00:00:00 | 00:00:00 | |
| SPACE-12 | 2026-09-05 13:22:37 | 51.14271 | 18.62197 | 97° | 146km/h | 7056m | -3.8m/s | -27.0°C | 0% | 0hPa | 0V | 00:00:00 | 00:00:00 | 00:00:00 | |
| POL1PZ | 2026-09-05 13:22:36 | 51.14271 | 18.62197 | 97° | 146km/h | 7056m | -3.8m/s | -27.0°C | 0% | 0hPa | 0V | 00:00:00 | 00:00:00 | 00:00:00 | |
| SPACE-12 | 2026-09-05 13:22:33 | 51.14284 | 18.62022 | 98° | 142km/h | 7067m | -3.6m/s | -26.9°C | 0% | 0hPa | 0V | 00:00:00 | 00:00:00 | 00:00:00 | |
| SPACE-12 | 2026-09-05 13:22:30 | 51.14296 | 18.61846 | 95° | 150km/h | 7078m | -3.8m/s | -27.5°C | 0% | 0hPa | 0V | 00:00:00 | 00:00:00 | 00:00:00 | |
| SPACE-12 | 2026-09-05 13:22:29 | 51.14299 | 18.61787 | 94° | 144km/h | 7082m | -4.2m/s | -27.5°C | 0% | 0hPa | 0V | 00:00:00 | 00:00:00 | 00:00:00 | |
| SPACE-12 | 2026-09-05 13:22:28 | 51.14305 | 18.61673 | 96° | 142km/h | 7090m | -4.0m/s | -27.9°C | 0% | 0hPa | 0V | 00:00:00 | 00:00:00 | 00:00:00 | |
| SPACE-12 | 2026-09-05 13:22:27 | 51.14308 | 18.61616 | 96° | 142km/h | 7094m | -3.9m/s | -28.0°C | 0% | 0hPa | 0V | 00:00:00 | 00:00:00 | 00:00:00 | |
| SPACE-12 | 2026-09-05 13:22:24 | 51.14316 | 18.61501 | 97° | 146km/h | 7102m | -4.1m/s | -28.1°C | 0% | 0hPa | 0V | 00:00:00 | 00:00:00 | 00:00:00 | |
| SPACE-12 | 2026-09-05 13:22:21 | 51.14328 | 18.61328 | 96° | 142km/h | 7115m | -3.9m/s | -28.1°C | 0% | 0hPa | 0V | 00:00:00 | 00:00:00 | 00:00:00 | |
| SPACE-12 | 2026-09-05 13:22:18 | 51.14336 | 18.61155 | 94° | 146km/h | 7126m | -3.7m/s | -27.8°C | 0% | 0hPa | 0V | 00:00:00 | 00:00:00 | 00:00:00 | |
| SP6BVK | 2026-09-05 13:22:17 | 51.14339 | 18.61097 | 95° | 142km/h | 7130m | -4.0m/s | -28.0°C | 0% | 0hPa | 0V | 00:00:00 | 00:00:00 | 00:00:00 | |
| POL1PZ | 2026-09-05 13:22:16 | 51.14341 | 18.61039 | 95° | 144km/h | 7134m | -4.0m/s | -27.7°C | 0% | 0hPa | 0V | 00:00:00 | 00:00:00 | 00:00:00 | |
| SPACE-12 | 2026-09-05 13:22:15 | 51.14346 | 18.60922 | 95° | 144km/h | 7141m | -3.6m/s | -27.4°C | 0% | 0hPa | 0V | 00:00:00 | 00:00:00 | 00:00:00 | |
| SPACE-12 | 2026-09-05 13:22:13 | 51.14349 | 18.60863 | 94° | 148km/h | 7145m | -3.6m/s | -27.3°C | 0% | 0hPa | 0V | 00:00:00 | 00:00:00 | 00:00:00 | |
| SPACE-12 | 2026-09-05 13:22:12 | 51.14351 | 18.60804 | 94° | 148km/h | 7149m | -3.9m/s | -27.3°C | 0% | 0hPa | 0V | 00:00:00 | 00:00:00 | 00:00:00 | |
| SPACE-12 | 2026-09-05 13:22:09 | 51.14358 | 18.60565 | 94° | 148km/h | 7164m | -3.6m/s | -27.9°C | 0% | 0hPa | 0V | 00:00:00 | 00:00:00 | 00:00:00 | |
| SPACE-12 | 2026-09-05 13:22:05 | 51.14369 | 18.60332 | 97° | 148km/h | 7179m | -4.0m/s | -27.9°C | 0% | 0hPa | 0V | 00:00:00 | 00:00:00 | 00:00:00 | |
| SPACE-12 | 2026-09-05 13:22:03 | 51.14373 | 18.60272 | 97° | 151km/h | 7183m | -3.9m/s | -27.8°C | 0% | 0hPa | 0V | 00:00:00 | 00:00:00 | 00:00:00 | |
| SP6BVK | 2026-09-05 13:21:57 | 51.14388 | 18.59906 | 94° | 148km/h | 7205m | -3.8m/s | -28.3°C | 0% | 0hPa | 0V | 00:00:00 | 00:00:00 | 00:00:00 | |
| SPACE-12 | 2026-09-05 13:21:56 | 51.14391 | 18.59846 | 95° | 153km/h | 7213m | -4.0m/s | -28.4°C | 0% | 0hPa | 0V | 00:00:00 | 00:00:00 | 00:00:00 | |
| POL1PZ | 2026-09-05 13:21:55 | 51.14393 | 18.59784 | 94° | 151km/h | 7213m | -4.0m/s | -28.4°C | 0% | 0hPa | 0V | 00:00:00 | 00:00:00 | 00:00:00 | |
| SPACE-12 | 2026-09-05 13:21:53 | 51.14397 | 18.59665 | 95° | 146km/h | 7221m | -4.1m/s | -28.3°C | 0% | 0hPa | 0V | 00:00:00 | 00:00:00 | 00:00:00 | |
| SPACE-12 | 2026-09-05 13:21:51 | 51.14404 | 18.59548 | 97° | 148km/h | 7229m | -4.2m/s | -28.3°C | 0% | 0hPa | 0V | 00:00:00 | 00:00:00 | 00:00:00 | |
| SPACE-12 | 2026-09-05 13:21:49 | 51.14412 | 18.59427 | 96° | 151km/h | 7237m | -3.9m/s | -28.4°C | 0% | 0hPa | 0V | 00:00:00 | 00:00:00 | 00:00:00 | |
| SPACE-12 | 2026-09-05 13:21:47 | 51.14420 | 18.59306 | 97° | 153km/h | 7245m | -4.3m/s | -28.3°C | 0% | 0hPa | 0V | 00:00:00 | 00:00:00 | 00:00:00 | |
| SPACE-12 | 2026-09-05 13:21:46 | 51.14424 | 18.59245 | 98° | 153km/h | 7249m | -3.8m/s | -28.4°C | 0% | 0hPa | 0V | 00:00:00 | 00:00:00 | 00:00:00 | |
| SPACE-12 | 2026-09-05 13:21:45 | 51.14430 | 18.59121 | 95° | 151km/h | 7257m | -4.2m/s | -28.6°C | 0% | 0hPa | 0V | 00:00:00 | 00:00:00 | 00:00:00 | |
| SPACE-12 | 2026-09-05 13:21:43 | 51.14433 | 18.59061 | 95° | 150km/h | 7261m | -4.0m/s | -28.7°C | 0% | 0hPa | 0V | 00:00:00 | 00:00:00 | 00:00:00 | |
| SPACE-12 | 2026-09-05 13:21:42 | 51.14436 | 18.59001 | 96° | 146km/h | 7265m | -4.3m/s | -28.8°C | 0% | 0hPa | 0V | 00:00:00 | 00:00:00 | 00:00:00 | |
| SPACE-12 | 2026-09-05 13:21:41 | 51.14443 | 18.58883 | 97° | 148km/h | 7274m | -4.0m/s | -28.9°C | 0% | 0hPa | 0V | 00:00:00 | 00:00:00 | 00:00:00 | |
| OE3JTB-15 | 2026-09-05 13:21:40 | 51.14443 | 18.58884 | 96° | 150km/h | 7282m | -3.9m/s | 0°C | 0% | 0hPa | 0V | 00:00:00 | 00:00:00 | 00:00:00 | |
| SPACE-12 | 2026-09-05 13:21:38 | 51.14451 | 18.58765 | 96° | 146km/h | 7282m | -4.0m/s | -28.9°C | 0% | 0hPa | 0V | 00:00:00 | 00:00:00 | 00:00:00 | |
| SP6BVK | 2026-09-05 13:21:37 | 51.14460 | 18.58646 | 98° | 153km/h | 7290m | -3.9m/s | -28.7°C | 0% | 0hPa | 0V | 00:00:00 | 00:00:00 | 00:00:00 | |
| SPACE-12 | 2026-09-05 13:21:36 | 51.14460 | 18.58646 | 98° | 153km/h | 7290m | -3.9m/s | -28.7°C | 0% | 0hPa | 0V | 00:00:00 | 00:00:00 | 00:00:00 | |
| SPACE-12 | 2026-09-05 13:21:35 | 51.14467 | 18.58524 | 95° | 151km/h | 7298m | -4.5m/s | -29.1°C | 0% | 0hPa | 0V | 00:00:00 | 00:00:00 | 00:00:00 | |
| POL1PZ | 2026-09-05 13:21:34 | 51.14467 | 18.58524 | 95° | 151km/h | 7298m | -4.5m/s | -29.1°C | 0% | 0hPa | 0V | 00:00:00 | 00:00:00 | 00:00:00 | |
| SPACE-12 | 2026-09-05 13:21:32 | 51.14474 | 18.58401 | 97° | 153km/h | 7306m | -3.9m/s | -29.1°C | 0% | 0hPa | 0V | 00:00:00 | 00:00:00 | 00:00:00 | |
| SPACE-12 | 2026-09-05 13:21:30 | 51.14482 | 18.58281 | 96° | 148km/h | 7314m | -3.9m/s | -28.9°C | 0% | 0hPa | 0V | 00:00:00 | 00:00:00 | 00:00:00 | |
| SPACE-12 | 2026-09-05 13:21:21 | 51.14521 | 18.57736 | 99° | 148km/h | 7350m | -4.2m/s | -29.8°C | 0% | 0hPa | 0V | 00:00:00 | 00:00:00 | 00:00:00 | |
| SPACE-12 | 2026-09-05 13:21:19 | 51.14531 | 18.57618 | 99° | 150km/h | 7358m | -4.1m/s | -29.8°C | 0% | 0hPa | 0V | 00:00:00 | 00:00:00 | 00:00:00 | |
| SPACE-12 | 2026-09-05 13:21:17 | 51.14540 | 18.57501 | 96° | 144km/h | 7367m | -4.2m/s | -30.1°C | 0% | 0hPa | 0V | 00:00:00 | 00:00:00 | 00:00:00 | |
| SP6BVK | 2026-09-05 13:21:16 | 51.14543 | 18.57441 | 95° | 151km/h | 7371m | -4.4m/s | -30.3°C | 0% | 0hPa | 0V | 00:00:00 | 00:00:00 | 00:00:00 | |
| POL1PZ | 2026-09-05 13:21:14 | 51.14551 | 18.57321 | 98° | 144km/h | 7380m | -4.1m/s | -30.2°C | 0% | 0hPa | 0V | 00:00:00 | 00:00:00 | 00:00:00 | |
| SPACE-12 | 2026-09-05 13:21:13 | 51.14555 | 18.57262 | 96° | 150km/h | 7384m | -4.2m/s | -30.0°C | 0% | 0hPa | 0V | 00:00:00 | 00:00:00 | 00:00:00 | |
| SPACE-12 | 2026-09-05 13:21:10 | 51.14567 | 18.57082 | 98° | 151km/h | 7397m | -4.0m/s | -30.0°C | 0% | 0hPa | 0V | 00:00:00 | 00:00:00 | 00:00:00 | |
| OE3JTB-15 | 2026-09-05 13:21:09 | 51.14572 | 18.57023 | 97° | 146km/h | 7401m | -4.2m/s | 0°C | 0% | 0hPa | 0V | 00:00:00 | 00:00:00 | 00:00:00 | |
| SPACE-12 | 2026-09-05 13:21:04 | 51.14592 | 18.56722 | 99° | 150km/h | 7422m | -3.8m/s | -29.9°C | 0% | 0hPa | 0V | 00:00:00 | 00:00:00 | 00:00:00 | |
| SPACE-12 | 2026-09-05 13:20:59 | 51.14611 | 18.56425 | 98° | 144km/h | 7441m | -3.8m/s | -29.4°C | 0% | 0hPa | 0V | 00:00:00 | 00:00:00 | 00:00:00 | |
| SPACE-12 | 2026-09-05 13:20:58 | 51.14614 | 18.56366 | 95° | 146km/h | 7445m | -3.6m/s | -29.2°C | 0% | 0hPa | 0V | 00:00:00 | 00:00:00 | 00:00:00 | |
| SPACE-12 | 2026-09-05 13:20:55 | 51.14626 | 18.56184 | 99° | 148km/h | 7456m | -3.8m/s | -29.9°C | 0% | 0hPa | 0V | 00:00:00 | 00:00:00 | 00:00:00 | |
| POL1PZ | 2026-09-05 13:20:53 | 51.14633 | 18.56068 | 94° | 148km/h | 7463m | -3.8m/s | -29.8°C | 0% | 0hPa | 0V | 00:00:00 | 00:00:00 | 00:00:00 | |
| SPACE-12 | 2026-09-05 13:20:49 | 51.14649 | 18.55828 | 96° | 142km/h | 7478m | -3.8m/s | -29.5°C | 0% | 0hPa | 0V | 00:00:00 | 00:00:00 | 00:00:00 | |
| SPACE-12 | 2026-09-05 13:20:45 | 51.14663 | 18.55590 | 96° | 142km/h | 7493m | -3.8m/s | -29.7°C | 0% | 0hPa | 0V | 00:00:00 | 00:00:00 | 00:00:00 | |
| OE3JTB-15 | 2026-09-05 13:20:40 | 51.14680 | 18.55292 | 94° | 150km/h | 7516m | -3.7m/s | 0°C | 0% | 0hPa | 0V | 00:00:00 | 00:00:00 | 00:00:00 | |
| SPACE-12 | 2026-09-05 13:20:36 | 51.14694 | 18.55054 | 94° | 146km/h | 7527m | -3.8m/s | -29.4°C | 0% | 0hPa | 0V | 00:00:00 | 00:00:00 | 00:00:00 | |
| SP6BVK | 2026-09-05 13:20:35 | 51.14697 | 18.54993 | 95° | 155km/h | 7531m | -3.8m/s | -29.4°C | 0% | 0hPa | 0V | 00:00:00 | 00:00:00 | 00:00:00 | |
| POL1PZ | 2026-09-05 13:20:33 | 51.14704 | 18.54874 | 97° | 144km/h | 7539m | -3.9m/s | -29.5°C | 0% | 0hPa | 0V | 00:00:00 | 00:00:00 | 00:00:00 | |
| SPACE-12 | 2026-09-05 13:20:29 | 51.14717 | 18.54635 | 95° | 144km/h | 7554m | -4.0m/s | -29.6°C | 0% | 0hPa | 0V | 00:00:00 | 00:00:00 | 00:00:00 | |
| SPACE-12 | 2026-09-05 13:20:28 | 51.14719 | 18.54576 | 93° | 150km/h | 7558m | -3.9m/s | -29.6°C | 0% | 0hPa | 0V | 00:00:00 | 00:00:00 | 00:00:00 | |
| SPACE-12 | 2026-09-05 13:20:25 | 51.14729 | 18.54394 | 96° | 144km/h | 7570m | -3.7m/s | -29.9°C | 0% | 0hPa | 0V | 00:00:00 | 00:00:00 | 00:00:00 | |
| SPACE-12 | 2026-09-05 13:20:23 | 51.14737 | 18.54212 | 98° | 151km/h | 7581m | -3.7m/s | -30.1°C | 0% | 0hPa | 0V | 00:00:00 | 00:00:00 | 00:00:00 | |
| SPACE-12 | 2026-09-05 13:20:21 | 51.14741 | 18.54153 | 96° | 144km/h | 7585m | -4.0m/s | -30.1°C | 0% | 0hPa | 0V | 00:00:00 | 00:00:00 | 00:00:00 | |
| SPACE-12 | 2026-09-05 13:20:19 | 51.14749 | 18.53971 | 98° | 150km/h | 7592m | -3.7m/s | -30.2°C | 0% | 0hPa | 0V | 00:00:00 | 00:00:00 | 00:00:00 | |
| SPACE-12 | 2026-09-05 13:20:16 | 51.14755 | 18.53853 | 93° | 150km/h | 7604m | -3.8m/s | -30.0°C | 0% | 0hPa | 0V | 00:00:00 | 00:00:00 | 00:00:00 | |
| SP6BVK | 2026-09-05 13:20:15 | 51.14761 | 18.53730 | 98° | 150km/h | 7611m | -3.9m/s | -30.2°C | 0% | 0hPa | 0V | 00:00:00 | 00:00:00 | 00:00:00 | |
| SPACE-12 | 2026-09-05 13:20:12 | 51.14767 | 18.53611 | 93° | 155km/h | 7619m | -3.8m/s | -29.9°C | 0% | 0hPa | 0V | 00:00:00 | 00:00:00 | 00:00:00 | |
| SPACE-12 | 2026-09-05 13:20:09 | 51.14776 | 18.53429 | 94° | 146km/h | 7630m | -4.0m/s | -30.3°C | 0% | 0hPa | 0V | 00:00:00 | 00:00:00 | 00:00:00 | |
| SQ6EMJ | 2026-09-05 13:20:07 | 51.14780 | 18.53306 | 97° | 155km/h | 7638m | -3.7m/s | -30.4°C | 0% | 0hPa | 0V | 00:00:00 | 00:00:00 | 00:00:00 | |
| SPACE-12 | 2026-09-05 13:20:05 | 51.14786 | 18.53186 | 93° | 150km/h | 7645m | -3.8m/s | -30.3°C | 0% | 0hPa | 0V | 00:00:00 | 00:00:00 | 00:00:00 | |
| OE3JTB-15 | 2026-09-05 13:20:03 | 51.14792 | 18.53062 | 97° | 151km/h | 7661m | -3.6m/s | 0°C | 0% | 0hPa | 0V | 00:00:00 | 00:00:00 | 00:00:00 | |
| SQ6EMJ | 2026-09-05 13:20:00 | 51.14799 | 18.52819 | 97° | 159km/h | 7668m | -3.8m/s | -30.6°C | 0% | 0hPa | 0V | 00:00:00 | 00:00:00 | 00:00:00 | |
| SPACE-12 | 2026-09-05 13:19:58 | 51.14806 | 18.52759 | 95° | 146km/h | 7672m | -3.8m/s | -30.8°C | 0% | 0hPa | 0V | 00:00:00 | 00:00:00 | 00:00:00 | |
| SPACE-12 | 2026-09-05 13:19:56 | 51.14814 | 18.52575 | 97° | 150km/h | 7683m | -3.7m/s | -31.0°C | 0% | 0hPa | 0V | 00:00:00 | 00:00:00 | 00:00:00 | |
| SP6BVK | 2026-09-05 13:19:54 | 51.14817 | 18.52516 | 94° | 146km/h | 7687m | -3.8m/s | -31.1°C | 0% | 0hPa | 0V | 00:00:00 | 00:00:00 | 00:00:00 | |
| POL1PZ | 2026-09-05 13:19:52 | 51.14821 | 18.52393 | 96° | 157km/h | 7694m | -3.8m/s | -31.8°C | 0% | 0hPa | 0V | 00:00:00 | 00:00:00 | 00:00:00 | |
| SPACE-12 | 2026-09-05 13:19:51 | 51.14825 | 18.52332 | 97° | 148km/h | 7698m | -3.8m/s | -31.9°C | 0% | 0hPa | 0V | 00:00:00 | 00:00:00 | 00:00:00 | |
| SPACE-12 | 2026-09-05 13:19:50 | 51.14828 | 18.52273 | 93° | 146km/h | 7702m | -3.8m/s | -31.8°C | 0% | 0hPa | 0V | 00:00:00 | 00:00:00 | 00:00:00 | |
| SPACE-12 | 2026-09-05 13:19:46 | 51.14845 | 18.51908 | 98° | 151km/h | 7720m | -3.7m/s | -32.1°C | 0% | 0hPa | 0V | 00:00:00 | 00:00:00 | 00:00:00 | |
| SPACE-12 | 2026-09-05 13:19:43 | 51.14849 | 18.51849 | 95° | 144km/h | 7728m | -3.9m/s | -32.1°C | 0% | 0hPa | 0V | 00:00:00 | 00:00:00 | 00:00:00 | |
| SPACE-12 | 2026-09-05 13:19:42 | 51.14851 | 18.51790 | 93° | 151km/h | 7740m | -3.8m/s | -32.1°C | 0% | 0hPa | 0V | 00:00:00 | 00:00:00 | 00:00:00 | |
| OE3JTB-15 | 2026-09-05 13:19:34 | 51.14873 | 18.51306 | 94° | 150km/h | 7766m | -3.8m/s | 0°C | 0% | 0hPa | 0V | 00:00:00 | 00:00:00 | 00:00:00 | |
| SP6BVK | 2026-09-05 13:19:33 | 51.14877 | 18.51245 | 98° | 150km/h | 7766m | -3.9m/s | -32.7°C | 0% | 0hPa | 0V | 00:00:00 | 00:00:00 | 00:00:00 | |
| POL1PZ | 2026-09-05 13:19:31 | 51.14882 | 18.51126 | 93° | 153km/h | 7774m | -3.8m/s | -32.6°C | 0% | 0hPa | 0V | 00:00:00 | 00:00:00 | 00:00:00 | |
| SQ6EMJ | 2026-09-05 13:19:26 | 51.14895 | 18.50824 | 98° | 151km/h | 7793m | -3.8m/s | -33.1°C | 0% | 0hPa | 0V | 00:00:00 | 00:00:00 | 00:00:00 | |
| SQ6EMJ | 2026-09-05 13:19:20 | 51.14917 | 18.50405 | 98° | 146km/h | 7818m | -3.8m/s | -33.5°C | 0% | 0hPa | 0V | 00:00:00 | 00:00:00 | 00:00:00 | |
| SPACE-12 | 2026-09-05 13:19:14 | 51.14931 | 18.50110 | 93° | 146km/h | 7837m | -3.9m/s | -33.6°C | 0% | 0hPa | 0V | 00:00:00 | 00:00:00 | 00:00:00 | |
| SPACE-12 | 2026-09-05 13:19:13 | 51.14936 | 18.50050 | 96° | 146km/h | 7845m | -3.7m/s | -33.6°C | 0% | 0hPa | 0V | 00:00:00 | 00:00:00 | 00:00:00 | |
| POL1PZ | 2026-09-05 13:19:11 | 51.14939 | 18.49933 | 94° | 142km/h | 7848m | -3.8m/s | -33.5°C | 0% | 0hPa | 0V | 00:00:00 | 00:00:00 | 00:00:00 | |
| SQ6EMJ | 2026-09-05 13:19:08 | 51.14949 | 18.49755 | 96° | 141km/h | 7864m | -3.8m/s | !°C | 0% | 0hPa | 0V | 00:00:00 | 00:00:00 | 00:00:00 | |
| SPACE-12 | 2026-09-05 13:19:06 | 51.14958 | 18.49577 | 98° | 146km/h | 7871m | -4.2m/s | -33.2°C | 0% | 0hPa | 0V | 00:00:00 | 00:00:00 | 00:00:00 | |
| OE3JTB-15 | 2026-09-05 13:19:05 | 51.14958 | 18.49577 | 98° | 148km/h | 7875m | -3.8m/s | 0°C | 0% | 0hPa | 0V | 00:00:00 | 00:00:00 | 00:00:00 | |
| SPACE-12 | 2026-09-05 13:19:03 | 51.14964 | 18.49461 | 93° | 146km/h | 7879m | -3.8m/s | -33.3°C | 0% | 0hPa | 0V | 00:00:00 | 00:00:00 | 00:00:00 | |
| SQ6EMJ | 2026-09-05 13:19:02 | 51.14970 | 18.49341 | 98° | 148km/h | 7886m | -4.0m/s | -33.4°C | 0% | 0hPa | 0V | 00:00:00 | 00:00:00 | 00:00:00 | |
| SPACE-12 | 2026-09-05 13:19:01 | 51.14970 | 18.49341 | 98° | 148km/h | 7886m | -4.0m/s | -33.4°C | 0% | 0hPa | 0V | 00:00:00 | 00:00:00 | 00:00:00 | |
| SPACE-12 | 2026-09-05 13:18:59 | 51.14977 | 18.49226 | 94° | 144km/h | 7894m | -3.8m/s | -33.7°C | 0% | 0hPa | 0V | 00:00:00 | 00:00:00 | 00:00:00 | |
| SPACE-12 | 2026-09-05 13:18:58 | 51.14980 | 18.49167 | 93° | 151km/h | 7898m | -3.7m/s | -33.7°C | 0% | 0hPa | 0V | 00:00:00 | 00:00:00 | 00:00:00 | |
| SQ6EMJ | 2026-09-05 13:18:57 | 51.14984 | 18.49047 | 97° | 144km/h | 7905m | -3.7m/s | -33.9°C | 0% | 0hPa | 0V | 00:00:00 | 00:00:00 | 00:00:00 | |
| SPACE-12 | 2026-09-05 13:18:55 | 51.14988 | 18.48990 | 94° | 142km/h | 7909m | -3.9m/s | -34.0°C | 0% | 0hPa | 0V | 00:00:00 | 00:00:00 | 00:00:00 | |
| SPACE-12 | 2026-09-05 13:18:53 | 51.14995 | 18.48809 | 97° | 150km/h | 7921m | -3.8m/s | -34.0°C | 0% | 0hPa | 0V | 00:00:00 | 00:00:00 | 00:00:00 | |
| SQ6EMJ | 2026-09-05 13:18:51 | 51.15002 | 18.48693 | 95° | 142km/h | 7928m | -3.7m/s | -34.1°C | 0% | 0hPa | 0V | 00:00:00 | 00:00:00 | 00:00:00 | |
| POL1PZ | 2026-09-05 13:18:50 | 51.15002 | 18.48693 | 95° | 142km/h | 7928m | -3.7m/s | -34.1°C | 0% | 0hPa | 0V | 00:00:00 | 00:00:00 | 00:00:00 | |
| SPACE-12 | 2026-09-05 13:18:49 | 51.15003 | 18.48635 | 93° | 146km/h | 7932m | -3.8m/s | -34.1°C | 0% | 0hPa | 0V | 00:00:00 | 00:00:00 | 00:00:00 | |
| SPACE-12 | 2026-09-05 13:18:46 | 51.15012 | 18.48453 | 98° | 148km/h | 7943m | -3.8m/s | -34.3°C | 0% | 0hPa | 0V | 00:00:00 | 00:00:00 | 00:00:00 | |
| SPACE-12 | 2026-09-05 13:18:45 | 51.15016 | 18.48396 | 96° | 141km/h | 7947m | -3.8m/s | -34.4°C | 0% | 0hPa | 0V | 00:00:00 | 00:00:00 | 00:00:00 | |
| SPACE-12 | 2026-09-05 13:18:42 | 51.15024 | 18.48158 | 97° | 150km/h | 7961m | -3.7m/s | -34.3°C | 0% | 0hPa | 0V | 00:00:00 | 00:00:00 | 00:00:00 | |
| SQ6EMJ | 2026-09-05 13:18:40 | 51.15031 | 18.48042 | 95° | 142km/h | 7969m | -3.7m/s | -34.2°C | 0% | 0hPa | 0V | 00:00:00 | 00:00:00 | 00:00:00 | |
| SPACE-12 | 2026-09-05 13:18:39 | 51.15031 | 18.48042 | 95° | 142km/h | 7969m | -3.7m/s | -34.2°C | 0% | 0hPa | 0V | 00:00:00 | 00:00:00 | 00:00:00 | |
| SPACE-12 | 2026-09-05 13:18:38 | 51.15032 | 18.47985 | 93° | 144km/h | 7973m | -3.8m/s | -34.1°C | 0% | 0hPa | 0V | 00:00:00 | 00:00:00 | 00:00:00 | |
| OE3JTB-15 | 2026-09-05 13:18:36 | 51.15035 | 18.47860 | 96° | 161km/h | 7984m | -3.7m/s | 0°C | 0% | 0hPa | 0V | 00:00:00 | 00:00:00 | 00:00:00 | |
| SQ6EMJ | 2026-09-05 13:18:33 | 51.15044 | 18.47684 | 94° | 144km/h | 7991m | -3.8m/s | -34.2°C | 0% | 0hPa | 0V | 00:00:00 | 00:00:00 | 00:00:00 | |
| SP6BVK | 2026-09-05 13:18:32 | 51.15045 | 18.47625 | 92° | 148km/h | 7995m | -3.7m/s | -34.2°C | 0% | 0hPa | 0V | 00:00:00 | 00:00:00 | 00:00:00 | |
| SPACE-12 | 2026-09-05 13:18:30 | 51.15053 | 18.47502 | 96° | 146km/h | 8002m | -3.6m/s | -34.1°C | 0% | 0hPa | 0V | 00:00:00 | 00:00:00 | 00:00:00 | |
| SQ6EMJ | 2026-09-05 13:18:29 | 51.15055 | 18.47383 | 93° | 144km/h | 8010m | -3.7m/s | -34.0°C | 0% | 0hPa | 0V | 00:00:00 | 00:00:00 | 00:00:00 | |
| SPACE-12 | 2026-09-05 13:18:28 | 51.15055 | 18.47383 | 93° | 144km/h | 8010m | -3.7m/s | -34.0°C | 0% | 0hPa | 0V | 00:00:00 | 00:00:00 | 00:00:00 | |
| SQ6EMJ | 2026-09-05 13:18:23 | 51.15067 | 18.47022 | 92° | 150km/h | 8032m | -3.7m/s | -34.1°C | 0% | 0hPa | 0V | 00:00:00 | 00:00:00 | 00:00:00 | |
| SPACE-12 | 2026-09-05 13:18:22 | 51.15067 | 18.47022 | 92° | 150km/h | 8032m | -3.7m/s | -34.1°C | 0% | 0hPa | 0V | 00:00:00 | 00:00:00 | 00:00:00 | |
| SPACE-12 | 2026-09-05 13:18:18 | 51.15076 | 18.46777 | 93° | 148km/h | 8047m | -3.6m/s | -34.2°C | 0% | 0hPa | 0V | 00:00:00 | 00:00:00 | 00:00:00 | |
| SPACE-12 | 2026-09-05 13:18:17 | 51.15077 | 18.46716 | 92° | 155km/h | 8051m | -3.8m/s | -34.5°C | 0% | 0hPa | 0V | 00:00:00 | 00:00:00 | 00:00:00 | |
| SPACE-12 | 2026-09-05 13:18:14 | 51.15086 | 18.46531 | 95° | 146km/h | 8062m | -3.8m/s | -34.6°C | 0% | 0hPa | 0V | 00:00:00 | 00:00:00 | 00:00:00 | |
| SPACE-12 | 2026-09-05 13:18:13 | 51.15088 | 18.46471 | 93° | 148km/h | 8066m | -3.6m/s | -34.7°C | 0% | 0hPa | 0V | 00:00:00 | 00:00:00 | 00:00:00 | |
| SP6BVK | 2026-09-05 13:18:12 | 51.15090 | 18.46347 | 94° | 161km/h | 8073m | -3.8m/s | -34.9°C | 0% | 0hPa | 0V | 00:00:00 | 00:00:00 | 00:00:00 | |
| SPACE-12 | 2026-09-05 13:18:10 | 51.15096 | 18.46222 | 97° | 151km/h | 8076m | -3.7m/s | -35.2°C | 0% | 0hPa | 0V | 00:00:00 | 00:00:00 | 00:00:00 | |
| POL1PZ | 2026-09-05 13:18:09 | 51.15096 | 18.46222 | 97° | 151km/h | 8080m | -3.8m/s | -35.1°C | 0% | 0hPa | 0V | 00:00:00 | 00:00:00 | 00:00:00 | |
| SPACE-12 | 2026-09-05 13:18:07 | 51.15101 | 18.46102 | 92° | 150km/h | 8088m | -3.8m/s | -35.2°C | 0% | 0hPa | 0V | 00:00:00 | 00:00:00 | 00:00:00 | |
| SQ6EMJ | 2026-09-05 13:18:05 | 51.15103 | 18.45977 | 93° | 161km/h | 8095m | -3.8m/s | -35.5°C | 0% | 0hPa | 0V | 00:00:00 | 00:00:00 | 00:00:00 | |
| SPACE-12 | 2026-09-05 13:18:03 | 51.15109 | 18.45850 | 97° | 155km/h | 8102m | -3.6m/s | -35.6°C | 0% | 0hPa | 0V | 00:00:00 | 00:00:00 | 00:00:00 | |
| SPACE-12 | 2026-09-05 13:18:01 | 51.15114 | 18.45729 | 93° | 148km/h | 8110m | -3.8m/s | -35.5°C | 0% | 0hPa | 0V | 00:00:00 | 00:00:00 | 00:00:00 | |
| SQ6EMJ | 2026-09-05 13:18:00 | 51.15115 | 18.45668 | 92° | 155km/h | 8113m | -3.8m/s | -35.4°C | 0% | 0hPa | 0V | 00:00:00 | 00:00:00 | 00:00:00 | |
| SQ6EMJ | 2026-09-05 13:17:54 | 51.15129 | 18.45295 | 92° | 157km/h | 8137m | -3.8m/s | -35.9°C | 0% | 0hPa | 0V | 00:00:00 | 00:00:00 | 00:00:00 | |
| SPACE-12 | 2026-09-05 13:17:52 | 51.15134 | 18.45167 | 97° | 159km/h | 8144m | -3.7m/s | -36.1°C | 0% | 0hPa | 0V | 00:00:00 | 00:00:00 | 00:00:00 | |
| SP6BVK | 2026-09-05 13:17:51 | 51.15138 | 18.45105 | 97° | 153km/h | 8148m | -3.8m/s | -36.1°C | 0% | 0hPa | 0V | 00:00:00 | 00:00:00 | 00:00:00 | |
| POL1PZ | 2026-09-05 13:17:49 | 51.15144 | 18.44985 | 93° | 150km/h | 8155m | -3.7m/s | -35.7°C | 0% | 0hPa | 0V | 00:00:00 | 00:00:00 | 00:00:00 | |
| SPACE-12 | 2026-09-05 13:17:46 | 51.15155 | 18.44736 | 97° | 150km/h | 8170m | -3.8m/s | -35.4°C | 0% | 0hPa | 0V | 00:00:00 | 00:00:00 | 00:00:00 | |
| SQ6EMJ | 2026-09-05 13:17:44 | 51.15160 | 18.44616 | 93° | 151km/h | 8178m | -3.9m/s | -35.5°C | 0% | 0hPa | 0V | 00:00:00 | 00:00:00 | 00:00:00 | |
| SPACE-12 | 2026-09-05 13:17:43 | 51.15160 | 18.44616 | 93° | 151km/h | 8178m | -3.9m/s | -35.5°C | 0% | 0hPa | 0V | 00:00:00 | 00:00:00 | 00:00:00 | |
| SPACE-12 | 2026-09-05 13:17:39 | 51.15173 | 18.44367 | 96° | 148km/h | 8193m | -3.7m/s | -35.8°C | 0% | 0hPa | 0V | 00:00:00 | 00:00:00 | 00:00:00 | |
| SQ6EMJ | 2026-09-05 13:17:38 | 51.15177 | 18.44245 | 94° | 157km/h | 8200m | -3.8m/s | -36.0°C | 0% | 0hPa | 0V | 00:00:00 | 00:00:00 | 00:00:00 | |
| SPACE-12 | 2026-09-05 13:17:33 | 51.15193 | 18.43995 | 96° | 148km/h | 8215m | -3.8m/s | -36.3°C | 0% | 0hPa | 0V | 00:00:00 | 00:00:00 | 00:00:00 | |
| SPACE-12 | 2026-09-05 13:17:32 | 51.15196 | 18.43934 | 95° | 150km/h | 8219m | -3.8m/s | -36.3°C | 0% | 0hPa | 0V | 00:00:00 | 00:00:00 | 00:00:00 | |
| SP6BVK | 2026-09-05 13:17:31 | 51.15200 | 18.43810 | 95° | 159km/h | 8227m | -3.9m/s | -36.5°C | 0% | 0hPa | 0V | 00:00:00 | 00:00:00 | 00:00:00 | |
| SPACE-12 | 2026-09-05 13:17:29 | 51.15203 | 18.43746 | 96° | 161km/h | 8231m | -3.7m/s | -36.6°C | 0% | 0hPa | 0V | 00:00:00 | 00:00:00 | 00:00:00 | |
| POL1PZ | 2026-09-05 13:17:28 | 51.15208 | 18.43682 | 99° | 157km/h | 8234m | -3.8m/s | -36.6°C | 0% | 0hPa | 0V | 00:00:00 | 00:00:00 | 00:00:00 | |
| SQ6EMJ | 2026-09-05 13:17:27 | 51.15217 | 18.43561 | 96° | 148km/h | 8242m | -3.7m/s | -36.7°C | 0% | 0hPa | 0V | 00:00:00 | 00:00:00 | 00:00:00 | |
| SPACE-12 | 2026-09-05 13:17:26 | 51.15217 | 18.43561 | 96° | 148km/h | 8242m | -3.7m/s | -36.7°C | 0% | 0hPa | 0V | 00:00:00 | 00:00:00 | 00:00:00 | |
| SPACE-12 | 2026-09-05 13:17:25 | 51.15220 | 18.43500 | 95° | 157km/h | 8246m | -3.6m/s | -36.7°C | 0% | 0hPa | 0V | 00:00:00 | 00:00:00 | 00:00:00 | |
| SPACE-12 | 2026-09-05 13:17:22 | 51.15232 | 18.43311 | 99° | 151km/h | 8256m | -3.7m/s | -36.7°C | 0% | 0hPa | 0V | 00:00:00 | 00:00:00 | 00:00:00 | |
| SQ6EMJ | 2026-09-05 13:17:21 | 51.15236 | 18.43251 | 97° | 150km/h | 8260m | -3.8m/s | -36.7°C | 0% | 0hPa | 0V | 00:00:00 | 00:00:00 | 00:00:00 | |
| SPACE-12 | 2026-09-05 13:17:20 | 51.15240 | 18.43191 | 95° | 150km/h | 8264m | -3.7m/s | -36.7°C | 0% | 0hPa | 0V | 00:00:00 | 00:00:00 | 00:00:00 | |
| SPACE-12 | 2026-09-05 13:17:17 | 51.15248 | 18.43001 | 97° | 162km/h | 8275m | -3.7m/s | -36.9°C | 0% | 0hPa | 0V | 00:00:00 | 00:00:00 | 00:00:00 | |
| SPACE-12 | 2026-09-05 13:17:16 | 51.15258 | 18.42876 | 98° | 151km/h | 8283m | -3.8m/s | -37.0°C | 0% | 0hPa | 0V | 00:00:00 | 00:00:00 | 00:00:00 | |
| SPACE-12 | 2026-09-05 13:17:14 | 51.15262 | 18.42816 | 95° | 150km/h | 8287m | -3.9m/s | -36.9°C | 0% | 0hPa | 0V | 00:00:00 | 00:00:00 | 00:00:00 | |
| SPACE-12 | 2026-09-05 13:17:09 | 51.15281 | 18.42502 | 97° | 151km/h | 8306m | -3.9m/s | -37.0°C | 0% | 0hPa | 0V | 00:00:00 | 00:00:00 | 00:00:00 | |
| POL1PZ | 2026-09-05 13:17:08 | 51.15284 | 18.42440 | 94° | 153km/h | 8310m | -3.9m/s | -37.0°C | 0% | 0hPa | 0V | 00:00:00 | 00:00:00 | 00:00:00 | |
| SPACE-12 | 2026-09-05 13:17:07 | 51.15289 | 18.42312 | 95° | 164km/h | 8317m | -3.9m/s | -37.2°C | 0% | 0hPa | 0V | 00:00:00 | 00:00:00 | 00:00:00 | |
| SQ6EMJ | 2026-09-05 13:17:05 | 51.15298 | 18.42183 | 98° | 157km/h | 8325m | -3.9m/s | -37.3°C | 0% | 0hPa | 0V | 00:00:00 | 00:00:00 | 00:00:00 | |
| SPACE-12 | 2026-09-05 13:17:03 | 51.15302 | 18.42121 | 96° | 151km/h | 8329m | -4.0m/s | -37.3°C | 0% | 0hPa | 0V | 00:00:00 | 00:00:00 | 00:00:00 | |
| SPACE-12 | 2026-09-05 13:17:00 | 51.15312 | 18.41928 | 98° | 162km/h | 8341m | -3.8m/s | -37.3°C | 0% | 0hPa | 0V | 00:00:00 | 00:00:00 | 00:00:00 | |
| SPACE-12 | 2026-09-05 13:16:59 | 51.15321 | 18.41803 | 96° | 153km/h | 8348m | -4.0m/s | -37.2°C | 0% | 0hPa | 0V | 00:00:00 | 00:00:00 | 00:00:00 | |
| SPACE-12 | 2026-09-05 13:16:56 | 51.15325 | 18.41677 | 93° | 161km/h | 8356m | -3.9m/s | -37.2°C | 0% | 0hPa | 0V | 00:00:00 | 00:00:00 | 00:00:00 | |
| SQ6EMJ | 2026-09-05 13:16:53 | 51.15335 | 18.41479 | 98° | 159km/h | 8368m | -3.9m/s | -37.4°C | 0% | 0hPa | 0V | 00:00:00 | 00:00:00 | 00:00:00 | |
| SPACE-12 | 2026-09-05 13:16:52 | 51.15339 | 18.41416 | 96° | 155km/h | 8372m | -3.8m/s | -37.4°C | 0% | 0hPa | 0V | 00:00:00 | 00:00:00 | 00:00:00 | |
| SP6BVK | 2026-09-05 13:16:49 | 51.15346 | 18.41221 | 96° | 170km/h | 8384m | -3.8m/s | -37.5°C | 0% | 0hPa | 0V | 00:00:00 | 00:00:00 | 00:00:00 | |
| SQ6EMJ | 2026-09-05 13:16:48 | 51.15354 | 18.41091 | 96° | 157km/h | 8391m | -3.8m/s | -37.5°C | 0% | 0hPa | 0V | 00:00:00 | 00:00:00 | 00:00:00 | |
| POL1PZ | 2026-09-05 13:16:47 | 51.15354 | 18.41091 | 96° | 157km/h | 8391m | -3.8m/s | -37.5°C | 0% | 0hPa | 0V | 00:00:00 | 00:00:00 | 00:00:00 | |
| SQ6EMJ | 2026-09-05 13:16:42 | 51.15372 | 18.40764 | 97° | 157km/h | 8411m | -4.0m/s | -37.6°C | 0% | 0hPa | 0V | 00:00:00 | 00:00:00 | 00:00:00 | |
| SPACE-12 | 2026-09-05 13:16:41 | 51.15375 | 18.40701 | 95° | 157km/h | 8415m | -4.1m/s | -37.6°C | 0% | 0hPa | 0V | 00:00:00 | 00:00:00 | 00:00:00 | |
| SQ6EMJ | 2026-09-05 13:16:37 | 51.15388 | 18.40369 | 98° | 166km/h | 8435m | -4.0m/s | -37.9°C | 0% | 0hPa | 0V | 00:00:00 | 00:00:00 | 00:00:00 | |
| SQ6EMJ | 2026-09-05 13:16:31 | 51.15404 | 18.40041 | 96° | 172km/h | 8458m | -4.0m/s | -38.0°C | 0% | 0hPa | 0V | 00:00:00 | 00:00:00 | 00:00:00 | |
| SPACE-12 | 2026-09-05 13:16:30 | 51.15413 | 18.39908 | 97° | 161km/h | 8462m | -4.1m/s | -38.0°C | 0% | 0hPa | 0V | 00:00:00 | 00:00:00 | 00:00:00 | |
| SP6BVK | 2026-09-05 13:16:29 | 51.15417 | 18.39844 | 95° | 157km/h | 8466m | -4.0m/s | -38.0°C | 0% | 0hPa | 0V | 00:00:00 | 00:00:00 | 00:00:00 | |
| SPACE-12 | 2026-09-05 13:16:28 | 51.15417 | 18.39844 | 95° | 157km/h | 8466m | -4.0m/s | -38.0°C | 0% | 0hPa | 0V | 00:00:00 | 00:00:00 | 00:00:00 | |
| POL1PZ | 2026-09-05 13:16:27 | 51.15421 | 18.39713 | 93° | 170km/h | 8474m | -3.9m/s | -38.0°C | 0% | 0hPa | 0V | 00:00:00 | 00:00:00 | 00:00:00 | |
| SQ6EMJ | 2026-09-05 13:16:25 | 51.15423 | 18.39645 | 95° | 172km/h | 8478m | -3.9m/s | -38.2°C | 0% | 0hPa | 0V | 00:00:00 | 00:00:00 | 00:00:00 | |
| SQ6EMJ | 2026-09-05 13:16:20 | 51.15443 | 18.39250 | 95° | 172km/h | 8503m | -4.1m/s | -38.2°C | 0% | 0hPa | 0V | 00:00:00 | 00:00:00 | 00:00:00 | |
| SQ6EMJ | 2026-09-05 13:16:14 | 51.15471 | 18.38854 | 96° | 157km/h | 8527m | -4.0m/s | -38.3°C | 0% | 0hPa | 0V | 00:00:00 | 00:00:00 | 00:00:00 | |
| SP6BVK | 2026-09-05 13:16:08 | 51.15483 | 18.38525 | 97° | 168km/h | 8548m | -4.3m/s | -38.5°C | 0% | 0hPa | 0V | 00:00:00 | 00:00:00 | 00:00:00 | |
| POL1PZ | 2026-09-05 13:16:04 | 51.15501 | 18.38267 | 94° | 157km/h | 8565m | -4.1m/s | -37.6°C | 0% | 0hPa | 0V | 00:00:00 | 00:00:00 | 00:00:00 | |
| SQ6EMJ | 2026-09-05 13:16:03 | 51.15504 | 18.38139 | 93° | 161km/h | 8573m | -4.2m/s | -36.9°C | 0% | 0hPa | 0V | 00:00:00 | 00:00:00 | 00:00:00 | |
| SQ6EMJ | 2026-09-05 13:15:57 | 51.15515 | 18.37750 | 94° | 166km/h | 8598m | -4.0m/s | -38.9°C | 0% | 0hPa | 0V | 00:00:00 | 00:00:00 | 00:00:00 | |
| SQ6EMJ | 2026-09-05 13:15:50 | 51.15536 | 18.37361 | 94° | 164km/h | 8623m | -4.2m/s | -39.1°C | 0% | 0hPa | 0V | 00:00:00 | 00:00:00 | 00:00:00 | |
| SP6BVK | 2026-09-05 13:15:47 | 51.15549 | 18.37163 | 98° | 159km/h | 8635m | -4.2m/s | -39.3°C | 0% | 0hPa | 0V | 00:00:00 | 00:00:00 | 00:00:00 | |
| POL1PZ | 2026-09-05 13:15:44 | 51.15559 | 18.36974 | 94° | 162km/h | 8648m | -4.3m/s | -39.1°C | 0% | 0hPa | 0V | 00:00:00 | 00:00:00 | 00:00:00 | |
| SQ6EMJ | 2026-09-05 13:15:43 | 51.15562 | 18.36908 | 95° | 168km/h | 8652m | -4.2m/s | -39.2°C | 0% | 0hPa | 0V | 00:00:00 | 00:00:00 | 00:00:00 | |
| SQ6EMJ | 2026-09-05 13:15:38 | 51.15582 | 18.36585 | 94° | 159km/h | 8673m | -4.2m/s | -39.3°C | 0% | 0hPa | 0V | 00:00:00 | 00:00:00 | 00:00:00 | |
| SQ6EMJ | 2026-09-05 13:15:32 | 51.15604 | 18.36189 | 97° | 157km/h | 8698m | -4.4m/s | -39.6°C | 0% | 0hPa | 0V | 00:00:00 | 00:00:00 | 00:00:00 | |
| SQ6EMJ | 2026-09-05 13:15:28 | 51.15619 | 18.35858 | 98° | 170km/h | 8719m | -4.3m/s | -39.9°C | 0% | 0hPa | 0V | 00:00:00 | 00:00:00 | 00:00:00 | |
| SP6BVK | 2026-09-05 13:15:27 | 51.15619 | 18.35858 | 98° | 170km/h | 8719m | -4.3m/s | -39.9°C | 0% | 0hPa | 0V | 00:00:00 | 00:00:00 | 00:00:00 | |
| POL1PZ | 2026-09-05 13:15:24 | 51.15636 | 18.35600 | 95° | 159km/h | 8737m | -4.5m/s | -39.8°C | 0% | 0hPa | 0V | 00:00:00 | 00:00:00 | 00:00:00 | |
| SQ6EMJ | 2026-09-05 13:15:22 | 51.15640 | 18.35469 | 94° | 166km/h | 8746m | -4.4m/s | -39.9°C | 0% | 0hPa | 0V | 00:00:00 | 00:00:00 | 00:00:00 | |
| SQ6EMJ | 2026-09-05 13:15:16 | 51.15656 | 18.35126 | 98° | 170km/h | 8767m | -4.2m/s | -40.2°C | 0% | 0hPa | 0V | 00:00:00 | 00:00:00 | 00:00:00 | |
| SQ6EMJ | 2026-09-05 13:15:11 | 51.15680 | 18.34735 | 94° | 170km/h | 8793m | -4.3m/s | -40.2°C | 0% | 0hPa | 0V | 00:00:00 | 00:00:00 | 00:00:00 | |
| SP6BVK | 2026-09-05 13:15:07 | 51.15697 | 18.34462 | 99° | 164km/h | 8811m | -4.2m/s | -40.4°C | 0% | 0hPa | 0V | 00:00:00 | 00:00:00 | 00:00:00 | |
| SQ6EMJ | 2026-09-05 13:15:05 | 51.15706 | 18.34332 | 95° | 162km/h | 8819m | -4.3m/s | -40.3°C | 0% | 0hPa | 0V | 00:00:00 | 00:00:00 | 00:00:00 | |
| POL1PZ | 2026-09-05 13:15:02 | 51.15712 | 18.34197 | 96° | 175km/h | 8828m | -4.2m/s | -40.4°C | 0% | 0hPa | 0V | 00:00:00 | 00:00:00 | 00:00:00 | |
| SQ6EMJ | 2026-09-05 13:15:00 | 51.15728 | 18.33992 | 98° | 162km/h | 8840m | -4.2m/s | -40.5°C | 0% | 0hPa | 0V | 00:00:00 | 00:00:00 | 00:00:00 | |
| SQ6EMJ | 2026-09-05 13:14:53 | 51.15753 | 18.33582 | 98° | 173km/h | 8866m | -4.4m/s | -40.8°C | 0% | 0hPa | 0V | 00:00:00 | 00:00:00 | 00:00:00 | |
| SQ6EMJ | 2026-09-05 13:14:47 | 51.15777 | 18.33182 | 94° | 173km/h | 8893m | -4.3m/s | -40.8°C | 0% | 0hPa | 0V | 00:00:00 | 00:00:00 | 00:00:00 | |
| SP6BVK | 2026-09-05 13:14:46 | 51.15780 | 18.33112 | 95° | 175km/h | 8897m | -4.3m/s | -40.9°C | 0% | 0hPa | 0V | 00:00:00 | 00:00:00 | 00:00:00 | |
| POL1PZ | 2026-09-05 13:14:42 | 51.15801 | 18.32837 | 98° | 164km/h | 8914m | -4.4m/s | -41.0°C | 0% | 0hPa | 0V | 00:00:00 | 00:00:00 | 00:00:00 | |
| SQ6EMJ | 2026-09-05 13:14:36 | 51.15818 | 18.32433 | 95° | 177km/h | 8941m | -4.3m/s | -41.2°C | 0% | 0hPa | 0V | 00:00:00 | 00:00:00 | 00:00:00 | |
| SQ6EMJ | 2026-09-05 13:14:31 | 51.15840 | 18.32094 | 94° | 166km/h | 8963m | -4.5m/s | -41.1°C | 0% | 0hPa | 0V | 00:00:00 | 00:00:00 | 00:00:00 | |
| SP6BVK | 2026-09-05 13:14:25 | 51.15858 | 18.31676 | 98° | 175km/h | 8989m | -4.5m/s | -41.6°C | 0% | 0hPa | 0V | 00:00:00 | 00:00:00 | 00:00:00 | |
| POL1PZ | 2026-09-05 13:14:21 | 51.15879 | 18.31409 | 96° | 162km/h | 9008m | -4.6m/s | -41.3°C | 0% | 0hPa | 0V | 00:00:00 | 00:00:00 | 00:00:00 | |
| SQ6EMJ | 2026-09-05 13:14:20 | 51.15882 | 18.31343 | 95° | 164km/h | 9012m | -4.6m/s | -41.2°C | 0% | 0hPa | 0V | 00:00:00 | 00:00:00 | 00:00:00 | |
| SQ6EMJ | 2026-09-05 13:14:15 | 51.15899 | 18.30932 | 97° | 177km/h | 9039m | -4.6m/s | -41.8°C | 0% | 0hPa | 0V | 00:00:00 | 00:00:00 | 00:00:00 | |
| SQ6EMJ | 2026-09-05 13:14:08 | 51.15932 | 18.30529 | 96° | 164km/h | 9067m | -4.6m/s | -41.8°C | 0% | 0hPa | 0V | 00:00:00 | 00:00:00 | 00:00:00 | |
| SP6BVK | 2026-09-05 13:14:05 | 51.15941 | 18.30327 | 95° | 175km/h | 9080m | -4.5m/s | -42.1°C | 0% | 0hPa | 0V | 00:00:00 | 00:00:00 | 00:00:00 | |
| SQ6EMJ | 2026-09-05 13:14:03 | 51.15951 | 18.30185 | 99° | 177km/h | 9089m | -4.7m/s | -42.3°C | 0% | 0hPa | 0V | 00:00:00 | 00:00:00 | 00:00:00 | |
| POL1PZ | 2026-09-05 13:14:01 | 51.15963 | 18.30047 | 100° | 172km/h | 9098m | -4.6m/s | -42.4°C | 0% | 0hPa | 0V | 00:00:00 | 00:00:00 | 00:00:00 | |
| SQ6EMJ | 2026-09-05 13:13:57 | 51.15983 | 18.29783 | 95° | 170km/h | 9117m | -4.6m/s | -42.3°C | 0% | 0hPa | 0V | 00:00:00 | 00:00:00 | 00:00:00 | |
| SQ6EMJ | 2026-09-05 13:13:52 | 51.16012 | 18.29363 | 100° | 175km/h | 9144m | -4.5m/s | -42.7°C | 0% | 0hPa | 0V | 00:00:00 | 00:00:00 | 00:00:00 | |
| SQ6EMJ | 2026-09-05 13:13:46 | 51.16045 | 18.29033 | 98° | 162km/h | 9167m | -4.6m/s | -42.1°C | 0% | 0hPa | 0V | 00:00:00 | 00:00:00 | 00:00:00 | |
| SP6BVK | 2026-09-05 13:13:44 | 51.16053 | 18.28902 | 96° | 166km/h | 9176m | -4.7m/s | -42.3°C | 0% | 0hPa | 0V | 00:00:00 | 00:00:00 | 00:00:00 | |
| SQ6EMJ | 2026-09-05 13:13:41 | 51.16070 | 18.28630 | 98° | 173km/h | 9194m | -4.6m/s | -43.0°C | 0% | 0hPa | 0V | 00:00:00 | 00:00:00 | 00:00:00 | |
| POL1PZ | 2026-09-05 13:13:40 | 51.16070 | 18.28630 | 98° | 173km/h | 9194m | -4.6m/s | -43.0°C | 0% | 0hPa | 0V | 00:00:00 | 00:00:00 | 00:00:00 | |
| SQ6EMJ | 2026-09-05 13:13:35 | 51.16104 | 18.28297 | 99° | 159km/h | 9217m | -4.5m/s | -43.0°C | 0% | 0hPa | 0V | 00:00:00 | 00:00:00 | 00:00:00 | |
| SQ6EMJ | 2026-09-05 13:13:29 | 51.16129 | 18.27904 | 98° | 172km/h | 9243m | -4.5m/s | -43.0°C | 0% | 0hPa | 0V | 00:00:00 | 00:00:00 | 00:00:00 | |
| SQ6EMJ | 2026-09-05 13:13:24 | 51.16170 | 18.27508 | 100° | 157km/h | 9270m | -4.8m/s | -42.9°C | 0% | 0hPa | 0V | 00:00:00 | 00:00:00 | 00:00:00 | |
| POL1PZ | 2026-09-05 13:13:20 | 51.16182 | 18.27320 | 96° | 157km/h | 9284m | -4.6m/s | -43.0°C | 0% | 0hPa | 0V | 00:00:00 | 00:00:00 | 00:00:00 | |
| SQ6EMJ | 2026-09-05 13:13:18 | 51.16189 | 18.27191 | 95° | 166km/h | 9293m | -4.8m/s | -43.3°C | 0% | 0hPa | 0V | 00:00:00 | 00:00:00 | 00:00:00 | |
| SQ6EMJ | 2026-09-05 13:13:13 | 51.16221 | 18.26791 | 100° | 161km/h | 9321m | -4.6m/s | -43.6°C | 0% | 0hPa | 0V | 00:00:00 | 00:00:00 | 00:00:00 | |
| SQ6EMJ | 2026-09-05 13:13:08 | 51.16245 | 18.26477 | 95° | 159km/h | 9344m | -4.6m/s | -43.5°C | 0% | 0hPa | 0V | 00:00:00 | 00:00:00 | 00:00:00 | |
| SP6BVK | 2026-09-05 13:13:03 | 51.16257 | 18.26211 | 97° | 172km/h | 9362m | -4.5m/s | -43.8°C | 0% | 0hPa | 0V | 00:00:00 | 00:00:00 | 00:00:00 | |
| POL1PZ | 2026-09-05 13:12:59 | 51.16281 | 18.25944 | 100° | 161km/h | 9380m | -4.6m/s | -43.9°C | 0% | 0hPa | 0V | 00:00:00 | 00:00:00 | 00:00:00 | |
| SQ6EMJ | 2026-09-05 13:12:56 | 51.16296 | 18.25755 | 96° | 157km/h | 9394m | -4.6m/s | -43.8°C | 0% | 0hPa | 0V | 00:00:00 | 00:00:00 | 00:00:00 | |
| SQ6EMJ | 2026-09-05 13:12:51 | 51.16317 | 18.25358 | 99° | 170km/h | 9420m | -4.6m/s | -44.2°C | 0% | 0hPa | 0V | 00:00:00 | 00:00:00 | 00:00:00 | |
| SQ6EMJ | 2026-09-05 13:12:45 | 51.16346 | 18.24969 | 95° | 170km/h | 9448m | -4.6m/s | -44.3°C | 0% | 0hPa | 0V | 00:00:00 | 00:00:00 | 00:00:00 | |
| SP6BVK | 2026-09-05 13:12:43 | 51.16350 | 18.24900 | 98° | 172km/h | 9452m | -4.5m/s | -44.3°C | 0% | 0hPa | 0V | 00:00:00 | 00:00:00 | 00:00:00 | |
| POL1PZ | 2026-09-05 13:12:39 | 51.16370 | 18.24640 | 95° | 164km/h | 9470m | -4.4m/s | -44.4°C | 0% | 0hPa | 0V | 00:00:00 | 00:00:00 | 00:00:00 | |
| SQ6EMJ | 2026-09-05 13:12:34 | 51.16399 | 18.24245 | 95° | 168km/h | 9496m | -4.5m/s | -44.6°C | 0% | 0hPa | 0V | 00:00:00 | 00:00:00 | 00:00:00 | |
| SQ6EMJ | 2026-09-05 13:12:28 | 51.16424 | 18.23914 | 95° | 164km/h | 9518m | -4.4m/s | -44.8°C | 0% | 0hPa | 0V | 00:00:00 | 00:00:00 | 00:00:00 | |
| SP6BVK | 2026-09-05 13:12:23 | 51.16453 | 18.23512 | 95° | 170km/h | 9545m | -4.4m/s | -45.0°C | 0% | 0hPa | 0V | 00:00:00 | 00:00:00 | 00:00:00 | |
| POL1PZ | 2026-09-05 13:12:18 | 51.16475 | 18.23244 | 96° | 162km/h | 9562m | -4.4m/s | -45.2°C | 0% | 0hPa | 0V | 00:00:00 | 00:00:00 | 00:00:00 | |
| SQ6EMJ | 2026-09-05 13:12:17 | 51.16482 | 18.23108 | 97° | 177km/h | 9571m | -4.4m/s | -45.2°C | 0% | 0hPa | 0V | 00:00:00 | 00:00:00 | 00:00:00 | |
| SQ6EMJ | 2026-09-05 13:12:11 | 51.16507 | 18.22770 | 95° | 173km/h | 9593m | -4.4m/s | -45.3°C | 0% | 0hPa | 0V | 00:00:00 | 00:00:00 | 00:00:00 | |
| SQ6EMJ | 2026-09-05 13:12:06 | 51.16537 | 18.22360 | 96° | 177km/h | 9619m | -4.3m/s | -45.4°C | 0% | 0hPa | 0V | 00:00:00 | 00:00:00 | 00:00:00 | |
| SP6BVK | 2026-09-05 13:12:01 | 51.16558 | 18.22087 | 96° | 164km/h | 9636m | -4.5m/s | -45.5°C | 0% | 0hPa | 0V | 00:00:00 | 00:00:00 | 00:00:00 | |
| SQ6EMJ | 2026-09-05 13:12:00 | 51.16561 | 18.22019 | 94° | 172km/h | 9640m | -4.4m/s | -45.5°C | 0% | 0hPa | 0V | 00:00:00 | 00:00:00 | 00:00:00 | |
| POL1PZ | 2026-09-05 13:11:58 | 51.16569 | 18.21878 | 98° | 177km/h | 9649m | -4.4m/s | -45.7°C | 0% | 0hPa | 0V | 00:00:00 | 00:00:00 | 00:00:00 | |
| SQ6EMJ | 2026-09-05 13:11:54 | 51.16587 | 18.21606 | 95° | 175km/h | 9666m | -4.4m/s | -45.6°C | 0% | 0hPa | 0V | 00:00:00 | 00:00:00 | 00:00:00 | |
| SQ6EMJ | 2026-09-05 13:11:48 | 51.16615 | 18.21190 | 95° | 177km/h | 9692m | -4.4m/s | -45.8°C | 0% | 0hPa | 0V | 00:00:00 | 00:00:00 | 00:00:00 | |
| SQ6EMJ | 2026-09-05 13:11:43 | 51.16640 | 18.20845 | 95° | 173km/h | 9714m | -4.3m/s | -45.9°C | 0% | 0hPa | 0V | 00:00:00 | 00:00:00 | 00:00:00 | |
| SP6BVK | 2026-09-05 13:11:41 | 51.16649 | 18.20703 | 99° | 179km/h | 9723m | -4.3m/s | -46.2°C | 0% | 0hPa | 0V | 00:00:00 | 00:00:00 | 00:00:00 | |
| SQ6EMJ | 2026-09-05 13:11:38 | 51.16670 | 18.20431 | 96° | 175km/h | 9740m | -4.4m/s | -46.1°C | 0% | 0hPa | 0V | 00:00:00 | 00:00:00 | 00:00:00 | |
| POL1PZ | 2026-09-05 13:11:37 | 51.16670 | 18.20431 | 96° | 175km/h | 9740m | -4.4m/s | -46.1°C | 0% | 0hPa | 0V | 00:00:00 | 00:00:00 | 00:00:00 | |
| SQ6EMJ | 2026-09-05 13:11:32 | 51.16699 | 18.20086 | 96° | 168km/h | 9762m | -4.2m/s | -46.3°C | 0% | 0hPa | 0V | 00:00:00 | 00:00:00 | 00:00:00 | |
| SQ6EMJ | 2026-09-05 13:11:27 | 51.16734 | 18.19672 | 97° | 168km/h | 9786m | -4.2m/s | -46.3°C | 0% | 0hPa | 0V | 00:00:00 | 00:00:00 | 00:00:00 | |
| SQ6EMJ | 2026-09-05 13:11:20 | 51.16767 | 18.19262 | 96° | 172km/h | 9811m | -4.2m/s | -46.5°C | 0% | 0hPa | 0V | 00:00:00 | 00:00:00 | 00:00:00 | |
| POL1PZ | 2026-09-05 13:11:17 | 51.16784 | 18.19054 | 100° | 168km/h | 9824m | -4.2m/s | -46.6°C | 0% | 0hPa | 0V | 00:00:00 | 00:00:00 | 00:00:00 | |
| SQ6EMJ | 2026-09-05 13:11:15 | 51.16794 | 18.18920 | 96° | 172km/h | 9833m | -4.3m/s | -46.5°C | 0% | 0hPa | 0V | 00:00:00 | 00:00:00 | 00:00:00 | |
| SQ6EMJ | 2026-09-05 13:11:03 | 51.16865 | 18.18090 | 101° | 175km/h | 9883m | -4.2m/s | -46.8°C | 0% | 0hPa | 0V | 00:00:00 | 00:00:00 | 00:00:00 | |
| SP6BVK | 2026-09-05 13:11:00 | 51.16883 | 18.17889 | 96° | 172km/h | 9897m | -4.3m/s | -46.7°C | 0% | 0hPa | 0V | 00:00:00 | 00:00:00 | 00:00:00 | |
| SQ6EMJ | 2026-09-05 13:10:59 | 51.16894 | 18.17748 | 101° | 177km/h | 9905m | -4.1m/s | -46.8°C | 0% | 0hPa | 0V | 00:00:00 | 00:00:00 | 00:00:00 | |
| POL1PZ | 2026-09-05 13:10:56 | 51.16908 | 18.17614 | 99° | 162km/h | 9913m | -4.1m/s | -46.8°C | 0% | 0hPa | 0V | 00:00:00 | 00:00:00 | 00:00:00 | |
| SQ6EMJ | 2026-09-05 13:10:53 | 51.16932 | 18.17341 | 102° | 170km/h | 9929m | -4.3m/s | -46.9°C | 0% | 0hPa | 0V | 00:00:00 | 00:00:00 | 00:00:00 | |
| SQ6EMJ | 2026-09-05 13:10:47 | 51.16965 | 18.17004 | 102° | 166km/h | 9951m | -4.1m/s | -47.0°C | 0% | 0hPa | 0V | 00:00:00 | 00:00:00 | 00:00:00 | |
| SQ6EMJ | 2026-09-05 13:10:42 | 51.17005 | 18.16603 | 102° | 162km/h | 9975m | -4.2m/s | -47.2°C | 0% | 0hPa | 0V | 00:00:00 | 00:00:00 | 00:00:00 | |
| SP6BVK | 2026-09-05 13:10:39 | 51.17017 | 18.16472 | 98° | 170km/h | 9984m | -4.3m/s | -47.1°C | 0% | 0hPa | 0V | 00:00:00 | 00:00:00 | 00:00:00 | |
| POL1PZ | 2026-09-05 13:10:36 | 51.17039 | 18.16271 | 101° | 161km/h | 9997m | -4.0m/s | -47.3°C | 0% | 0hPa | 0V | 00:00:00 | 00:00:00 | 00:00:00 | |
| SQ6EMJ | 2026-09-05 13:10:31 | 51.17081 | 18.15873 | 100° | 159km/h | 10022m | -4.1m/s | -47.3°C | 0% | 0hPa | 0V | 00:00:00 | 00:00:00 | 00:00:00 | |
| SQ6EMJ | 2026-09-05 13:10:24 | 51.17119 | 18.15475 | 98° | 173km/h | 10047m | -4.4m/s | -47.3°C | 0% | 0hPa | 0V | 00:00:00 | 00:00:00 | 00:00:00 | |
| SP6BVK | 2026-09-05 13:10:19 | 51.17150 | 18.15140 | 99° | 175km/h | 10068m | -4.2m/s | -47.5°C | 0% | 0hPa | 0V | 00:00:00 | 00:00:00 | 00:00:00 | |
| POL1PZ | 2026-09-05 13:10:15 | 51.17175 | 18.14875 | 97° | 172km/h | 10085m | -4.1m/s | -47.6°C | 0% | 0hPa | 0V | 00:00:00 | 00:00:00 | 00:00:00 | |
| SQ6EMJ | 2026-09-05 13:10:14 | 51.17187 | 18.14738 | 102° | 168km/h | 10093m | -4.2m/s | -47.8°C | 0% | 0hPa | 0V | 00:00:00 | 00:00:00 | 00:00:00 | |
| SQ6EMJ | 2026-09-05 13:10:08 | 51.17218 | 18.14406 | 101° | 164km/h | 10114m | -4.1m/s | -48.0°C | 0% | 0hPa | 0V | 00:00:00 | 00:00:00 | 00:00:00 | |
| SQ6EMJ | 2026-09-05 13:10:03 | 51.17254 | 18.14012 | 99° | 159km/h | 10140m | -4.3m/s | -48.1°C | 0% | 0hPa | 0V | 00:00:00 | 00:00:00 | 00:00:00 | |
| SP6BVK | 2026-09-05 13:09:58 | 51.17277 | 18.13746 | 102° | 162km/h | 10156m | -4.0m/s | -48.3°C | 0% | 0hPa | 0V | 00:00:00 | 00:00:00 | 00:00:00 | |
| SQ6EMJ | 2026-09-05 13:09:57 | 51.17288 | 18.13619 | 97° | 162km/h | 10165m | -4.3m/s | -48.2°C | 0% | 0hPa | 0V | 00:00:00 | 00:00:00 | 00:00:00 | |
| POL1PZ | 2026-09-05 13:09:55 | 51.17299 | 18.13483 | 100° | 172km/h | 10173m | -4.3m/s | -48.3°C | 0% | 0hPa | 0V | 00:00:00 | 00:00:00 | 00:00:00 | |
| SQ6EMJ | 2026-09-05 13:09:51 | 51.17317 | 18.13288 | 96° | 162km/h | 10186m | -4.3m/s | -48.3°C | 0% | 0hPa | 0V | 00:00:00 | 00:00:00 | 00:00:00 | |
| SQ6EMJ | 2026-09-05 13:09:46 | 51.17347 | 18.12888 | 96° | 172km/h | 10212m | -4.3m/s | -48.5°C | 0% | 0hPa | 0V | 00:00:00 | 00:00:00 | 00:00:00 | |
| SQ6EMJ | 2026-09-05 13:09:40 | 51.17377 | 18.12481 | 99° | 177km/h | 10239m | -4.3m/s | -48.7°C | 0% | 0hPa | 0V | 00:00:00 | 00:00:00 | 00:00:00 | |
| SP6BVK | 2026-09-05 13:09:38 | 51.17384 | 18.12413 | 101° | 168km/h | 10243m | -4.3m/s | -48.7°C | 0% | 0hPa | 0V | 00:00:00 | 00:00:00 | 00:00:00 | |
| POL1PZ | 2026-09-05 13:09:34 | 51.17404 | 18.12142 | 99° | 177km/h | 10260m | -4.3m/s | -48.7°C | 0% | 0hPa | 0V | 00:00:00 | 00:00:00 | 00:00:00 | |
| SQ6EMJ | 2026-09-05 13:09:33 | 51.17417 | 18.12006 | 98° | 164km/h | 10269m | -4.3m/s | -48.8°C | 0% | 0hPa | 0V | 00:00:00 | 00:00:00 | 00:00:00 | |
| SQ6EMJ | 2026-09-05 13:09:26 | 51.17449 | 18.11594 | 96° | 172km/h | 10295m | -4.3m/s | -48.7°C | 0% | 0hPa | 0V | 00:00:00 | 00:00:00 | 00:00:00 | |
| SQ6EMJ | 2026-09-05 13:09:21 | 51.17484 | 18.11175 | 97° | 179km/h | 10321m | -4.4m/s | -48.7°C | 0% | 0hPa | 0V | 00:00:00 | 00:00:00 | 00:00:00 | |
| SP6BVK | 2026-09-05 13:09:18 | 51.17505 | 18.10966 | 99° | 168km/h | 10334m | -4.3m/s | -48.9°C | 0% | 0hPa | 0V | 00:00:00 | 00:00:00 | 00:00:00 | |
| POL1PZ | 2026-09-05 13:09:13 | 51.17529 | 18.10684 | 102° | 173km/h | 10351m | -4.4m/s | -49.0°C | 0% | 0hPa | 0V | 00:00:00 | 00:00:00 | 00:00:00 | |
| SQ6EMJ | 2026-09-05 13:09:03 | 51.17604 | 18.09917 | 98° | 173km/h | 10400m | -4.3m/s | -49.1°C | 0% | 0hPa | 0V | 00:00:00 | 00:00:00 | 00:00:00 | |
| SQ6EMJ | 2026-09-05 13:08:57 | 51.17641 | 18.09562 | 99° | 173km/h | 10422m | -4.5m/s | -49.1°C | 0% | 0hPa | 0V | 00:00:00 | 00:00:00 | 00:00:00 | |
| POL1PZ | 2026-09-05 13:08:53 | 51.17673 | 18.09275 | 103° | 173km/h | 10440m | -4.5m/s | -49.1°C | 0% | 0hPa | 0V | 00:00:00 | 00:00:00 | 00:00:00 | |
| SQ6EMJ | 2026-09-05 13:08:52 | 51.17680 | 18.09206 | 99° | 173km/h | 10449m | -4.4m/s | -48.9°C | 0% | 0hPa | 0V | 00:00:00 | 00:00:00 | 00:00:00 | |
| SQ6EMJ | 2026-09-05 13:08:45 | 51.17734 | 18.08712 | 101° | 184km/h | 10475m | -4.3m/s | -48.7°C | 0% | 0hPa | 0V | 00:00:00 | 00:00:00 | 00:00:00 | |
| SQ6EMJ | 2026-09-05 13:08:39 | 51.17783 | 18.08296 | 103° | 181km/h | 10502m | -4.6m/s | -48.7°C | 0% | 0hPa | 0V | 00:00:00 | 00:00:00 | 00:00:00 | |
| SP6BVK | 2026-09-05 13:08:36 | 51.17808 | 18.08093 | 99° | 177km/h | 10515m | -4.6m/s | -48.5°C | 0% | 0hPa | 0V | 00:00:00 | 00:00:00 | 00:00:00 | |
| SQ6EMJ | 2026-09-05 13:08:32 | 51.17847 | 18.07750 | 99° | 175km/h | 10538m | -4.4m/s | -48.5°C | 0% | 0hPa | 0V | 00:00:00 | 00:00:00 | 00:00:00 | |
| SQ6EMJ | 2026-09-05 13:08:26 | 51.17886 | 18.07409 | 98° | 170km/h | 10559m | -4.4m/s | -48.4°C | 0% | 0hPa | 0V | 00:00:00 | 00:00:00 | 00:00:00 | |
| SP6BVK | 2026-09-05 13:08:17 | 51.17954 | 18.06727 | 97° | 173km/h | 10605m | -4.4m/s | -48.4°C | 0% | 0hPa | 0V | 00:00:00 | 00:00:00 | 00:00:00 | |
| POL1PZ | 2026-09-05 13:08:12 | 51.17980 | 18.06456 | 97° | 168km/h | 10623m | -4.5m/s | -48.5°C | 0% | 0hPa | 0V | 00:00:00 | 00:00:00 | 00:00:00 | |
| SQ6EMJ | 2026-09-05 13:08:11 | 51.17992 | 18.06317 | 101° | 175km/h | 10632m | -4.3m/s | -48.7°C | 0% | 0hPa | 0V | 00:00:00 | 00:00:00 | 00:00:00 | |
| SQ6EMJ | 2026-09-05 13:08:06 | 51.18023 | 18.05980 | 101° | 175km/h | 10654m | -4.5m/s | -48.6°C | 0% | 0hPa | 0V | 00:00:00 | 00:00:00 | 00:00:00 | |
| SQ6EMJ | 2026-09-05 13:07:56 | 51.18075 | 18.05300 | 98° | 179km/h | 10701m | -4.5m/s | -48.4°C | 0% | 0hPa | 0V | 00:00:00 | 00:00:00 | 00:00:00 | |
| POL1PZ | 2026-09-05 13:07:51 | 51.18095 | 18.05026 | 95° | 175km/h | 10719m | -4.5m/s | -48.5°C | 0% | 0hPa | 0V | 00:00:00 | 00:00:00 | 00:00:00 | |
| SQ6EMJ | 2026-09-05 13:07:49 | 51.18104 | 18.04883 | 99° | 177km/h | 10729m | -4.6m/s | -48.7°C | 0% | 0hPa | 0V | 00:00:00 | 00:00:00 | 00:00:00 | |
| OE3JTB-15 | 2026-09-05 13:07:45 | 51.18121 | 18.04607 | 96° | 179km/h | 10784m | -4.5m/s | 0°C | 0% | 0hPa | 0V | 00:00:00 | 00:00:00 | 00:00:00 | |
| SQ6EMJ | 2026-09-05 13:07:39 | 51.18156 | 18.04119 | 98° | 168km/h | 10780m | -4.5m/s | -49.1°C | 0% | 0hPa | 0V | 00:00:00 | 00:00:00 | 00:00:00 | |
| SP6BVK | 2026-09-05 13:07:35 | 51.18167 | 18.03909 | 98° | 183km/h | 10793m | -4.6m/s | -49.1°C | 0% | 0hPa | 0V | 00:00:00 | 00:00:00 | 00:00:00 | |
| SQ6EMJ | 2026-09-05 13:07:34 | 51.18178 | 18.03769 | 97° | 168km/h | 10803m | -4.7m/s | -49.3°C | 0% | 0hPa | 0V | 00:00:00 | 00:00:00 | 00:00:00 | |
| POL1PZ | 2026-09-05 13:07:31 | 51.18185 | 18.03629 | 96° | 183km/h | 10812m | -4.6m/s | -49.3°C | 0% | 0hPa | 0V | 00:00:00 | 00:00:00 | 00:00:00 | |
| SQ6EMJ | 2026-09-05 13:07:27 | 51.18205 | 18.03350 | 94° | 175km/h | 10831m | -4.5m/s | -49.4°C | 0% | 0hPa | 0V | 00:00:00 | 00:00:00 | 00:00:00 | |
| SQ6EMJ | 2026-09-05 13:07:22 | 51.18229 | 18.02997 | 95° | 181km/h | 10855m | -4.7m/s | -49.3°C | 0% | 0hPa | 0V | 00:00:00 | 00:00:00 | 00:00:00 | |
| SP6BVK | 2026-09-05 13:07:15 | 51.18275 | 18.02429 | 99° | 172km/h | 10894m | -4.8m/s | -49.6°C | 0% | 0hPa | 0V | 00:00:00 | 00:00:00 | 00:00:00 | |
| SQ6EMJ | 2026-09-05 13:07:11 | 51.18298 | 18.02144 | 101° | 173km/h | 10914m | -4.8m/s | -49.6°C | 0% | 0hPa | 0V | 00:00:00 | 00:00:00 | 00:00:00 | |
| POL1PZ | 2026-09-05 13:07:10 | 51.18298 | 18.02144 | 101° | 173km/h | 10914m | -4.8m/s | -49.6°C | 0% | 0hPa | 0V | 00:00:00 | 00:00:00 | 00:00:00 | |
| OE3JTB-15 | 2026-09-05 13:07:09 | 51.18304 | 18.02073 | 99° | 164km/h | 10924m | -4.8m/s | 0°C | 0% | 0hPa | 0V | 00:00:00 | 00:00:00 | 00:00:00 | |
| SQ6EMJ | 2026-09-05 13:07:05 | 51.18331 | 18.01792 | 101° | 170km/h | 10938m | -4.6m/s | -49.5°C | 0% | 0hPa | 0V | 00:00:00 | 00:00:00 | 00:00:00 | |
| SQ6EMJ | 2026-09-05 13:07:00 | 51.18369 | 18.01373 | 97° | 179km/h | 10967m | -4.4m/s | -49.6°C | 0% | 0hPa | 0V | 00:00:00 | 00:00:00 | 00:00:00 | |
| SP6BVK | 2026-09-05 13:06:54 | 51.18410 | 18.00953 | 102° | 173km/h | 10995m | -4.6m/s | -49.8°C | 0% | 0hPa | 0V | 00:00:00 | 00:00:00 | 00:00:00 | |
| POL1PZ | 2026-09-05 13:06:50 | 51.18429 | 18.00747 | 99° | 181km/h | 11009m | -4.5m/s | -49.7°C | 0% | 0hPa | 0V | 00:00:00 | 00:00:00 | 00:00:00 | |
| SQ6EMJ | 2026-09-05 13:06:49 | 51.18444 | 18.00607 | 102° | 170km/h | 11019m | -4.6m/s | -49.9°C | 0% | 0hPa | 0V | 00:00:00 | 00:00:00 | 00:00:00 | |
| SQ6EMJ | 2026-09-05 13:06:43 | 51.18484 | 18.00199 | 98° | 170km/h | 11047m | -4.5m/s | -50.0°C | 0% | 0hPa | 0V | 00:00:00 | 00:00:00 | 00:00:00 | |
| SQ6EMJ | 2026-09-05 13:06:37 | 51.18517 | 17.99858 | 98° | 175km/h | 11071m | -4.6m/s | -50.1°C | 0% | 0hPa | 0V | 00:00:00 | 00:00:00 | 00:00:00 | |
| SP6BVK | 2026-09-05 13:06:33 | 51.18544 | 17.99586 | 98° | 173km/h | 11090m | -4.6m/s | -50.2°C | 0% | 0hPa | 0V | 00:00:00 | 00:00:00 | 00:00:00 | |
| SQ6EMJ | 2026-09-05 13:06:32 | 51.18558 | 17.99447 | 102° | 170km/h | 11099m | -4.6m/s | -50.3°C | 0% | 0hPa | 0V | 00:00:00 | 00:00:00 | 00:00:00 | |
| OM5KV | 2026-09-05 13:06:30 | 51.18571 | 17.99314 | 97° | 172km/h | 11108m | -4.6m/s | -50.2°C | 0% | 0hPa | 0V | 00:00:00 | 00:00:00 | 00:00:00 | |
| OM5KV | 2026-09-05 13:06:29 | 51.18571 | 17.99314 | 97° | 172km/h | 11108m | -4.6m/s | -50.2°C | 0% | 0hPa | 0V | 00:00:00 | 00:00:00 | 00:00:00 | |
| SQ6EMJ | 2026-09-05 13:06:25 | 51.18597 | 17.99043 | 97° | 170km/h | 11127m | -4.5m/s | -50.3°C | 0% | 0hPa | 0V | 00:00:00 | 00:00:00 | 00:00:00 | |
| SQ6EMJ | 2026-09-05 13:06:20 | 51.18629 | 17.98700 | 98° | 177km/h | 11150m | -4.4m/s | -50.3°C | 0% | 0hPa | 0V | 00:00:00 | 00:00:00 | 00:00:00 | |
| POL1PZ | 2026-09-05 13:06:09 | 51.18705 | 17.97950 | 101° | 162km/h | 11202m | -4.5m/s | -50.2°C | 0% | 0hPa | 0V | 00:00:00 | 00:00:00 | 00:00:00 | |
| SQ6EMJ | 2026-09-05 13:06:04 | 51.18747 | 17.97551 | 99° | 172km/h | 11230m | -4.8m/s | -50.0°C | 0% | 0hPa | 0V | 00:00:00 | 00:00:00 | 00:00:00 | |
| SQ6EMJ | 2026-09-05 13:05:58 | 51.18803 | 17.97087 | 102° | 161km/h | 11264m | -4.9m/s | -49.8°C | 0% | 0hPa | 0V | 00:00:00 | 00:00:00 | 00:00:00 | |
| SP6BVK | 2026-09-05 13:05:52 | 51.18836 | 17.96820 | 103° | 161km/h | 11283m | -4.7m/s | -49.6°C | 0% | 0hPa | 0V | 00:00:00 | 00:00:00 | 00:00:00 | |
| SQ6EMJ | 2026-09-05 13:05:51 | 51.18843 | 17.96756 | 100° | 162km/h | 11288m | -4.8m/s | -49.5°C | 0% | 0hPa | 0V | 00:00:00 | 00:00:00 | 00:00:00 | |
| POL1PZ | 2026-09-05 13:05:48 | 51.18869 | 17.96555 | 104° | 162km/h | 11302m | -4.7m/s | -49.5°C | 0% | 0hPa | 0V | 00:00:00 | 00:00:00 | 00:00:00 | |
| SQ6EMJ | 2026-09-05 13:05:43 | 51.18919 | 17.96161 | 101° | 164km/h | 11332m | -4.8m/s | -49.2°C | 0% | 0hPa | 0V | 00:00:00 | 00:00:00 | 00:00:00 | |
| SQ6EMJ | 2026-09-05 13:05:36 | 51.18983 | 17.95697 | 105° | 161km/h | 11366m | -4.5m/s | -49.2°C | 0% | 0hPa | 0V | 00:00:00 | 00:00:00 | 00:00:00 | |
| OM5KV | 2026-09-05 13:05:34 | 51.18991 | 17.95634 | 101° | 161km/h | 11370m | -4.7m/s | -49.2°C | 0% | 0hPa | 0V | 00:00:00 | 00:00:00 | 00:00:00 | |
| SP6BVK | 2026-09-05 13:05:31 | 51.19017 | 17.95436 | 105° | 159km/h | 11385m | -4.7m/s | -49.3°C | 0% | 0hPa | 0V | 00:00:00 | 00:00:00 | 00:00:00 | |
| SQ6EMJ | 2026-09-05 13:05:30 | 51.19033 | 17.95308 | 102° | 170km/h | 11394m | -4.6m/s | -49.1°C | 0% | 0hPa | 0V | 00:00:00 | 00:00:00 | 00:00:00 | |
| POL1PZ | 2026-09-05 13:05:28 | 51.19041 | 17.95241 | 105° | 168km/h | 11399m | -4.7m/s | -49.2°C | 0% | 0hPa | 0V | 00:00:00 | 00:00:00 | 00:00:00 | |
| OM5KV | 2026-09-05 13:05:26 | 51.19060 | 17.95116 | 101° | 157km/h | 11409m | -4.8m/s | -49.2°C | 0% | 0hPa | 0V | 00:00:00 | 00:00:00 | 00:00:00 | |
| OM5KV | 2026-09-05 13:05:23 | 51.19086 | 17.94924 | 103° | 153km/h | 11423m | -4.7m/s | -49.1°C | 0% | 0hPa | 0V | 00:00:00 | 00:00:00 | 00:00:00 | |
| SQ6EMJ | 2026-09-05 13:05:22 | 51.19094 | 17.94861 | 101° | 162km/h | 11428m | -4.6m/s | -49.0°C | 0% | 0hPa | 0V | 00:00:00 | 00:00:00 | 00:00:00 | |
| OM5KV | 2026-09-05 13:05:19 | 51.19121 | 17.94670 | 103° | 153km/h | 11442m | -4.6m/s | -49.2°C | 0% | 0hPa | 0V | 00:00:00 | 00:00:00 | 00:00:00 | |
| OM5KV | 2026-09-05 13:05:14 | 51.19161 | 17.94355 | 101° | 153km/h | 11465m | -4.7m/s | -49.3°C | 0% | 0hPa | 0V | 00:00:00 | 00:00:00 | 00:00:00 | |
| OE3JTB-15 | 2026-09-05 13:05:13 | 51.19167 | 17.94292 | 99° | 159km/h | 11470m | -4.4m/s | 0°C | 0% | 0hPa | 0V | 00:00:00 | 00:00:00 | 00:00:00 | |
| SP6BVK | 2026-09-05 13:05:11 | 51.19184 | 17.94161 | 104° | 159km/h | 11479m | -4.6m/s | -49.3°C | 0% | 0hPa | 0V | 00:00:00 | 00:00:00 | 00:00:00 | |
| POL1PZ | 2026-09-05 13:05:07 | 51.19212 | 17.93906 | 104° | 162km/h | 11498m | -4.6m/s | -49.1°C | 0% | 0hPa | 0V | 00:00:00 | 00:00:00 | 00:00:00 | |
| OM5KV | 2026-09-05 13:05:06 | 51.19220 | 17.93844 | 102° | 151km/h | 11503m | -4.4m/s | -49.1°C | 0% | 0hPa | 0V | 00:00:00 | 00:00:00 | 00:00:00 | |
| OM5KV | 2026-09-05 13:05:05 | 51.19226 | 17.93783 | 98° | 155km/h | 11507m | -4.6m/s | -49.0°C | 0% | 0hPa | 0V | 00:00:00 | 00:00:00 | 00:00:00 | |
| OM5KV | 2026-09-05 13:04:57 | 51.19285 | 17.93275 | 100° | 153km/h | 11545m | -4.7m/s | -49.0°C | 0% | 0hPa | 0V | 00:00:00 | 00:00:00 | 00:00:00 | |
| OM5KV | 2026-09-05 13:04:55 | 51.19298 | 17.93147 | 102° | 168km/h | 11555m | -4.8m/s | -49.0°C | 0% | 0hPa | 0V | 00:00:00 | 00:00:00 | 00:00:00 | |
| SP6BVK | 2026-09-05 13:04:50 | 51.19337 | 17.92830 | 105° | 161km/h | 11579m | -4.9m/s | -49.0°C | 0% | 0hPa | 0V | 00:00:00 | 00:00:00 | 00:00:00 | |
| OM5KV | 2026-09-05 13:04:49 | 51.19345 | 17.92768 | 101° | 153km/h | 11584m | -5.1m/s | -49.0°C | 0% | 0hPa | 0V | 00:00:00 | 00:00:00 | 00:00:00 | |
| POL1PZ | 2026-09-05 13:04:47 | 51.19360 | 17.92639 | 103° | 168km/h | 11594m | -4.7m/s | -49.1°C | 0% | 0hPa | 0V | 00:00:00 | 00:00:00 | 00:00:00 | |
| OE3JTB-15 | 2026-09-05 13:04:43 | 51.19390 | 17.92390 | 99° | 157km/h | 11613m | -4.4m/s | 0°C | 0% | 0hPa | 0V | 00:00:00 | 00:00:00 | 00:00:00 | |
| OM5KV | 2026-09-05 13:04:42 | 51.19399 | 17.92324 | 102° | 168km/h | 11617m | -4.6m/s | -49.1°C | 0% | 0hPa | 0V | 00:00:00 | 00:00:00 | 00:00:00 | |
| SQ6EMJ | 2026-09-05 13:04:36 | 51.19461 | 17.91884 | 101° | 161km/h | 11652m | -4.9m/s | -49.1°C | 0% | 0hPa | 0V | 00:00:00 | 00:00:00 | 00:00:00 | |
| OM5KV | 2026-09-05 13:04:34 | 51.19469 | 17.91819 | 103° | 168km/h | 11656m | -4.8m/s | -49.1°C | 0% | 0hPa | 0V | 00:00:00 | 00:00:00 | 00:00:00 | |
| SP6BVK | 2026-09-05 13:04:30 | 51.19505 | 17.91569 | 104° | 166km/h | 11676m | -4.7m/s | -48.9°C | 0% | 0hPa | 0V | 00:00:00 | 00:00:00 | 00:00:00 | |
| OM5KV | 2026-09-05 13:04:24 | 51.19560 | 17.91196 | 106° | 153km/h | 11704m | -4.2m/s | -48.7°C | 0% | 0hPa | 0V | 00:00:00 | 00:00:00 | 00:00:00 | |
| OM5KV | 2026-09-05 13:04:18 | 51.19611 | 17.90827 | 101° | 159km/h | 11732m | -4.7m/s | -48.7°C | 0% | 0hPa | 0V | 00:00:00 | 00:00:00 | 00:00:00 | |
| SQ6EMJ | 2026-09-05 13:04:16 | 51.19638 | 17.90701 | 106° | 150km/h | 11746m | -4.7m/s | -48.6°C | 0% | 0hPa | 0V | 00:00:00 | 00:00:00 | 00:00:00 | |
| OM5KV | 2026-09-05 13:04:15 | 51.19638 | 17.90641 | 103° | 150km/h | 11746m | -4.7m/s | -48.7°C | 0% | 0hPa | 0V | 00:00:00 | 00:00:00 | 00:00:00 | |
| OE3JTB-15 | 2026-09-05 13:04:14 | 51.19645 | 17.90581 | 100° | 153km/h | 11770m | -4.4m/s | 0°C | 0% | 0hPa | 0V | 00:00:00 | 00:00:00 | 00:00:00 | |
| OM5KV | 2026-09-05 13:04:13 | 51.19652 | 17.90518 | 102° | 164km/h | 11756m | -4.8m/s | -48.6°C | 0% | 0hPa | 0V | 00:00:00 | 00:00:00 | 00:00:00 | |
| SQ6EMJ | 2026-09-05 13:04:11 | 51.19677 | 17.90331 | 100° | 162km/h | 11770m | -4.5m/s | -48.6°C | 0% | 0hPa | 0V | 00:00:00 | 00:00:00 | 00:00:00 | |
| SP6BVK | 2026-09-05 13:04:09 | 51.19685 | 17.90267 | 103° | 164km/h | 11774m | -4.5m/s | -48.6°C | 0% | 0hPa | 0V | 00:00:00 | 00:00:00 | 00:00:00 | |
| OM5KV | 2026-09-05 13:04:07 | 51.19703 | 17.90144 | 104° | 148km/h | 11784m | -4.5m/s | -48.7°C | 0% | 0hPa | 0V | 00:00:00 | 00:00:00 | 00:00:00 | |
| OM5KV | 2026-09-05 13:04:06 | 51.19710 | 17.90085 | 100° | 150km/h | 11788m | -4.5m/s | -48.6°C | 0% | 0hPa | 0V | 00:00:00 | 00:00:00 | 00:00:00 | |
| POL1PZ | 2026-09-05 13:04:05 | 51.19717 | 17.90023 | 99° | 159km/h | 11793m | -4.5m/s | -48.5°C | 0% | 0hPa | 0V | 00:00:00 | 00:00:00 | 00:00:00 | |
| SQ6EMJ | 2026-09-05 13:04:04 | 51.19723 | 17.89960 | 100° | 164km/h | 11797m | -4.7m/s | -48.5°C | 0% | 0hPa | 0V | 00:00:00 | 00:00:00 | 00:00:00 | |
| OM5KV | 2026-09-05 13:04:02 | 51.19740 | 17.89830 | 105° | 162km/h | 11806m | -4.6m/s | -48.6°C | 0% | 0hPa | 0V | 00:00:00 | 00:00:00 | 00:00:00 | |
| SQ6EMJ | 2026-09-05 13:03:57 | 51.19781 | 17.89524 | 104° | 164km/h | 11830m | -4.8m/s | -48.5°C | 0% | 0hPa | 0V | 00:00:00 | 00:00:00 | 00:00:00 | |
| OM5KV | 2026-09-05 13:03:54 | 51.19807 | 17.89343 | 100° | 155km/h | 11845m | -4.8m/s | -48.5°C | 0% | 0hPa | 0V | 00:00:00 | 00:00:00 | 00:00:00 | |
| SQ6EMJ | 2026-09-05 13:03:51 | 51.19842 | 17.89103 | 102° | 150km/h | 11865m | -4.7m/s | -48.4°C | 0% | 0hPa | 0V | 00:00:00 | 00:00:00 | 00:00:00 | |
| SP6BVK | 2026-09-05 13:03:49 | 51.19849 | 17.89042 | 102° | 157km/h | 11869m | -4.6m/s | -48.4°C | 0% | 0hPa | 0V | 00:00:00 | 00:00:00 | 00:00:00 | |
| OM5KV | 2026-09-05 13:03:46 | 51.19879 | 17.88862 | 107° | 144km/h | 11884m | -4.8m/s | -48.6°C | 0% | 0hPa | 0V | 00:00:00 | 00:00:00 | 00:00:00 | |
| POL1PZ | 2026-09-05 13:03:45 | 51.19888 | 17.88806 | 103° | 146km/h | 11888m | -4.7m/s | -48.5°C | 0% | 0hPa | 0V | 00:00:00 | 00:00:00 | 00:00:00 | |
| OE3JTB-15 | 2026-09-05 13:03:44 | 51.19895 | 17.88747 | 102° | 144km/h | 11898m | -4.6m/s | 0°C | 0% | 0hPa | 0V | 00:00:00 | 00:00:00 | 00:00:00 | |
| OM5KV | 2026-09-05 13:03:40 | 51.19937 | 17.88510 | 106° | 141km/h | 11912m | -4.8m/s | -48.6°C | 0% | 0hPa | 0V | 00:00:00 | 00:00:00 | 00:00:00 | |
| SQ6EMJ | 2026-09-05 13:03:37 | 51.19963 | 17.88334 | 106° | 157km/h | 11927m | -5.0m/s | -48.6°C | 0% | 0hPa | 0V | 00:00:00 | 00:00:00 | 00:00:00 | |
| OM5KV | 2026-09-05 13:03:34 | 51.20008 | 17.88110 | 106° | 139km/h | 11947m | -4.7m/s | -48.3°C | 0% | 0hPa | 0V | 00:00:00 | 00:00:00 | 00:00:00 | |
| SQ6EMJ | 2026-09-05 13:03:33 | 51.20016 | 17.88056 | 105° | 141km/h | 11952m | -4.9m/s | -48.5°C | 0% | 0hPa | 0V | 00:00:00 | 00:00:00 | 00:00:00 | |
| OM5KV | 2026-09-05 13:03:32 | 51.20016 | 17.88056 | 105° | 141km/h | 11952m | -4.9m/s | -48.5°C | 0% | 0hPa | 0V | 00:00:00 | 00:00:00 | 00:00:00 | |
| SP6BVK | 2026-09-05 13:03:29 | 51.20059 | 17.87828 | 111° | 141km/h | 11972m | -4.9m/s | -48.8°C | 0% | 0hPa | 0V | 00:00:00 | 00:00:00 | 00:00:00 | |
| OM5KV | 2026-09-05 13:03:26 | 51.20079 | 17.87723 | 104° | 139km/h | 11982m | -4.8m/s | -48.7°C | 0% | 0hPa | 0V | 00:00:00 | 00:00:00 | 00:00:00 | |
| POL1PZ | 2026-09-05 13:03:25 | 51.20097 | 17.87610 | 108° | 148km/h | 11992m | -5.0m/s | -48.7°C | 0% | 0hPa | 0V | 00:00:00 | 00:00:00 | 00:00:00 | |
| OM5KV | 2026-09-05 13:03:21 | 51.20128 | 17.87450 | 104° | 133km/h | 12007m | -5.3m/s | -48.6°C | 0% | 0hPa | 0V | 00:00:00 | 00:00:00 | 00:00:00 | |
| SQ6EMJ | 2026-09-05 13:03:20 | 51.20136 | 17.87395 | 104° | 146km/h | 12012m | -5.1m/s | -48.5°C | 0% | 0hPa | 0V | 00:00:00 | 00:00:00 | 00:00:00 | |
| OM5KV | 2026-09-05 13:03:16 | 51.20181 | 17.87133 | 102° | 135km/h | 12038m | -4.9m/s | -47.6°C | 0% | 0hPa | 0V | 00:00:00 | 00:00:00 | 00:00:00 | |
| OE3JTB-15 | 2026-09-05 13:03:15 | 51.20181 | 17.87133 | 102° | 131km/h | 12043m | -4.9m/s | 0°C | 0% | 0hPa | 0V | 00:00:00 | 00:00:00 | 00:00:00 | |
| SQ6EMJ | 2026-09-05 13:03:14 | 51.20195 | 17.87025 | 102° | 139km/h | 12048m | -4.8m/s | -48.0°C | 0% | 0hPa | 0V | 00:00:00 | 00:00:00 | 00:00:00 | |
| OM5KV | 2026-09-05 13:03:09 | 51.20240 | 17.86751 | 108° | 130km/h | 12074m | -4.9m/s | -48.1°C | 0% | 0hPa | 0V | 00:00:00 | 00:00:00 | 00:00:00 | |
| SP6BVK | 2026-09-05 13:03:08 | 51.20240 | 17.86751 | 108° | 130km/h | 12074m | -4.9m/s | -48.1°C | 0% | 0hPa | 0V | 00:00:00 | 00:00:00 | 00:00:00 | |
| POL1PZ | 2026-09-05 13:03:04 | 51.20269 | 17.86551 | 101° | 130km/h | 12094m | -5.1m/s | -47.3°C | 0% | 0hPa | 0V | 00:00:00 | 00:00:00 | 00:00:00 | |
| SQ6EMJ | 2026-09-05 13:03:03 | 51.20280 | 17.86449 | 101° | 128km/h | 12104m | -4.8m/s | -47.2°C | 0% | 0hPa | 0V | 00:00:00 | 00:00:00 | 00:00:00 | |
| OM5KV | 2026-09-05 13:02:57 | 51.20321 | 17.86133 | 107° | 135km/h | 12133m | -5.0m/s | -47.3°C | 0% | 0hPa | 0V | 00:00:00 | 00:00:00 | 00:00:00 | |
| OM5KV | 2026-09-05 13:02:56 | 51.20321 | 17.86133 | 107° | 135km/h | 12133m | -5.0m/s | -47.3°C | 0% | 0hPa | 0V | 00:00:00 | 00:00:00 | 00:00:00 | |
| SQ6EMJ | 2026-09-05 13:02:51 | 51.20364 | 17.85889 | 106° | 124km/h | 12159m | -4.9m/s | -47.3°C | 0% | 0hPa | 0V | 00:00:00 | 00:00:00 | 00:00:00 | |
| OM5KV | 2026-09-05 13:02:50 | 51.20372 | 17.85841 | 106° | 122km/h | 12164m | -5.0m/s | -47.4°C | 0% | 0hPa | 0V | 00:00:00 | 00:00:00 | 00:00:00 | |
| OM5KV | 2026-09-05 13:02:48 | 51.20391 | 17.85692 | 100° | 131km/h | 12179m | -5.0m/s | -47.4°C | 0% | 0hPa | 0V | 00:00:00 | 00:00:00 | 00:00:00 | |
| SP6BVK | 2026-09-05 13:02:47 | 51.20391 | 17.85692 | 100° | 131km/h | 12179m | -5.0m/s | -47.4°C | 0% | 0hPa | 0V | 00:00:00 | 00:00:00 | 00:00:00 | |
| SQ6EMJ | 2026-09-05 13:02:46 | 51.20401 | 17.85586 | 100° | 135km/h | 12189m | -5.1m/s | -47.4°C | 0% | 0hPa | 0V | 00:00:00 | 00:00:00 | 00:00:00 | |
| OM5KV | 2026-09-05 13:02:45 | 51.20407 | 17.85532 | 100° | 135km/h | 12195m | -5.1m/s | -47.4°C | 0% | 0hPa | 0V | 00:00:00 | 00:00:00 | 00:00:00 | |
| POL1PZ | 2026-09-05 13:02:43 | 51.20412 | 17.85478 | 101° | 137km/h | 12200m | -5.1m/s | -47.5°C | 0% | 0hPa | 0V | 00:00:00 | 00:00:00 | 00:00:00 | |
| OM5KV | 2026-09-05 13:02:41 | 51.20425 | 17.85369 | 102° | 139km/h | 12210m | -5.0m/s | -47.7°C | 0% | 0hPa | 0V | 00:00:00 | 00:00:00 | 00:00:00 | |
| SQ6EMJ | 2026-09-05 13:02:39 | 51.20440 | 17.85259 | 103° | 139km/h | 12221m | -5.1m/s | -47.8°C | 0% | 0hPa | 0V | 00:00:00 | 00:00:00 | 00:00:00 | |
| OM5KV | 2026-09-05 13:02:36 | 51.20463 | 17.85096 | 106° | 135km/h | 12236m | -5.2m/s | -48.3°C | 0% | 0hPa | 0V | 00:00:00 | 00:00:00 | 00:00:00 | |
| SQ6EMJ | 2026-09-05 13:02:34 | 51.20483 | 17.84946 | 100° | 133km/h | 12253m | -5.5m/s | -48.3°C | 0% | 0hPa | 0V | 00:00:00 | 00:00:00 | 00:00:00 | |
| OM5KV | 2026-09-05 13:02:29 | 51.20516 | 17.84745 | 105° | 119km/h | 12274m | -5.1m/s | -48.3°C | 0% | 0hPa | 0V | 00:00:00 | 00:00:00 | 00:00:00 | |
| OM5KV | 2026-09-05 13:02:28 | 51.20522 | 17.84699 | 101° | 117km/h | 12279m | -5.1m/s | -48.2°C | 0% | 0hPa | 0V | 00:00:00 | 00:00:00 | 00:00:00 | |
| SP6BVK | 2026-09-05 13:02:27 | 51.20527 | 17.84651 | 100° | 124km/h | 12284m | -5.1m/s | -48.2°C | 0% | 0hPa | 0V | 00:00:00 | 00:00:00 | 00:00:00 | |
| SQ6EMJ | 2026-09-05 13:02:26 | 51.20532 | 17.84601 | 101° | 130km/h | 12290m | -5.0m/s | -48.2°C | 0% | 0hPa | 0V | 00:00:00 | 00:00:00 | 00:00:00 | |
| OM5KV | 2026-09-05 13:02:23 | 51.20565 | 17.84401 | 108° | 122km/h | 12311m | -5.0m/s | -48.1°C | 0% | 0hPa | 0V | 00:00:00 | 00:00:00 | 00:00:00 | |
| SQ6EMJ | 2026-09-05 13:02:20 | 51.20590 | 17.84264 | 105° | 115km/h | 12327m | -5.2m/s | -48.2°C | 0% | 0hPa | 0V | 00:00:00 | 00:00:00 | 00:00:00 | |
| OM5KV | 2026-09-05 13:02:19 | 51.20590 | 17.84264 | 105° | 115km/h | 12327m | -5.2m/s | -48.2°C | 0% | 0hPa | 0V | 00:00:00 | 00:00:00 | 00:00:00 | |
| OE3JTB-15 | 2026-09-05 13:02:17 | 51.20602 | 17.84169 | 100° | 126km/h | 12348m | -5.1m/s | 0°C | 0% | 0hPa | 0V | 00:00:00 | 00:00:00 | 00:00:00 | |
| SQ6EMJ | 2026-09-05 13:02:14 | 51.20630 | 17.83964 | 107° | 130km/h | 12358m | -5.2m/s | -48.3°C | 0% | 0hPa | 0V | 00:00:00 | 00:00:00 | 00:00:00 | |
| OM5KV | 2026-09-05 13:02:12 | 51.20638 | 17.83914 | 108° | 130km/h | 12364m | -5.3m/s | -48.2°C | 0% | 0hPa | 0V | 00:00:00 | 00:00:00 | 00:00:00 | |
| SQ6EMJ | 2026-09-05 13:02:08 | 51.20671 | 17.83726 | 104° | 117km/h | 12385m | -5.3m/s | -48.2°C | 0% | 0hPa | 0V | 00:00:00 | 00:00:00 | 00:00:00 | |
| OM5KV | 2026-09-05 13:02:07 | 51.20684 | 17.83632 | 101° | 120km/h | 12396m | -5.4m/s | -48.3°C | 0% | 0hPa | 0V | 00:00:00 | 00:00:00 | 00:00:00 | |
| POL1PZ | 2026-09-05 13:02:02 | 51.20706 | 17.83426 | 101° | 135km/h | 12418m | -5.3m/s | -48.8°C | 0% | 0hPa | 0V | 00:00:00 | 00:00:00 | 00:00:00 | |
| OM5KV | 2026-09-05 13:02:01 | 51.20712 | 17.83373 | 102° | 137km/h | 12423m | -5.1m/s | -48.8°C | 0% | 0hPa | 0V | 00:00:00 | 00:00:00 | 00:00:00 | |
| SQ6EMJ | 2026-09-05 13:01:57 | 51.20745 | 17.83159 | 107° | 135km/h | 12444m | -5.4m/s | -48.3°C | 0% | 0hPa | 0V | 00:00:00 | 00:00:00 | 00:00:00 | |
| OM5KV | 2026-09-05 13:01:53 | 51.20784 | 17.82961 | 109° | 122km/h | 12467m | -5.3m/s | -45.6°C | 0% | 0hPa | 0V | 00:00:00 | 00:00:00 | 00:00:00 | |
| OM5KV | 2026-09-05 13:01:52 | 51.20802 | 17.82870 | 108° | 117km/h | 12478m | -5.3m/s | -46.1°C | 0% | 0hPa | 0V | 00:00:00 | 00:00:00 | 00:00:00 | |
| OE3JTB-15 | 2026-09-05 13:01:48 | 51.20825 | 17.82736 | 102° | 120km/h | 12499m | -5.2m/s | 0°C | 0% | 0hPa | 0V | 00:00:00 | 00:00:00 | 00:00:00 | |
| OM5KV | 2026-09-05 13:01:45 | 51.20843 | 17.82593 | 101° | 124km/h | 12510m | -5.2m/s | -46.4°C | 0% | 0hPa | 0V | 00:00:00 | 00:00:00 | 00:00:00 | |
| POL1PZ | 2026-09-05 13:01:42 | 51.20860 | 17.82443 | 102° | 130km/h | 12526m | -5.6m/s | -46.4°C | 0% | 0hPa | 0V | 00:00:00 | 00:00:00 | 00:00:00 | |
| OM5KV | 2026-09-05 13:01:39 | 51.20881 | 17.82288 | 105° | 135km/h | 12543m | -5.4m/s | -47.3°C | 0% | 0hPa | 0V | 00:00:00 | 00:00:00 | 00:00:00 | |
| OM5KV | 2026-09-05 13:01:30 | 51.20967 | 17.81850 | 107° | 117km/h | 12590m | -5.9m/s | -47.0°C | 0% | 0hPa | 0V | 00:00:00 | 00:00:00 | 00:00:00 | |
| SP6BVK | 2026-09-05 13:01:25 | 51.21000 | 17.81627 | 101° | 113km/h | 12618m | -5.3m/s | -48.8°C | 0% | 0hPa | 0V | 00:00:00 | 00:00:00 | 00:00:00 | |
| POL1PZ | 2026-09-05 13:01:21 | 51.21016 | 17.81442 | 98° | 119km/h | 12639m | -5.4m/s | -48.9°C | 0% | 0hPa | 0V | 00:00:00 | 00:00:00 | 00:00:00 | |
| SQ6EMJ | 2026-09-05 13:01:07 | 51.21096 | 17.80693 | 106° | 124km/h | 12723m | -5.3m/s | -48.8°C | 0% | 0hPa | 0V | 00:00:00 | 00:00:00 | 00:00:00 | |
| SP6BVK | 2026-09-05 13:01:04 | 51.21112 | 17.80597 | 106° | 124km/h | 12734m | -5.3m/s | -48.9°C | 0% | 0hPa | 0V | 00:00:00 | 00:00:00 | 00:00:00 | |
| SQ6EMJ | 2026-09-05 13:01:02 | 51.21136 | 17.80458 | 105° | 113km/h | 12751m | -5.5m/s | -48.8°C | 0% | 0hPa | 0V | 00:00:00 | 00:00:00 | 00:00:00 | |
| POL1PZ | 2026-09-05 13:01:01 | 51.21136 | 17.80458 | 105° | 113km/h | 12751m | -5.5m/s | -48.8°C | 0% | 0hPa | 0V | 00:00:00 | 00:00:00 | 00:00:00 | |
| SQ6EMJ | 2026-09-05 13:00:56 | 51.21166 | 17.80189 | 99° | 120km/h | 12785m | -5.7m/s | -48.5°C | 0% | 0hPa | 0V | 00:00:00 | 00:00:00 | 00:00:00 | |
| SQ6EMJ | 2026-09-05 13:00:50 | 51.21198 | 17.79895 | 104° | 126km/h | 12817m | -5.5m/s | -48.9°C | 0% | 0hPa | 0V | 00:00:00 | 00:00:00 | 00:00:00 | |
| SP6BVK | 2026-09-05 13:00:44 | 51.21237 | 17.79654 | 107° | 122km/h | 12845m | -5.3m/s | -48.8°C | 0% | 0hPa | 0V | 00:00:00 | 00:00:00 | 00:00:00 | |
| POL1PZ | 2026-09-05 13:00:40 | 51.21269 | 17.79475 | 106° | 110km/h | 12867m | -5.6m/s | -48.6°C | 0% | 0hPa | 0V | 00:00:00 | 00:00:00 | 00:00:00 | |
| SQ6EMJ | 2026-09-05 13:00:38 | 51.21284 | 17.79390 | 105° | 110km/h | 12877m | -5.6m/s | -48.0°C | 0% | 0hPa | 0V | 00:00:00 | 00:00:00 | 00:00:00 | |
| OM5KV | 2026-09-05 13:00:34 | 51.21305 | 17.79217 | 99° | 111km/h | 12899m | -5.5m/s | -47.9°C | 0% | 0hPa | 0V | 00:00:00 | 00:00:00 | 00:00:00 | |
| SQ6EMJ | 2026-09-05 13:00:33 | 51.21309 | 17.79173 | 99° | 111km/h | 12904m | -5.5m/s | -48.0°C | 0% | 0hPa | 0V | 00:00:00 | 00:00:00 | 00:00:00 | |
| OM5KV | 2026-09-05 13:00:29 | 51.21323 | 17.78988 | 97° | 120km/h | 12926m | -5.1m/s | -47.9°C | 0% | 0hPa | 0V | 00:00:00 | 00:00:00 | 00:00:00 | |
| SQ6EMJ | 2026-09-05 13:00:28 | 51.21330 | 17.78891 | 99° | 124km/h | 12937m | -5.3m/s | -47.9°C | 0% | 0hPa | 0V | 00:00:00 | 00:00:00 | 00:00:00 | |
| SP6BVK | 2026-09-05 13:00:23 | 51.21352 | 17.78694 | 103° | 122km/h | 12958m | -5.2m/s | -48.4°C | 0% | 0hPa | 0V | 00:00:00 | 00:00:00 | 00:00:00 | |
| OM5KV | 2026-09-05 13:00:22 | 51.21359 | 17.78646 | 103° | 122km/h | 12963m | -5.2m/s | -48.5°C | 0% | 0hPa | 0V | 00:00:00 | 00:00:00 | 00:00:00 | |
| OM5KV | 2026-09-05 13:00:21 | 51.21365 | 17.78599 | 104° | 119km/h | 12968m | -5.1m/s | -48.9°C | 0% | 0hPa | 0V | 00:00:00 | 00:00:00 | 00:00:00 | |
| POL1PZ | 2026-09-05 13:00:20 | 51.21371 | 17.78553 | 103° | 113km/h | 12974m | -5.2m/s | -48.9°C | 0% | 0hPa | 0V | 00:00:00 | 00:00:00 | 00:00:00 | |
| SQ6EMJ | 2026-09-05 13:00:16 | 51.21390 | 17.78380 | 98° | 108km/h | 12995m | -5.4m/s | -48.2°C | 0% | 0hPa | 0V | 00:00:00 | 00:00:00 | 00:00:00 | |
| OM5KV | 2026-09-05 13:00:15 | 51.21393 | 17.78337 | 97° | 108km/h | 13000m | -5.5m/s | -48.1°C | 0% | 0hPa | 0V | 00:00:00 | 00:00:00 | 00:00:00 | |
| SQ6EMJ | 2026-09-05 13:00:11 | 51.21403 | 17.78112 | 94° | 119km/h | 13027m | -5.3m/s | -48.6°C | 0% | 0hPa | 0V | 00:00:00 | 00:00:00 | 00:00:00 | |
| OM5KV | 2026-09-05 13:00:09 | 51.21406 | 17.78015 | 95° | 122km/h | 13037m | -5.4m/s | -49.2°C | 0% | 0hPa | 0V | 00:00:00 | 00:00:00 | 00:00:00 | |
| SQ6EMJ | 2026-09-05 13:00:06 | 51.21416 | 17.77864 | 99° | 126km/h | 13053m | -5.4m/s | -49.2°C | 0% | 0hPa | 0V | 00:00:00 | 00:00:00 | 00:00:00 | |
| EDDB2-11 | 2026-09-05 13:00:05 | 51.21421 | 17.77814 | 98° | 124km/h | 13058m | -5.3m/s | -49.4°C | -1.0% | -1.0hPa | 0V | 00:00:00 | 00:00:00 | 00:00:00 | |
| SONDE2-11 | 2026-09-05 13:00:04 | 51.21426 | 17.77764 | 98° | 124km/h | 13063m | -5.3m/s | -48.7°C | -1.0% | -1.0hPa | 0V | 00:00:00 | 00:00:00 | 00:00:00 | |
| POL1PZ | 2026-09-05 13:00:00 | 51.21447 | 17.77575 | 100° | 113km/h | 13085m | -5.3m/s | -48.8°C | 0% | 0hPa | 0V | 00:00:00 | 00:00:00 | 00:00:00 | |
| OM5KV | 2026-09-05 12:59:56 | 51.21458 | 17.77442 | 96° | 111km/h | 13101m | -5.5m/s | -48.8°C | 0% | 0hPa | 0V | 00:00:00 | 00:00:00 | 00:00:00 | |
| SQ6EMJ | 2026-09-05 12:59:54 | 51.21462 | 17.77307 | 92° | 111km/h | 13117m | -5.3m/s | -48.5°C | 0% | 0hPa | 0V | 00:00:00 | 00:00:00 | 00:00:00 | |
| OM5KV | 2026-09-05 12:59:50 | 51.21462 | 17.77169 | 89° | 117km/h | 13134m | -5.2m/s | -48.7°C | 0% | 0hPa | 0V | 00:00:00 | 00:00:00 | 00:00:00 | |
| OM5KV | 2026-09-05 12:59:48 | 51.21460 | 17.77074 | 89° | 122km/h | 13144m | -5.4m/s | -48.8°C | 0% | 0hPa | 0V | 00:00:00 | 00:00:00 | 00:00:00 | |
| OM5KV | 2026-09-05 12:59:44 | 51.21458 | 17.76871 | 91° | 128km/h | 13166m | -5.3m/s | -49.0°C | 0% | 0hPa | 0V | 00:00:00 | 00:00:00 | 00:00:00 | |
| SP6BVK | 2026-09-05 12:59:43 | 51.21458 | 17.76766 | 92° | 131km/h | 13176m | -5.1m/s | -49.1°C | 0% | 0hPa | 0V | 00:00:00 | 00:00:00 | 00:00:00 | |
| OM5KV | 2026-09-05 12:59:42 | 51.21458 | 17.76766 | 92° | 131km/h | 13176m | -5.1m/s | -49.1°C | 0% | 0hPa | 0V | 00:00:00 | 00:00:00 | 00:00:00 | |
| POL1PZ | 2026-09-05 12:59:39 | 51.21464 | 17.76607 | 96° | 131km/h | 13191m | -5.0m/s | -49.0°C | 0% | 0hPa | 0V | 00:00:00 | 00:00:00 | 00:00:00 | |
| OM5KV | 2026-09-05 12:59:37 | 51.21471 | 17.76503 | 98° | 128km/h | 13201m | -5.3m/s | -49.1°C | 0% | 0hPa | 0V | 00:00:00 | 00:00:00 | 00:00:00 | |
| OM5KV | 2026-09-05 12:59:33 | 51.21484 | 17.76309 | 94° | 117km/h | 13222m | -5.1m/s | -48.4°C | 0% | 0hPa | 0V | 00:00:00 | 00:00:00 | 00:00:00 | |
| OM5KV | 2026-09-05 12:59:32 | 51.21486 | 17.76214 | 92° | 119km/h | 13232m | -5.2m/s | -48.0°C | 0% | 0hPa | 0V | 00:00:00 | 00:00:00 | 00:00:00 | |
| OM5KV | 2026-09-05 12:59:27 | 51.21486 | 17.76016 | 90° | 126km/h | 13253m | -5.2m/s | -48.9°C | 0% | 0hPa | 0V | 00:00:00 | 00:00:00 | 00:00:00 | |
| SQ6EMJ | 2026-09-05 12:59:26 | 51.21484 | 17.75914 | 89° | 130km/h | 13263m | -5.0m/s | -49.1°C | 0% | 0hPa | 0V | 00:00:00 | 00:00:00 | 00:00:00 | |
| OM5KV | 2026-09-05 12:59:25 | 51.21484 | 17.75914 | 89° | 130km/h | 13263m | -5.0m/s | -49.1°C | 0% | 0hPa | 0V | 00:00:00 | 00:00:00 | 00:00:00 | |
| SP6BVK | 2026-09-05 12:59:22 | 51.21482 | 17.75753 | 91° | 137km/h | 13279m | -5.1m/s | -48.5°C | 0% | 0hPa | 0V | 00:00:00 | 00:00:00 | 00:00:00 | |
| OM5KV | 2026-09-05 12:59:20 | 51.21483 | 17.75641 | 93° | 139km/h | 13289m | -5.0m/s | -48.3°C | 0% | 0hPa | 0V | 00:00:00 | 00:00:00 | 00:00:00 | |
| POL1PZ | 2026-09-05 12:59:19 | 51.21486 | 17.75529 | 95° | 141km/h | 13299m | -5.2m/s | -48.1°C | 0% | 0hPa | 0V | 00:00:00 | 00:00:00 | 00:00:00 | |
| SQ6EMJ | 2026-09-05 12:59:15 | 51.21500 | 17.75305 | 98° | 139km/h | 13319m | -4.9m/s | -49.3°C | 0% | 0hPa | 0V | 00:00:00 | 00:00:00 | 00:00:00 | |
| OM5KV | 2026-09-05 12:59:13 | 51.21505 | 17.75250 | 99° | 137km/h | 13323m | -5.0m/s | -49.3°C | 0% | 0hPa | 0V | 00:00:00 | 00:00:00 | 00:00:00 | |
| SQ6EMJ | 2026-09-05 12:59:10 | 51.21528 | 17.75039 | 102° | 130km/h | 13343m | -5.0m/s | -49.1°C | 0% | 0hPa | 0V | 00:00:00 | 00:00:00 | 00:00:00 | |
| OM5KV | 2026-09-05 12:59:09 | 51.21528 | 17.75039 | 102° | 130km/h | 13343m | -5.0m/s | -49.1°C | 0% | 0hPa | 0V | 00:00:00 | 00:00:00 | 00:00:00 | |
| OM5KV | 2026-09-05 12:59:07 | 51.21540 | 17.74939 | 103° | 122km/h | 13353m | -5.2m/s | -49.1°C | 0% | 0hPa | 0V | 00:00:00 | 00:00:00 | 00:00:00 | |
| SQ6EMJ | 2026-09-05 12:59:04 | 51.21563 | 17.74753 | 101° | 113km/h | 13374m | -5.0m/s | -48.7°C | 0% | 0hPa | 0V | 00:00:00 | 00:00:00 | 00:00:00 | |
| EDDB2-11 | 2026-09-05 12:59:03 | 51.21568 | 17.74708 | 98° | 111km/h | 13379m | -5.1m/s | -48.7°C | -1.0% | -1.0hPa | 0V | 00:00:00 | 00:00:00 | 00:00:00 | |
| OM5KV | 2026-09-05 12:59:00 | 51.21574 | 17.74615 | 96° | 119km/h | 13389m | -5.0m/s | -48.1°C | 0% | 0hPa | 0V | 00:00:00 | 00:00:00 | 00:00:00 | |
| SQ6EMJ | 2026-09-05 12:58:58 | 51.21582 | 17.74469 | 96° | 126km/h | 13404m | -4.9m/s | -48.3°C | 0% | 0hPa | 0V | 00:00:00 | 00:00:00 | 00:00:00 | |
| POL1PZ | 2026-09-05 12:58:57 | 51.21582 | 17.74469 | 96° | 126km/h | 13404m | -4.9m/s | -48.3°C | 0% | 0hPa | 0V | 00:00:00 | 00:00:00 | 00:00:00 | |
| OM5KV | 2026-09-05 12:58:54 | 51.21592 | 17.74315 | 98° | 130km/h | 13419m | -4.9m/s | -48.2°C | 0% | 0hPa | 0V | 00:00:00 | 00:00:00 | 00:00:00 | |
| OM5KV | 2026-09-05 12:58:52 | 51.21601 | 17.74212 | 101° | 130km/h | 13429m | -5.0m/s | -47.7°C | 0% | 0hPa | 0V | 00:00:00 | 00:00:00 | 00:00:00 | |
| OM5KV | 2026-09-05 12:58:48 | 51.21628 | 17.74006 | 104° | 130km/h | 13449m | -4.9m/s | -48.5°C | 0% | 0hPa | 0V | 00:00:00 | 00:00:00 | 00:00:00 | |
| SQ6EMJ | 2026-09-05 12:58:47 | 51.21643 | 17.73905 | 106° | 126km/h | 13459m | -5.0m/s | -48.5°C | 0% | 0hPa | 0V | 00:00:00 | 00:00:00 | 00:00:00 | |
| OM5KV | 2026-09-05 12:58:46 | 51.21643 | 17.73905 | 106° | 126km/h | 13459m | -5.0m/s | -48.5°C | 0% | 0hPa | 0V | 00:00:00 | 00:00:00 | 00:00:00 | |
| OM5KV | 2026-09-05 12:58:42 | 51.21677 | 17.73714 | 108° | 120km/h | 13479m | -5.1m/s | -48.3°C | 0% | 0hPa | 0V | 00:00:00 | 00:00:00 | 00:00:00 | |
| SP6BVK | 2026-09-05 12:58:41 | 51.21686 | 17.73667 | 108° | 119km/h | 13484m | -4.9m/s | -48.6°C | 0% | 0hPa | 0V | 00:00:00 | 00:00:00 | 00:00:00 | |
| POL1PZ | 2026-09-05 12:58:37 | 51.21719 | 17.73490 | 108° | 113km/h | 13505m | -5.1m/s | -48.5°C | 0% | 0hPa | 0V | 00:00:00 | 00:00:00 | 00:00:00 | |
| SQ6EMJ | 2026-09-05 12:58:36 | 51.21735 | 17.73405 | 106° | 110km/h | 13516m | -4.7m/s | -48.2°C | 0% | 0hPa | 0V | 00:00:00 | 00:00:00 | 00:00:00 | |
| OE3JTB-15 | 2026-09-05 12:58:34 | 51.21742 | 17.73362 | 106° | 111km/h | 13531m | -4.8m/s | 0°C | 0% | 0hPa | 0V | 00:00:00 | 00:00:00 | 00:00:00 | |
| OM5KV | 2026-09-05 12:58:31 | 51.21762 | 17.73238 | 104° | 104km/h | 13536m | -4.9m/s | -47.2°C | 0% | 0hPa | 0V | 00:00:00 | 00:00:00 | 00:00:00 | |
| OM5KV | 2026-09-05 12:58:24 | 51.21794 | 17.72945 | 98° | 106km/h | 13570m | -5.2m/s | -47.1°C | 0% | 0hPa | 0V | 00:00:00 | 00:00:00 | 00:00:00 | |
| SP6BVK | 2026-09-05 12:58:21 | 51.21803 | 17.72770 | 95° | 115km/h | 13590m | -5.2m/s | -47.5°C | 0% | 0hPa | 0V | 00:00:00 | 00:00:00 | 00:00:00 | |
| SQ6EMJ | 2026-09-05 12:58:19 | 51.21809 | 17.72676 | 98° | 119km/h | 13601m | -5.2m/s | -47.9°C | 0% | 0hPa | 0V | 00:00:00 | 00:00:00 | 00:00:00 | |
| OM5KV | 2026-09-05 12:58:18 | 51.21809 | 17.72676 | 98° | 119km/h | 13601m | -5.2m/s | -47.9°C | 0% | 0hPa | 0V | 00:00:00 | 00:00:00 | 00:00:00 | |
| POL1PZ | 2026-09-05 12:58:16 | 51.21817 | 17.72581 | 100° | 119km/h | 13612m | -5.2m/s | -48.2°C | 0% | 0hPa | 0V | 00:00:00 | 00:00:00 | 00:00:00 | |
| OM5KV | 2026-09-05 12:58:15 | 51.21822 | 17.72534 | 101° | 119km/h | 13617m | -5.1m/s | -47.9°C | 0% | 0hPa | 0V | 00:00:00 | 00:00:00 | 00:00:00 | |
| SQ6EMJ | 2026-09-05 12:58:14 | 51.21834 | 17.72441 | 104° | 117km/h | 13627m | -5.0m/s | -47.3°C | 0% | 0hPa | 0V | 00:00:00 | 00:00:00 | 00:00:00 | |
| OM5KV | 2026-09-05 12:58:09 | 51.21863 | 17.72260 | 107° | 113km/h | 13647m | -5.2m/s | -47.7°C | 0% | 0hPa | 0V | 00:00:00 | 00:00:00 | 00:00:00 | |
| SQ6EMJ | 2026-09-05 12:58:08 | 51.21879 | 17.72174 | 108° | 110km/h | 13658m | -5.2m/s | -47.9°C | 0% | 0hPa | 0V | 00:00:00 | 00:00:00 | 00:00:00 | |
| OE3JTB-15 | 2026-09-05 12:58:05 | 51.21896 | 17.72090 | 108° | 104km/h | 13679m | -5.2m/s | 0°C | 0% | 0hPa | 0V | 00:00:00 | 00:00:00 | 00:00:00 | |
| OM5KV | 2026-09-05 12:58:03 | 51.21913 | 17.72009 | 109° | 102km/h | 13679m | -5.3m/s | -48.5°C | 0% | 0hPa | 0V | 00:00:00 | 00:00:00 | 00:00:00 | |
| SQ6EMJ | 2026-09-05 12:58:02 | 51.21927 | 17.71931 | 107° | 100km/h | 13690m | -5.1m/s | -48.8°C | 0% | 0hPa | 0V | 00:00:00 | 00:00:00 | 00:00:00 | |
| SP6BVK | 2026-09-05 12:58:00 | 51.21934 | 17.71893 | 106° | 99km/h | 13695m | -4.9m/s | -48.6°C | 0% | 0hPa | 0V | 00:00:00 | 00:00:00 | 00:00:00 | |
| OM5KV | 2026-09-05 12:57:59 | 51.21940 | 17.71855 | 105° | 99km/h | 13700m | -5.0m/s | -48.7°C | 0% | 0hPa | 0V | 00:00:00 | 00:00:00 | 00:00:00 | |
| OM5KV | 2026-09-05 12:57:58 | 51.21946 | 17.71817 | 104° | 99km/h | 13706m | -5.2m/s | -49.2°C | 0% | 0hPa | 0V | 00:00:00 | 00:00:00 | 00:00:00 | |
| OM5KV | 2026-09-05 12:57:52 | 51.21975 | 17.71568 | 102° | 111km/h | 13737m | -5.4m/s | -49.6°C | 0% | 0hPa | 0V | 00:00:00 | 00:00:00 | 00:00:00 | |
| SQ6EMJ | 2026-09-05 12:57:51 | 51.21988 | 17.71479 | 108° | 115km/h | 13748m | -5.7m/s | -49.5°C | 0% | 0hPa | 0V | 00:00:00 | 00:00:00 | 00:00:00 | |
| SQ6EMJ | 2026-09-05 12:57:46 | 51.22033 | 17.71269 | 111° | 108km/h | 13775m | -5.4m/s | -49.0°C | 0% | 0hPa | 0V | 00:00:00 | 00:00:00 | 00:00:00 | |
| OM5KV | 2026-09-05 12:57:41 | 51.22069 | 17.71114 | 111° | 97km/h | 13796m | -5.3m/s | -49.3°C | 0% | 0hPa | 0V | 00:00:00 | 00:00:00 | 00:00:00 | |
| SP6BVK | 2026-09-05 12:57:40 | 51.22084 | 17.71042 | 108° | 93km/h | 13807m | -5.5m/s | -49.6°C | 0% | 0hPa | 0V | 00:00:00 | 00:00:00 | 00:00:00 | |
| OM5KV | 2026-09-05 12:57:39 | 51.22084 | 17.71042 | 108° | 93km/h | 13807m | -5.5m/s | -49.6°C | 0% | 0hPa | 0V | 00:00:00 | 00:00:00 | 00:00:00 | |
| OM5KV | 2026-09-05 12:57:36 | 51.22108 | 17.70899 | 103° | 91km/h | 13828m | -5.7m/s | -48.8°C | 0% | 0hPa | 0V | 00:00:00 | 00:00:00 | 00:00:00 | |
| POL1PZ | 2026-09-05 12:57:35 | 51.22108 | 17.70899 | 103° | 91km/h | 13828m | -5.7m/s | -48.8°C | 0% | 0hPa | 0V | 00:00:00 | 00:00:00 | 00:00:00 | |
| SQ6EMJ | 2026-09-05 12:57:34 | 51.22117 | 17.70825 | 101° | 93km/h | 13840m | -5.7m/s | -48.4°C | 0% | 0hPa | 0V | 00:00:00 | 00:00:00 | 00:00:00 | |
| OM5KV | 2026-09-05 12:57:33 | 51.22117 | 17.70825 | 101° | 93km/h | 13840m | -5.7m/s | -48.4°C | 0% | 0hPa | 0V | 00:00:00 | 00:00:00 | 00:00:00 | |
| OM5KV | 2026-09-05 12:57:29 | 51.22129 | 17.70673 | 97° | 100km/h | 13862m | -5.8m/s | -48.7°C | 0% | 0hPa | 0V | 00:00:00 | 00:00:00 | 00:00:00 | |
| SQ6EMJ | 2026-09-05 12:57:28 | 51.22132 | 17.70632 | 97° | 104km/h | 13868m | -5.7m/s | -49.1°C | 0% | 0hPa | 0V | 00:00:00 | 00:00:00 | 00:00:00 | |
| OM5KV | 2026-09-05 12:57:26 | 51.22138 | 17.70548 | 99° | 108km/h | 13879m | -5.4m/s | -49.0°C | 0% | 0hPa | 0V | 00:00:00 | 00:00:00 | 00:00:00 | |
| SQ6EMJ | 2026-09-05 12:57:23 | 51.22158 | 17.70378 | 104° | 104km/h | 13901m | -5.6m/s | -48.5°C | 0% | 0hPa | 0V | 00:00:00 | 00:00:00 | 00:00:00 | |
| OM5KV | 2026-09-05 12:57:22 | 51.22158 | 17.70378 | 104° | 104km/h | 13901m | -5.6m/s | -48.5°C | 0% | 0hPa | 0V | 00:00:00 | 00:00:00 | 00:00:00 | |
| OM5KV | 2026-09-05 12:57:20 | 51.22170 | 17.70298 | 105° | 99km/h | 13912m | -5.4m/s | -48.9°C | 0% | 0hPa | 0V | 00:00:00 | 00:00:00 | 00:00:00 | |
| SQ6EMJ | 2026-09-05 12:57:18 | 51.22186 | 17.70185 | 102° | 91km/h | 13929m | -5.6m/s | -49.3°C | 0% | 0hPa | 0V | 00:00:00 | 00:00:00 | 00:00:00 | |
| POL1PZ | 2026-09-05 12:57:15 | 51.22193 | 17.70114 | 99° | 89km/h | 13941m | -5.5m/s | -48.7°C | 0% | 0hPa | 0V | 00:00:00 | 00:00:00 | 00:00:00 | |
| SQ6EMJ | 2026-09-05 12:57:12 | 51.22202 | 17.69970 | 94° | 89km/h | 13963m | -5.4m/s | -48.9°C | 0% | 0hPa | 0V | 00:00:00 | 00:00:00 | 00:00:00 | |
| OM5KV | 2026-09-05 12:57:09 | 51.22203 | 17.69897 | 92° | 91km/h | 13974m | -5.4m/s | -48.9°C | 0% | 0hPa | 0V | 00:00:00 | 00:00:00 | 00:00:00 | |
| OE3JTB-15 | 2026-09-05 12:57:07 | 51.22203 | 17.69823 | 91° | 104km/h | 13990m | -5.4m/s | 0°C | 0% | 0hPa | 0V | 00:00:00 | 00:00:00 | 00:00:00 | |
| SQ6EMJ | 2026-09-05 12:57:06 | 51.22202 | 17.69745 | 89° | 100km/h | 13995m | -5.4m/s | -50.6°C | 0% | 0hPa | 0V | 00:00:00 | 00:00:00 | 00:00:00 | |
| OM5KV | 2026-09-05 12:57:05 | 51.22202 | 17.69745 | 89° | 100km/h | 13995m | -5.4m/s | -50.6°C | 0% | 0hPa | 0V | 00:00:00 | 00:00:00 | 00:00:00 | |
| OM5KV | 2026-09-05 12:57:03 | 51.22200 | 17.69662 | 89° | 106km/h | 14006m | -5.3m/s | -50.4°C | 0% | 0hPa | 0V | 00:00:00 | 00:00:00 | 00:00:00 | |
| SQ6EMJ | 2026-09-05 12:57:01 | 51.22197 | 17.69531 | 90° | 111km/h | 14022m | -5.2m/s | -50.3°C | 0% | 0hPa | 0V | 00:00:00 | 00:00:00 | 00:00:00 | |
| SP6BVK | 2026-09-05 12:56:58 | 51.22198 | 17.69440 | 94° | 113km/h | 14033m | -5.4m/s | -49.6°C | 0% | 0hPa | 0V | 00:00:00 | 00:00:00 | 00:00:00 | |
| POL1PZ | 2026-09-05 12:56:55 | 51.22206 | 17.69259 | 96° | 113km/h | 14056m | -5.5m/s | -48.7°C | 0% | 0hPa | 0V | 00:00:00 | 00:00:00 | 00:00:00 | |
| OM5KV | 2026-09-05 12:56:52 | 51.22212 | 17.69168 | 98° | 113km/h | 14067m | -5.4m/s | -48.6°C | 0% | 0hPa | 0V | 00:00:00 | 00:00:00 | 00:00:00 | |
| SQ6EMJ | 2026-09-05 12:56:49 | 51.22223 | 17.69032 | 100° | 113km/h | 14084m | -5.4m/s | -49.0°C | 0% | 0hPa | 0V | 00:00:00 | 00:00:00 | 00:00:00 | |
| OM5KV | 2026-09-05 12:56:46 | 51.22237 | 17.68899 | 101° | 111km/h | 14101m | -5.7m/s | -49.8°C | 0% | 0hPa | 0V | 00:00:00 | 00:00:00 | 00:00:00 | |
| SQ6EMJ | 2026-09-05 12:56:44 | 51.22253 | 17.68767 | 103° | 110km/h | 14118m | -5.7m/s | -50.5°C | 0% | 0hPa | 0V | 00:00:00 | 00:00:00 | 00:00:00 | |
| SQ6EMJ | 2026-09-05 12:56:38 | 51.22291 | 17.68525 | 106° | 99km/h | 14153m | -5.7m/s | -49.2°C | 0% | 0hPa | 0V | 00:00:00 | 00:00:00 | 00:00:00 | |
| SP6BVK | 2026-09-05 12:56:37 | 51.22291 | 17.68525 | 106° | 99km/h | 14153m | -5.7m/s | -49.2°C | 0% | 0hPa | 0V | 00:00:00 | 00:00:00 | 00:00:00 | |
| POL1PZ | 2026-09-05 12:56:34 | 51.22310 | 17.68414 | 107° | 93km/h | 14171m | -5.8m/s | -50.2°C | 0% | 0hPa | 0V | 00:00:00 | 00:00:00 | 00:00:00 | |
| SQ6EMJ | 2026-09-05 12:56:32 | 51.22323 | 17.68342 | 107° | 91km/h | 14183m | -5.9m/s | -51.0°C | 0% | 0hPa | 0V | 00:00:00 | 00:00:00 | 00:00:00 | |
| OM5KV | 2026-09-05 12:56:29 | 51.22343 | 17.68206 | 99° | 84km/h | 14207m | -5.8m/s | -50.8°C | 0% | 0hPa | 0V | 00:00:00 | 00:00:00 | 00:00:00 | |
| SQ6EMJ | 2026-09-05 12:56:22 | 51.22364 | 17.67950 | 102° | 99km/h | 14249m | -6.2m/s | -49.7°C | 0% | 0hPa | 0V | 00:00:00 | 00:00:00 | 00:00:00 | |
| OM5KV | 2026-09-05 12:56:21 | 51.22364 | 17.67950 | 102° | 99km/h | 14249m | -6.2m/s | -49.7°C | 0% | 0hPa | 0V | 00:00:00 | 00:00:00 | 00:00:00 | |
| OM5KV | 2026-09-05 12:56:17 | 51.22387 | 17.67793 | 107° | 100km/h | 14274m | -6.3m/s | -49.6°C | 0% | 0hPa | 0V | 00:00:00 | 00:00:00 | 00:00:00 | |
| OM5KV | 2026-09-05 12:56:16 | 51.22401 | 17.67717 | 107° | 99km/h | 14286m | -6.3m/s | -50.3°C | 0% | 0hPa | 0V | 00:00:00 | 00:00:00 | 00:00:00 | |
| POL1PZ | 2026-09-05 12:56:13 | 51.22415 | 17.67644 | 108° | 91km/h | 14299m | -6.2m/s | -50.3°C | 0% | 0hPa | 0V | 00:00:00 | 00:00:00 | 00:00:00 | |
| OM5KV | 2026-09-05 12:56:11 | 51.22428 | 17.67575 | 106° | 88km/h | 14312m | -6.2m/s | -49.6°C | 0% | 0hPa | 0V | 00:00:00 | 00:00:00 | 00:00:00 | |
| OE3JTB-15 | 2026-09-05 12:56:09 | 51.22438 | 17.67506 | 103° | 42km/h | 14330m | -6.2m/s | 0°C | 0% | 0hPa | 0V | 00:00:00 | 00:00:00 | 00:00:00 | |
| OM5KV | 2026-09-05 12:56:06 | 51.22456 | 17.67370 | 99° | 86km/h | 14349m | -6.2m/s | -50.8°C | 0% | 0hPa | 0V | 00:00:00 | 00:00:00 | 00:00:00 | |
| OM5KV | 2026-09-05 12:56:04 | 51.22458 | 17.67336 | 98° | 88km/h | 14355m | -6.4m/s | -50.6°C | 0% | 0hPa | 0V | 00:00:00 | 00:00:00 | 00:00:00 | |
| SQ6EMJ | 2026-09-05 12:55:59 | 51.22471 | 17.67107 | 96° | 102km/h | 14394m | -6.4m/s | -50.1°C | 0% | 0hPa | 0V | 00:00:00 | 00:00:00 | 00:00:00 | |
| OM5KV | 2026-09-05 12:55:58 | 51.22471 | 17.67107 | 96° | 102km/h | 14394m | -6.4m/s | -50.1°C | 0% | 0hPa | 0V | 00:00:00 | 00:00:00 | 00:00:00 | |
| SP6BVK | 2026-09-05 12:55:57 | 51.22477 | 17.67024 | 98° | 104km/h | 14407m | -6.3m/s | -49.3°C | 0% | 0hPa | 0V | 00:00:00 | 00:00:00 | 00:00:00 | |
| SQ6EMJ | 2026-09-05 12:55:54 | 51.22489 | 17.66898 | 103° | 106km/h | 14426m | -6.3m/s | -49.4°C | 0% | 0hPa | 0V | 00:00:00 | 00:00:00 | 00:00:00 | |
| POL1PZ | 2026-09-05 12:55:53 | 51.22489 | 17.66898 | 103° | 106km/h | 14426m | -6.3m/s | -49.4°C | 0% | 0hPa | 0V | 00:00:00 | 00:00:00 | 00:00:00 | |
| OM5KV | 2026-09-05 12:55:52 | 51.22495 | 17.66856 | 103° | 106km/h | 14433m | -6.5m/s | -49.8°C | 0% | 0hPa | 0V | 00:00:00 | 00:00:00 | 00:00:00 | |
| OM5KV | 2026-09-05 12:55:48 | 51.22527 | 17.66659 | 109° | 93km/h | 14466m | -6.5m/s | -49.8°C | 0% | 0hPa | 0V | 00:00:00 | 00:00:00 | 00:00:00 | |
| OM5KV | 2026-09-05 12:55:46 | 51.22534 | 17.66624 | 109° | 89km/h | 14473m | -6.3m/s | -49.9°C | 0% | 0hPa | 0V | 00:00:00 | 00:00:00 | 00:00:00 | |
| SQ6EMJ | 2026-09-05 12:55:42 | 51.22567 | 17.66459 | 109° | 84km/h | 14506m | -6.5m/s | -50.2°C | 0% | 0hPa | 0V | 00:00:00 | 00:00:00 | 00:00:00 | |
| OM5KV | 2026-09-05 12:55:41 | 51.22567 | 17.66459 | 109° | 84km/h | 14506m | -6.5m/s | -50.2°C | 0% | 0hPa | 0V | 00:00:00 | 00:00:00 | 00:00:00 | |
| OM5KV | 2026-09-05 12:55:39 | 51.22580 | 17.66395 | 108° | 84km/h | 14519m | -6.6m/s | -50.8°C | 0% | 0hPa | 0V | 00:00:00 | 00:00:00 | 00:00:00 | |
| OM5KV | 2026-09-05 12:55:36 | 51.22597 | 17.66301 | 105° | 77km/h | 14539m | -6.6m/s | -51.4°C | 0% | 0hPa | 0V | 00:00:00 | 00:00:00 | 00:00:00 | |
| OM5KV | 2026-09-05 12:55:34 | 51.22606 | 17.66242 | 102° | 75km/h | 14552m | -6.6m/s | -51.2°C | 0% | 0hPa | 0V | 00:00:00 | 00:00:00 | 00:00:00 | |
| POL1PZ | 2026-09-05 12:55:32 | 51.22611 | 17.66183 | 97° | 75km/h | 14566m | -6.5m/s | -50.9°C | 0% | 0hPa | 0V | 00:00:00 | 00:00:00 | 00:00:00 | |
| OM5KV | 2026-09-05 12:55:31 | 51.22614 | 17.66122 | 95° | 77km/h | 14579m | -6.5m/s | -50.6°C | 0% | 0hPa | 0V | 00:00:00 | 00:00:00 | 00:00:00 | |
| OM5KV | 2026-09-05 12:55:29 | 51.22615 | 17.66058 | 91° | 82km/h | 14592m | -6.5m/s | -50.3°C | 0% | 0hPa | 0V | 00:00:00 | 00:00:00 | 00:00:00 | |
| SQ6EMJ | 2026-09-05 12:55:26 | 51.22614 | 17.65957 | 89° | 86km/h | 14612m | -6.7m/s | -50.7°C | 0% | 0hPa | 0V | 00:00:00 | 00:00:00 | 00:00:00 | |
| SQ6EMJ | 2026-09-05 12:55:20 | 51.22609 | 17.65733 | 90° | 100km/h | 14653m | -6.7m/s | -51.0°C | 0% | 0hPa | 0V | 00:00:00 | 00:00:00 | 00:00:00 | |
| OM5KV | 2026-09-05 12:55:19 | 51.22609 | 17.65733 | 90° | 100km/h | 14653m | -6.7m/s | -51.0°C | 0% | 0hPa | 0V | 00:00:00 | 00:00:00 | 00:00:00 | |
| SP6BVK | 2026-09-05 12:55:16 | 51.22614 | 17.65567 | 97° | 99km/h | 14679m | -6.8m/s | -51.0°C | 0% | 0hPa | 0V | 00:00:00 | 00:00:00 | 00:00:00 | |
| SQ6EMJ | 2026-09-05 12:55:14 | 51.22619 | 17.65494 | 96° | 86km/h | 14693m | -6.8m/s | -50.9°C | 0% | 0hPa | 0V | 00:00:00 | 00:00:00 | 00:00:00 | |
| OM5KV | 2026-09-05 12:55:13 | 51.22619 | 17.65494 | 96° | 86km/h | 14693m | -6.8m/s | -50.9°C | 0% | 0hPa | 0V | 00:00:00 | 00:00:00 | 00:00:00 | |
| POL1PZ | 2026-09-05 12:55:12 | 51.22621 | 17.65460 | 94° | 86km/h | 14699m | -6.9m/s | -50.8°C | 0% | 0hPa | 0V | 00:00:00 | 00:00:00 | 00:00:00 | |
| SQ6EMJ | 2026-09-05 12:55:09 | 51.22622 | 17.65325 | 89° | 82km/h | 14727m | -7.1m/s | -50.0°C | 0% | 0hPa | 0V | 00:00:00 | 00:00:00 | 00:00:00 | |
| SQ6EMJ | 2026-09-05 12:55:03 | 51.22611 | 17.65123 | 82° | 84km/h | 14768m | -6.7m/s | -49.6°C | 0% | 0hPa | 0V | 00:00:00 | 00:00:00 | 00:00:00 | |
| SQ6EMJ | 2026-09-05 12:54:58 | 51.22592 | 17.64957 | 77° | 86km/h | 14802m | -6.6m/s | -49.6°C | 0% | 0hPa | 0V | 00:00:00 | 00:00:00 | 00:00:00 | |
| SP6BVK | 2026-09-05 12:54:55 | 51.22580 | 17.64889 | 76° | 89km/h | 14815m | -6.8m/s | -49.5°C | 0% | 0hPa | 0V | 00:00:00 | 00:00:00 | 00:00:00 | |
| OM5KV | 2026-09-05 12:54:53 | 51.22568 | 17.64819 | 75° | 91km/h | 14829m | -6.9m/s | -50.0°C | 0% | 0hPa | 0V | 00:00:00 | 00:00:00 | 00:00:00 | |
| SQ6EMJ | 2026-09-05 12:54:52 | 51.22555 | 17.64745 | 75° | 99km/h | 14842m | -6.7m/s | -49.7°C | 0% | 0hPa | 0V | 00:00:00 | 00:00:00 | 00:00:00 | |
| POL1PZ | 2026-09-05 12:54:51 | 51.22555 | 17.64745 | 75° | 99km/h | 14842m | -6.7m/s | -49.7°C | 0% | 0hPa | 0V | 00:00:00 | 00:00:00 | 00:00:00 | |
| OM5KV | 2026-09-05 12:54:48 | 51.22529 | 17.64590 | 77° | 102km/h | 14869m | -6.8m/s | -49.7°C | 0% | 0hPa | 0V | 00:00:00 | 00:00:00 | 00:00:00 | |
| SQ6EMJ | 2026-09-05 12:54:46 | 51.22518 | 17.64510 | 80° | 102km/h | 14883m | -7.0m/s | -49.9°C | 0% | 0hPa | 0V | 00:00:00 | 00:00:00 | 00:00:00 | |
| OM5KV | 2026-09-05 12:54:42 | 51.22507 | 17.64387 | 85° | 104km/h | 14904m | -6.7m/s | -49.7°C | 0% | 0hPa | 0V | 00:00:00 | 00:00:00 | 00:00:00 | |
| SQ6EMJ | 2026-09-05 12:54:40 | 51.22502 | 17.64303 | 85° | 104km/h | 14918m | -6.9m/s | -50.0°C | 0% | 0hPa | 0V | 00:00:00 | 00:00:00 | 00:00:00 | |
| OM5KV | 2026-09-05 12:54:36 | 51.22493 | 17.64139 | 89° | 100km/h | 14946m | -6.9m/s | -50.7°C | 0% | 0hPa | 0V | 00:00:00 | 00:00:00 | 00:00:00 | |
| SQ6EMJ | 2026-09-05 12:54:35 | 51.22492 | 17.64059 | 91° | 97km/h | 14959m | -7.0m/s | -50.6°C | 0% | 0hPa | 0V | 00:00:00 | 00:00:00 | 00:00:00 | |
| SP6BVK | 2026-09-05 12:54:34 | 51.22492 | 17.64059 | 91° | 97km/h | 14959m | -7.0m/s | -50.6°C | 0% | 0hPa | 0V | 00:00:00 | 00:00:00 | 00:00:00 | |
| OM5KV | 2026-09-05 12:54:31 | 51.22493 | 17.63913 | 90° | 88km/h | 14988m | -6.4m/s | -51.0°C | 0% | 0hPa | 0V | 00:00:00 | 00:00:00 | 00:00:00 | |
| SQ6EMJ | 2026-09-05 12:54:30 | 51.22493 | 17.63878 | 89° | 86km/h | 14994m | -6.7m/s | -51.0°C | 0% | 0hPa | 0V | 00:00:00 | 00:00:00 | 00:00:00 | |
| OM5KV | 2026-09-05 12:54:29 | 51.22493 | 17.63878 | 89° | 86km/h | 14994m | -6.7m/s | -51.0°C | 0% | 0hPa | 0V | 00:00:00 | 00:00:00 | 00:00:00 | |
| SQ6EMJ | 2026-09-05 12:54:18 | 51.22468 | 17.63400 | 94° | 106km/h | 15078m | -7.1m/s | -51.5°C | 0% | 0hPa | 0V | 00:00:00 | 00:00:00 | 00:00:00 | |
| OM5KV | 2026-09-05 12:54:17 | 51.22468 | 17.63400 | 94° | 106km/h | 15078m | -7.1m/s | -51.5°C | 0% | 0hPa | 0V | 00:00:00 | 00:00:00 | 00:00:00 | |
| SP6BVK | 2026-09-05 12:54:14 | 51.22475 | 17.63280 | 96° | 95km/h | 15099m | -7.1m/s | -51.6°C | 0% | 0hPa | 0V | 00:00:00 | 00:00:00 | 00:00:00 | |
| OM5KV | 2026-09-05 12:54:12 | 51.22478 | 17.63206 | 93° | 91km/h | 15114m | -7.0m/s | -51.7°C | 0% | 0hPa | 0V | 00:00:00 | 00:00:00 | 00:00:00 | |
| OM5KV | 2026-09-05 12:54:11 | 51.22479 | 17.63169 | 92° | 91km/h | 15120m | -6.9m/s | -51.7°C | 0% | 0hPa | 0V | 00:00:00 | 00:00:00 | 00:00:00 | |
| POL1PZ | 2026-09-05 12:54:10 | 51.22479 | 17.63132 | 90° | 91km/h | 15127m | -7.0m/s | -51.6°C | 0% | 0hPa | 0V | 00:00:00 | 00:00:00 | 00:00:00 | |
| OM5KV | 2026-09-05 12:54:07 | 51.22472 | 17.62979 | 86° | 102km/h | 15156m | -7.1m/s | -51.6°C | 0% | 0hPa | 0V | 00:00:00 | 00:00:00 | 00:00:00 | |
| SQ6EMJ | 2026-09-05 12:54:06 | 51.22472 | 17.62979 | 86° | 102km/h | 15156m | -7.1m/s | -51.6°C | 0% | 0hPa | 0V | 00:00:00 | 00:00:00 | 00:00:00 | |
| SQ6EMJ | 2026-09-05 12:54:01 | 51.22468 | 17.62758 | 93° | 113km/h | 15191m | -7.0m/s | -51.9°C | 0% | 0hPa | 0V | 00:00:00 | 00:00:00 | 00:00:00 | |
| OM5KV | 2026-09-05 12:53:59 | 51.22471 | 17.62667 | 97° | 111km/h | 15205m | -7.1m/s | -51.9°C | 0% | 0hPa | 0V | 00:00:00 | 00:00:00 | 00:00:00 | |
| SQ6EMJ | 2026-09-05 12:53:56 | 51.22487 | 17.62495 | 102° | 102km/h | 15233m | -6.9m/s | -51.9°C | 0% | 0hPa | 0V | 00:00:00 | 00:00:00 | 00:00:00 | |
| SP6BVK | 2026-09-05 12:53:54 | 51.22497 | 17.62416 | 102° | 97km/h | 15247m | -6.9m/s | -51.9°C | 0% | 0hPa | 0V | 00:00:00 | 00:00:00 | 00:00:00 | |
| OM5KV | 2026-09-05 12:53:53 | 51.22497 | 17.62416 | 102° | 97km/h | 15247m | -6.9m/s | -51.9°C | 0% | 0hPa | 0V | 00:00:00 | 00:00:00 | 00:00:00 | |
| SQ6EMJ | 2026-09-05 12:53:50 | 51.22512 | 17.62269 | 97° | 91km/h | 15276m | -7.2m/s | -51.7°C | 0% | 0hPa | 0V | 00:00:00 | 00:00:00 | 00:00:00 | |
| POL1PZ | 2026-09-05 12:53:49 | 51.22512 | 17.62269 | 97° | 91km/h | 15276m | -7.2m/s | -51.7°C | 0% | 0hPa | 0V | 00:00:00 | 00:00:00 | 00:00:00 | |
| OM5KV | 2026-09-05 12:53:48 | 51.22514 | 17.62232 | 95° | 93km/h | 15283m | -7.1m/s | -51.7°C | 0% | 0hPa | 0V | 00:00:00 | 00:00:00 | 00:00:00 | |
| SQ6EMJ | 2026-09-05 12:53:44 | 51.22520 | 17.62071 | 96° | 110km/h | 15312m | -7.2m/s | -51.7°C | 0% | 0hPa | 0V | 00:00:00 | 00:00:00 | 00:00:00 | |
| OM5KV | 2026-09-05 12:53:42 | 51.22532 | 17.61936 | 103° | 113km/h | 15333m | -7.1m/s | -51.6°C | 0% | 0hPa | 0V | 00:00:00 | 00:00:00 | 00:00:00 | |
| SQ6EMJ | 2026-09-05 12:53:39 | 51.22554 | 17.61807 | 109° | 108km/h | 15354m | -7.1m/s | -51.5°C | 0% | 0hPa | 0V | 00:00:00 | 00:00:00 | 00:00:00 | |
| SQ6EMJ | 2026-09-05 12:53:34 | 51.22597 | 17.61610 | 111° | 97km/h | 15390m | -7.1m/s | -50.8°C | 0% | 0hPa | 0V | 00:00:00 | 00:00:00 | 00:00:00 | |
| SP6BVK | 2026-09-05 12:53:33 | 51.22597 | 17.61610 | 111° | 97km/h | 15390m | -7.1m/s | -50.8°C | 0% | 0hPa | 0V | 00:00:00 | 00:00:00 | 00:00:00 | |
| POL1PZ | 2026-09-05 12:53:29 | 51.22628 | 17.61470 | 110° | 88km/h | 15418m | -7.1m/s | -50.1°C | 0% | 0hPa | 0V | 00:00:00 | 00:00:00 | 00:00:00 | |
| SQ6EMJ | 2026-09-05 12:53:28 | 51.22642 | 17.61404 | 109° | 86km/h | 15433m | -6.8m/s | -50.2°C | 0% | 0hPa | 0V | 00:00:00 | 00:00:00 | 00:00:00 | |
| OM5KV | 2026-09-05 12:53:27 | 51.22648 | 17.61372 | 108° | 82km/h | 15440m | -6.9m/s | -50.2°C | 0% | 0hPa | 0V | 00:00:00 | 00:00:00 | 00:00:00 | |
| SQ6EMJ | 2026-09-05 12:53:22 | 51.22673 | 17.61223 | 105° | 73km/h | 15476m | -7.1m/s | -50.5°C | 0% | 0hPa | 0V | 00:00:00 | 00:00:00 | 00:00:00 | |
| OM5KV | 2026-09-05 12:53:21 | 51.22673 | 17.61223 | 105° | 73km/h | 15476m | -7.1m/s | -50.5°C | 0% | 0hPa | 0V | 00:00:00 | 00:00:00 | 00:00:00 | |
| OM5KV | 2026-09-05 12:53:19 | 51.22681 | 17.61167 | 100° | 69km/h | 15490m | -7.0m/s | -50.4°C | 0% | 0hPa | 0V | 00:00:00 | 00:00:00 | 00:00:00 | |
| SQ6EMJ | 2026-09-05 12:53:16 | 51.22686 | 17.61085 | 93° | 68km/h | 15511m | -7.0m/s | -50.0°C | 0% | 0hPa | 0V | 00:00:00 | 00:00:00 | 00:00:00 | |
| OM5KV | 2026-09-05 12:53:14 | 51.22686 | 17.61027 | 90° | 75km/h | 15525m | -7.0m/s | -50.1°C | 0% | 0hPa | 0V | 00:00:00 | 00:00:00 | 00:00:00 | |
| SP6BVK | 2026-09-05 12:53:12 | 51.22685 | 17.60965 | 90° | 80km/h | 15539m | -7.0m/s | -50.2°C | 0% | 0hPa | 0V | 00:00:00 | 00:00:00 | 00:00:00 | |
| SQ6EMJ | 2026-09-05 12:53:10 | 51.22685 | 17.60898 | 92° | 86km/h | 15554m | -7.0m/s | -50.3°C | 0% | 0hPa | 0V | 00:00:00 | 00:00:00 | 00:00:00 | |
| OM5KV | 2026-09-05 12:53:09 | 51.22687 | 17.60827 | 96° | 89km/h | 15568m | -7.0m/s | -50.5°C | 0% | 0hPa | 0V | 00:00:00 | 00:00:00 | 00:00:00 | |
| OM5KV | 2026-09-05 12:53:03 | 51.22708 | 17.60623 | 104° | 78km/h | 15611m | -7.0m/s | -50.8°C | 0% | 0hPa | 0V | 00:00:00 | 00:00:00 | 00:00:00 | |
| SQ6EMJ | 2026-09-05 12:53:00 | 51.22720 | 17.60534 | 100° | 71km/h | 15632m | -7.0m/s | -50.6°C | 0% | 0hPa | 0V | 00:00:00 | 00:00:00 | 00:00:00 | |
| OM5KV | 2026-09-05 12:52:56 | 51.22725 | 17.60448 | 92° | 77km/h | 15654m | -6.9m/s | -50.4°C | 0% | 0hPa | 0V | 00:00:00 | 00:00:00 | 00:00:00 | |
| SQ6EMJ | 2026-09-05 12:52:54 | 51.22726 | 17.60348 | 95° | 89km/h | 15675m | -7.1m/s | -50.5°C | 0% | 0hPa | 0V | 00:00:00 | 00:00:00 | 00:00:00 | |
| OM5KV | 2026-09-05 12:52:52 | 51.22727 | 17.60312 | 97° | 93km/h | 15682m | -7.0m/s | -50.7°C | 0% | 0hPa | 0V | 00:00:00 | 00:00:00 | 00:00:00 | |
| POL1PZ | 2026-09-05 12:52:48 | 51.22741 | 17.60163 | 103° | 93km/h | 15710m | -7.1m/s | -50.8°C | 0% | 0hPa | 0V | 00:00:00 | 00:00:00 | 00:00:00 | |
| OM5KV | 2026-09-05 12:52:47 | 51.22752 | 17.60092 | 107° | 89km/h | 15724m | -7.0m/s | -50.8°C | 0% | 0hPa | 0V | 00:00:00 | 00:00:00 | 00:00:00 | |
| SQ6EMJ | 2026-09-05 12:52:42 | 51.22779 | 17.59964 | 110° | 77km/h | 15751m | -7.0m/s | -50.8°C | 0% | 0hPa | 0V | 00:00:00 | 00:00:00 | 00:00:00 | |
| SQ6EMJ | 2026-09-05 12:52:37 | 51.22806 | 17.59826 | 104° | 68km/h | 15787m | -6.7m/s | -50.3°C | 0% | 0hPa | 0V | 00:00:00 | 00:00:00 | 00:00:00 | |
| OM5KV | 2026-09-05 12:52:35 | 51.22813 | 17.59773 | 102° | 66km/h | 15800m | -6.8m/s | -50.2°C | 0% | 0hPa | 0V | 00:00:00 | 00:00:00 | 00:00:00 | |
| SQ6EMJ | 2026-09-05 12:52:32 | 51.22821 | 17.59662 | 95° | 77km/h | 15828m | -7.0m/s | -50.5°C | 0% | 0hPa | 0V | 00:00:00 | 00:00:00 | 00:00:00 | |
| SP6BVK | 2026-09-05 12:52:31 | 51.22821 | 17.59662 | 95° | 77km/h | 15828m | -7.0m/s | -50.5°C | 0% | 0hPa | 0V | 00:00:00 | 00:00:00 | 00:00:00 | |
| OM5KV | 2026-09-05 12:52:29 | 51.22824 | 17.59599 | 96° | 80km/h | 15842m | -7.2m/s | -50.6°C | 0% | 0hPa | 0V | 00:00:00 | 00:00:00 | 00:00:00 | |
| POL1PZ | 2026-09-05 12:52:27 | 51.22829 | 17.59533 | 101° | 84km/h | 15856m | -7.0m/s | -50.8°C | 0% | 0hPa | 0V | 00:00:00 | 00:00:00 | 00:00:00 | |
| SQ6EMJ | 2026-09-05 12:52:25 | 51.22838 | 17.59467 | 105° | 84km/h | 15870m | -6.9m/s | -50.8°C | 0% | 0hPa | 0V | 00:00:00 | 00:00:00 | 00:00:00 | |
| SQ6EMJ | 2026-09-05 12:52:20 | 51.22866 | 17.59320 | 109° | 68km/h | 15905m | -7.2m/s | -51.0°C | 0% | 0hPa | 0V | 00:00:00 | 00:00:00 | 00:00:00 | |
| SQ6EMJ | 2026-09-05 12:52:14 | 51.22883 | 17.59176 | 91° | 58km/h | 15947m | -6.9m/s | -50.9°C | 0% | 0hPa | 0V | 00:00:00 | 00:00:00 | 00:00:00 | |
| SP6BVK | 2026-09-05 12:52:10 | 51.22880 | 17.59074 | 87° | 69km/h | 15975m | -6.8m/s | -51.2°C | 0% | 0hPa | 0V | 00:00:00 | 00:00:00 | 00:00:00 | |
| SQ6EMJ | 2026-09-05 12:52:09 | 51.22879 | 17.59045 | 88° | 73km/h | 15982m | -6.8m/s | -51.4°C | 0% | 0hPa | 0V | 00:00:00 | 00:00:00 | 00:00:00 | |
| POL1PZ | 2026-09-05 12:52:07 | 51.22878 | 17.58984 | 92° | 78km/h | 15996m | -6.7m/s | -51.6°C | 0% | 0hPa | 0V | 00:00:00 | 00:00:00 | 00:00:00 | |
| SQ6EMJ | 2026-09-05 12:52:04 | 51.22887 | 17.58858 | 102° | 77km/h | 16024m | -7.0m/s | -51.8°C | 0% | 0hPa | 0V | 00:00:00 | 00:00:00 | 00:00:00 | |
| SQ6EMJ | 2026-09-05 12:51:57 | 51.22906 | 17.58699 | 93° | 58km/h | 16066m | -7.1m/s | -51.9°C | 0% | 0hPa | 0V | 00:00:00 | 00:00:00 | 00:00:00 | |
| SQ6EMJ | 2026-09-05 12:51:52 | 51.22902 | 17.58570 | 85° | 71km/h | 16101m | -6.9m/s | -52.0°C | 0% | 0hPa | 0V | 00:00:00 | 00:00:00 | 00:00:00 | |
| SP6BVK | 2026-09-05 12:51:50 | 51.22897 | 17.58510 | 85° | 80km/h | 16114m | -6.8m/s | -52.1°C | 0% | 0hPa | 0V | 00:00:00 | 00:00:00 | 00:00:00 | |
| SQ6EMJ | 2026-09-05 12:51:47 | 51.22895 | 17.58370 | 94° | 89km/h | 16143m | -6.9m/s | -52.0°C | 0% | 0hPa | 0V | 00:00:00 | 00:00:00 | 00:00:00 | |
| POL1PZ | 2026-09-05 12:51:46 | 51.22895 | 17.58370 | 94° | 89km/h | 16143m | -6.9m/s | -52.0°C | 0% | 0hPa | 0V | 00:00:00 | 00:00:00 | 00:00:00 | |
| SQ6EMJ | 2026-09-05 12:51:41 | 51.22908 | 17.58199 | 101° | 80km/h | 16177m | -6.9m/s | -51.7°C | 0% | 0hPa | 0V | 00:00:00 | 00:00:00 | 00:00:00 | |
| SQ6EMJ | 2026-09-05 12:51:36 | 51.22924 | 17.58030 | 94° | 62km/h | 16219m | -7.2m/s | -51.3°C | 0% | 0hPa | 0V | 00:00:00 | 00:00:00 | 00:00:00 | |
| SP6BVK | 2026-09-05 12:51:30 | 51.22911 | 17.57876 | 78° | 71km/h | 16262m | -7.0m/s | -51.1°C | 0% | 0hPa | 0V | 00:00:00 | 00:00:00 | 00:00:00 | |
| POL1PZ | 2026-09-05 12:51:26 | 51.22900 | 17.57784 | 83° | 82km/h | 16284m | -7.1m/s | -51.4°C | 0% | 0hPa | 0V | 00:00:00 | 00:00:00 | 00:00:00 | |
| SQ6EMJ | 2026-09-05 12:51:24 | 51.22896 | 17.57717 | 87° | 86km/h | 16298m | -7.2m/s | -51.5°C | 0% | 0hPa | 0V | 00:00:00 | 00:00:00 | 00:00:00 | |
| SQ6EMJ | 2026-09-05 12:51:19 | 51.22901 | 17.57519 | 99° | 77km/h | 16341m | -6.9m/s | -51.5°C | 0% | 0hPa | 0V | 00:00:00 | 00:00:00 | 00:00:00 | |
| SQ6EMJ | 2026-09-05 12:51:13 | 51.22911 | 17.57382 | 88° | 66km/h | 16377m | -7.3m/s | -51.3°C | 0% | 0hPa | 0V | 00:00:00 | 00:00:00 | 00:00:00 | |
| SP6BVK | 2026-09-05 12:51:09 | 51.22904 | 17.57266 | 86° | 78km/h | 16406m | -7.3m/s | -51.3°C | 0% | 0hPa | 0V | 00:00:00 | 00:00:00 | 00:00:00 | |
| SQ6EMJ | 2026-09-05 12:51:08 | 51.22902 | 17.57198 | 91° | 89km/h | 16421m | -7.2m/s | -51.4°C | 0% | 0hPa | 0V | 00:00:00 | 00:00:00 | 00:00:00 | |
| POL1PZ | 2026-09-05 12:51:05 | 51.22904 | 17.57127 | 95° | 89km/h | 16436m | -7.3m/s | -51.5°C | 0% | 0hPa | 0V | 00:00:00 | 00:00:00 | 00:00:00 | |
| SQ6EMJ | 2026-09-05 12:51:02 | 51.22915 | 17.56986 | 102° | 86km/h | 16465m | -7.3m/s | -51.5°C | 0% | 0hPa | 0V | 00:00:00 | 00:00:00 | 00:00:00 | |
| SQ6EMJ | 2026-09-05 12:50:57 | 51.22939 | 17.56830 | 107° | 75km/h | 16501m | -7.4m/s | -50.9°C | 0% | 0hPa | 0V | 00:00:00 | 00:00:00 | 00:00:00 | |
| SQ6EMJ | 2026-09-05 12:50:50 | 51.22969 | 17.56666 | 104° | 64km/h | 16545m | -7.1m/s | -50.9°C | 0% | 0hPa | 0V | 00:00:00 | 00:00:00 | 00:00:00 | |
| SP6BVK | 2026-09-05 12:50:48 | 51.22974 | 17.56618 | 98° | 58km/h | 16560m | -7.3m/s | -50.8°C | 0% | 0hPa | 0V | 00:00:00 | 00:00:00 | 00:00:00 | |
| POL1PZ | 2026-09-05 12:50:46 | 51.22975 | 17.56545 | 89° | 62km/h | 16582m | -7.5m/s | -50.3°C | 0% | 0hPa | 0V | 00:00:00 | 00:00:00 | 00:00:00 | |
| SQ6EMJ | 2026-09-05 12:50:40 | 51.22968 | 17.56389 | 88° | 73km/h | 16626m | -7.3m/s | -50.6°C | 0% | 0hPa | 0V | 00:00:00 | 00:00:00 | 00:00:00 | |
| SQ6EMJ | 2026-09-05 12:50:34 | 51.22977 | 17.56225 | 101° | 57km/h | 16670m | -7.3m/s | -50.9°C | 0% | 0hPa | 0V | 00:00:00 | 00:00:00 | 00:00:00 | |
| POL1PZ | 2026-09-05 12:50:25 | 51.22969 | 17.56042 | 75° | 53km/h | 16736m | -7.4m/s | -50.7°C | 0% | 0hPa | 0V | 00:00:00 | 00:00:00 | 00:00:00 | |
| SQ6EMJ | 2026-09-05 12:50:23 | 51.22960 | 17.56000 | 72° | 55km/h | 16751m | -7.4m/s | -50.7°C | 0% | 0hPa | 0V | 00:00:00 | 00:00:00 | 00:00:00 | |
| SQ6EMJ | 2026-09-05 12:50:18 | 51.22933 | 17.55884 | 73° | 69km/h | 16789m | -7.4m/s | -51.5°C | 0% | 0hPa | 0V | 00:00:00 | 00:00:00 | 00:00:00 | |
| SQ6EMJ | 2026-09-05 12:50:12 | 51.22911 | 17.55714 | 88° | 68km/h | 16834m | -7.5m/s | -51.9°C | 0% | 0hPa | 0V | 00:00:00 | 00:00:00 | 00:00:00 | |
| SP6BVK | 2026-09-05 12:50:08 | 51.22907 | 17.55619 | 81° | 53km/h | 16865m | -7.6m/s | -52.1°C | 0% | 0hPa | 0V | 00:00:00 | 00:00:00 | 00:00:00 | |
| SQ6EMJ | 2026-09-05 12:50:05 | 51.22901 | 17.55577 | 73° | 53km/h | 16880m | -7.6m/s | -52.1°C | 0% | 0hPa | 0V | 00:00:00 | 00:00:00 | 00:00:00 | |
| POL1PZ | 2026-09-05 12:50:04 | 51.22896 | 17.55557 | 69° | 57km/h | 16888m | -7.6m/s | -52.0°C | 0% | 0hPa | 0V | 00:00:00 | 00:00:00 | 00:00:00 | |
| SQ6EMJ | 2026-09-05 12:50:00 | 51.22870 | 17.55464 | 68° | 73km/h | 16919m | -7.8m/s | -52.0°C | 0% | 0hPa | 0V | 00:00:00 | 00:00:00 | 00:00:00 | |
| SQ6EMJ | 2026-09-05 12:49:54 | 51.22842 | 17.55281 | 86° | 77km/h | 16966m | -7.9m/s | -52.0°C | 0% | 0hPa | 0V | 00:00:00 | 00:00:00 | 00:00:00 | |
| SQ6EMJ | 2026-09-05 12:49:50 | 51.22840 | 17.55134 | 94° | 68km/h | 17005m | -7.9m/s | -52.1°C | 0% | 0hPa | 0V | 00:00:00 | 00:00:00 | 00:00:00 | |
| SP6BVK | 2026-09-05 12:49:47 | 51.22843 | 17.55083 | 96° | 60km/h | 17020m | -8.0m/s | -52.2°C | 0% | 0hPa | 0V | 00:00:00 | 00:00:00 | 00:00:00 | |
| SQ6EMJ | 2026-09-05 12:49:44 | 51.22844 | 17.54994 | 82° | 53km/h | 17051m | -7.9m/s | -51.9°C | 0% | 0hPa | 0V | 00:00:00 | 00:00:00 | 00:00:00 | |
| POL1PZ | 2026-09-05 12:49:43 | 51.22844 | 17.54994 | 82° | 53km/h | 17051m | -7.9m/s | -51.9°C | 0% | 0hPa | 0V | 00:00:00 | 00:00:00 | 00:00:00 | |
| DB0NH | 2026-09-05 12:49:42 | 51.22842 | 17.54972 | 79° | 71km/h | 17067m | -7.7m/s | 0°C | 0% | 0hPa | 0V | 00:00:00 | 00:00:00 | 00:00:00 | |
| SQ6EMJ | 2026-09-05 12:49:38 | 51.22824 | 17.54840 | 84° | 77km/h | 17098m | -7.6m/s | -51.6°C | 0% | 0hPa | 0V | 00:00:00 | 00:00:00 | 00:00:00 | |
| SQ6EMJ | 2026-09-05 12:49:32 | 51.22821 | 17.54683 | 96° | 75km/h | 17137m | -7.9m/s | -51.7°C | 0% | 0hPa | 0V | 00:00:00 | 00:00:00 | 00:00:00 | |
| SQ6EMJ | 2026-09-05 12:49:27 | 51.22828 | 17.54531 | 90° | 58km/h | 17185m | -7.8m/s | -52.1°C | 0% | 0hPa | 0V | 00:00:00 | 00:00:00 | 00:00:00 | |
| SP6BVK | 2026-09-05 12:49:26 | 51.22828 | 17.54531 | 90° | 58km/h | 17185m | -7.8m/s | -52.1°C | 0% | 0hPa | 0V | 00:00:00 | 00:00:00 | 00:00:00 | |
| POL1PZ | 2026-09-05 12:49:23 | 51.22822 | 17.54460 | 78° | 62km/h | 17209m | -7.8m/s | -51.9°C | 0% | 0hPa | 0V | 00:00:00 | 00:00:00 | 00:00:00 | |
| SQ6EMJ | 2026-09-05 12:49:22 | 51.22814 | 17.54407 | 76° | 73km/h | 17225m | -7.8m/s | -51.9°C | 0% | 0hPa | 0V | 00:00:00 | 00:00:00 | 00:00:00 | |
| SQ6EMJ | 2026-09-05 12:49:16 | 51.22798 | 17.54208 | 90° | 89km/h | 17272m | -7.7m/s | -51.8°C | 0% | 0hPa | 0V | 00:00:00 | 00:00:00 | 00:00:00 | |
| DB0NH | 2026-09-05 12:49:12 | 51.22800 | 17.54102 | 96° | 73km/h | 17311m | -7.9m/s | 0°C | 0% | 0hPa | 0V | 00:00:00 | 00:00:00 | 00:00:00 | |
| SQ6EMJ | 2026-09-05 12:49:09 | 51.22806 | 17.54006 | 98° | 78km/h | 17319m | -7.7m/s | -51.3°C | 0% | 0hPa | 0V | 00:00:00 | 00:00:00 | 00:00:00 | |
| SP6BVK | 2026-09-05 12:49:06 | 51.22813 | 17.53916 | 98° | 71km/h | 17343m | -7.7m/s | -51.4°C | 0% | 0hPa | 0V | 00:00:00 | 00:00:00 | 00:00:00 | |
| SQ6EMJ | 2026-09-05 12:49:05 | 51.22818 | 17.53860 | 100° | 71km/h | 17359m | -7.5m/s | -51.4°C | 0% | 0hPa | 0V | 00:00:00 | 00:00:00 | 00:00:00 | |
| POL1PZ | 2026-09-05 12:49:02 | 51.22823 | 17.53805 | 98° | 66km/h | 17374m | -7.6m/s | -51.5°C | 0% | 0hPa | 0V | 00:00:00 | 00:00:00 | 00:00:00 | |
| SQ6EMJ | 2026-09-05 12:48:59 | 51.22827 | 17.53701 | 90° | 66km/h | 17405m | -7.6m/s | -51.4°C | 0% | 0hPa | 0V | 00:00:00 | 00:00:00 | 00:00:00 | |
| SQ6EMJ | 2026-09-05 12:48:53 | 51.22830 | 17.53551 | 98° | 82km/h | 17444m | -7.6m/s | -51.5°C | 0% | 0hPa | 0V | 00:00:00 | 00:00:00 | 00:00:00 | |
| SQ6EMJ | 2026-09-05 12:48:48 | 51.22861 | 17.53368 | 114° | 69km/h | 17490m | -7.8m/s | -51.2°C | 0% | 0hPa | 0V | 00:00:00 | 00:00:00 | 00:00:00 | |
| SP6BVK | 2026-09-05 12:48:46 | 51.22874 | 17.53320 | 116° | 62km/h | 17505m | -7.6m/s | -51.1°C | 0% | 0hPa | 0V | 00:00:00 | 00:00:00 | 00:00:00 | |
| SQ6EMJ | 2026-09-05 12:48:42 | 51.22895 | 17.53237 | 106° | 51km/h | 17536m | -7.5m/s | -50.8°C | 0% | 0hPa | 0V | 00:00:00 | 00:00:00 | 00:00:00 | |
| POL1PZ | 2026-09-05 12:48:41 | 51.22895 | 17.53237 | 106° | 51km/h | 17536m | -7.5m/s | -50.8°C | 0% | 0hPa | 0V | 00:00:00 | 00:00:00 | 00:00:00 | |
| SQ6EMJ | 2026-09-05 12:48:37 | 51.22903 | 17.53131 | 93° | 58km/h | 17574m | -7.7m/s | -50.8°C | 0% | 0hPa | 0V | 00:00:00 | 00:00:00 | 00:00:00 | |
| SQ6EMJ | 2026-09-05 12:48:31 | 51.22916 | 17.52972 | 106° | 71km/h | 17620m | -7.8m/s | -51.0°C | 0% | 0hPa | 0V | 00:00:00 | 00:00:00 | 00:00:00 | |
| SQ6EMJ | 2026-09-05 12:48:26 | 51.22944 | 17.52851 | 109° | 53km/h | 17658m | -7.7m/s | -51.1°C | 0% | 0hPa | 0V | 00:00:00 | 00:00:00 | 00:00:00 | |
| SP6BVK | 2026-09-05 12:48:25 | 51.22944 | 17.52851 | 109° | 53km/h | 17658m | -7.7m/s | -51.1°C | 0% | 0hPa | 0V | 00:00:00 | 00:00:00 | 00:00:00 | |
| POL1PZ | 2026-09-05 12:48:21 | 51.22953 | 17.52768 | 94° | 53km/h | 17689m | -7.5m/s | -50.7°C | 0% | 0hPa | 0V | 00:00:00 | 00:00:00 | 00:00:00 | |
| SQ6EMJ | 2026-09-05 12:48:20 | 51.22953 | 17.52723 | 90° | 58km/h | 17705m | -7.4m/s | -51.0°C | 0% | 0hPa | 0V | 00:00:00 | 00:00:00 | 00:00:00 | |
| SQ6EMJ | 2026-09-05 12:48:14 | 51.22947 | 17.52559 | 91° | 80km/h | 17749m | -7.6m/s | -51.4°C | 0% | 0hPa | 0V | 00:00:00 | 00:00:00 | 00:00:00 | |
| NBG1-10 | 2026-09-05 12:48:13 | 51.22947 | 17.52559 | 90° | 71km/h | 17757m | -7.2m/s | 0°C | 0% | 0hPa | 0V | 00:00:00 | 00:00:00 | 00:00:00 | |
| DB0NH | 2026-09-05 12:48:12 | 51.22947 | 17.52527 | 91° | 71km/h | 17764m | -7.2m/s | 0°C | 0% | 0hPa | 0V | 00:00:00 | 00:00:00 | 00:00:00 | |
| SQ6EMJ | 2026-09-05 12:48:08 | 51.22953 | 17.52392 | 100° | 84km/h | 17786m | -7.4m/s | -52.0°C | 0% | 0hPa | 0V | 00:00:00 | 00:00:00 | 00:00:00 | |
| SP6BVK | 2026-09-05 12:48:05 | 51.22971 | 17.52267 | 108° | 75km/h | 17816m | -7.3m/s | -51.8°C | 0% | 0hPa | 0V | 00:00:00 | 00:00:00 | 00:00:00 | |
| SQ6EMJ | 2026-09-05 12:48:03 | 51.22982 | 17.52213 | 110° | 68km/h | 17830m | -7.2m/s | -51.8°C | 0% | 0hPa | 0V | 00:00:00 | 00:00:00 | 00:00:00 | |
| POL1PZ | 2026-09-05 12:48:01 | 51.22993 | 17.52163 | 109° | 60km/h | 17846m | -7.5m/s | -51.7°C | 0% | 0hPa | 0V | 00:00:00 | 00:00:00 | 00:00:00 | |
| SQ6EMJ | 2026-09-05 12:47:57 | 51.23005 | 17.52097 | 103° | 55km/h | 17868m | -7.2m/s | -51.5°C | 0% | 0hPa | 0V | 00:00:00 | 00:00:00 | 00:00:00 | |
| SQ6EMJ | 2026-09-05 12:47:52 | 51.23011 | 17.51945 | 99° | 73km/h | 17914m | -7.7m/s | -51.4°C | 0% | 0hPa | 0V | 00:00:00 | 00:00:00 | 00:00:00 | |
| SQ6EMJ | 2026-09-05 12:47:46 | 51.23035 | 17.51770 | 107° | 75km/h | 17959m | -7.4m/s | -51.9°C | 0% | 0hPa | 0V | 00:00:00 | 00:00:00 | 00:00:00 | |
| SP6BVK | 2026-09-05 12:47:44 | 51.23040 | 17.51742 | 109° | 73km/h | 17966m | -7.7m/s | -52.1°C | 0% | 0hPa | 0V | 00:00:00 | 00:00:00 | 00:00:00 | |
| DB0NH | 2026-09-05 12:47:42 | 51.23053 | 17.51686 | 118° | 49km/h | 17989m | -7.5m/s | 0°C | 0% | 0hPa | 0V | 00:00:00 | 00:00:00 | 00:00:00 | |
| SQ6EMJ | 2026-09-05 12:47:41 | 51.23069 | 17.51639 | 120° | 64km/h | 17997m | -7.7m/s | -52.1°C | 0% | 0hPa | 0V | 00:00:00 | 00:00:00 | 00:00:00 | |
| NBG1-10 | 2026-09-05 12:47:40 | 51.23069 | 17.51636 | 122° | 51km/h | 18004m | -7.8m/s | 0°C | 0% | 0hPa | 0V | 00:00:00 | 00:00:00 | 00:00:00 | |
| SQ6EMJ | 2026-09-05 12:47:35 | 51.23107 | 17.51534 | 116° | 42km/h | 18042m | -7.5m/s | -51.3°C | 0% | 0hPa | 0V | 00:00:00 | 00:00:00 | 00:00:00 | |
| SQ6EMJ | 2026-09-05 12:47:29 | 51.23119 | 17.51458 | 94° | 38km/h | 18081m | -7.6m/s | -50.6°C | 0% | 0hPa | 0V | 00:00:00 | 00:00:00 | 00:00:00 | |
| POL1PZ | 2026-09-05 12:47:20 | 51.23101 | 17.51273 | 79° | 55km/h | 18157m | -7.6m/s | -49.8°C | 0% | 0hPa | 0V | 00:00:00 | 00:00:00 | 00:00:00 | |
| SQ6EMJ | 2026-09-05 12:47:17 | 51.23095 | 17.51229 | 80° | 57km/h | 18172m | -7.5m/s | -49.6°C | 0% | 0hPa | 0V | 00:00:00 | 00:00:00 | 00:00:00 | |
| DB0NH | 2026-09-05 12:47:12 | 51.23086 | 17.51112 | 87° | 53km/h | 18211m | -7.6m/s | 0°C | 0% | 0hPa | 0V | 00:00:00 | 00:00:00 | 00:00:00 | |
| NBG1-10 | 2026-09-05 12:47:07 | 51.23084 | 17.50994 | 91° | 53km/h | 18258m | -7.6m/s | 0°C | 0% | 0hPa | 0V | 00:00:00 | 00:00:00 | 00:00:00 | |
| SP6BVK | 2026-09-05 12:47:03 | 51.23086 | 17.50876 | 95° | 57km/h | 18289m | -7.8m/s | -49.4°C | 0% | 0hPa | 0V | 00:00:00 | 00:00:00 | 00:00:00 | |
| SQ6EMJ | 2026-09-05 12:47:02 | 51.23087 | 17.50854 | 96° | 53km/h | 18297m | -8.0m/s | -49.4°C | 0% | 0hPa | 0V | 00:00:00 | 00:00:00 | 00:00:00 | |
| POL1PZ | 2026-09-05 12:46:59 | 51.23089 | 17.50814 | 95° | 47km/h | 18312m | -7.9m/s | -49.6°C | 0% | 0hPa | 0V | 00:00:00 | 00:00:00 | 00:00:00 | |
| SQ6EMJ | 2026-09-05 12:46:56 | 51.23090 | 17.50740 | 87° | 44km/h | 18344m | -7.8m/s | -49.3°C | 0% | 0hPa | 0V | 00:00:00 | 00:00:00 | 00:00:00 | |
| SQ6EMJ | 2026-09-05 12:46:50 | 51.23077 | 17.50633 | 71° | 49km/h | 18392m | -7.8m/s | -49.0°C | 0% | 0hPa | 0V | 00:00:00 | 00:00:00 | 00:00:00 | |
| OE5DRO-10 | 2026-09-05 12:46:46 | 51.23062 | 17.50575 | 69° | 53km/h | 18416m | -8.0m/s | 0°C | 0% | 0hPa | 0V | 00:00:00 | 00:00:00 | 00:00:00 | |
| SQ6EMJ | 2026-09-05 12:46:44 | 51.23052 | 17.50531 | 71° | 62km/h | 18431m | -7.6m/s | -49.5°C | 0% | 0hPa | 0V | 00:00:00 | 00:00:00 | 00:00:00 | |
| SP6BVK | 2026-09-05 12:46:42 | 51.23042 | 17.50482 | 75° | 68km/h | 18447m | -8.0m/s | -49.7°C | 0% | 0hPa | 0V | 00:00:00 | 00:00:00 | 00:00:00 | |
| DB0NH | 2026-09-05 12:46:41 | 51.23037 | 17.50455 | 79° | 53km/h | 18463m | -7.9m/s | 0°C | 0% | 0hPa | 0V | 00:00:00 | 00:00:00 | 00:00:00 | |
| POL1PZ | 2026-09-05 12:46:39 | 51.23032 | 17.50377 | 89° | 62km/h | 18479m | -8.1m/s | -50.0°C | 0% | 0hPa | 0V | 00:00:00 | 00:00:00 | 00:00:00 | |
| SQ6EMJ | 2026-09-05 12:46:33 | 51.23032 | 17.50262 | 89° | 49km/h | 18519m | -8.0m/s | -50.3°C | 0% | 0hPa | 0V | 00:00:00 | 00:00:00 | 00:00:00 | |
| SQ6EMJ | 2026-09-05 12:46:28 | 51.23015 | 17.50147 | 73° | 57km/h | 18568m | -8.2m/s | -50.0°C | 0% | 0hPa | 0V | 00:00:00 | 00:00:00 | 00:00:00 | |
| OE5DRO-10 | 2026-09-05 12:46:27 | 51.23015 | 17.50147 | 72° | 40km/h | 18602m | -8.4m/s | 0°C | 0% | 0hPa | 0V | 00:00:00 | 00:00:00 | 00:00:00 | |
| SP6BVK | 2026-09-05 12:46:22 | 51.22991 | 17.50008 | 86° | 60km/h | 18619m | -8.9m/s | -51.0°C | 0% | 0hPa | 0V | 00:00:00 | 00:00:00 | 00:00:00 | |
| POL1PZ | 2026-09-05 12:46:18 | 51.22993 | 17.49947 | 94° | 40km/h | 18645m | -8.7m/s | -50.6°C | 0% | 0hPa | 0V | 00:00:00 | 00:00:00 | 00:00:00 | |
| SQ6EMJ | 2026-09-05 12:46:16 | 51.22993 | 17.49916 | 89° | 38km/h | 18663m | -9.1m/s | -51.0°C | 0% | 0hPa | 0V | 00:00:00 | 00:00:00 | 00:00:00 | |
| SQ6EMJ | 2026-09-05 12:46:11 | 51.22993 | 17.49830 | 88° | 33km/h | 18716m | -8.6m/s | -50.8°C | 0% | 0hPa | 0V | 00:00:00 | 00:00:00 | 00:00:00 | |
| OE5DRO-10 | 2026-09-05 12:46:07 | 51.22995 | 17.49791 | 96° | 46km/h | 18742m | -9.0m/s | 0°C | 0% | 0hPa | 0V | 00:00:00 | 00:00:00 | 00:00:00 | |
| SQ6EMJ | 2026-09-05 12:46:05 | 51.22997 | 17.49761 | 99° | 42km/h | 18760m | -8.7m/s | -48.9°C | 0% | 0hPa | 0V | 00:00:00 | 00:00:00 | 00:00:00 | |
| EDDB2-12 | 2026-09-05 12:46:02 | 51.22995 | 17.49705 | 82° | 42km/h | 18797m | -8.9m/s | -48.0°C | -1.0% | -1.0hPa | 0V | 00:00:00 | 00:00:00 | 00:00:00 | |
| SQ6EMJ | 2026-09-05 12:46:00 | 51.22991 | 17.49679 | 72° | 42km/h | 18816m | -10.2m/s | -48.4°C | 0% | 0hPa | 0V | 00:00:00 | 00:00:00 | 00:00:00 | |
| POL1PZ | 2026-09-05 12:45:58 | 51.22988 | 17.49663 | 89° | 37km/h | 18825m | -7.6m/s | -50.1°C | 0% | 0hPa | 0V | 00:00:00 | 00:00:00 | 00:00:00 | |
| SQ6EMJ | 2026-09-05 12:45:54 | 51.22977 | 17.49591 | 69° | 31km/h | 18865m | -8.1m/s | -51.3°C | 0% | 0hPa | 0V | 00:00:00 | 00:00:00 | 00:00:00 | |
| SQ6EMJ | 2026-09-05 12:45:48 | 51.22960 | 17.49525 | 68° | 44km/h | 18909m | -9.5m/s | -48.2°C | 0% | 0hPa | 0V | 00:00:00 | 00:00:00 | 00:00:00 | |
| SQ6EMJ | 2026-09-05 12:45:43 | 51.22949 | 17.49406 | 89° | 53km/h | 18967m | -9.8m/s | -47.7°C | 0% | 0hPa | 0V | 00:00:00 | 00:00:00 | 00:00:00 | |
| SP6BVK | 2026-09-05 12:45:41 | 51.22949 | 17.49364 | 93° | 51km/h | 18987m | -9.8m/s | -48.8°C | 0% | 0hPa | 0V | 00:00:00 | 00:00:00 | 00:00:00 | |
| POL1PZ | 2026-09-05 12:45:37 | 51.22952 | 17.49302 | 95° | 53km/h | 19016m | -9.9m/s | -49.3°C | 0% | 0hPa | 0V | 00:00:00 | 00:00:00 | 00:00:00 | |
| OE5DRO-10 | 2026-09-05 12:45:35 | 51.22956 | 17.49258 | 91° | 42km/h | 19035m | -9.9m/s | 0°C | 0% | 0hPa | 0V | 00:00:00 | 00:00:00 | 00:00:00 | |
| SQ6EMJ | 2026-09-05 12:45:32 | 51.22949 | 17.49168 | 82° | 57km/h | 19075m | -9.9m/s | -49.4°C | 0% | 0hPa | 0V | 00:00:00 | 00:00:00 | 00:00:00 | |
| SQ6EMJ | 2026-09-05 12:45:26 | 51.22930 | 17.49048 | 70° | 46km/h | 19134m | -10.2m/s | -52.1°C | 0% | 0hPa | 0V | 00:00:00 | 00:00:00 | 00:00:00 | |
| SQ6EMJ | 2026-09-05 12:45:20 | 51.22921 | 17.48970 | 92° | 44km/h | 19188m | -9.8m/s | -51.6°C | 0% | 0hPa | 0V | 00:00:00 | 00:00:00 | 00:00:00 | |
| POL1PZ | 2026-09-05 12:45:18 | 51.22915 | 17.48899 | 93° | 46km/h | 19227m | -10.0m/s | -51.3°C | 0% | 0hPa | 0V | 00:00:00 | 00:00:00 | 00:00:00 | |
| SQ6EMJ | 2026-09-05 12:45:13 | 51.22909 | 17.48835 | 92° | 46km/h | 19262m | -7.6m/s | -51.2°C | 0% | 0hPa | 0V | 00:00:00 | 00:00:00 | 00:00:00 | |
| DB0NH | 2026-09-05 12:45:11 | 51.22908 | 17.48814 | 77° | 42km/h | 19277m | -7.8m/s | 0°C | 0% | 0hPa | 0V | 00:00:00 | 00:00:00 | 00:00:00 | |
| SQ6EMJ | 2026-09-05 12:45:07 | 51.22903 | 17.48721 | 91° | 49km/h | 19308m | -7.8m/s | -49.7°C | 0% | 0hPa | 0V | 00:00:00 | 00:00:00 | 00:00:00 | |
| EDDB2-11 | 2026-09-05 12:45:05 | 51.22907 | 17.48679 | 103° | 44km/h | 19324m | -8.5m/s | -50.6°C | -1.0% | -1.0hPa | 0V | 00:00:00 | 00:00:00 | 00:00:00 | |
| SONDE2-11 | 2026-09-05 12:45:04 | 51.22909 | 17.48641 | 105° | 53km/h | 19341m | -9.0m/s | -51.2°C | -1.0% | -1.0hPa | 0V | 00:00:00 | 00:00:00 | 00:00:00 | |
| SP6BVK | 2026-09-05 12:45:00 | 51.22914 | 17.48588 | 99° | 35km/h | 19366m | -8.2m/s | -50.8°C | 0% | 0hPa | 0V | 00:00:00 | 00:00:00 | 00:00:00 | |
| POL1PZ | 2026-09-05 12:44:56 | 51.22922 | 17.48540 | 97° | 40km/h | 19392m | -8.4m/s | -50.7°C | 0% | 0hPa | 0V | 00:00:00 | 00:00:00 | 00:00:00 | |
| SQ6EMJ | 2026-09-05 12:44:55 | 51.22925 | 17.48525 | 125° | 38km/h | 19409m | -8.6m/s | -50.6°C | 0% | 0hPa | 0V | 00:00:00 | 00:00:00 | 00:00:00 | |
| SQ6EMJ | 2026-09-05 12:44:50 | 51.22945 | 17.48449 | 113° | 42km/h | 19451m | -7.5m/s | -50.6°C | 0% | 0hPa | 0V | 00:00:00 | 00:00:00 | 00:00:00 | |
| DO3MHA-12 | 2026-09-05 12:44:47 | 51.22953 | 17.48424 | 104° | 29km/h | 19476m | -8.3m/s | 0°C | 0% | 0hPa | 0V | 00:00:00 | 00:00:00 | 00:00:00 | |
| SQ6EMJ | 2026-09-05 12:44:43 | 51.22969 | 17.48371 | 102° | 33km/h | 19508m | -9.0m/s | -50.2°C | 0% | 0hPa | 0V | 00:00:00 | 00:00:00 | 00:00:00 | |
| DB0NH | 2026-09-05 12:44:41 | 51.22973 | 17.48360 | 121° | 20km/h | 19516m | -8.4m/s | 0°C | 0% | 0hPa | 0V | 00:00:00 | 00:00:00 | 00:00:00 | |
| SP6BVK | 2026-09-05 12:44:39 | 51.22977 | 17.48342 | 107° | 18km/h | 19532m | -8.4m/s | -48.8°C | 0% | 0hPa | 0V | 00:00:00 | 00:00:00 | 00:00:00 | |
| DO3MHA-12 | 2026-09-05 12:44:37 | 51.22983 | 17.48329 | 113° | 20km/h | 19564m | -8.1m/s | 0°C | 0% | 0hPa | 0V | 00:00:00 | 00:00:00 | 00:00:00 | |
| SQ6EMJ | 2026-09-05 12:44:36 | 51.22988 | 17.48319 | 114° | 13km/h | 19564m | -8.2m/s | -49.1°C | 0% | 0hPa | 0V | 00:00:00 | 00:00:00 | 00:00:00 | |
| POL1PZ | 2026-09-05 12:44:35 | 51.22988 | 17.48319 | 114° | 13km/h | 19564m | -8.2m/s | -49.1°C | 0% | 0hPa | 0V | 00:00:00 | 00:00:00 | 00:00:00 | |
| SQ6EMJ | 2026-09-05 12:44:30 | 51.22997 | 17.48282 | 72° | 13km/h | 19615m | -7.8m/s | -50.9°C | 0% | 0hPa | 0V | 00:00:00 | 00:00:00 | 00:00:00 | |
| DO3MHA-12 | 2026-09-05 12:44:26 | 51.23000 | 17.48257 | 94° | 16km/h | 19640m | -9.4m/s | 0°C | 0% | 0hPa | 0V | 00:00:00 | 00:00:00 | 00:00:00 | |
| SQ6EMJ | 2026-09-05 12:44:24 | 51.23005 | 17.48239 | 122° | 24km/h | 19667m | -8.0m/s | -51.5°C | 0% | 0hPa | 0V | 00:00:00 | 00:00:00 | 00:00:00 | |
| SQ6EMJ | 2026-09-05 12:44:18 | 51.23011 | 17.48203 | 89° | 26km/h | 19718m | -8.6m/s | -51.8°C | 0% | 0hPa | 0V | 00:00:00 | 00:00:00 | 00:00:00 | |
| DO3MHA-12 | 2026-09-05 12:44:15 | 51.23012 | 17.48188 | 120° | 24km/h | 19743m | -7.7m/s | 0°C | 0% | 0hPa | 0V | 00:00:00 | 00:00:00 | 00:00:00 | |
| OE5DRO-10 | 2026-09-05 12:44:13 | 51.23012 | 17.48191 | 74° | 29km/h | 19821m | -10.2m/s | 0°C | 0% | 0hPa | 0V | 00:00:00 | 00:00:00 | 00:00:00 | |
| SQ6EMJ | 2026-09-05 12:44:12 | 51.23011 | 17.48160 | 86° | 29km/h | 19769m | -9.1m/s | -51.9°C | 0% | 0hPa | 0V | 00:00:00 | 00:00:00 | 00:00:00 | |
| DB0NH | 2026-09-05 12:44:11 | 51.23011 | 17.48162 | 102° | 37km/h | 19779m | -9.5m/s | 0°C | 0% | 0hPa | 0V | 00:00:00 | 00:00:00 | 00:00:00 | |
| DO3MHA-12 | 2026-09-05 12:44:05 | 51.23000 | 17.48101 | 93° | 26km/h | 19842m | -9.8m/s | 0°C | 0% | 0hPa | 0V | 00:00:00 | 00:00:00 | 00:00:00 | |
| EDDB2-11 | 2026-09-05 12:44:03 | 51.22999 | 17.48075 | 40° | 22km/h | 19863m | -10.0m/s | -50.1°C | -1.0% | -1.0hPa | 0V | 00:00:00 | 00:00:00 | 00:00:00 | |
| SONDE2-11 | 2026-09-05 12:44:02 | 51.22994 | 17.48067 | 40° | 35km/h | 19872m | -9.6m/s | -49.2°C | -1.0% | -1.0hPa | 0V | 00:00:00 | 00:00:00 | 00:00:00 | |
| SQ6EMJ | 2026-09-05 12:44:01 | 51.22987 | 17.48056 | 48° | 42km/h | 19882m | -9.5m/s | -48.4°C | 0% | 0hPa | 0V | 00:00:00 | 00:00:00 | 00:00:00 | |
| SQ6EMJ | 2026-09-05 12:43:55 | 51.22953 | 17.47997 | 70° | 38km/h | 19938m | -8.2m/s | -51.0°C | 0% | 0hPa | 0V | 00:00:00 | 00:00:00 | 00:00:00 | |
| OE5DRO-10 | 2026-09-05 12:43:54 | 51.22953 | 17.47997 | 70° | 37km/h | 19962m | -8.3m/s | 0°C | 0% | 0hPa | 0V | 00:00:00 | 00:00:00 | 00:00:00 | |
| SQ6EMJ | 2026-09-05 12:43:49 | 51.22921 | 17.47911 | 58° | 51km/h | 19986m | -7.4m/s | -51.7°C | 0% | 0hPa | 0V | 00:00:00 | 00:00:00 | 00:00:00 | |
| POL1PZ | 2026-09-05 12:43:44 | 51.22899 | 17.47848 | 48° | 37km/h | 20023m | -10.0m/s | -51.7°C | 0% | 0hPa | 0V | 00:00:00 | 00:00:00 | 00:00:00 | |
| SQ6EMJ | 2026-09-05 12:43:43 | 51.22890 | 17.47826 | 65° | 35km/h | 20045m | -11.5m/s | -50.9°C | 0% | 0hPa | 0V | 00:00:00 | 00:00:00 | 00:00:00 | |
| DB0NH | 2026-09-05 12:43:40 | 51.22886 | 17.47802 | 72° | 26km/h | 20080m | -11.2m/s | 0°C | 0% | 0hPa | 0V | 00:00:00 | 00:00:00 | 00:00:00 | |
| SQ6EMJ | 2026-09-05 12:43:37 | 51.22873 | 17.47760 | 65° | 40km/h | 20111m | -8.9m/s | -52.5°C | 0% | 0hPa | 0V | 00:00:00 | 00:00:00 | 00:00:00 | |
| OE5DRO-10 | 2026-09-05 12:43:34 | 51.22867 | 17.47739 | 75° | 26km/h | 20127m | -9.1m/s | 0°C | 0% | 0hPa | 0V | 00:00:00 | 00:00:00 | 00:00:00 | |
| SQ6EMJ | 2026-09-05 12:43:31 | 51.22857 | 17.47699 | 78° | 35km/h | 20165m | -8.6m/s | -52.3°C | 0% | 0hPa | 0V | 00:00:00 | 00:00:00 | 00:00:00 | |
| SQ6EMJ | 2026-09-05 12:43:25 | 51.22850 | 17.47661 | 90° | 26km/h | 20209m | -9.3m/s | -52.1°C | 0% | 0hPa | 0V | 00:00:00 | 00:00:00 | 00:00:00 | |
| SQ6EMJ | 2026-09-05 12:43:19 | 51.22848 | 17.47606 | 77° | 29km/h | 20273m | -10.7m/s | -51.9°C | 0% | 0hPa | 0V | 00:00:00 | 00:00:00 | 00:00:00 | |
| SP6BVK | 2026-09-05 12:43:18 | 51.22849 | 17.47590 | 79° | 29km/h | 20291m | -10.2m/s | -51.8°C | 0% | 0hPa | 0V | 00:00:00 | 00:00:00 | 00:00:00 | |
| OE5DRO-10 | 2026-09-05 12:43:15 | 51.22846 | 17.47570 | 68° | 27km/h | 20321m | -10.1m/s | 0°C | 0% | 0hPa | 0V | 00:00:00 | 00:00:00 | 00:00:00 | |
| POL1PZ | 2026-09-05 12:43:12 | 51.22842 | 17.47543 | 58° | 24km/h | 20342m | -11.4m/s | -51.8°C | 0% | 0hPa | 0V | 00:00:00 | 00:00:00 | 00:00:00 | |
| SQ6EMJ | 2026-09-05 12:43:11 | 51.22835 | 17.47529 | 43° | 29km/h | 20367m | -12.8m/s | -52.2°C | 0% | 0hPa | 0V | 00:00:00 | 00:00:00 | 00:00:00 | |
| DB0NH | 2026-09-05 12:43:10 | 51.22835 | 17.47529 | 42° | 31km/h | 20478m | -11.1m/s | 0°C | 0% | 0hPa | 0V | 00:00:00 | 00:00:00 | 00:00:00 | |
| SQ6EMJ | 2026-09-05 12:42:59 | 51.22795 | 17.47420 | 63° | 31km/h | 20510m | -10.3m/s | -50.3°C | 0% | 0hPa | 0V | 00:00:00 | 00:00:00 | 00:00:00 | |
| OE5DRO-10 | 2026-09-05 12:42:56 | 51.22786 | 17.47399 | 48° | 27km/h | 20540m | -11.0m/s | 0°C | 0% | 0hPa | 0V | 00:00:00 | 00:00:00 | 00:00:00 | |
| SQ6EMJ | 2026-09-05 12:42:53 | 51.22773 | 17.47370 | 71° | 20km/h | 20572m | -9.4m/s | -51.2°C | 0% | 0hPa | 0V | 00:00:00 | 00:00:00 | 00:00:00 | |
| POL1PZ | 2026-09-05 12:42:51 | 51.22770 | 17.47361 | 70° | 24km/h | 20583m | -10.5m/s | -51.2°C | 0% | 0hPa | 0V | 00:00:00 | 00:00:00 | 00:00:00 | |
| SQ6EMJ | 2026-09-05 12:42:47 | 51.22759 | 17.47318 | 60° | 26km/h | 20624m | -9.8m/s | -50.5°C | 0% | 0hPa | 0V | 00:00:00 | 00:00:00 | 00:00:00 | |
| SQ6EMJ | 2026-09-05 12:42:42 | 51.22740 | 17.47261 | 53° | 33km/h | 20689m | -11.6m/s | -49.9°C | 0% | 0hPa | 0V | 00:00:00 | 00:00:00 | 00:00:00 | |
| SQ6EMJ | 2026-09-05 12:42:37 | 51.22715 | 17.47186 | 73° | 46km/h | 20747m | -11.0m/s | -50.5°C | 0% | 0hPa | 0V | 00:00:00 | 00:00:00 | 00:00:00 | |
| SP6BVK | 2026-09-05 12:42:36 | 51.22715 | 17.47186 | 73° | 46km/h | 20747m | -11.0m/s | -50.5°C | 0% | 0hPa | 0V | 00:00:00 | 00:00:00 | 00:00:00 | |
| DB0NH | 2026-09-05 12:42:34 | 51.22711 | 17.47151 | 96° | 35km/h | 20780m | -11.4m/s | 0°C | 0% | 0hPa | 0V | 00:00:00 | 00:00:00 | 00:00:00 | |
| SQ6EMJ | 2026-09-05 12:42:31 | 51.22715 | 17.47088 | 99° | 38km/h | 20814m | -11.1m/s | -48.9°C | 0% | 0hPa | 0V | 00:00:00 | 00:00:00 | 00:00:00 | |
| POL1PZ | 2026-09-05 12:42:30 | 51.22715 | 17.47088 | 99° | 38km/h | 20814m | -11.1m/s | -48.9°C | 0% | 0hPa | 0V | 00:00:00 | 00:00:00 | 00:00:00 | |
| SQ6EMJ | 2026-09-05 12:42:24 | 51.22713 | 17.47000 | 92° | 38km/h | 20882m | -11.6m/s | -49.3°C | 0% | 0hPa | 0V | 00:00:00 | 00:00:00 | 00:00:00 | |
| SQ6EMJ | 2026-09-05 12:42:20 | 51.22715 | 17.46939 | 102° | 26km/h | 20939m | -11.3m/s | -50.8°C | 0% | 0hPa | 0V | 00:00:00 | 00:00:00 | 00:00:00 | |
| OE5DRO-10 | 2026-09-05 12:42:18 | 51.22718 | 17.46907 | 103° | 37km/h | 20985m | -10.0m/s | 0°C | 0% | 0hPa | 0V | 00:00:00 | 00:00:00 | 00:00:00 | |
| SP6BVK | 2026-09-05 12:42:16 | 51.22719 | 17.46895 | 105° | 18km/h | 20985m | -10.1m/s | -51.2°C | 0% | 0hPa | 0V | 00:00:00 | 00:00:00 | 00:00:00 | |
| SQ6EMJ | 2026-09-05 12:42:14 | 51.22722 | 17.46872 | 96° | 22km/h | 21004m | -9.9m/s | -51.2°C | 0% | 0hPa | 0V | 00:00:00 | 00:00:00 | 00:00:00 | |
| POL1PZ | 2026-09-05 12:42:10 | 51.22724 | 17.46824 | 85° | 42km/h | 21049m | -12.8m/s | -50.3°C | 0% | 0hPa | 0V | 00:00:00 | 00:00:00 | 00:00:00 | |
| SQ6EMJ | 2026-09-05 12:42:08 | 51.22723 | 17.46808 | 90° | 40km/h | 21062m | -12.3m/s | -50.6°C | 0% | 0hPa | 0V | 00:00:00 | 00:00:00 | 00:00:00 | |
| DB0NH | 2026-09-05 12:42:04 | 51.22729 | 17.46747 | 103° | 38km/h | 21117m | -15.4m/s | 0°C | 0% | 0hPa | 0V | 00:00:00 | 00:00:00 | 00:00:00 | |
| SQ6EMJ | 2026-09-05 12:42:02 | 51.22738 | 17.46696 | 108° | 38km/h | 21145m | -11.8m/s | -48.7°C | 0% | 0hPa | 0V | 00:00:00 | 00:00:00 | 00:00:00 | |
| OE5DRO-10 | 2026-09-05 12:41:59 | 51.22742 | 17.46666 | 94° | 37km/h | 21179m | -9.9m/s | 0°C | 0% | 0hPa | 0V | 00:00:00 | 00:00:00 | 00:00:00 | |
| DO3MHA-12 | 2026-09-05 12:41:57 | 51.22742 | 17.46643 | 92° | 37km/h | 21224m | -11.2m/s | 0°C | 0% | 0hPa | 0V | 00:00:00 | 00:00:00 | 00:00:00 | |
| SP6BVK | 2026-09-05 12:41:55 | 51.22743 | 17.46605 | 96° | 31km/h | 21224m | -11.2m/s | -51.4°C | 0% | 0hPa | 0V | 00:00:00 | 00:00:00 | 00:00:00 | |
| SQ6EMJ | 2026-09-05 12:41:49 | 51.22743 | 17.46535 | 89° | 46km/h | 21279m | -11.3m/s | -51.9°C | 0% | 0hPa | 0V | 00:00:00 | 00:00:00 | 00:00:00 | |
| DO3MHA-12 | 2026-09-05 12:41:47 | 51.22741 | 17.46501 | 79° | 38km/h | 21314m | -12.3m/s | 0°C | 0% | 0hPa | 0V | 00:00:00 | 00:00:00 | 00:00:00 | |
| POL1PZ | 2026-09-05 12:41:46 | 51.22735 | 17.46469 | 67° | 42km/h | 21326m | -12.8m/s | -52.1°C | 0% | 0hPa | 0V | 00:00:00 | 00:00:00 | 00:00:00 | |
| SQ6EMJ | 2026-09-05 12:41:44 | 51.22727 | 17.46442 | 72° | 37km/h | 21351m | -12.1m/s | -52.1°C | 0% | 0hPa | 0V | 00:00:00 | 00:00:00 | 00:00:00 | |
| OE5DRO-10 | 2026-09-05 12:41:40 | 51.22719 | 17.46395 | 82° | 37km/h | 21423m | -11.7m/s | 0°C | 0% | 0hPa | 0V | 00:00:00 | 00:00:00 | 00:00:00 | |
| SQ6EMJ | 2026-09-05 12:41:39 | 51.22714 | 17.46366 | 77° | 33km/h | 21412m | -11.9m/s | -51.9°C | 0% | 0hPa | 0V | 00:00:00 | 00:00:00 | 00:00:00 | |
| DO3MHA-12 | 2026-09-05 12:41:37 | 51.22713 | 17.46351 | 79° | 38km/h | 21435m | -12.0m/s | 0°C | 0% | 0hPa | 0V | 00:00:00 | 00:00:00 | 00:00:00 | |
| DB0NH | 2026-09-05 12:41:34 | 51.22709 | 17.46307 | 83° | 26km/h | 21483m | -11.6m/s | 0°C | 0% | 0hPa | 0V | 00:00:00 | 00:00:00 | 00:00:00 | |
| SQ6EMJ | 2026-09-05 12:41:33 | 51.22709 | 17.46278 | 100° | 33km/h | 21483m | -11.7m/s | -51.9°C | 0% | 0hPa | 0V | 00:00:00 | 00:00:00 | 00:00:00 | |
| SQ6EMJ | 2026-09-05 12:41:27 | 51.22715 | 17.46190 | 101° | 40km/h | 21555m | -11.9m/s | -51.4°C | 0% | 0hPa | 0V | 00:00:00 | 00:00:00 | 00:00:00 | |
| POL1PZ | 2026-09-05 12:41:25 | 51.22717 | 17.46176 | 109° | 31km/h | 21566m | -11.7m/s | -51.5°C | 0% | 0hPa | 0V | 00:00:00 | 00:00:00 | 00:00:00 | |
| SQ6EMJ | 2026-09-05 12:41:22 | 51.22725 | 17.46122 | 105° | 38km/h | 21614m | -11.9m/s | -51.5°C | 0% | 0hPa | 0V | 00:00:00 | 00:00:00 | 00:00:00 | |
| OE5DRO-10 | 2026-09-05 12:41:21 | 51.22725 | 17.46122 | 103° | 29km/h | 21626m | -12.1m/s | 0°C | 0% | 0hPa | 0V | 00:00:00 | 00:00:00 | 00:00:00 | |
| DO3MHA-12 | 2026-09-05 12:41:17 | 51.22731 | 17.46074 | 92° | 29km/h | 21685m | -11.8m/s | 0°C | 0% | 0hPa | 0V | 00:00:00 | 00:00:00 | 00:00:00 | |
| SQ6EMJ | 2026-09-05 12:41:16 | 51.22733 | 17.46052 | 86° | 29km/h | 21685m | -11.8m/s | -51.5°C | 0% | 0hPa | 0V | 00:00:00 | 00:00:00 | 00:00:00 | |
| SP6BVK | 2026-09-05 12:41:13 | 51.22734 | 17.46030 | 85° | 27km/h | 21709m | -12.0m/s | -51.4°C | 0% | 0hPa | 0V | 00:00:00 | 00:00:00 | 00:00:00 | |
| SQ6EMJ | 2026-09-05 12:41:09 | 51.22738 | 17.45984 | 93° | 24km/h | 21757m | -12.1m/s | -50.9°C | 0% | 0hPa | 0V | 00:00:00 | 00:00:00 | 00:00:00 | |
| DO3MHA-12 | 2026-09-05 12:41:07 | 51.22740 | 17.45964 | 105° | 27km/h | 21804m | -12.0m/s | 0°C | 0% | 0hPa | 0V | 00:00:00 | 00:00:00 | 00:00:00 | |
| POL1PZ | 2026-09-05 12:41:04 | 51.22752 | 17.45935 | 142° | 29km/h | 21817m | -12.1m/s | -49.0°C | 0% | 0hPa | 0V | 00:00:00 | 00:00:00 | 00:00:00 | |
| SQ6EMJ | 2026-09-05 12:41:03 | 51.22758 | 17.45926 | 136° | 37km/h | 21828m | -12.0m/s | -48.7°C | 0% | 0hPa | 0V | 00:00:00 | 00:00:00 | 00:00:00 | |
| OE5DRO-10 | 2026-09-05 12:41:02 | 51.22764 | 17.45918 | 149° | 24km/h | 21851m | -11.1m/s | 0°C | 0% | 0hPa | 0V | 00:00:00 | 00:00:00 | 00:00:00 | |
| SQ6EMJ | 2026-09-05 12:40:58 | 51.22793 | 17.45882 | 142° | 35km/h | 21884m | -12.6m/s | -48.5°C | 0% | 0hPa | 0V | 00:00:00 | 00:00:00 | 00:00:00 | |
| DO3MHA-12 | 2026-09-05 12:40:56 | 51.22799 | 17.45876 | 161° | 22km/h | 21919m | -12.9m/s | 0°C | 0% | 0hPa | 0V | 00:00:00 | 00:00:00 | 00:00:00 | |
| SP6BVK | 2026-09-05 12:40:53 | 51.22816 | 17.45860 | 150° | 35km/h | 21947m | -15.8m/s | -49.8°C | 0% | 0hPa | 0V | 00:00:00 | 00:00:00 | 00:00:00 | |
| SQ6EMJ | 2026-09-05 12:40:52 | 51.22828 | 17.45847 | 130° | 29km/h | 21974m | -14.3m/s | -49.5°C | 0% | 0hPa | 0V | 00:00:00 | 00:00:00 | 00:00:00 | |
| DO3MHA-12 | 2026-09-05 12:40:46 | 51.22849 | 17.45822 | 129° | 20km/h | 22060m | -14.8m/s | 0°C | 0% | 0hPa | 0V | 00:00:00 | 00:00:00 | 00:00:00 | |
| SQ6EMJ | 2026-09-05 12:40:45 | 51.22855 | 17.45811 | 126° | 16km/h | 22075m | -14.7m/s | -50.7°C | 0% | 0hPa | 0V | 00:00:00 | 00:00:00 | 00:00:00 | |
| POL1PZ | 2026-09-05 12:40:44 | 51.22855 | 17.45811 | 126° | 16km/h | 22075m | -14.7m/s | -50.7°C | 0% | 0hPa | 0V | 00:00:00 | 00:00:00 | 00:00:00 | |
| OE5DRO-10 | 2026-09-05 12:40:43 | 51.22857 | 17.45805 | 128° | 20km/h | 22105m | -15.2m/s | 0°C | 0% | 0hPa | 0V | 00:00:00 | 00:00:00 | 00:00:00 | |
| DB0NH | 2026-09-05 12:40:40 | 51.22864 | 17.45784 | 119° | 20km/h | 22151m | -15.7m/s | 0°C | 0% | 0hPa | 0V | 00:00:00 | 00:00:00 | 00:00:00 | |
| SQ6EMJ | 2026-09-05 12:40:39 | 51.22868 | 17.45769 | 117° | 20km/h | 22167m | -16.1m/s | -51.2°C | 0% | 0hPa | 0V | 00:00:00 | 00:00:00 | 00:00:00 | |
| SQ6EMJ | 2026-09-05 12:40:33 | 51.22886 | 17.45727 | 118° | 22km/h | 22266m | -13.6m/s | -51.1°C | 0% | 0hPa | 0V | 00:00:00 | 00:00:00 | 00:00:00 | |
| SP6BVK | 2026-09-05 12:40:32 | 51.22886 | 17.45727 | 118° | 22km/h | 22266m | -13.6m/s | -51.1°C | 0% | 0hPa | 0V | 00:00:00 | 00:00:00 | 00:00:00 | |
| SQ6EMJ | 2026-09-05 12:40:27 | 51.22890 | 17.45684 | 97° | 20km/h | 22266m | 4.0m/s | -51.1°C | 0% | 0hPa | 0V | 00:00:00 | 00:00:00 | 00:00:00 | |
| DO3MHA-12 | 2026-09-05 12:40:26 | 51.22890 | 17.45676 | 89° | 20km/h | 22258m | 3.0m/s | 0°C | 0% | 0hPa | 0V | 00:00:00 | 00:00:00 | 00:00:00 | |
| POL1PZ | 2026-09-05 12:40:24 | 51.22891 | 17.45647 | 110° | 20km/h | 22251m | 3.9m/s | -51.0°C | 0% | 0hPa | 0V | 00:00:00 | 00:00:00 | 00:00:00 | |
| SQ6EMJ | 2026-09-05 12:40:22 | 51.22896 | 17.45636 | 114° | 15km/h | 22244m | 3.3m/s | -51.1°C | 0% | 0hPa | 0V | 00:00:00 | 00:00:00 | 00:00:00 | |
| DO3MHA-12 | 2026-09-05 12:40:16 | 51.22901 | 17.45599 | 112° | 20km/h | 22221m | 3.8m/s | 0°C | 0% | 0hPa | 0V | 00:00:00 | 00:00:00 | 00:00:00 | |
| SP6BVK | 2026-09-05 12:40:12 | 51.22906 | 17.45569 | 107° | 18km/h | 22210m | 3.4m/s | -50.6°C | 0% | 0hPa | 0V | 00:00:00 | 00:00:00 | 00:00:00 | |
| SQ6EMJ | 2026-09-05 12:40:11 | 51.22911 | 17.45556 | 135° | 20km/h | 22203m | 3.3m/s | -50.8°C | 0% | 0hPa | 0V | 00:00:00 | 00:00:00 | 00:00:00 | |
| DB0NH | 2026-09-05 12:40:10 | 51.22910 | 17.45556 | 134° | 20km/h | 22199m | 3.2m/s | 0°C | 0% | 0hPa | 0V | 00:00:00 | 00:00:00 | 00:00:00 | |
| DO3MHA-12 | 2026-09-05 12:40:06 | 51.22916 | 17.45529 | 105° | 22km/h | 22185m | 4.0m/s | 0°C | 0% | 0hPa | 0V | 00:00:00 | 00:00:00 | 00:00:00 | |
| SQ6EMJ | 2026-09-05 12:40:05 | 51.22921 | 17.45514 | 136° | 24km/h | 22181m | 3.3m/s | -50.7°C | 0% | 0hPa | 0V | 00:00:00 | 00:00:00 | 00:00:00 | |
| POL1PZ | 2026-09-05 12:40:03 | 51.22925 | 17.45507 | 117° | 22km/h | 22178m | 3.4m/s | -50.5°C | 0% | 0hPa | 0V | 00:00:00 | 00:00:00 | 00:00:00 | |
| SQ6EMJ | 2026-09-05 12:39:59 | 51.22932 | 17.45479 | 139° | 26km/h | 22162m | 3.3m/s | -50.1°C | 0% | 0hPa | 0V | 00:00:00 | 00:00:00 | 00:00:00 | |
| SQ6EMJ | 2026-09-05 12:39:54 | 51.22947 | 17.45442 | 143° | 20km/h | 22140m | 3.6m/s | -50.1°C | 0% | 0hPa | 0V | 00:00:00 | 00:00:00 | 00:00:00 | |
| SP6BVK | 2026-09-05 12:39:52 | 51.22953 | 17.45431 | 112° | 18km/h | 22133m | 4.3m/s | -50.0°C | 0% | 0hPa | 0V | 00:00:00 | 00:00:00 | 00:00:00 | |
| SQ6EMJ | 2026-09-05 12:39:49 | 51.22959 | 17.45408 | 141° | 20km/h | 22122m | 3.7m/s | -49.8°C | 0% | 0hPa | 0V | 00:00:00 | 00:00:00 | 00:00:00 | |
| OE5DRO-10 | 2026-09-05 12:39:46 | 51.22967 | 17.45399 | 116° | 18km/h | 22112m | 3.4m/s | 0°C | 0% | 0hPa | 0V | 00:00:00 | 00:00:00 | 00:00:00 | |
| POL1PZ | 2026-09-05 12:39:43 | 51.22974 | 17.45374 | 147° | 16km/h | 22101m | 4.2m/s | -49.6°C | 0% | 0hPa | 0V | 00:00:00 | 00:00:00 | 00:00:00 | |
| DB0NH | 2026-09-05 12:39:40 | 51.22982 | 17.45366 | 136° | 22km/h | 22091m | 3.8m/s | 0°C | 0% | 0hPa | 0V | 00:00:00 | 00:00:00 | 00:00:00 | |
| SQ6EMJ | 2026-09-05 12:39:37 | 51.22993 | 17.45340 | 151° | 18km/h | 22080m | 4.0m/s | -49.8°C | 0% | 0hPa | 0V | 00:00:00 | 00:00:00 | 00:00:00 | |
| SQ6EMJ | 2026-09-05 12:39:31 | 51.23011 | 17.45313 | 154° | 16km/h | 22062m | 3.6m/s | -49.6°C | 0% | 0hPa | 0V | 00:00:00 | 00:00:00 | 00:00:00 | |
| OE5DRO-10 | 2026-09-05 12:39:27 | 51.23026 | 17.45296 | 121° | 26km/h | 22030m | 3.7m/s | 0°C | 0% | 0hPa | 0V | 00:00:00 | 00:00:00 | 00:00:00 | |
| SQ6EMJ | 2026-09-05 12:39:26 | 51.23035 | 17.45283 | 162° | 24km/h | 22041m | 3.9m/s | -49.6°C | 0% | 0hPa | 0V | 00:00:00 | 00:00:00 | 00:00:00 | |
| DO3MHA-12 | 2026-09-05 12:39:22 | 51.23051 | 17.45271 | 142° | 24km/h | 22026m | 2.7m/s | 0°C | 0% | 0hPa | 0V | 00:00:00 | 00:00:00 | 00:00:00 | |
| POL1PZ | 2026-09-05 12:39:21 | 51.23056 | 17.45264 | 143° | 26km/h | 22026m | 2.8m/s | -50.0°C | 0% | 0hPa | 0V | 00:00:00 | 00:00:00 | 00:00:00 | |
| SQ6EMJ | 2026-09-05 12:39:20 | 51.23060 | 17.45258 | 158° | 22km/h | 22023m | 3.4m/s | -49.8°C | 0% | 0hPa | 0V | 00:00:00 | 00:00:00 | 00:00:00 | |
| SQ6EMJ | 2026-09-05 12:39:15 | 51.23093 | 17.45232 | 169° | 26km/h | 22001m | 3.6m/s | -49.8°C | 0% | 0hPa | 0V | 00:00:00 | 00:00:00 | 00:00:00 | |
| DO3MHA-12 | 2026-09-05 12:39:12 | 51.23105 | 17.45227 | 149° | 27km/h | 21991m | 3.3m/s | 0°C | 0% | 0hPa | 0V | 00:00:00 | 00:00:00 | 00:00:00 | |
| SP6BVK | 2026-09-05 12:39:11 | 51.23116 | 17.45214 | 136° | 31km/h | 21988m | 2.9m/s | -49.8°C | 0% | 0hPa | 0V | 00:00:00 | 00:00:00 | 00:00:00 | |
| DB0NH | 2026-09-05 12:39:10 | 51.23116 | 17.45215 | 135° | 31km/h | 21984m | 3.5m/s | 0°C | 0% | 0hPa | 0V | 00:00:00 | 00:00:00 | 00:00:00 | |
| SQ6EMJ | 2026-09-05 12:39:09 | 51.23126 | 17.45201 | 157° | 27km/h | 21981m | 3.9m/s | -49.6°C | 0% | 0hPa | 0V | 00:00:00 | 00:00:00 | 00:00:00 | |
| OE5DRO-10 | 2026-09-05 12:39:05 | 51.23146 | 17.45190 | 130° | 31km/h | 21967m | 3.1m/s | 0°C | 0% | 0hPa | 0V | 00:00:00 | 00:00:00 | 00:00:00 | |
| SQ6EMJ | 2026-09-05 12:39:03 | 51.23157 | 17.45173 | 140° | 31km/h | 21964m | 3.3m/s | -49.6°C | 0% | 0hPa | 0V | 00:00:00 | 00:00:00 | 00:00:00 | |
| DO3MHA-12 | 2026-09-05 12:39:02 | 51.23163 | 17.45165 | 152° | 31km/h | 21957m | 2.8m/s | 0°C | 0% | 0hPa | 0V | 00:00:00 | 00:00:00 | 00:00:00 | |
| POL1PZ | 2026-09-05 12:39:01 | 51.23171 | 17.45160 | 163° | 33km/h | 21957m | 2.9m/s | -49.8°C | 0% | 0hPa | 0V | 00:00:00 | 00:00:00 | 00:00:00 | |
| SQ6EMJ | 2026-09-05 12:38:57 | 51.23195 | 17.45130 | 135° | 29km/h | 21943m | 3.5m/s | -49.7°C | 0% | 0hPa | 0V | 00:00:00 | 00:00:00 | 00:00:00 | |
| SQ6EMJ | 2026-09-05 12:38:53 | 51.23225 | 17.45094 | 126° | 35km/h | 21925m | 3.4m/s | -49.8°C | 0% | 0hPa | 0V | 00:00:00 | 00:00:00 | 00:00:00 | |
| DO3MHA-12 | 2026-09-05 12:38:52 | 51.23225 | 17.45092 | 131° | 33km/h | 21921m | 3.2m/s | 0°C | 0% | 0hPa | 0V | 00:00:00 | 00:00:00 | 00:00:00 | |
| SP6BVK | 2026-09-05 12:38:50 | 51.23237 | 17.45073 | 142° | 33km/h | 21918m | 3.6m/s | -49.8°C | 0% | 0hPa | 0V | 00:00:00 | 00:00:00 | 00:00:00 | |
| SQ6EMJ | 2026-09-05 12:38:47 | 51.23260 | 17.45045 | 128° | 29km/h | 21903m | 3.6m/s | -49.9°C | 0% | 0hPa | 0V | 00:00:00 | 00:00:00 | 00:00:00 | |
| OE5DRO-10 | 2026-09-05 12:38:46 | 51.23260 | 17.45045 | 128° | 29km/h | 21899m | 3.5m/s | 0°C | 0% | 0hPa | 0V | 00:00:00 | 00:00:00 | 00:00:00 | |
| DB0NH | 2026-09-05 12:38:40 | 51.23293 | 17.44992 | 131° | 29km/h | 21877m | 4.1m/s | 0°C | 0% | 0hPa | 0V | 00:00:00 | 00:00:00 | 00:00:00 | |
| SQ6EMJ | 2026-09-05 12:38:36 | 51.23314 | 17.44945 | 121° | 26km/h | 21862m | 3.3m/s | -50.3°C | 0% | 0hPa | 0V | 00:00:00 | 00:00:00 | 00:00:00 | |
| DO3MHA-12 | 2026-09-05 12:38:32 | 51.23324 | 17.44910 | 111° | 31km/h | 21847m | 4.5m/s | 0°C | 0% | 0hPa | 0V | 00:00:00 | 00:00:00 | 00:00:00 | |
| SP6BVK | 2026-09-05 12:38:30 | 51.23331 | 17.44884 | 115° | 24km/h | 21839m | 3.5m/s | -50.6°C | 0% | 0hPa | 0V | 00:00:00 | 00:00:00 | 00:00:00 | |
| OE5DRO-10 | 2026-09-05 12:38:27 | 51.23337 | 17.44860 | 106° | 29km/h | 21827m | 4.4m/s | 0°C | 0% | 0hPa | 0V | 00:00:00 | 00:00:00 | 00:00:00 | |
| SQ6EMJ | 2026-09-05 12:38:25 | 51.23341 | 17.44826 | 96° | 22km/h | 21820m | 3.1m/s | -51.2°C | 0% | 0hPa | 0V | 00:00:00 | 00:00:00 | 00:00:00 | |
| POL1PZ | 2026-09-05 12:38:19 | 51.23347 | 17.44756 | 94° | 26km/h | 21797m | 3.4m/s | -51.2°C | 0% | 0hPa | 0V | 00:00:00 | 00:00:00 | 00:00:00 | |
| SQ6EMJ | 2026-09-05 12:38:13 | 51.23349 | 17.44685 | 91° | 31km/h | 21774m | 4.5m/s | -51.1°C | 0% | 0hPa | 0V | 00:00:00 | 00:00:00 | 00:00:00 | |
| DB0NH | 2026-09-05 12:38:10 | 51.23350 | 17.44658 | 91° | 31km/h | 21758m | 3.5m/s | 0°C | 0% | 0hPa | 0V | 00:00:00 | 00:00:00 | 00:00:00 | |
| SP6BVK | 2026-09-05 12:38:09 | 51.23350 | 17.44647 | 95° | 22km/h | 21762m | 4.2m/s | -51.0°C | 0% | 0hPa | 0V | 00:00:00 | 00:00:00 | 00:00:00 | |
| OE5DRO-10 | 2026-09-05 12:38:08 | 51.23351 | 17.44639 | 93° | 29km/h | 21755m | 4.2m/s | 0°C | 0% | 0hPa | 0V | 00:00:00 | 00:00:00 | 00:00:00 | |
| SQ6EMJ | 2026-09-05 12:38:07 | 51.23351 | 17.44629 | 90° | 27km/h | 21755m | 4.2m/s | -51.2°C | 0% | 0hPa | 0V | 00:00:00 | 00:00:00 | 00:00:00 | |
| SQ6EMJ | 2026-09-05 12:37:57 | 51.23363 | 17.44499 | 98° | 38km/h | 21712m | 3.7m/s | -51.3°C | 0% | 0hPa | 0V | 00:00:00 | 00:00:00 | 00:00:00 | |
| SQ6EMJ | 2026-09-05 12:37:51 | 51.23375 | 17.44424 | 98° | 38km/h | 21690m | 4.2m/s | -51.2°C | 0% | 0hPa | 0V | 00:00:00 | 00:00:00 | 00:00:00 | |
| SP6BVK | 2026-09-05 12:37:49 | 51.23377 | 17.44395 | 103° | 31km/h | 21683m | 4.6m/s | -51.1°C | 0% | 0hPa | 0V | 00:00:00 | 00:00:00 | 00:00:00 | |
| SQ6EMJ | 2026-09-05 12:37:45 | 51.23384 | 17.44347 | 97° | 42km/h | 21667m | 3.2m/s | -51.1°C | 0% | 0hPa | 0V | 00:00:00 | 00:00:00 | 00:00:00 | |
| DO3MHA-12 | 2026-09-05 12:37:39 | 51.23395 | 17.44278 | 104° | 37km/h | 21644m | 4.0m/s | 0°C | 0% | 0hPa | 0V | 00:00:00 | 00:00:00 | 00:00:00 | |
| DB0NH | 2026-09-05 12:37:38 | 51.23397 | 17.44264 | 104° | 38km/h | 21640m | 3.9m/s | 0°C | 0% | 0hPa | 0V | 00:00:00 | 00:00:00 | 00:00:00 | |
| POL1PZ | 2026-09-05 12:37:37 | 51.23399 | 17.44251 | 113° | 33km/h | 21640m | 3.9m/s | -50.9°C | 0% | 0hPa | 0V | 00:00:00 | 00:00:00 | 00:00:00 | |
| SQ6EMJ | 2026-09-05 12:37:34 | 51.23408 | 17.44197 | 98° | 38km/h | 21624m | 3.3m/s | -51.1°C | 0% | 0hPa | 0V | 00:00:00 | 00:00:00 | 00:00:00 | |
| SP6BVK | 2026-09-05 12:37:29 | 51.23416 | 17.44125 | 98° | 40km/h | 21603m | 3.8m/s | -51.1°C | 0% | 0hPa | 0V | 00:00:00 | 00:00:00 | 00:00:00 | |
| SQ6EMJ | 2026-09-05 12:37:23 | 51.23429 | 17.44033 | 107° | 38km/h | 21579m | 3.8m/s | -51.1°C | 0% | 0hPa | 0V | 00:00:00 | 00:00:00 | 00:00:00 | |
| SQ6EMJ | 2026-09-05 12:37:17 | 51.23438 | 17.43944 | 104° | 35km/h | 21556m | 3.0m/s | -51.5°C | 0% | 0hPa | 0V | 00:00:00 | 00:00:00 | 00:00:00 | |
| POL1PZ | 2026-09-05 12:37:16 | 51.23438 | 17.43944 | 104° | 35km/h | 21556m | 3.0m/s | -51.5°C | 0% | 0hPa | 0V | 00:00:00 | 00:00:00 | 00:00:00 | |
| SQ6EMJ | 2026-09-05 12:37:11 | 51.23439 | 17.43866 | 104° | 33km/h | 21537m | 4.2m/s | -51.5°C | 0% | 0hPa | 0V | 00:00:00 | 00:00:00 | 00:00:00 | |
| DB0NH | 2026-09-05 12:37:08 | 51.23440 | 17.43822 | 78° | 40km/h | 21523m | 3.8m/s | 0°C | 0% | 0hPa | 0V | 00:00:00 | 00:00:00 | 00:00:00 | |
| SP6BVK | 2026-09-05 12:37:07 | 51.23438 | 17.43806 | 84° | 40km/h | 21523m | 3.9m/s | -51.6°C | 0% | 0hPa | 0V | 00:00:00 | 00:00:00 | 00:00:00 | |
| SQ6EMJ | 2026-09-05 12:37:06 | 51.23438 | 17.43777 | 101° | 31km/h | 21514m | 3.9m/s | -51.6°C | 0% | 0hPa | 0V | 00:00:00 | 00:00:00 | 00:00:00 | |
| SQ6EMJ | 2026-09-05 12:37:00 | 51.23433 | 17.43701 | 97° | 35km/h | 21495m | 4.1m/s | -51.7°C | 0% | 0hPa | 0V | 00:00:00 | 00:00:00 | 00:00:00 | |
| POL1PZ | 2026-09-05 12:36:56 | 51.23426 | 17.43640 | 79° | 40km/h | 21480m | 4.3m/s | -51.5°C | 0% | 0hPa | 0V | 00:00:00 | 00:00:00 | 00:00:00 | |
| SQ6EMJ | 2026-09-05 12:36:55 | 51.23425 | 17.43611 | 87° | 37km/h | 21472m | 3.5m/s | -51.7°C | 0% | 0hPa | 0V | 00:00:00 | 00:00:00 | 00:00:00 | |
| DO3MHA-12 | 2026-09-05 12:36:52 | 51.23419 | 17.43580 | 69° | 40km/h | 21460m | 4.0m/s | 0°C | 0% | 0hPa | 0V | 00:00:00 | 00:00:00 | 00:00:00 | |
| SQ6EMJ | 2026-09-05 12:36:49 | 51.23412 | 17.43519 | 77° | 40km/h | 21448m | 4.6m/s | -51.8°C | 0% | 0hPa | 0V | 00:00:00 | 00:00:00 | 00:00:00 | |
| OE5DRO-10 | 2026-09-05 12:36:48 | 51.23412 | 17.43519 | 77° | 40km/h | 21444m | 3.8m/s | 0°C | 0% | 0hPa | 0V | 00:00:00 | 00:00:00 | 00:00:00 | |
| SP6BVK | 2026-09-05 12:36:47 | 51.23408 | 17.43501 | 70° | 49km/h | 21444m | 3.9m/s | -51.8°C | 0% | 0hPa | 0V | 00:00:00 | 00:00:00 | 00:00:00 | |
| SQ6EMJ | 2026-09-05 12:36:43 | 51.23395 | 17.43440 | 71° | 40km/h | 21429m | 4.4m/s | -51.8°C | 0% | 0hPa | 0V | 00:00:00 | 00:00:00 | 00:00:00 | |
| DO3MHA-12 | 2026-09-05 12:36:42 | 51.23392 | 17.43423 | 70° | 38km/h | 21421m | 3.9m/s | 0°C | 0% | 0hPa | 0V | 00:00:00 | 00:00:00 | 00:00:00 | |
| SQ9EZE-14 | 2026-09-05 12:36:40 | 51.23385 | 17.43390 | 77° | 37km/h | 21416m | 4.6m/s | 0°C | 0% | 0hPa | 0V | 00:00:00 | 00:00:00 | 00:00:00 | |
| SQ6EMJ | 2026-09-05 12:36:38 | 51.23377 | 17.43347 | 67° | 47km/h | 21404m | 3.9m/s | -51.8°C | 0% | 0hPa | 0V | 00:00:00 | 00:00:00 | 00:00:00 | |
| POL1PZ | 2026-09-05 12:36:35 | 51.23370 | 17.43316 | 81° | 33km/h | 21395m | 4.7m/s | -51.5°C | 0% | 0hPa | 0V | 00:00:00 | 00:00:00 | 00:00:00 | |
| DO3MHA-12 | 2026-09-05 12:36:32 | 51.23362 | 17.43270 | 73° | 38km/h | 21380m | 3.9m/s | 0°C | 0% | 0hPa | 0V | 00:00:00 | 00:00:00 | 00:00:00 | |
| OE5DRO-10 | 2026-09-05 12:36:29 | 51.23355 | 17.43227 | 88° | 37km/h | 21368m | 3.7m/s | 0°C | 0% | 0hPa | 0V | 00:00:00 | 00:00:00 | 00:00:00 | |
| SP6BVK | 2026-09-05 12:36:27 | 51.23349 | 17.43182 | 74° | 46km/h | 21359m | 3.7m/s | -51.6°C | 0% | 0hPa | 0V | 00:00:00 | 00:00:00 | 00:00:00 | |
| DO3MHA-12 | 2026-09-05 12:36:22 | 51.23342 | 17.43126 | 79° | 37km/h | 21340m | 3.8m/s | 0°C | 0% | 0hPa | 0V | 00:00:00 | 00:00:00 | 00:00:00 | |
| SQ6EMJ | 2026-09-05 12:36:21 | 51.23337 | 17.43092 | 83° | 40km/h | 21336m | 4.3m/s | -51.3°C | 0% | 0hPa | 0V | 00:00:00 | 00:00:00 | 00:00:00 | |
| SQ6EMJ | 2026-09-05 12:36:16 | 51.23330 | 17.43019 | 79° | 40km/h | 21317m | 3.2m/s | -51.4°C | 0% | 0hPa | 0V | 00:00:00 | 00:00:00 | 00:00:00 | |
| POL1PZ | 2026-09-05 12:36:14 | 51.23328 | 17.43005 | 82° | 33km/h | 21313m | 4.5m/s | -51.3°C | 0% | 0hPa | 0V | 00:00:00 | 00:00:00 | 00:00:00 | |
| DO3MHA-12 | 2026-09-05 12:36:12 | 51.23327 | 17.42982 | 83° | 35km/h | 21302m | 4.6m/s | 0°C | 0% | 0hPa | 0V | 00:00:00 | 00:00:00 | 00:00:00 | |
| SQ6EMJ | 2026-09-05 12:36:10 | 51.23323 | 17.42937 | 83° | 35km/h | 21294m | 4.6m/s | -51.4°C | 0% | 0hPa | 0V | 00:00:00 | 00:00:00 | 00:00:00 | |
| DB0NH | 2026-09-05 12:36:08 | 51.23321 | 17.42927 | 87° | 35km/h | 21287m | 3.3m/s | 0°C | 0% | 0hPa | 0V | 00:00:00 | 00:00:00 | 00:00:00 | |
| SQ6EMJ | 2026-09-05 12:36:05 | 51.23319 | 17.42870 | 88° | 38km/h | 21275m | 3.5m/s | -51.5°C | 0% | 0hPa | 0V | 00:00:00 | 00:00:00 | 00:00:00 | |
| DO3MHA-12 | 2026-09-05 12:36:02 | 51.23319 | 17.42850 | 91° | 33km/h | 21264m | 4.9m/s | 0°C | 0% | 0hPa | 0V | 00:00:00 | 00:00:00 | 00:00:00 | |
| SQ6EMJ | 2026-09-05 12:35:59 | 51.23320 | 17.42792 | 101° | 24km/h | 21252m | 4.0m/s | -51.5°C | 0% | 0hPa | 0V | 00:00:00 | 00:00:00 | 00:00:00 | |
| POL1PZ | 2026-09-05 12:35:54 | 51.23326 | 17.42726 | 105° | 26km/h | 21232m | 3.8m/s | -51.6°C | 0% | 0hPa | 0V | 00:00:00 | 00:00:00 | 00:00:00 | |
| SQ6EMJ | 2026-09-05 12:35:53 | 51.23328 | 17.42716 | 107° | 27km/h | 21229m | 3.0m/s | -51.7°C | 0% | 0hPa | 0V | 00:00:00 | 00:00:00 | 00:00:00 | |
| DO3MHA-12 | 2026-09-05 12:35:52 | 51.23328 | 17.42716 | 106° | 37km/h | 21225m | 4.4m/s | 0°C | 0% | 0hPa | 0V | 00:00:00 | 00:00:00 | 00:00:00 | |
| SQ6EMJ | 2026-09-05 12:35:47 | 51.23336 | 17.42646 | 107° | 31km/h | 21209m | 3.1m/s | -51.7°C | 0% | 0hPa | 0V | 00:00:00 | 00:00:00 | 00:00:00 | |
| SP6BVK | 2026-09-05 12:35:46 | 51.23340 | 17.42616 | 98° | 46km/h | 21201m | 3.7m/s | -51.8°C | 0% | 0hPa | 0V | 00:00:00 | 00:00:00 | 00:00:00 | |
| SQ6EMJ | 2026-09-05 12:35:42 | 51.23347 | 17.42556 | 101° | 40km/h | 21186m | 4.1m/s | -51.6°C | 0% | 0hPa | 0V | 00:00:00 | 00:00:00 | 00:00:00 | |
| DB0NH | 2026-09-05 12:35:38 | 51.23351 | 17.42509 | 100° | 37km/h | 21170m | 4.1m/s | 0°C | 0% | 0hPa | 0V | 00:00:00 | 00:00:00 | 00:00:00 | |
| SQ6EMJ | 2026-09-05 12:35:37 | 51.23354 | 17.42474 | 97° | 49km/h | 21167m | 3.8m/s | -51.6°C | 0% | 0hPa | 0V | 00:00:00 | 00:00:00 | 00:00:00 | |
| DO3MHA-12 | 2026-09-05 12:35:32 | 51.23358 | 17.42410 | 101° | 37km/h | 21151m | 4.2m/s | 0°C | 0% | 0hPa | 0V | 00:00:00 | 00:00:00 | 00:00:00 | |
| SQ6EMJ | 2026-09-05 12:35:31 | 51.23363 | 17.42376 | 96° | 47km/h | 21144m | 3.3m/s | -51.9°C | 0% | 0hPa | 0V | 00:00:00 | 00:00:00 | 00:00:00 | |
| OE5DRO-10 | 2026-09-05 12:35:28 | 51.23367 | 17.42346 | 108° | 35km/h | 21132m | 4.1m/s | 0°C | 0% | 0hPa | 0V | 00:00:00 | 00:00:00 | 00:00:00 | |
| SQ6EMJ | 2026-09-05 12:35:25 | 51.23373 | 17.42285 | 101° | 37km/h | 21120m | 4.5m/s | -51.6°C | 0% | 0hPa | 0V | 00:00:00 | 00:00:00 | 00:00:00 | |
| SP6BVK | 2026-09-05 12:35:24 | 51.23373 | 17.42285 | 101° | 37km/h | 21120m | 4.5m/s | -51.6°C | 0% | 0hPa | 0V | 00:00:00 | 00:00:00 | 00:00:00 | |
| DO3MHA-12 | 2026-09-05 12:35:22 | 51.23377 | 17.42262 | 102° | 35km/h | 21108m | 4.5m/s | 0°C | 0% | 0hPa | 0V | 00:00:00 | 00:00:00 | 00:00:00 | |
| SQ6EMJ | 2026-09-05 12:35:19 | 51.23380 | 17.42216 | 97° | 35km/h | 21100m | 4.5m/s | -51.4°C | 0% | 0hPa | 0V | 00:00:00 | 00:00:00 | 00:00:00 | |
| DO3MHA-12 | 2026-09-05 12:35:12 | 51.23390 | 17.42130 | 101° | 31km/h | 21069m | 4.6m/s | 0°C | 0% | 0hPa | 0V | 00:00:00 | 00:00:00 | 00:00:00 | |
| POL1PZ | 2026-09-05 12:35:11 | 51.23392 | 17.42116 | 102° | 33km/h | 21069m | 4.6m/s | -51.4°C | 0% | 0hPa | 0V | 00:00:00 | 00:00:00 | 00:00:00 | |
| OE5DRO-10 | 2026-09-05 12:35:09 | 51.23394 | 17.42087 | 98° | 31km/h | 21053m | 3.3m/s | 0°C | 0% | 0hPa | 0V | 00:00:00 | 00:00:00 | 00:00:00 | |
| DB0NH | 2026-09-05 12:35:08 | 51.23395 | 17.42077 | 106° | 29km/h | 21053m | 3.3m/s | 0°C | 0% | 0hPa | 0V | 00:00:00 | 00:00:00 | 00:00:00 | |
| SP6BVK | 2026-09-05 12:35:04 | 51.23401 | 17.42025 | 99° | 35km/h | 21042m | 3.9m/s | -51.3°C | 0% | 0hPa | 0V | 00:00:00 | 00:00:00 | 00:00:00 | |
| SQ6EMJ | 2026-09-05 12:35:03 | 51.23404 | 17.42003 | 109° | 24km/h | 21034m | 3.1m/s | -51.5°C | 0% | 0hPa | 0V | 00:00:00 | 00:00:00 | 00:00:00 | |
| DO3MHA-12 | 2026-09-05 12:35:02 | 51.23404 | 17.42003 | 109° | 31km/h | 21031m | 4.4m/s | 0°C | 0% | 0hPa | 0V | 00:00:00 | 00:00:00 | 00:00:00 | |
| SQ6EMJ | 2026-09-05 12:34:57 | 51.23414 | 17.41932 | 106° | 26km/h | 21011m | 3.6m/s | -51.3°C | 0% | 0hPa | 0V | 00:00:00 | 00:00:00 | 00:00:00 | |
| SQ6EMJ | 2026-09-05 12:34:52 | 51.23421 | 17.41875 | 104° | 27km/h | 20992m | 4.3m/s | -51.2°C | 0% | 0hPa | 0V | 00:00:00 | 00:00:00 | 00:00:00 | |
| POL1PZ | 2026-09-05 12:34:51 | 51.23422 | 17.41862 | 98° | 37km/h | 20988m | 3.3m/s | -51.1°C | 0% | 0hPa | 0V | 00:00:00 | 00:00:00 | 00:00:00 | |
| OE5DRO-10 | 2026-09-05 12:34:49 | 51.23423 | 17.41845 | 106° | 29km/h | 20982m | 4.0m/s | 0°C | 0% | 0hPa | 0V | 00:00:00 | 00:00:00 | 00:00:00 | |
| SQ6EMJ | 2026-09-05 12:34:46 | 51.23431 | 17.41808 | 105° | 35km/h | 20971m | 4.2m/s | -51.3°C | 0% | 0hPa | 0V | 00:00:00 | 00:00:00 | 00:00:00 | |
| SP6BVK | 2026-09-05 12:34:44 | 51.23436 | 17.41782 | 109° | 29km/h | 20963m | 4.6m/s | -51.4°C | 0% | 0hPa | 0V | 00:00:00 | 00:00:00 | 00:00:00 | |
| DO3MHA-12 | 2026-09-05 12:34:42 | 51.23438 | 17.41774 | 112° | 31km/h | 20956m | 3.4m/s | 0°C | 0% | 0hPa | 0V | 00:00:00 | 00:00:00 | 00:00:00 | |
| SQ6EMJ | 2026-09-05 12:34:41 | 51.23442 | 17.41754 | 112° | 29km/h | 20952m | 4.2m/s | -51.4°C | 0% | 0hPa | 0V | 00:00:00 | 00:00:00 | 00:00:00 | |
| DB0NH | 2026-09-05 12:34:38 | 51.23448 | 17.41725 | 104° | 33km/h | 20941m | 4.3m/s | 0°C | 0% | 0hPa | 0V | 00:00:00 | 00:00:00 | 00:00:00 | |
| SQ6EMJ | 2026-09-05 12:34:35 | 51.23455 | 17.41684 | 108° | 38km/h | 20928m | 3.4m/s | -51.4°C | 0% | 0hPa | 0V | 00:00:00 | 00:00:00 | 00:00:00 | |
| DO3MHA-12 | 2026-09-05 12:34:32 | 51.23459 | 17.41658 | 99° | 31km/h | 20918m | 3.0m/s | 0°C | 0% | 0hPa | 0V | 00:00:00 | 00:00:00 | 00:00:00 | |
| OE5DRO-10 | 2026-09-05 12:34:30 | 51.23460 | 17.41639 | 98° | 33km/h | 20910m | 4.0m/s | 0°C | 0% | 0hPa | 0V | 00:00:00 | 00:00:00 | 00:00:00 | |
| POL1PZ | 2026-09-05 12:34:29 | 51.23462 | 17.41627 | 105° | 35km/h | 20910m | 4.1m/s | -51.3°C | 0% | 0hPa | 0V | 00:00:00 | 00:00:00 | 00:00:00 | |
| SQ6EMJ | 2026-09-05 12:34:28 | 51.23464 | 17.41612 | 103° | 40km/h | 20906m | 3.2m/s | -51.3°C | 0% | 0hPa | 0V | 00:00:00 | 00:00:00 | 00:00:00 | |
| SQ6EMJ | 2026-09-05 12:34:24 | 51.23468 | 17.41547 | 101° | 40km/h | 20887m | 3.6m/s | -51.3°C | 0% | 0hPa | 0V | 00:00:00 | 00:00:00 | 00:00:00 | |
| SP6BVK | 2026-09-05 12:34:23 | 51.23468 | 17.41547 | 101° | 40km/h | 20887m | 3.6m/s | -51.3°C | 0% | 0hPa | 0V | 00:00:00 | 00:00:00 | 00:00:00 | |
| DO3MHA-12 | 2026-09-05 12:34:22 | 51.23469 | 17.41533 | 96° | 37km/h | 20878m | 3.8m/s | 0°C | 0% | 0hPa | 0V | 00:00:00 | 00:00:00 | 00:00:00 | |
| SQ6EMJ | 2026-09-05 12:34:18 | 51.23470 | 17.41464 | 90° | 37km/h | 20864m | 4.6m/s | -51.2°C | 0% | 0hPa | 0V | 00:00:00 | 00:00:00 | 00:00:00 | |
| DO3MHA-12 | 2026-09-05 12:34:12 | 51.23470 | 17.41386 | 86° | 38km/h | 20840m | 3.8m/s | 0°C | 0% | 0hPa | 0V | 00:00:00 | 00:00:00 | 00:00:00 | |
| OE5DRO-10 | 2026-09-05 12:34:11 | 51.23469 | 17.41374 | 86° | 40km/h | 20836m | 2.9m/s | 0°C | 0% | 0hPa | 0V | 00:00:00 | 00:00:00 | 00:00:00 | |
| POL1PZ | 2026-09-05 12:34:09 | 51.23468 | 17.41330 | 93° | 47km/h | 20829m | 3.7m/s | -51.3°C | 0% | 0hPa | 0V | 00:00:00 | 00:00:00 | 00:00:00 | |
| DB0NH | 2026-09-05 12:34:08 | 51.23468 | 17.41328 | 89° | 40km/h | 20825m | 3.3m/s | 0°C | 0% | 0hPa | 0V | 00:00:00 | 00:00:00 | 00:00:00 | |
| SQ6EMJ | 2026-09-05 12:34:07 | 51.23468 | 17.41293 | 87° | 40km/h | 20821m | 4.1m/s | -51.5°C | 0% | 0hPa | 0V | 00:00:00 | 00:00:00 | 00:00:00 | |
| DO3MHA-12 | 2026-09-05 12:34:02 | 51.23462 | 17.41230 | 91° | 40km/h | 20802m | 3.3m/s | 0°C | 0% | 0hPa | 0V | 00:00:00 | 00:00:00 | 00:00:00 | |
| SQ6EMJ | 2026-09-05 12:34:01 | 51.23460 | 17.41195 | 79° | 37km/h | 20798m | 4.1m/s | -51.5°C | 0% | 0hPa | 0V | 00:00:00 | 00:00:00 | 00:00:00 | |
| SQ6EMJ | 2026-09-05 12:33:56 | 51.23452 | 17.41117 | 76° | 37km/h | 20779m | 3.9m/s | -51.5°C | 0% | 0hPa | 0V | 00:00:00 | 00:00:00 | 00:00:00 | |
| DO3MHA-12 | 2026-09-05 12:33:52 | 51.23445 | 17.41074 | 82° | 38km/h | 20764m | 3.1m/s | 0°C | 0% | 0hPa | 0V | 00:00:00 | 00:00:00 | 00:00:00 | |
| SQ6EMJ | 2026-09-05 12:33:50 | 51.23438 | 17.41027 | 68° | 33km/h | 20757m | 3.8m/s | -51.5°C | 0% | 0hPa | 0V | 00:00:00 | 00:00:00 | 00:00:00 | |
| POL1PZ | 2026-09-05 12:33:48 | 51.23436 | 17.41015 | 73° | 31km/h | 20753m | 3.2m/s | -51.7°C | 0% | 0hPa | 0V | 00:00:00 | 00:00:00 | 00:00:00 | |
| SQ6EMJ | 2026-09-05 12:33:44 | 51.23428 | 17.40953 | 70° | 33km/h | 20738m | 4.1m/s | -51.6°C | 0% | 0hPa | 0V | 00:00:00 | 00:00:00 | 00:00:00 | |
| DO3MHA-12 | 2026-09-05 12:33:42 | 51.23421 | 17.40930 | 78° | 37km/h | 20726m | 4.1m/s | 0°C | 0% | 0hPa | 0V | 00:00:00 | 00:00:00 | 00:00:00 | |
| SQ6EMJ | 2026-09-05 12:33:39 | 51.23407 | 17.40873 | 58° | 29km/h | 20716m | 3.2m/s | -51.9°C | 0% | 0hPa | 0V | 00:00:00 | 00:00:00 | 00:00:00 | |
| DB0NH | 2026-09-05 12:33:38 | 51.23407 | 17.40873 | 58° | 37km/h | 20712m | 4.4m/s | 0°C | 0% | 0hPa | 0V | 00:00:00 | 00:00:00 | 00:00:00 | |
| SQ6EMJ | 2026-09-05 12:33:33 | 51.23382 | 17.40796 | 53° | 33km/h | 20694m | 3.0m/s | -51.8°C | 0% | 0hPa | 0V | 00:00:00 | 00:00:00 | 00:00:00 | |
| DO3MHA-12 | 2026-09-05 12:33:32 | 51.23382 | 17.40796 | 53° | 38km/h | 20691m | 3.8m/s | 0°C | 0% | 0hPa | 0V | 00:00:00 | 00:00:00 | 00:00:00 | |
| POL1PZ | 2026-09-05 12:33:27 | 51.23360 | 17.40729 | 51° | 35km/h | 20676m | 3.6m/s | -51.8°C | 0% | 0hPa | 0V | 00:00:00 | 00:00:00 | 00:00:00 | |
| DO3MHA-12 | 2026-09-05 12:33:22 | 51.23331 | 17.40664 | 42° | 37km/h | 20653m | 2.9m/s | 0°C | 0% | 0hPa | 0V | 00:00:00 | 00:00:00 | 00:00:00 | |
| SP6BVK | 2026-09-05 12:33:21 | 51.23323 | 17.40653 | 40° | 37km/h | 20653m | 2.9m/s | -52.1°C | 0% | 0hPa | 0V | 00:00:00 | 00:00:00 | 00:00:00 | |
| SQ6EMJ | 2026-09-05 12:33:16 | 51.23295 | 17.40598 | 36° | 37km/h | 20635m | 3.2m/s | -52.4°C | 0% | 0hPa | 0V | 00:00:00 | 00:00:00 | 00:00:00 | |
| OE5DRO-10 | 2026-09-05 12:33:14 | 51.23282 | 17.40577 | 59° | 35km/h | 20624m | 2.9m/s | 0°C | 0% | 0hPa | 0V | 00:00:00 | 00:00:00 | 00:00:00 | |
| DO3MHA-12 | 2026-09-05 12:33:12 | 51.23272 | 17.40553 | 33° | 35km/h | 20613m | 4.1m/s | 0°C | 0% | 0hPa | 0V | 00:00:00 | 00:00:00 | 00:00:00 | |
| SQ6EMJ | 2026-09-05 12:33:11 | 51.23257 | 17.40536 | 44° | 37km/h | 20613m | 4.1m/s | -52.4°C | 0% | 0hPa | 0V | 00:00:00 | 00:00:00 | 00:00:00 | |
| DB0NH | 2026-09-05 12:33:08 | 51.23247 | 17.40515 | 59° | 29km/h | 20602m | 4.3m/s | 0°C | 0% | 0hPa | 0V | 00:00:00 | 00:00:00 | 00:00:00 | |
| POL1PZ | 2026-09-05 12:33:07 | 51.23235 | 17.40494 | 34° | 38km/h | 20598m | 3.8m/s | -52.2°C | 0% | 0hPa | 0V | 00:00:00 | 00:00:00 | 00:00:00 | |
| SQ6EMJ | 2026-09-05 12:33:05 | 51.23221 | 17.40474 | 56° | 33km/h | 20591m | 4.1m/s | -52.1°C | 0% | 0hPa | 0V | 00:00:00 | 00:00:00 | 00:00:00 | |
| DO3MHA-12 | 2026-09-05 12:33:02 | 51.23213 | 17.40451 | 51° | 33km/h | 20579m | 3.8m/s | 0°C | 0% | 0hPa | 0V | 00:00:00 | 00:00:00 | 00:00:00 | |
| SP6BVK | 2026-09-05 12:33:01 | 51.23206 | 17.40442 | 34° | 37km/h | 20579m | 3.9m/s | -52.1°C | 0% | 0hPa | 0V | 00:00:00 | 00:00:00 | 00:00:00 | |
| SQ6EMJ | 2026-09-05 12:33:00 | 51.23195 | 17.40423 | 64° | 29km/h | 20572m | 4.8m/s | -51.9°C | 0% | 0hPa | 0V | 00:00:00 | 00:00:00 | 00:00:00 | |
| OE5DRO-10 | 2026-09-05 12:32:55 | 51.23173 | 17.40386 | 48° | 31km/h | 20552m | 3.8m/s | 0°C | 0% | 0hPa | 0V | 00:00:00 | 00:00:00 | 00:00:00 | |
| SQ6EMJ | 2026-09-05 12:32:54 | 51.23164 | 17.40364 | 57° | 33km/h | 20549m | 3.9m/s | -51.9°C | 0% | 0hPa | 0V | 00:00:00 | 00:00:00 | 00:00:00 | |
| DO3MHA-12 | 2026-09-05 12:32:53 | 51.23158 | 17.40354 | 33° | 33km/h | 20542m | 3.1m/s | 0°C | 0% | 0hPa | 0V | 00:00:00 | 00:00:00 | 00:00:00 | |
| SQ6EMJ | 2026-09-05 12:32:49 | 51.23136 | 17.40316 | 70° | 31km/h | 20531m | 3.4m/s | -52.1°C | 0% | 0hPa | 0V | 00:00:00 | 00:00:00 | 00:00:00 | |
| POL1PZ | 2026-09-05 12:32:46 | 51.23120 | 17.40287 | 42° | 33km/h | 20520m | 3.5m/s | -51.9°C | 0% | 0hPa | 0V | 00:00:00 | 00:00:00 | 00:00:00 | |
| SQ6EMJ | 2026-09-05 12:32:43 | 51.23108 | 17.40256 | 61° | 29km/h | 20510m | 3.8m/s | -52.0°C | 0% | 0hPa | 0V | 00:00:00 | 00:00:00 | 00:00:00 | |
| DO3MHA-12 | 2026-09-05 12:32:42 | 51.23107 | 17.40256 | 60° | 31km/h | 20506m | 3.6m/s | 0°C | 0% | 0hPa | 0V | 00:00:00 | 00:00:00 | 00:00:00 | |
| SP6BVK | 2026-09-05 12:32:41 | 51.23096 | 17.40240 | 40° | 33km/h | 20502m | 2.9m/s | -52.0°C | 0% | 0hPa | 0V | 00:00:00 | 00:00:00 | 00:00:00 | |
| OE5DRO-10 | 2026-09-05 12:32:36 | 51.23078 | 17.40201 | 38° | 29km/h | 20480m | 4.2m/s | 0°C | 0% | 0hPa | 0V | 00:00:00 | 00:00:00 | 00:00:00 | |
| DO3MHA-12 | 2026-09-05 12:32:32 | 51.23062 | 17.40159 | 61° | 31km/h | 20469m | 3.7m/s | 0°C | 0% | 0hPa | 0V | 00:00:00 | 00:00:00 | 00:00:00 | |
| SQ6EMJ | 2026-09-05 12:32:31 | 51.23057 | 17.40150 | 46° | 29km/h | 20469m | 3.8m/s | -51.9°C | 0% | 0hPa | 0V | 00:00:00 | 00:00:00 | 00:00:00 | |
| SQ6EMJ | 2026-09-05 12:32:26 | 51.23032 | 17.40093 | 39° | 27km/h | 20447m | 3.5m/s | -51.7°C | 0% | 0hPa | 0V | 00:00:00 | 00:00:00 | 00:00:00 | |
| POL1PZ | 2026-09-05 12:32:24 | 51.23028 | 17.40085 | 60° | 26km/h | 20444m | 4.4m/s | -51.6°C | 0% | 0hPa | 0V | 00:00:00 | 00:00:00 | 00:00:00 | |
| SQ6EMJ | 2026-09-05 12:32:21 | 51.23014 | 17.40047 | 43° | 27km/h | 20428m | 3.0m/s | -51.5°C | 0% | 0hPa | 0V | 00:00:00 | 00:00:00 | 00:00:00 | |
| SP6BVK | 2026-09-05 12:32:20 | 51.23014 | 17.40047 | 43° | 27km/h | 20428m | 3.0m/s | -51.5°C | 0% | 0hPa | 0V | 00:00:00 | 00:00:00 | 00:00:00 | |
| OE5DRO-10 | 2026-09-05 12:32:16 | 51.23003 | 17.40010 | 45° | 26km/h | 20408m | 3.2m/s | 0°C | 0% | 0hPa | 0V | 00:00:00 | 00:00:00 | 00:00:00 | |
| SQ6EMJ | 2026-09-05 12:32:15 | 51.22995 | 17.39993 | 69° | 27km/h | 20405m | 4.3m/s | -51.4°C | 0% | 0hPa | 0V | 00:00:00 | 00:00:00 | 00:00:00 | |
| SQ6EMJ | 2026-09-05 12:32:09 | 51.22976 | 17.39939 | 73° | 27km/h | 20382m | 3.9m/s | -51.0°C | 0% | 0hPa | 0V | 00:00:00 | 00:00:00 | 00:00:00 | |
| SQ6EMJ | 2026-09-05 12:32:04 | 51.22961 | 17.39895 | 65° | 27km/h | 20363m | 3.9m/s | -50.9°C | 0% | 0hPa | 0V | 00:00:00 | 00:00:00 | 00:00:00 | |
| EDDB2-12 | 2026-09-05 12:32:03 | 51.22959 | 17.39885 | 79° | 26km/h | 20359m | 3.1m/s | -51.8°C | -1.0% | -1.0hPa | 0V | 00:00:00 | 00:00:00 | 00:00:00 | |
| SP6BVK | 2026-09-05 12:31:59 | 51.22949 | 17.39860 | 44° | 24km/h | 20348m | 3.4m/s | -51.1°C | 0% | 0hPa | 0V | 00:00:00 | 00:00:00 | 00:00:00 | |
| SQ6EMJ | 2026-09-05 12:31:58 | 51.22943 | 17.39844 | 80° | 27km/h | 20341m | 3.7m/s | -50.9°C | 0% | 0hPa | 0V | 00:00:00 | 00:00:00 | 00:00:00 | |
| OE5DRO-10 | 2026-09-05 12:31:57 | 51.22943 | 17.39843 | 79° | 24km/h | 20337m | 3.5m/s | 0°C | 0% | 0hPa | 0V | 00:00:00 | 00:00:00 | 00:00:00 | |
| DB0NH | 2026-09-05 12:31:56 | 51.22941 | 17.39831 | 47° | 24km/h | 20333m | 4.5m/s | 0°C | 0% | 0hPa | 0V | 00:00:00 | 00:00:00 | 00:00:00 | |
| SQ6EMJ | 2026-09-05 12:31:52 | 51.22928 | 17.39802 | 84° | 27km/h | 20321m | 3.4m/s | -51.0°C | 0% | 0hPa | 0V | 00:00:00 | 00:00:00 | 00:00:00 | |
| SQ6EMJ | 2026-09-05 12:31:47 | 51.22914 | 17.39751 | 62° | 22km/h | 20298m | 4.7m/s | -50.7°C | 0% | 0hPa | 0V | 00:00:00 | 00:00:00 | 00:00:00 | |
| POL1PZ | 2026-09-05 12:31:43 | 51.22905 | 17.39721 | 83° | 26km/h | 20281m | 3.3m/s | -50.7°C | 0% | 0hPa | 0V | 00:00:00 | 00:00:00 | 00:00:00 | |
| SQ6EMJ | 2026-09-05 12:31:41 | 51.22901 | 17.39705 | 54° | 16km/h | 20274m | 3.2m/s | -50.6°C | 0% | 0hPa | 0V | 00:00:00 | 00:00:00 | 00:00:00 | |
| SP6BVK | 2026-09-05 12:31:39 | 51.22898 | 17.39699 | 67° | 20km/h | 20270m | 4.0m/s | -50.7°C | 0% | 0hPa | 0V | 00:00:00 | 00:00:00 | 00:00:00 | |
| OE5DRO-10 | 2026-09-05 12:31:38 | 51.22896 | 17.39690 | 84° | 24km/h | 20259m | 4.2m/s | 0°C | 0% | 0hPa | 0V | 00:00:00 | 00:00:00 | 00:00:00 | |
| SQ6EMJ | 2026-09-05 12:31:36 | 51.22893 | 17.39663 | 65° | 16km/h | 20255m | 3.6m/s | -50.6°C | 0% | 0hPa | 0V | 00:00:00 | 00:00:00 | 00:00:00 | |
| SQ6EMJ | 2026-09-05 12:31:30 | 51.22885 | 17.39610 | 68° | 18km/h | 20233m | 3.2m/s | -50.6°C | 0% | 0hPa | 0V | 00:00:00 | 00:00:00 | 00:00:00 | |
| DB0NH | 2026-09-05 12:31:26 | 51.22884 | 17.39576 | 81° | 22km/h | 20217m | 4.4m/s | 0°C | 0% | 0hPa | 0V | 00:00:00 | 00:00:00 | 00:00:00 | |
| SQ6EMJ | 2026-09-05 12:31:25 | 51.22882 | 17.39560 | 75° | 20km/h | 20213m | 3.3m/s | -50.9°C | 0% | 0hPa | 0V | 00:00:00 | 00:00:00 | 00:00:00 | |
| POL1PZ | 2026-09-05 12:31:22 | 51.22880 | 17.39538 | 94° | 35km/h | 20205m | 3.3m/s | -50.8°C | 0% | 0hPa | 0V | 00:00:00 | 00:00:00 | 00:00:00 | |
| SP6BVK | 2026-09-05 12:31:19 | 51.22877 | 17.39502 | 84° | 24km/h | 20190m | 4.6m/s | -50.8°C | 0% | 0hPa | 0V | 00:00:00 | 00:00:00 | 00:00:00 | |
| OE3JTB-15 | 2026-09-05 12:31:18 | 51.22876 | 17.39491 | 89° | 22km/h | 20182m | 4.1m/s | 0°C | 0% | 0hPa | 0V | 00:00:00 | 00:00:00 | 00:00:00 | |
| SQ6EMJ | 2026-09-05 12:31:13 | 51.22872 | 17.39450 | 89° | 29km/h | 20166m | 4.1m/s | -50.9°C | 0% | 0hPa | 0V | 00:00:00 | 00:00:00 | 00:00:00 | |
| EDDB2-11 | 2026-09-05 12:31:07 | 51.22865 | 17.39401 | 72° | 20km/h | 20143m | 3.9m/s | -51.6°C | -1.0% | -1.0hPa | 0V | 00:00:00 | 00:00:00 | 00:00:00 | |
| SONDE2-11 | 2026-09-05 12:31:05 | 51.22861 | 17.39389 | 61° | 13km/h | 20135m | 3.4m/s | -51.7°C | -1.0% | -1.0hPa | 0V | 00:00:00 | 00:00:00 | 00:00:00 | |
| OE5DRO-10 | 2026-09-05 12:31:00 | 51.22854 | 17.39361 | 70° | 26km/h | 20116m | 4.0m/s | 0°C | 0% | 0hPa | 0V | 00:00:00 | 00:00:00 | 00:00:00 | |
| SP6BVK | 2026-09-05 12:30:57 | 51.22848 | 17.39333 | 80° | 29km/h | 20108m | 2.9m/s | -51.2°C | 0% | 0hPa | 0V | 00:00:00 | 00:00:00 | 00:00:00 | |
| DB0NH | 2026-09-05 12:30:56 | 51.22847 | 17.39323 | 51° | 29km/h | 20096m | 3.8m/s | 0°C | 0% | 0hPa | 0V | 00:00:00 | 00:00:00 | 00:00:00 | |
| NBG1-10 | 2026-09-05 12:30:53 | 51.22838 | 17.39301 | 75° | 27km/h | 20073m | 3.6m/s | 0°C | 0% | 0hPa | 0V | 00:00:00 | 00:00:00 | 00:00:00 | |
| SQ6EMJ | 2026-09-05 12:30:51 | 51.22831 | 17.39272 | 52° | 20km/h | 20081m | 3.4m/s | -51.1°C | 0% | 0hPa | 0V | 00:00:00 | 00:00:00 | 00:00:00 | |
| OE3JTB-15 | 2026-09-05 12:30:49 | 51.22824 | 17.39224 | 75° | 33km/h | 20065m | 3.9m/s | 0°C | 0% | 0hPa | 0V | 00:00:00 | 00:00:00 | 00:00:00 | |
| SQ6EMJ | 2026-09-05 12:30:45 | 51.22814 | 17.39216 | 63° | 27km/h | 20058m | 4.3m/s | -51.2°C | 0% | 0hPa | 0V | 00:00:00 | 00:00:00 | 00:00:00 | |
| OE5DRO-10 | 2026-09-05 12:30:41 | 51.22801 | 17.39172 | 55° | 33km/h | 20038m | 4.2m/s | 0°C | 0% | 0hPa | 0V | 00:00:00 | 00:00:00 | 00:00:00 | |
| SQ6EMJ | 2026-09-05 12:30:39 | 51.22797 | 17.39162 | 62° | 31km/h | 20038m | 4.2m/s | -51.2°C | 0% | 0hPa | 0V | 00:00:00 | 00:00:00 | 00:00:00 | |
| SP6BVK | 2026-09-05 12:30:37 | 51.22790 | 17.39136 | 70° | 35km/h | 20031m | 3.6m/s | -51.2°C | 0% | 0hPa | 0V | 00:00:00 | 00:00:00 | 00:00:00 | |
| SQ6EMJ | 2026-09-05 12:30:34 | 51.22775 | 17.39093 | 72° | 40km/h | 20015m | 3.8m/s | -51.2°C | 0% | 0hPa | 0V | 00:00:00 | 00:00:00 | 00:00:00 | |
| SQ6EMJ | 2026-09-05 12:30:28 | 51.22755 | 17.39034 | 73° | 38km/h | 19996m | 3.8m/s | -51.4°C | 0% | 0hPa | 0V | 00:00:00 | 00:00:00 | 00:00:00 | |
| DB0NH | 2026-09-05 12:30:26 | 51.22747 | 17.39006 | 45° | 37km/h | 19985m | 3.6m/s | 0°C | 0% | 0hPa | 0V | 00:00:00 | 00:00:00 | 00:00:00 | |
| OE5DRO-10 | 2026-09-05 12:30:23 | 51.22723 | 17.38946 | 60° | 38km/h | 19966m | 4.1m/s | 0°C | 0% | 0hPa | 0V | 00:00:00 | 00:00:00 | 00:00:00 | |
| OE3JTB-15 | 2026-09-05 12:30:20 | 51.22706 | 17.38913 | 63° | 37km/h | 19955m | 3.5m/s | 0°C | 0% | 0hPa | 0V | 00:00:00 | 00:00:00 | 00:00:00 | |
| SP6BVK | 2026-09-05 12:30:17 | 51.22696 | 17.38885 | 56° | 40km/h | 19951m | 4.3m/s | -51.4°C | 0% | 0hPa | 0V | 00:00:00 | 00:00:00 | 00:00:00 | |
| SQ6EMJ | 2026-09-05 12:30:12 | 51.22668 | 17.38822 | 48° | 37km/h | 19933m | 4.4m/s | -51.4°C | 0% | 0hPa | 0V | 00:00:00 | 00:00:00 | 00:00:00 | |
| SQ6EMJ | 2026-09-05 12:30:06 | 51.22634 | 17.38751 | 49° | 35km/h | 19911m | 3.0m/s | -51.4°C | 0% | 0hPa | 0V | 00:00:00 | 00:00:00 | 00:00:00 | |
| OE5DRO-10 | 2026-09-05 12:30:03 | 51.22625 | 17.38725 | 71° | 35km/h | 19899m | 4.2m/s | 0°C | 0% | 0hPa | 0V | 00:00:00 | 00:00:00 | 00:00:00 | |
| POL1PZ | 2026-09-05 12:30:02 | 51.22616 | 17.38699 | 45° | 33km/h | 19895m | 4.1m/s | -51.4°C | 0% | 0hPa | 0V | 00:00:00 | 00:00:00 | 00:00:00 | |
| SQ6EMJ | 2026-09-05 12:30:00 | 51.22610 | 17.38689 | 54° | 33km/h | 19892m | 3.6m/s | -51.4°C | 0% | 0hPa | 0V | 00:00:00 | 00:00:00 | 00:00:00 | |
| DB0NH | 2026-09-05 12:29:56 | 51.22595 | 17.38640 | 59° | 33km/h | 19872m | 3.6m/s | 0°C | 0% | 0hPa | 0V | 00:00:00 | 00:00:00 | 00:00:00 | |
| SQ6EMJ | 2026-09-05 12:29:55 | 51.22586 | 17.38614 | 70° | 38km/h | 19868m | 4.0m/s | -51.1°C | 0% | 0hPa | 0V | 00:00:00 | 00:00:00 | 00:00:00 | |
| SQ6EMJ | 2026-09-05 12:29:49 | 51.22567 | 17.38541 | 75° | 37km/h | 19845m | 4.1m/s | -51.1°C | 0% | 0hPa | 0V | 00:00:00 | 00:00:00 | 00:00:00 | |
| OE5DRO-10 | 2026-09-05 12:29:44 | 51.22554 | 17.38494 | 68° | 31km/h | 19828m | 3.7m/s | 0°C | 0% | 0hPa | 0V | 00:00:00 | 00:00:00 | 00:00:00 | |
| SQ6EMJ | 2026-09-05 12:29:43 | 51.22551 | 17.38482 | 72° | 33km/h | 19828m | 3.8m/s | -51.0°C | 0% | 0hPa | 0V | 00:00:00 | 00:00:00 | 00:00:00 | |
| POL1PZ | 2026-09-05 12:29:40 | 51.22539 | 17.38435 | 64° | 26km/h | 19814m | 3.2m/s | -51.0°C | 0% | 0hPa | 0V | 00:00:00 | 00:00:00 | 00:00:00 | |
| SQ6EMJ | 2026-09-05 12:29:38 | 51.22534 | 17.38412 | 75° | 38km/h | 19807m | 3.1m/s | -50.9°C | 0% | 0hPa | 0V | 00:00:00 | 00:00:00 | 00:00:00 | |
| SQ6EMJ | 2026-09-05 12:29:33 | 51.22519 | 17.38359 | 78° | 37km/h | 19789m | 3.6m/s | -50.8°C | 0% | 0hPa | 0V | 00:00:00 | 00:00:00 | 00:00:00 | |
| SQ6EMJ | 2026-09-05 12:29:27 | 51.22503 | 17.38296 | 75° | 33km/h | 19768m | 3.4m/s | -50.7°C | 0% | 0hPa | 0V | 00:00:00 | 00:00:00 | 00:00:00 | |
| DB0NH | 2026-09-05 12:29:26 | 51.22504 | 17.38295 | 75° | 22km/h | 19764m | 4.0m/s | 0°C | 0% | 0hPa | 0V | 00:00:00 | 00:00:00 | 00:00:00 | |
| OE5DRO-10 | 2026-09-05 12:29:25 | 51.22501 | 17.38284 | 69° | 22km/h | 19761m | 2.9m/s | 0°C | 0% | 0hPa | 0V | 00:00:00 | 00:00:00 | 00:00:00 | |
| SQ6EMJ | 2026-09-05 12:29:21 | 51.22490 | 17.38237 | 67° | 27km/h | 19747m | 4.0m/s | -50.6°C | 0% | 0hPa | 0V | 00:00:00 | 00:00:00 | 00:00:00 | |
| POL1PZ | 2026-09-05 12:29:19 | 51.22487 | 17.38230 | 57° | 15km/h | 19743m | 3.2m/s | -50.6°C | 0% | 0hPa | 0V | 00:00:00 | 00:00:00 | 00:00:00 | |
| SQ6EMJ | 2026-09-05 12:29:16 | 51.22479 | 17.38193 | 73° | 26km/h | 19729m | 3.2m/s | -50.4°C | 0% | 0hPa | 0V | 00:00:00 | 00:00:00 | 00:00:00 | |
| SP6BVK | 2026-09-05 12:29:15 | 51.22479 | 17.38193 | 73° | 26km/h | 19729m | 3.2m/s | -50.4°C | 0% | 0hPa | 0V | 00:00:00 | 00:00:00 | 00:00:00 | |
| SQ6EMJ | 2026-09-05 12:29:10 | 51.22469 | 17.38149 | 72° | 13km/h | 19706m | 3.2m/s | -50.6°C | 0% | 0hPa | 0V | 00:00:00 | 00:00:00 | 00:00:00 | |
| OE5DRO-10 | 2026-09-05 12:29:06 | 51.22466 | 17.38122 | 81° | 18km/h | 19689m | 3.9m/s | 0°C | 0% | 0hPa | 0V | 00:00:00 | 00:00:00 | 00:00:00 | |
| SQ6EMJ | 2026-09-05 12:29:04 | 51.22465 | 17.38108 | 82° | 18km/h | 19689m | 3.9m/s | -50.4°C | 0% | 0hPa | 0V | 00:00:00 | 00:00:00 | 00:00:00 | |
| EDDB2-11 | 2026-09-05 12:29:03 | 51.22464 | 17.38099 | 81° | 13km/h | 19682m | 3.5m/s | -51.0°C | -1.0% | -1.0hPa | 0V | 00:00:00 | 00:00:00 | 00:00:00 | |
| POL1PZ | 2026-09-05 12:28:59 | 51.22461 | 17.38066 | 82° | 15km/h | 19669m | 3.8m/s | -50.3°C | 0% | 0hPa | 0V | 00:00:00 | 00:00:00 | 00:00:00 | |
| DB0NH | 2026-09-05 12:28:56 | 51.22460 | 17.38056 | 88° | 20km/h | 19658m | 3.2m/s | 0°C | 0% | 0hPa | 0V | 00:00:00 | 00:00:00 | 00:00:00 | |
| SP6BVK | 2026-09-05 12:28:54 | 51.22459 | 17.38037 | 83° | 20km/h | 19654m | 4.2m/s | -50.4°C | 0% | 0hPa | 0V | 00:00:00 | 00:00:00 | 00:00:00 | |
| SQ6EMJ | 2026-09-05 12:28:53 | 51.22458 | 17.38027 | 86° | 13km/h | 19647m | 3.7m/s | -50.4°C | 0% | 0hPa | 0V | 00:00:00 | 00:00:00 | 00:00:00 | |
| SQ6EMJ | 2026-09-05 12:28:47 | 51.22457 | 17.37992 | 95° | 11km/h | 19627m | 3.2m/s | -50.1°C | 0% | 0hPa | 0V | 00:00:00 | 00:00:00 | 00:00:00 | |
| SQ6EMJ | 2026-09-05 12:28:42 | 51.22458 | 17.37948 | 85° | 18km/h | 19604m | 4.7m/s | -50.1°C | 0% | 0hPa | 0V | 00:00:00 | 00:00:00 | 00:00:00 | |
| POL1PZ | 2026-09-05 12:28:37 | 51.22459 | 17.37917 | 113° | 16km/h | 19588m | 3.1m/s | -50.0°C | 0% | 0hPa | 0V | 00:00:00 | 00:00:00 | 00:00:00 | |
| SQ6EMJ | 2026-09-05 12:28:36 | 51.22461 | 17.37910 | 101° | 20km/h | 19584m | 4.3m/s | -49.7°C | 0% | 0hPa | 0V | 00:00:00 | 00:00:00 | 00:00:00 | |
| SP6BVK | 2026-09-05 12:28:34 | 51.22462 | 17.37890 | 95° | 27km/h | 19576m | 3.2m/s | -49.8°C | 0% | 0hPa | 0V | 00:00:00 | 00:00:00 | 00:00:00 | |
| SQ6EMJ | 2026-09-05 12:28:31 | 51.22468 | 17.37859 | 102° | 26km/h | 19562m | 3.0m/s | -49.5°C | 0% | 0hPa | 0V | 00:00:00 | 00:00:00 | 00:00:00 | |
| OE3JTB-15 | 2026-09-05 12:28:27 | 51.22473 | 17.37828 | 121° | 27km/h | 19548m | 3.3m/s | 0°C | 0% | 0hPa | 0V | 00:00:00 | 00:00:00 | 00:00:00 | |
| DB0NH | 2026-09-05 12:28:26 | 51.22475 | 17.37822 | 112° | 29km/h | 19544m | 4.0m/s | 0°C | 0% | 0hPa | 0V | 00:00:00 | 00:00:00 | 00:00:00 | |
| SQ6EMJ | 2026-09-05 12:28:25 | 51.22479 | 17.37803 | 99° | 29km/h | 19540m | 2.9m/s | -49.7°C | 0% | 0hPa | 0V | 00:00:00 | 00:00:00 | 00:00:00 | |
| OE5DRO-10 | 2026-09-05 12:28:24 | 51.22482 | 17.37787 | 118° | 26km/h | 19529m | 3.1m/s | 0°C | 0% | 0hPa | 0V | 00:00:00 | 00:00:00 | 00:00:00 | |
| SQ6EMJ | 2026-09-05 12:28:20 | 51.22487 | 17.37763 | 96° | 31km/h | 19522m | 3.4m/s | -49.9°C | 0% | 0hPa | 0V | 00:00:00 | 00:00:00 | 00:00:00 | |
| NBG1-10 | 2026-09-05 12:28:17 | 51.22492 | 17.37740 | 124° | 35km/h | 19515m | 3.8m/s | 0°C | 0% | 0hPa | 0V | 00:00:00 | 00:00:00 | 00:00:00 | |
| SQ6EMJ | 2026-09-05 12:28:14 | 51.22504 | 17.37699 | 109° | 38km/h | 19502m | 1.9m/s | -50.4°C | 0% | 0hPa | 0V | 00:00:00 | 00:00:00 | 00:00:00 | |
| SP6BVK | 2026-09-05 12:28:13 | 51.22504 | 17.37699 | 109° | 38km/h | 19502m | 1.9m/s | -50.4°C | 0% | 0hPa | 0V | 00:00:00 | 00:00:00 | 00:00:00 | |
| SQ6EMJ | 2026-09-05 12:28:08 | 51.22516 | 17.37641 | 109° | 38km/h | 19486m | 2.5m/s | -50.5°C | 0% | 0hPa | 0V | 00:00:00 | 00:00:00 | 00:00:00 | |
| OE5DRO-10 | 2026-09-05 12:28:05 | 51.22522 | 17.37606 | 101° | 35km/h | 19459m | 3.3m/s | 0°C | 0% | 0hPa | 0V | 00:00:00 | 00:00:00 | 00:00:00 | |
| SQ6EMJ | 2026-09-05 12:28:03 | 51.22530 | 17.37565 | 108° | 37km/h | 19466m | 3.8m/s | -50.3°C | 0% | 0hPa | 0V | 00:00:00 | 00:00:00 | 00:00:00 | |
| OE3JTB-15 | 2026-09-05 12:27:58 | 51.22539 | 17.37516 | 112° | 40km/h | 19445m | 4.0m/s | 0°C | 0% | 0hPa | 0V | 00:00:00 | 00:00:00 | 00:00:00 | |
| SQ6EMJ | 2026-09-05 12:27:57 | 51.22545 | 17.37486 | 114° | 33km/h | 19445m | 4.0m/s | -50.1°C | 0% | 0hPa | 0V | 00:00:00 | 00:00:00 | 00:00:00 | |
| DB0NH | 2026-09-05 12:27:56 | 51.22545 | 17.37486 | 113° | 40km/h | 19442m | 3.5m/s | 0°C | 0% | 0hPa | 0V | 00:00:00 | 00:00:00 | 00:00:00 | |
| SP6BVK | 2026-09-05 12:27:53 | 51.22553 | 17.37450 | 110° | 38km/h | 19435m | 4.2m/s | -50.0°C | 0% | 0hPa | 0V | 00:00:00 | 00:00:00 | 00:00:00 | |
| SQ6EMJ | 2026-09-05 12:27:51 | 51.22560 | 17.37419 | 117° | 40km/h | 19428m | 3.3m/s | -50.2°C | 0% | 0hPa | 0V | 00:00:00 | 00:00:00 | 00:00:00 | |
| SQ6EMJ | 2026-09-05 12:27:46 | 51.22579 | 17.37334 | 107° | 42km/h | 19405m | 3.7m/s | -50.4°C | 0% | 0hPa | 0V | 00:00:00 | 00:00:00 | 00:00:00 | |
| NBG1-10 | 2026-09-05 12:27:44 | 51.22582 | 17.37319 | 107° | 46km/h | 19397m | 3.2m/s | 0°C | 0% | 0hPa | 0V | 00:00:00 | 00:00:00 | 00:00:00 | |
| SQ6EMJ | 2026-09-05 12:27:40 | 51.22590 | 17.37256 | 97° | 51km/h | 19386m | 3.1m/s | -50.5°C | 0% | 0hPa | 0V | 00:00:00 | 00:00:00 | 00:00:00 | |
| POL1PZ | 2026-09-05 12:27:36 | 51.22597 | 17.37192 | 100° | 44km/h | 19371m | 3.9m/s | -50.1°C | 0% | 0hPa | 0V | 00:00:00 | 00:00:00 | 00:00:00 | |
| SQ6EMJ | 2026-09-05 12:27:35 | 51.22600 | 17.37152 | 102° | 46km/h | 19364m | 3.9m/s | -50.2°C | 0% | 0hPa | 0V | 00:00:00 | 00:00:00 | 00:00:00 | |
| SP6BVK | 2026-09-05 12:27:32 | 51.22604 | 17.37121 | 100° | 38km/h | 19357m | 3.2m/s | -50.1°C | 0% | 0hPa | 0V | 00:00:00 | 00:00:00 | 00:00:00 | |
| OE3JTB-15 | 2026-09-05 12:27:29 | 51.22608 | 17.37063 | 105° | 46km/h | 19342m | 3.4m/s | 0°C | 0% | 0hPa | 0V | 00:00:00 | 00:00:00 | 00:00:00 | |
| SQ6EMJ | 2026-09-05 12:27:28 | 51.22610 | 17.37047 | 105° | 38km/h | 19342m | 3.5m/s | -50.1°C | 0% | 0hPa | 0V | 00:00:00 | 00:00:00 | 00:00:00 | |
| DB0NH | 2026-09-05 12:27:26 | 51.22613 | 17.37012 | 97° | 46km/h | 19333m | 2.7m/s | 0°C | 0% | 0hPa | 0V | 00:00:00 | 00:00:00 | 00:00:00 | |
| SQ6EMJ | 2026-09-05 12:27:23 | 51.22614 | 17.36950 | 93° | 42km/h | 19326m | 4.1m/s | -50.4°C | 0% | 0hPa | 0V | 00:00:00 | 00:00:00 | 00:00:00 | |
| SQ6EMJ | 2026-09-05 12:27:18 | 51.22616 | 17.36837 | 91° | 40km/h | 19305m | 3.1m/s | -50.9°C | 0% | 0hPa | 0V | 00:00:00 | 00:00:00 | 00:00:00 | |
| POL1PZ | 2026-09-05 12:27:16 | 51.22614 | 17.36798 | 87° | 57km/h | 19298m | 3.2m/s | -51.1°C | 0% | 0hPa | 0V | 00:00:00 | 00:00:00 | 00:00:00 | |
| SQ6EMJ | 2026-09-05 12:27:13 | 51.22612 | 17.36744 | 86° | 40km/h | 19287m | 3.3m/s | -51.2°C | 0% | 0hPa | 0V | 00:00:00 | 00:00:00 | 00:00:00 | |
| NBG1-10 | 2026-09-05 12:27:11 | 51.22611 | 17.36727 | 86° | 40km/h | 19281m | 3.3m/s | 0°C | 0% | 0hPa | 0V | 00:00:00 | 00:00:00 | 00:00:00 | |
| SQ6EMJ | 2026-09-05 12:27:07 | 51.22603 | 17.36635 | 80° | 55km/h | 19266m | 3.7m/s | -51.2°C | 0% | 0hPa | 0V | 00:00:00 | 00:00:00 | 00:00:00 | |
| SQ6EMJ | 2026-09-05 12:27:01 | 51.22592 | 17.36523 | 82° | 51km/h | 19244m | 2.9m/s | -51.8°C | 0% | 0hPa | 0V | 00:00:00 | 00:00:00 | 00:00:00 | |
| OE3JTB-15 | 2026-09-05 12:27:00 | 51.22592 | 17.36523 | 81° | 40km/h | 19241m | 3.9m/s | 0°C | 0% | 0hPa | 0V | 00:00:00 | 00:00:00 | 00:00:00 | |
| DB0NH | 2026-09-05 12:26:56 | 51.22590 | 17.36456 | 85° | 40km/h | 19226m | 3.2m/s | 0°C | 0% | 0hPa | 0V | 00:00:00 | 00:00:00 | 00:00:00 | |
| SP6BVK | 2026-09-05 12:26:52 | 51.22586 | 17.36377 | 83° | 44km/h | 19211m | 3.5m/s | -52.2°C | 0% | 0hPa | 0V | 00:00:00 | 00:00:00 | 00:00:00 | |
| SQ6EMJ | 2026-09-05 12:26:50 | 51.22583 | 17.36342 | 92° | 38km/h | 19205m | 4.3m/s | -52.3°C | 0% | 0hPa | 0V | 00:00:00 | 00:00:00 | 00:00:00 | |
| SQ6EMJ | 2026-09-05 12:26:45 | 51.22584 | 17.36263 | 98° | 35km/h | 19184m | 4.1m/s | -52.3°C | 0% | 0hPa | 0V | 00:00:00 | 00:00:00 | 00:00:00 | |
| SQ6EMJ | 2026-09-05 12:26:39 | 51.22585 | 17.36170 | 103° | 33km/h | 19162m | 3.3m/s | -52.1°C | 0% | 0hPa | 0V | 00:00:00 | 00:00:00 | 00:00:00 | |
| POL1PZ | 2026-09-05 12:26:35 | 51.22585 | 17.36106 | 90° | 38km/h | 19147m | 4.5m/s | -52.1°C | 0% | 0hPa | 0V | 00:00:00 | 00:00:00 | 00:00:00 | |
| SQ6EMJ | 2026-09-05 12:26:33 | 51.22588 | 17.36079 | 103° | 35km/h | 19140m | 3.2m/s | -52.2°C | 0% | 0hPa | 0V | 00:00:00 | 00:00:00 | 00:00:00 | |
| OE3JTB-15 | 2026-09-05 12:26:31 | 51.22589 | 17.36064 | 90° | 40km/h | 19132m | 3.4m/s | 0°C | 0% | 0hPa | 0V | 00:00:00 | 00:00:00 | 00:00:00 | |
| SQ6EMJ | 2026-09-05 12:26:27 | 51.22593 | 17.36002 | 101° | 40km/h | 19122m | 3.6m/s | -52.6°C | 0% | 0hPa | 0V | 00:00:00 | 00:00:00 | 00:00:00 | |
| DB0NH | 2026-09-05 12:26:26 | 51.22594 | 17.35986 | 87° | 40km/h | 19098m | 4.3m/s | 0°C | 0% | 0hPa | 0V | 00:00:00 | 00:00:00 | 00:00:00 | |
| SQ6EMJ | 2026-09-05 12:26:22 | 51.22597 | 17.35905 | 86° | 44km/h | 19098m | 4.4m/s | -52.7°C | 0% | 0hPa | 0V | 00:00:00 | 00:00:00 | 00:00:00 | |
| SQ6EMJ | 2026-09-05 12:26:16 | 51.22599 | 17.35821 | 89° | 44km/h | 19080m | 4.2m/s | -52.9°C | 0% | 0hPa | 0V | 00:00:00 | 00:00:00 | 00:00:00 | |
| POL1PZ | 2026-09-05 12:26:14 | 51.22596 | 17.35786 | 87° | 42km/h | 19072m | 3.8m/s | -53.1°C | 0% | 0hPa | 0V | 00:00:00 | 00:00:00 | 00:00:00 | |
| SP6BVK | 2026-09-05 12:26:11 | 51.22595 | 17.35720 | 80° | 44km/h | 19057m | 3.5m/s | -53.1°C | 0% | 0hPa | 0V | 00:00:00 | 00:00:00 | 00:00:00 | |
| SQ6EMJ | 2026-09-05 12:26:05 | 51.22588 | 17.35621 | 85° | 40km/h | 19035m | 4.7m/s | -52.9°C | 0% | 0hPa | 0V | 00:00:00 | 00:00:00 | 00:00:00 | |
| OE3JTB-15 | 2026-09-05 12:26:02 | 51.22588 | 17.35591 | 89° | 40km/h | 19023m | 3.7m/s | 0°C | 0% | 0hPa | 0V | 00:00:00 | 00:00:00 | 00:00:00 | |
| SQ6EMJ | 2026-09-05 12:25:59 | 51.22582 | 17.35540 | 82° | 42km/h | 19016m | 4.4m/s | -52.8°C | 0% | 0hPa | 0V | 00:00:00 | 00:00:00 | 00:00:00 | |
| SQ6EMJ | 2026-09-05 12:25:54 | 51.22573 | 17.35446 | 81° | 38km/h | 18993m | 4.5m/s | -52.9°C | 0% | 0hPa | 0V | 00:00:00 | 00:00:00 | 00:00:00 | |
| POL1PZ | 2026-09-05 12:25:53 | 51.22573 | 17.35446 | 81° | 38km/h | 18993m | 4.5m/s | -52.9°C | 0% | 0hPa | 0V | 00:00:00 | 00:00:00 | 00:00:00 | |
| DB0NH | 2026-09-05 12:25:51 | 51.22572 | 17.35416 | 84° | 38km/h | 18981m | 4.4m/s | 0°C | 0% | 0hPa | 0V | 00:00:00 | 00:00:00 | 00:00:00 | |
| SP6BVK | 2026-09-05 12:25:50 | 51.22567 | 17.35384 | 66° | 44km/h | 18977m | 3.2m/s | -52.9°C | 0% | 0hPa | 0V | 00:00:00 | 00:00:00 | 00:00:00 | |
| SQ6EMJ | 2026-09-05 12:25:49 | 51.22563 | 17.35369 | 77° | 42km/h | 18973m | 4.5m/s | -52.9°C | 0% | 0hPa | 0V | 00:00:00 | 00:00:00 | 00:00:00 | |
| SQ6EMJ | 2026-09-05 12:25:43 | 51.22551 | 17.35276 | 90° | 38km/h | 18950m | 3.5m/s | -52.9°C | 0% | 0hPa | 0V | 00:00:00 | 00:00:00 | 00:00:00 | |
| SQ6EMJ | 2026-09-05 12:25:36 | 51.22536 | 17.35185 | 73° | 35km/h | 18927m | 4.5m/s | -53.0°C | 0% | 0hPa | 0V | 00:00:00 | 00:00:00 | 00:00:00 | |
| OE3JTB-15 | 2026-09-05 12:25:33 | 51.22526 | 17.35140 | 84° | 35km/h | 18911m | 3.5m/s | 0°C | 0% | 0hPa | 0V | 00:00:00 | 00:00:00 | 00:00:00 | |
| SQ6EMJ | 2026-09-05 12:25:31 | 51.22523 | 17.35111 | 68° | 37km/h | 18907m | 4.6m/s | -52.7°C | 0% | 0hPa | 0V | 00:00:00 | 00:00:00 | 00:00:00 | |
| SP6BVK | 2026-09-05 12:25:29 | 51.22517 | 17.35084 | 79° | 37km/h | 18899m | 4.6m/s | -52.9°C | 0% | 0hPa | 0V | 00:00:00 | 00:00:00 | 00:00:00 | |
| SQ6EMJ | 2026-09-05 12:25:26 | 51.22508 | 17.35029 | 70° | 33km/h | 18884m | 3.8m/s | -52.8°C | 0% | 0hPa | 0V | 00:00:00 | 00:00:00 | 00:00:00 | |
| DB0NH | 2026-09-05 12:25:21 | 51.22502 | 17.34975 | 60° | 35km/h | 18865m | 4.3m/s | 0°C | 0% | 0hPa | 0V | 00:00:00 | 00:00:00 | 00:00:00 | |
| SQ6EMJ | 2026-09-05 12:25:20 | 51.22499 | 17.34962 | 77° | 33km/h | 18865m | 4.3m/s | -52.8°C | 0% | 0hPa | 0V | 00:00:00 | 00:00:00 | 00:00:00 | |
| NBG1-10 | 2026-09-05 12:25:19 | 51.22498 | 17.34949 | 94° | 47km/h | 18856m | 4.2m/s | 0°C | 0% | 0hPa | 0V | 00:00:00 | 00:00:00 | 00:00:00 | |
| SQ6EMJ | 2026-09-05 12:25:15 | 51.22488 | 17.34880 | 87° | 35km/h | 18841m | 3.2m/s | -52.6°C | 0% | 0hPa | 0V | 00:00:00 | 00:00:00 | 00:00:00 | |
| POL1PZ | 2026-09-05 12:25:12 | 51.22483 | 17.34856 | 59° | 33km/h | 18834m | 3.4m/s | -52.5°C | 0% | 0hPa | 0V | 00:00:00 | 00:00:00 | 00:00:00 | |
| SP6BVK | 2026-09-05 12:25:09 | 51.22476 | 17.34803 | 68° | 33km/h | 18818m | 3.8m/s | -52.3°C | 0% | 0hPa | 0V | 00:00:00 | 00:00:00 | 00:00:00 | |
| OE3JTB-15 | 2026-09-05 12:25:04 | 51.22469 | 17.34748 | 84° | 38km/h | 18800m | 3.7m/s | 0°C | 0% | 0hPa | 0V | 00:00:00 | 00:00:00 | 00:00:00 | |
| SQ6EMJ | 2026-09-05 12:25:03 | 51.22467 | 17.34735 | 65° | 35km/h | 18800m | 3.8m/s | -52.0°C | 0% | 0hPa | 0V | 00:00:00 | 00:00:00 | 00:00:00 | |
| SQ6EMJ | 2026-09-05 12:24:58 | 51.22458 | 17.34651 | 76° | 35km/h | 18777m | 3.3m/s | -52.2°C | 0% | 0hPa | 0V | 00:00:00 | 00:00:00 | 00:00:00 | |
| SQ6EMJ | 2026-09-05 12:24:53 | 51.22456 | 17.34580 | 88° | 35km/h | 18758m | 4.3m/s | -52.0°C | 0% | 0hPa | 0V | 00:00:00 | 00:00:00 | 00:00:00 | |
| DB0NH | 2026-09-05 12:24:51 | 51.22457 | 17.34565 | 102° | 42km/h | 18750m | 3.4m/s | 0°C | 0% | 0hPa | 0V | 00:00:00 | 00:00:00 | 00:00:00 | |
| SP6BVK | 2026-09-05 12:24:48 | 51.22457 | 17.34520 | 84° | 37km/h | 18743m | 3.2m/s | -52.0°C | 0% | 0hPa | 0V | 00:00:00 | 00:00:00 | 00:00:00 | |
| POL1PZ | 2026-09-05 12:24:47 | 51.22459 | 17.34489 | 103° | 42km/h | 18735m | 2.9m/s | -52.0°C | 0% | 0hPa | 0V | 00:00:00 | 00:00:00 | 00:00:00 | |
| SQ6EMJ | 2026-09-05 12:24:41 | 51.22462 | 17.34395 | 95° | 38km/h | 18714m | 3.9m/s | -51.8°C | 0% | 0hPa | 0V | 00:00:00 | 00:00:00 | 00:00:00 | |
| SQ6EMJ | 2026-09-05 12:24:36 | 51.22466 | 17.34317 | 89° | 38km/h | 18696m | 4.1m/s | -51.8°C | 0% | 0hPa | 0V | 00:00:00 | 00:00:00 | 00:00:00 | |
| OE3JTB-15 | 2026-09-05 12:24:35 | 51.22466 | 17.34318 | 85° | 47km/h | 18693m | 2.6m/s | 0°C | 0% | 0hPa | 0V | 00:00:00 | 00:00:00 | 00:00:00 | |
| SQ6EMJ | 2026-09-05 12:24:30 | 51.22470 | 17.34218 | 94° | 44km/h | 18675m | 3.7m/s | -51.9°C | 0% | 0hPa | 0V | 00:00:00 | 00:00:00 | 00:00:00 | |
| SP6BVK | 2026-09-05 12:24:27 | 51.22474 | 17.34179 | 102° | 47km/h | 18668m | 3.3m/s | -52.0°C | 0% | 0hPa | 0V | 00:00:00 | 00:00:00 | 00:00:00 | |
| POL1PZ | 2026-09-05 12:24:26 | 51.22475 | 17.34161 | 91° | 46km/h | 18665m | 4.2m/s | -51.9°C | 0% | 0hPa | 0V | 00:00:00 | 00:00:00 | 00:00:00 | |
| SQ6EMJ | 2026-09-05 12:24:24 | 51.22476 | 17.34125 | 103° | 46km/h | 18658m | 4.1m/s | -51.9°C | 0% | 0hPa | 0V | 00:00:00 | 00:00:00 | 00:00:00 | |
| DB0NH | 2026-09-05 12:24:21 | 51.22481 | 17.34066 | 90° | 51km/h | 18644m | 2.7m/s | 0°C | 0% | 0hPa | 0V | 00:00:00 | 00:00:00 | 00:00:00 | |
| SQ6EMJ | 2026-09-05 12:24:19 | 51.22483 | 17.34008 | 104° | 58km/h | 18638m | 3.3m/s | -51.9°C | 0% | 0hPa | 0V | 00:00:00 | 00:00:00 | 00:00:00 | |
| SQ6EMJ | 2026-09-05 12:24:12 | 51.22489 | 17.33889 | 90° | 46km/h | 18617m | 4.0m/s | -51.9°C | 0% | 0hPa | 0V | 00:00:00 | 00:00:00 | 00:00:00 | |
| SP6BVK | 2026-09-05 12:24:07 | 51.22492 | 17.33790 | 83° | 44km/h | 18600m | 3.2m/s | -51.9°C | 0% | 0hPa | 0V | 00:00:00 | 00:00:00 | 00:00:00 | |
| OE3JTB-15 | 2026-09-05 12:24:06 | 51.22492 | 17.33771 | 88° | 55km/h | 18593m | 4.2m/s | 0°C | 0% | 0hPa | 0V | 00:00:00 | 00:00:00 | 00:00:00 | |
| POL1PZ | 2026-09-05 12:24:04 | 51.22494 | 17.33706 | 87° | 49km/h | 18586m | 4.0m/s | -51.8°C | 0% | 0hPa | 0V | 00:00:00 | 00:00:00 | 00:00:00 | |
| SQ6EMJ | 2026-09-05 12:23:56 | 51.22492 | 17.33557 | 96° | 64km/h | 18562m | 3.6m/s | -51.7°C | 0% | 0hPa | 0V | 00:00:00 | 00:00:00 | 00:00:00 | |
| SQ6EMJ | 2026-09-05 12:23:51 | 51.22492 | 17.33420 | 87° | 55km/h | 18541m | 3.8m/s | -51.4°C | 0% | 0hPa | 0V | 00:00:00 | 00:00:00 | 00:00:00 | |
| SP6BVK | 2026-09-05 12:23:47 | 51.22490 | 17.33332 | 95° | 60km/h | 18528m | 2.8m/s | -51.7°C | 0% | 0hPa | 0V | 00:00:00 | 00:00:00 | 00:00:00 | |
| SQ6EMJ | 2026-09-05 12:23:45 | 51.22489 | 17.33287 | 82° | 51km/h | 18521m | 3.2m/s | -51.5°C | 0% | 0hPa | 0V | 00:00:00 | 00:00:00 | 00:00:00 | |
| SQ6EMJ | 2026-09-05 12:23:40 | 51.22483 | 17.33173 | 79° | 51km/h | 18505m | 2.7m/s | -51.4°C | 0% | 0hPa | 0V | 00:00:00 | 00:00:00 | 00:00:00 | |
| POL1PZ | 2026-09-05 12:23:39 | 51.22483 | 17.33173 | 79° | 51km/h | 18505m | 2.7m/s | -51.4°C | 0% | 0hPa | 0V | 00:00:00 | 00:00:00 | 00:00:00 | |
| OE3JTB-15 | 2026-09-05 12:23:37 | 51.22480 | 17.33124 | 87° | 58km/h | 18493m | 3.9m/s | 0°C | 0% | 0hPa | 0V | 00:00:00 | 00:00:00 | 00:00:00 | |
| SQ6EMJ | 2026-09-05 12:23:34 | 51.22474 | 17.33036 | 90° | 62km/h | 18483m | 3.8m/s | -51.4°C | 0% | 0hPa | 0V | 00:00:00 | 00:00:00 | 00:00:00 | |
| SQ6EMJ | 2026-09-05 12:23:28 | 51.22465 | 17.32919 | 86° | 64km/h | 18464m | 3.4m/s | -51.5°C | 0% | 0hPa | 0V | 00:00:00 | 00:00:00 | 00:00:00 | |
| SP6BVK | 2026-09-05 12:23:26 | 51.22462 | 17.32869 | 83° | 58km/h | 18457m | 4.1m/s | -51.5°C | 0% | 0hPa | 0V | 00:00:00 | 00:00:00 | 00:00:00 | |
| SQ6EMJ | 2026-09-05 12:23:23 | 51.22451 | 17.32777 | 82° | 64km/h | 18443m | 3.3m/s | -51.7°C | 0% | 0hPa | 0V | 00:00:00 | 00:00:00 | 00:00:00 | |
| DB0NH | 2026-09-05 12:23:21 | 51.22449 | 17.32753 | 78° | 58km/h | 18437m | 3.0m/s | 0°C | 0% | 0hPa | 0V | 00:00:00 | 00:00:00 | 00:00:00 | |
| SQ6EMJ | 2026-09-05 12:23:17 | 51.22433 | 17.32637 | 74° | 55km/h | 18422m | 4.3m/s | -51.5°C | 0% | 0hPa | 0V | 00:00:00 | 00:00:00 | 00:00:00 | |
| OK1SLM-15 | 2026-09-05 12:23:15 | 51.22427 | 17.32593 | 81° | 64km/h | 18415m | 4.6m/s | -51.4°C | 0% | 0hPa | 0V | 00:00:00 | 00:00:00 | 00:00:00 | |
| SQ6EMJ | 2026-09-05 12:23:11 | 51.22419 | 17.32520 | 78° | 55km/h | 18404m | 3.5m/s | -51.3°C | 0% | 0hPa | 0V | 00:00:00 | 00:00:00 | 00:00:00 | |
| NBG1-10 | 2026-09-05 12:23:08 | 51.22411 | 17.32454 | 84° | 57km/h | 18371m | 3.2m/s | 0°C | 0% | 0hPa | 0V | 00:00:00 | 00:00:00 | 00:00:00 | |
| SP6BVK | 2026-09-05 12:23:06 | 51.22403 | 17.32386 | 78° | 51km/h | 18382m | 2.8m/s | -51.2°C | 0% | 0hPa | 0V | 00:00:00 | 00:00:00 | 00:00:00 | |
| SQ6EMJ | 2026-09-05 12:23:00 | 51.22392 | 17.32269 | 76° | 49km/h | 18364m | 3.4m/s | -51.1°C | 0% | 0hPa | 0V | 00:00:00 | 00:00:00 | 00:00:00 | |
| SQ6EMJ | 2026-09-05 12:22:55 | 51.22379 | 17.32136 | 82° | 51km/h | 18342m | 3.7m/s | -50.9°C | 0% | 0hPa | 0V | 00:00:00 | 00:00:00 | 00:00:00 | |
| DB0NH | 2026-09-05 12:22:51 | 51.22375 | 17.32065 | 86° | 53km/h | 18327m | 3.6m/s | 0°C | 0% | 0hPa | 0V | 00:00:00 | 00:00:00 | 00:00:00 | |
| SQ6EMJ | 2026-09-05 12:22:49 | 51.22370 | 17.32001 | 91° | 62km/h | 18320m | 4.0m/s | -50.7°C | 0% | 0hPa | 0V | 00:00:00 | 00:00:00 | 00:00:00 | |
| SP6BVK | 2026-09-05 12:22:45 | 51.22369 | 17.31931 | 84° | 47km/h | 18309m | 3.7m/s | -50.6°C | 0% | 0hPa | 0V | 00:00:00 | 00:00:00 | 00:00:00 | |
| SQ6EMJ | 2026-09-05 12:22:43 | 51.22366 | 17.31888 | 92° | 62km/h | 18301m | 4.2m/s | -50.9°C | 0% | 0hPa | 0V | 00:00:00 | 00:00:00 | 00:00:00 | |
| OE3JTB-15 | 2026-09-05 12:22:39 | 51.22364 | 17.31800 | 87° | 51km/h | 18283m | 4.0m/s | 0°C | 0% | 0hPa | 0V | 00:00:00 | 00:00:00 | 00:00:00 | |
| SQ6EMJ | 2026-09-05 12:22:38 | 51.22364 | 17.31753 | 90° | 58km/h | 18278m | 3.3m/s | -50.9°C | 0% | 0hPa | 0V | 00:00:00 | 00:00:00 | 00:00:00 | |
| SQ6EMJ | 2026-09-05 12:22:32 | 51.22360 | 17.31645 | 91° | 57km/h | 18261m | 3.6m/s | -50.7°C | 0% | 0hPa | 0V | 00:00:00 | 00:00:00 | 00:00:00 | |
| SQ6EMJ | 2026-09-05 12:22:27 | 51.22360 | 17.31521 | 84° | 44km/h | 18239m | 3.9m/s | -50.6°C | 0% | 0hPa | 0V | 00:00:00 | 00:00:00 | 00:00:00 | |
| SP6BVK | 2026-09-05 12:22:24 | 51.22359 | 17.31484 | 97° | 53km/h | 18231m | 4.5m/s | -50.7°C | 0% | 0hPa | 0V | 00:00:00 | 00:00:00 | 00:00:00 | |
| POL1PZ | 2026-09-05 12:22:23 | 51.22362 | 17.31442 | 92° | 47km/h | 18223m | 4.6m/s | -50.6°C | 0% | 0hPa | 0V | 00:00:00 | 00:00:00 | 00:00:00 | |
| DB0NH | 2026-09-05 12:22:21 | 51.22361 | 17.31427 | 92° | 49km/h | 18215m | 4.2m/s | 0°C | 0% | 0hPa | 0V | 00:00:00 | 00:00:00 | 00:00:00 | |
| SQ6EMJ | 2026-09-05 12:22:16 | 51.22361 | 17.31307 | 91° | 51km/h | 18196m | 4.4m/s | -50.7°C | 0% | 0hPa | 0V | 00:00:00 | 00:00:00 | 00:00:00 | |
| SQ6EMJ | 2026-09-05 12:22:10 | 51.22362 | 17.31187 | 93° | 51km/h | 18174m | 4.0m/s | -51.0°C | 0% | 0hPa | 0V | 00:00:00 | 00:00:00 | 00:00:00 | |
| SQ6EMJ | 2026-09-05 12:22:05 | 51.22366 | 17.31092 | 93° | 46km/h | 18154m | 4.4m/s | -51.2°C | 0% | 0hPa | 0V | 00:00:00 | 00:00:00 | 00:00:00 | |
| SP6BVK | 2026-09-05 12:22:04 | 51.22366 | 17.31092 | 93° | 46km/h | 18154m | 4.4m/s | -51.2°C | 0% | 0hPa | 0V | 00:00:00 | 00:00:00 | 00:00:00 | |
| SQ6EMJ | 2026-09-05 12:21:59 | 51.22373 | 17.30978 | 91° | 42km/h | 18133m | 3.4m/s | -51.2°C | 0% | 0hPa | 0V | 00:00:00 | 00:00:00 | 00:00:00 | |
| POL1PZ | 2026-09-05 12:21:58 | 51.22373 | 17.30960 | 96° | 47km/h | 18129m | 4.1m/s | -51.2°C | 0% | 0hPa | 0V | 00:00:00 | 00:00:00 | 00:00:00 | |
| SQ6EMJ | 2026-09-05 12:21:52 | 51.22386 | 17.30861 | 102° | 55km/h | 18108m | 4.4m/s | -51.1°C | 0% | 0hPa | 0V | 00:00:00 | 00:00:00 | 00:00:00 | |
| DB0NH | 2026-09-05 12:21:51 | 51.22388 | 17.30839 | 105° | 58km/h | 18105m | 3.1m/s | 0°C | 0% | 0hPa | 0V | 00:00:00 | 00:00:00 | 00:00:00 | |
| SQ6EMJ | 2026-09-05 12:21:48 | 51.22399 | 17.30760 | 107° | 57km/h | 18089m | 4.5m/s | -51.0°C | 0% | 0hPa | 0V | 00:00:00 | 00:00:00 | 00:00:00 | |
| SP6BVK | 2026-09-05 12:21:44 | 51.22411 | 17.30680 | 102° | 51km/h | 18073m | 4.0m/s | -50.9°C | 0% | 0hPa | 0V | 00:00:00 | 00:00:00 | 00:00:00 | |
| SQ6EMJ | 2026-09-05 12:21:42 | 51.22419 | 17.30634 | 105° | 58km/h | 18065m | 3.5m/s | -51.0°C | 0% | 0hPa | 0V | 00:00:00 | 00:00:00 | 00:00:00 | |
| OE3JTB-15 | 2026-09-05 12:21:41 | 51.22418 | 17.30634 | 104° | 57km/h | 18061m | 4.5m/s | 0°C | 0% | 0hPa | 0V | 00:00:00 | 00:00:00 | 00:00:00 | |
| POL1PZ | 2026-09-05 12:21:37 | 51.22437 | 17.30531 | 107° | 58km/h | 18046m | 4.0m/s | -50.9°C | 0% | 0hPa | 0V | 00:00:00 | 00:00:00 | 00:00:00 | |
| SQ6EMJ | 2026-09-05 12:21:31 | 51.22462 | 17.30405 | 108° | 47km/h | 18022m | 4.0m/s | -51.0°C | 0% | 0hPa | 0V | 00:00:00 | 00:00:00 | 00:00:00 | |
| SQ6EMJ | 2026-09-05 12:21:25 | 51.22490 | 17.30275 | 108° | 57km/h | 17998m | 4.1m/s | -51.2°C | 0% | 0hPa | 0V | 00:00:00 | 00:00:00 | 00:00:00 | |
| SP6BVK | 2026-09-05 12:21:23 | 51.22495 | 17.30251 | 112° | 69km/h | 17994m | 3.8m/s | -51.2°C | 0% | 0hPa | 0V | 00:00:00 | 00:00:00 | 00:00:00 | |
| DB0NH | 2026-09-05 12:21:20 | 51.22508 | 17.30182 | 106° | 60km/h | 17979m | 4.3m/s | 0°C | 0% | 0hPa | 0V | 00:00:00 | 00:00:00 | 00:00:00 | |
| SQ6EMJ | 2026-09-05 12:21:19 | 51.22513 | 17.30160 | 107° | 58km/h | 17979m | 4.3m/s | -51.0°C | 0% | 0hPa | 0V | 00:00:00 | 00:00:00 | 00:00:00 | |
| POL1PZ | 2026-09-05 12:21:15 | 51.22530 | 17.30065 | 102° | 53km/h | 17963m | 3.2m/s | -51.1°C | 0% | 0hPa | 0V | 00:00:00 | 00:00:00 | 00:00:00 | |
| SQ6EMJ | 2026-09-05 12:21:14 | 51.22538 | 17.30017 | 106° | 71km/h | 17955m | 3.6m/s | -51.1°C | 0% | 0hPa | 0V | 00:00:00 | 00:00:00 | 00:00:00 | |
| OE3JTB-15 | 2026-09-05 12:21:12 | 51.22541 | 17.29990 | 105° | 64km/h | 17947m | 3.7m/s | 0°C | 0% | 0hPa | 0V | 00:00:00 | 00:00:00 | 00:00:00 | |
| SQ6EMJ | 2026-09-05 12:21:08 | 51.22555 | 17.29900 | 104° | 69km/h | 17936m | 3.5m/s | -50.9°C | 0% | 0hPa | 0V | 00:00:00 | 00:00:00 | 00:00:00 | |
| SQ6EMJ | 2026-09-05 12:21:03 | 51.22575 | 17.29753 | 101° | 62km/h | 17912m | 4.4m/s | -50.7°C | 0% | 0hPa | 0V | 00:00:00 | 00:00:00 | 00:00:00 | |
| SP6BVK | 2026-09-05 12:21:02 | 51.22575 | 17.29753 | 101° | 62km/h | 17912m | 4.4m/s | -50.7°C | 0% | 0hPa | 0V | 00:00:00 | 00:00:00 | 00:00:00 | |
| SQ6EMJ | 2026-09-05 12:20:57 | 51.22595 | 17.29609 | 106° | 53km/h | 17890m | 3.3m/s | -50.6°C | 0% | 0hPa | 0V | 00:00:00 | 00:00:00 | 00:00:00 | |
| POL1PZ | 2026-09-05 12:20:56 | 51.22599 | 17.29587 | 104° | 60km/h | 17887m | 4.0m/s | -50.5°C | 0% | 0hPa | 0V | 00:00:00 | 00:00:00 | 00:00:00 | |
| SQ6EMJ | 2026-09-05 12:20:52 | 51.22612 | 17.29487 | 101° | 55km/h | 17871m | 3.2m/s | -50.4°C | 0% | 0hPa | 0V | 00:00:00 | 00:00:00 | 00:00:00 | |
| DB0NH | 2026-09-05 12:20:50 | 51.22616 | 17.29463 | 104° | 69km/h | 17863m | 3.3m/s | 0°C | 0% | 0hPa | 0V | 00:00:00 | 00:00:00 | 00:00:00 | |
| SQ6EMJ | 2026-09-05 12:20:46 | 51.22633 | 17.29336 | 105° | 73km/h | 17847m | 4.0m/s | -50.4°C | 0% | 0hPa | 0V | 00:00:00 | 00:00:00 | 00:00:00 | |
| NBG1-10 | 2026-09-05 12:20:44 | 51.22637 | 17.29310 | 103° | 75km/h | 17840m | 4.2m/s | 0°C | 0% | 0hPa | 0V | 00:00:00 | 00:00:00 | 00:00:00 | |
| SQ6EMJ | 2026-09-05 12:20:41 | 51.22650 | 17.29203 | 103° | 75km/h | 17829m | 3.0m/s | -50.5°C | 0% | 0hPa | 0V | 00:00:00 | 00:00:00 | 00:00:00 | |
| POL1PZ | 2026-09-05 12:20:35 | 51.22666 | 17.29038 | 100° | 73km/h | 17806m | 4.2m/s | -50.8°C | 0% | 0hPa | 0V | 00:00:00 | 00:00:00 | 00:00:00 | |
| SQ6EMJ | 2026-09-05 12:20:28 | 51.22675 | 17.28863 | 88° | 68km/h | 17784m | 3.2m/s | -50.9°C | 0% | 0hPa | 0V | 00:00:00 | 00:00:00 | 00:00:00 | |
| SQ6EMJ | 2026-09-05 12:20:23 | 51.22683 | 17.28718 | 89° | 68km/h | 17766m | 4.0m/s | -50.9°C | 0% | 0hPa | 0V | 00:00:00 | 00:00:00 | 00:00:00 | |
| SP6BVK | 2026-09-05 12:20:22 | 51.22684 | 17.28661 | 99° | 73km/h | 17758m | 4.2m/s | -50.9°C | 0% | 0hPa | 0V | 00:00:00 | 00:00:00 | 00:00:00 | |
| DB0NH | 2026-09-05 12:20:20 | 51.22687 | 17.28632 | 100° | 69km/h | 17751m | 4.4m/s | 0°C | 0% | 0hPa | 0V | 00:00:00 | 00:00:00 | 00:00:00 | |
| SQ6EMJ | 2026-09-05 12:20:18 | 51.22690 | 17.28546 | 98° | 75km/h | 17745m | 3.9m/s | -50.9°C | 0% | 0hPa | 0V | 00:00:00 | 00:00:00 | 00:00:00 | |
| POL1PZ | 2026-09-05 12:20:14 | 51.22694 | 17.28432 | 92° | 69km/h | 17730m | 3.6m/s | -50.8°C | 0% | 0hPa | 0V | 00:00:00 | 00:00:00 | 00:00:00 | |
| SQ6EMJ | 2026-09-05 12:20:13 | 51.22695 | 17.28403 | 99° | 75km/h | 17726m | 3.6m/s | -50.7°C | 0% | 0hPa | 0V | 00:00:00 | 00:00:00 | 00:00:00 | |
| NBG1-10 | 2026-09-05 12:20:09 | 51.22700 | 17.28317 | 87° | 66km/h | 17705m | 3.4m/s | 0°C | 0% | 0hPa | 0V | 00:00:00 | 00:00:00 | 00:00:00 | |
| SQ6EMJ | 2026-09-05 12:20:07 | 51.22705 | 17.28234 | 96° | 71km/h | 17705m | 3.4m/s | -50.7°C | 0% | 0hPa | 0V | 00:00:00 | 00:00:00 | 00:00:00 | |
| SP3WXH-11 | 2026-09-05 12:20:05 | 51.22706 | 17.28153 | 95° | 68km/h | 17694m | 3.8m/s | -51.3°C | -1.0% | -1.0hPa | 0V | 00:00:00 | 00:00:00 | 00:00:00 | |
| SQ6EMJ | 2026-09-05 12:20:01 | 51.22711 | 17.28071 | 88° | 64km/h | 17683m | 3.4m/s | -50.5°C | 0% | 0hPa | 0V | 00:00:00 | 00:00:00 | 00:00:00 | |
| SP6BVK | 2026-09-05 12:20:00 | 51.22711 | 17.28071 | 88° | 64km/h | 17683m | 3.4m/s | -50.5°C | 0% | 0hPa | 0V | 00:00:00 | 00:00:00 | 00:00:00 | |
| DB0NH | 2026-09-05 12:19:50 | 51.22725 | 17.27808 | 93° | 64km/h | 17644m | 2.1m/s | 0°C | 0% | 0hPa | 0V | 00:00:00 | 00:00:00 | 00:00:00 | |
| SQ6EMJ | 2026-09-05 12:19:45 | 51.22736 | 17.27654 | 90° | 58km/h | 17628m | 3.0m/s | -50.3°C | 0% | 0hPa | 0V | 00:00:00 | 00:00:00 | 00:00:00 | |
| SP6BVK | 2026-09-05 12:19:40 | 51.22743 | 17.27550 | 90° | 58km/h | 17614m | 3.4m/s | -50.3°C | 0% | 0hPa | 0V | 00:00:00 | 00:00:00 | 00:00:00 | |
| SQ6EMJ | 2026-09-05 12:19:39 | 51.22747 | 17.27500 | 103° | 69km/h | 17607m | 3.7m/s | -50.1°C | 0% | 0hPa | 0V | 00:00:00 | 00:00:00 | 00:00:00 | |
| NBG1-10 | 2026-09-05 12:19:35 | 51.22752 | 17.27423 | 92° | 75km/h | 17598m | 2.7m/s | 0°C | 0% | 0hPa | 0V | 00:00:00 | 00:00:00 | 00:00:00 | |
| POL1PZ | 2026-09-05 12:19:33 | 51.22762 | 17.27344 | 103° | 64km/h | 17588m | 3.5m/s | -50.0°C | 0% | 0hPa | 0V | 00:00:00 | 00:00:00 | 00:00:00 | |
| SQ6EMJ | 2026-09-05 12:19:27 | 51.22775 | 17.27220 | 103° | 64km/h | 17572m | 3.8m/s | -50.1°C | 0% | 0hPa | 0V | 00:00:00 | 00:00:00 | 00:00:00 | |
| SQ6EMJ | 2026-09-05 12:19:22 | 51.22795 | 17.27074 | 97° | 60km/h | 17552m | 2.8m/s | -50.5°C | 0% | 0hPa | 0V | 00:00:00 | 00:00:00 | 00:00:00 | |
| DB0NH | 2026-09-05 12:19:20 | 51.22797 | 17.27050 | 101° | 75km/h | 17549m | 3.8m/s | 0°C | 0% | 0hPa | 0V | 00:00:00 | 00:00:00 | 00:00:00 | |
| SP6BVK | 2026-09-05 12:19:19 | 51.22801 | 17.27023 | 108° | 73km/h | 17545m | 3.4m/s | -50.5°C | 0% | 0hPa | 0V | 00:00:00 | 00:00:00 | 00:00:00 | |
| SQ6EMJ | 2026-09-05 12:19:17 | 51.22811 | 17.26944 | 98° | 66km/h | 17535m | 2.8m/s | -50.8°C | 0% | 0hPa | 0V | 00:00:00 | 00:00:00 | 00:00:00 | |
| POL1PZ | 2026-09-05 12:19:12 | 51.22829 | 17.26811 | 105° | 68km/h | 17519m | 3.7m/s | -51.0°C | 0% | 0hPa | 0V | 00:00:00 | 00:00:00 | 00:00:00 | |
| SQ6EMJ | 2026-09-05 12:19:11 | 51.22834 | 17.26783 | 108° | 77km/h | 17516m | 2.9m/s | -51.0°C | 0% | 0hPa | 0V | 00:00:00 | 00:00:00 | 00:00:00 | |
| SQ6EMJ | 2026-09-05 12:19:04 | 51.22857 | 17.26611 | 105° | 78km/h | 17497m | 2.6m/s | -51.3°C | 0% | 0hPa | 0V | 00:00:00 | 00:00:00 | 00:00:00 | |
| SP3WXH-11 | 2026-09-05 12:19:03 | 51.22864 | 17.26553 | 98° | 68km/h | 17491m | 3.1m/s | -52.1°C | -1.0% | -1.0hPa | 0V | 00:00:00 | 00:00:00 | 00:00:00 | |
| SP6BVK | 2026-09-05 12:19:00 | 51.22876 | 17.26462 | 103° | 77km/h | 17482m | 3.4m/s | -51.3°C | 0% | 0hPa | 0V | 00:00:00 | 00:00:00 | 00:00:00 | |
| SQ6EMJ | 2026-09-05 12:18:59 | 51.22876 | 17.26462 | 103° | 77km/h | 17482m | 3.4m/s | -51.3°C | 0% | 0hPa | 0V | 00:00:00 | 00:00:00 | 00:00:00 | |
| SQ6EMJ | 2026-09-05 12:18:54 | 51.22894 | 17.26285 | 97° | 69km/h | 17461m | 2.7m/s | -51.2°C | 0% | 0hPa | 0V | 00:00:00 | 00:00:00 | 00:00:00 | |
| POL1PZ | 2026-09-05 12:18:50 | 51.22907 | 17.26162 | 98° | 69km/h | 17448m | 3.2m/s | -51.3°C | 0% | 0hPa | 0V | 00:00:00 | 00:00:00 | 00:00:00 | |
| SQ6EMJ | 2026-09-05 12:18:48 | 51.22910 | 17.26134 | 99° | 73km/h | 17445m | 2.8m/s | -51.3°C | 0% | 0hPa | 0V | 00:00:00 | 00:00:00 | 00:00:00 | |
| SQ6EMJ | 2026-09-05 12:18:43 | 51.22924 | 17.25947 | 101° | 86km/h | 17425m | 3.1m/s | -51.2°C | 0% | 0hPa | 0V | 00:00:00 | 00:00:00 | 00:00:00 | |
| NBG1-10 | 2026-09-05 12:18:42 | 51.22924 | 17.25947 | 100° | 78km/h | 17419m | 3.0m/s | 0°C | 0% | 0hPa | 0V | 00:00:00 | 00:00:00 | 00:00:00 | |
| SP6BVK | 2026-09-05 12:18:39 | 51.22930 | 17.25825 | 97° | 78km/h | 17412m | 3.7m/s | -51.2°C | 0% | 0hPa | 0V | 00:00:00 | 00:00:00 | 00:00:00 | |
| SQ6EMJ | 2026-09-05 12:18:37 | 51.22935 | 17.25760 | 94° | 77km/h | 17405m | 4.1m/s | -51.3°C | 0% | 0hPa | 0V | 00:00:00 | 00:00:00 | 00:00:00 | |
| SQ6EMJ | 2026-09-05 12:18:32 | 51.22942 | 17.25604 | 93° | 77km/h | 17388m | 3.6m/s | -51.2°C | 0% | 0hPa | 0V | 00:00:00 | 00:00:00 | 00:00:00 | |
| POL1PZ | 2026-09-05 12:18:29 | 51.22942 | 17.25544 | 92° | 77km/h | 17381m | 4.0m/s | -51.4°C | 0% | 0hPa | 0V | 00:00:00 | 00:00:00 | 00:00:00 | |
| SQ6EMJ | 2026-09-05 12:18:25 | 51.22943 | 17.25418 | 89° | 73km/h | 17368m | 3.1m/s | -51.5°C | 0% | 0hPa | 0V | 00:00:00 | 00:00:00 | 00:00:00 | |
| SQ6EMJ | 2026-09-05 12:18:21 | 51.22940 | 17.25262 | 88° | 77km/h | 17350m | 3.9m/s | -51.6°C | 0% | 0hPa | 0V | 00:00:00 | 00:00:00 | 00:00:00 | |
| SP6BVK | 2026-09-05 12:18:18 | 51.22940 | 17.25198 | 89° | 78km/h | 17343m | 3.3m/s | -51.6°C | 0% | 0hPa | 0V | 00:00:00 | 00:00:00 | 00:00:00 | |
| SQ6EMJ | 2026-09-05 12:18:15 | 51.22934 | 17.25079 | 91° | 80km/h | 17329m | 2.9m/s | -51.7°C | 0% | 0hPa | 0V | 00:00:00 | 00:00:00 | 00:00:00 | |
| DB0NH | 2026-09-05 12:18:13 | 51.22932 | 17.25048 | 85° | 71km/h | 17323m | 3.2m/s | 0°C | 0% | 0hPa | 0V | 00:00:00 | 00:00:00 | 00:00:00 | |
| NBG1-10 | 2026-09-05 12:18:09 | 51.22924 | 17.24930 | 88° | 71km/h | 17312m | 3.2m/s | 0°C | 0% | 0hPa | 0V | 00:00:00 | 00:00:00 | 00:00:00 | |
| POL1PZ | 2026-09-05 12:18:08 | 51.22922 | 17.24900 | 82° | 71km/h | 17309m | 3.8m/s | -51.6°C | 0% | 0hPa | 0V | 00:00:00 | 00:00:00 | 00:00:00 | |
| SQ6EMJ | 2026-09-05 12:18:03 | 51.22913 | 17.24755 | 80° | 66km/h | 17291m | 3.2m/s | -51.7°C | 0% | 0hPa | 0V | 00:00:00 | 00:00:00 | 00:00:00 | |
| SP6BVK | 2026-09-05 12:17:58 | 51.22899 | 17.24584 | 84° | 73km/h | 17268m | 4.2m/s | -51.7°C | 0% | 0hPa | 0V | 00:00:00 | 00:00:00 | 00:00:00 | |
| SQ6EMJ | 2026-09-05 12:17:52 | 51.22886 | 17.24442 | 84° | 77km/h | 17250m | 3.9m/s | -51.8°C | 0% | 0hPa | 0V | 00:00:00 | 00:00:00 | 00:00:00 | |
| SQ6EMJ | 2026-09-05 12:17:47 | 51.22872 | 17.24276 | 81° | 71km/h | 17229m | 3.2m/s | -51.5°C | 0% | 0hPa | 0V | 00:00:00 | 00:00:00 | 00:00:00 | |
| DB0NH | 2026-09-05 12:17:43 | 51.22864 | 17.24199 | 82° | 66km/h | 17216m | 2.7m/s | 0°C | 0% | 0hPa | 0V | 00:00:00 | 00:00:00 | 00:00:00 | |
| SQ6EMJ | 2026-09-05 12:17:40 | 51.22855 | 17.24119 | 81° | 57km/h | 17209m | 3.3m/s | -51.6°C | 0% | 0hPa | 0V | 00:00:00 | 00:00:00 | 00:00:00 | |
| SP6BVK | 2026-09-05 12:17:37 | 51.22847 | 17.24039 | 83° | 71km/h | 17198m | 2.5m/s | -51.4°C | 0% | 0hPa | 0V | 00:00:00 | 00:00:00 | 00:00:00 | |
| SQ6EMJ | 2026-09-05 12:17:35 | 51.22841 | 17.23988 | 81° | 58km/h | 17191m | 3.1m/s | -51.4°C | 0% | 0hPa | 0V | 00:00:00 | 00:00:00 | 00:00:00 | |
| NBG1-10 | 2026-09-05 12:17:34 | 51.22838 | 17.23964 | 81° | 66km/h | 17184m | 3.3m/s | 0°C | 0% | 0hPa | 0V | 00:00:00 | 00:00:00 | 00:00:00 | |
| SQ6EMJ | 2026-09-05 12:17:30 | 51.22826 | 17.23833 | 80° | 64km/h | 17170m | 3.6m/s | -51.1°C | 0% | 0hPa | 0V | 00:00:00 | 00:00:00 | 00:00:00 | |
| POL1PZ | 2026-09-05 12:17:26 | 51.22816 | 17.23729 | 78° | 57km/h | 17156m | 3.4m/s | -51.0°C | 0% | 0hPa | 0V | 00:00:00 | 00:00:00 | 00:00:00 | |
| SQ6EMJ | 2026-09-05 12:17:24 | 51.22813 | 17.23704 | 80° | 66km/h | 17152m | 4.1m/s | -50.8°C | 0% | 0hPa | 0V | 00:00:00 | 00:00:00 | 00:00:00 | |
| SQ6EMJ | 2026-09-05 12:17:19 | 51.22798 | 17.23548 | 87° | 73km/h | 17130m | 3.4m/s | -50.9°C | 0% | 0hPa | 0V | 00:00:00 | 00:00:00 | 00:00:00 | |
| SP6BVK | 2026-09-05 12:17:16 | 51.22793 | 17.23496 | 78° | 57km/h | 17122m | 3.3m/s | -50.7°C | 0% | 0hPa | 0V | 00:00:00 | 00:00:00 | 00:00:00 | |
| SQ6EMJ | 2026-09-05 12:17:13 | 51.22784 | 17.23392 | 80° | 64km/h | 17108m | 3.9m/s | -50.4°C | 0% | 0hPa | 0V | 00:00:00 | 00:00:00 | 00:00:00 | |
| EDDB2-11 | 2026-09-05 12:17:08 | 51.22770 | 17.23264 | 82° | 64km/h | 17090m | 4.1m/s | -51.1°C | -1.0% | -1.0hPa | 0V | 00:00:00 | 00:00:00 | 00:00:00 | |
| SONDE2-11 | 2026-09-05 12:17:07 | 51.22768 | 17.23240 | 85° | 55km/h | 17087m | 2.9m/s | -51.2°C | -1.0% | -1.0hPa | 0V | 00:00:00 | 00:00:00 | 00:00:00 | |
| EDDB2-12 | 2026-09-05 12:17:03 | 51.22759 | 17.23139 | 86° | 57km/h | 17072m | 4.2m/s | -51.0°C | -1.0% | -1.0hPa | 0V | 00:00:00 | 00:00:00 | 00:00:00 | |
| NBG1-10 | 2026-09-05 12:17:01 | 51.22758 | 17.23117 | 86° | 62km/h | 17066m | 4.3m/s | 0°C | 0% | 0hPa | 0V | 00:00:00 | 00:00:00 | 00:00:00 | |
| POL1PZ | 2026-09-05 12:16:57 | 51.22750 | 17.23019 | 88° | 53km/h | 17054m | 3.4m/s | -50.7°C | 0% | 0hPa | 0V | 00:00:00 | 00:00:00 | 00:00:00 | |
| SP6BVK | 2026-09-05 12:16:56 | 51.22749 | 17.22997 | 84° | 58km/h | 17051m | 3.6m/s | -50.6°C | 0% | 0hPa | 0V | 00:00:00 | 00:00:00 | 00:00:00 | |
| SQ6EMJ | 2026-09-05 12:16:51 | 51.22740 | 17.22853 | 85° | 68km/h | 17028m | 3.5m/s | -50.8°C | 0% | 0hPa | 0V | 00:00:00 | 00:00:00 | 00:00:00 | |
| SQ6EMJ | 2026-09-05 12:16:45 | 51.22734 | 17.22710 | 88° | 64km/h | 17007m | 3.2m/s | -50.9°C | 0% | 0hPa | 0V | 00:00:00 | 00:00:00 | 00:00:00 | |
| DB0NH | 2026-09-05 12:16:40 | 51.22729 | 17.22615 | 82° | 62km/h | 16987m | 4.1m/s | 0°C | 0% | 0hPa | 0V | 00:00:00 | 00:00:00 | 00:00:00 | |
| SQ6EMJ | 2026-09-05 12:16:39 | 51.22727 | 17.22589 | 85° | 60km/h | 16987m | 4.2m/s | -50.9°C | 0% | 0hPa | 0V | 00:00:00 | 00:00:00 | 00:00:00 | |
| SP6BVK | 2026-09-05 12:16:36 | 51.22721 | 17.22492 | 83° | 64km/h | 16969m | 3.8m/s | -50.8°C | 0% | 0hPa | 0V | 00:00:00 | 00:00:00 | 00:00:00 | |
| SQ6EMJ | 2026-09-05 12:16:34 | 51.22717 | 17.22447 | 82° | 58km/h | 16962m | 3.3m/s | -50.8°C | 0% | 0hPa | 0V | 00:00:00 | 00:00:00 | 00:00:00 | |
| NBG1-10 | 2026-09-05 12:16:28 | 51.22704 | 17.22318 | 80° | 62km/h | 16940m | 3.6m/s | 0°C | 0% | 0hPa | 0V | 00:00:00 | 00:00:00 | 00:00:00 | |
| SQ6EMJ | 2026-09-05 12:16:23 | 51.22684 | 17.22178 | 78° | 71km/h | 16921m | 4.0m/s | -50.7°C | 0% | 0hPa | 0V | 00:00:00 | 00:00:00 | 00:00:00 | |
| SQ6EMJ | 2026-09-05 12:16:17 | 51.22663 | 17.22029 | 78° | 60km/h | 16899m | 4.1m/s | -50.8°C | 0% | 0hPa | 0V | 00:00:00 | 00:00:00 | 00:00:00 | |
| POL1PZ | 2026-09-05 12:16:15 | 51.22660 | 17.22006 | 75° | 55km/h | 16895m | 3.5m/s | -51.1°C | 0% | 0hPa | 0V | 00:00:00 | 00:00:00 | 00:00:00 | |
| SQ6EMJ | 2026-09-05 12:16:11 | 51.22640 | 17.21906 | 71° | 57km/h | 16880m | 4.0m/s | -51.2°C | 0% | 0hPa | 0V | 00:00:00 | 00:00:00 | 00:00:00 | |
| DB0NH | 2026-09-05 12:16:10 | 51.22635 | 17.21884 | 70° | 62km/h | 16872m | 3.9m/s | 0°C | 0% | 0hPa | 0V | 00:00:00 | 00:00:00 | 00:00:00 | |
| EDDB2-11 | 2026-09-05 12:16:06 | 51.22602 | 17.21739 | 71° | 71km/h | 16852m | 3.7m/s | -51.8°C | -1.0% | -1.0hPa | 0V | 00:00:00 | 00:00:00 | 00:00:00 | |
| SONDE2-11 | 2026-09-05 12:16:05 | 51.22602 | 17.21739 | 71° | 71km/h | 16852m | 3.7m/s | -51.8°C | -1.0% | -1.0hPa | 0V | 00:00:00 | 00:00:00 | 00:00:00 | |
| SQ6EMJ | 2026-09-05 12:16:00 | 51.22582 | 17.21645 | 73° | 64km/h | 16837m | 4.3m/s | -50.9°C | 0% | 0hPa | 0V | 00:00:00 | 00:00:00 | 00:00:00 | |
| POL1PZ | 2026-09-05 12:15:55 | 51.22551 | 17.21503 | 72° | 71km/h | 16816m | 3.4m/s | -50.9°C | 0% | 0hPa | 0V | 00:00:00 | 00:00:00 | 00:00:00 | |
| NBG1-10 | 2026-09-05 12:15:54 | 51.22551 | 17.21503 | 72° | 60km/h | 16805m | 3.2m/s | 0°C | 0% | 0hPa | 0V | 00:00:00 | 00:00:00 | 00:00:00 | |
| SQ6EMJ | 2026-09-05 12:15:48 | 51.22523 | 17.21363 | 76° | 55km/h | 16794m | 3.8m/s | -50.5°C | 0% | 0hPa | 0V | 00:00:00 | 00:00:00 | 00:00:00 | |
| SQ6EMJ | 2026-09-05 12:15:43 | 51.22501 | 17.21247 | 74° | 60km/h | 16776m | 4.5m/s | -50.6°C | 0% | 0hPa | 0V | 00:00:00 | 00:00:00 | 00:00:00 | |
| DB0NH | 2026-09-05 12:15:41 | 51.22488 | 17.21181 | 72° | 60km/h | 16762m | 3.6m/s | 0°C | 0% | 0hPa | 0V | 00:00:00 | 00:00:00 | 00:00:00 | |
| SQ6EMJ | 2026-09-05 12:15:37 | 51.22476 | 17.21110 | 77° | 53km/h | 16755m | 2.5m/s | -50.2°C | 0% | 0hPa | 0V | 00:00:00 | 00:00:00 | 00:00:00 | |
| POL1PZ | 2026-09-05 12:15:34 | 51.22459 | 17.21017 | 74° | 58km/h | 16740m | 4.1m/s | -50.2°C | 0% | 0hPa | 0V | 00:00:00 | 00:00:00 | 00:00:00 | |
| SQ6EMJ | 2026-09-05 12:15:32 | 51.22456 | 17.20995 | 77° | 51km/h | 16736m | 3.6m/s | -50.4°C | 0% | 0hPa | 0V | 00:00:00 | 00:00:00 | 00:00:00 | |
| SQ6EMJ | 2026-09-05 12:15:27 | 51.22431 | 17.20861 | 75° | 53km/h | 16715m | 3.2m/s | -50.4°C | 0% | 0hPa | 0V | 00:00:00 | 00:00:00 | 00:00:00 | |
| SQ6EMJ | 2026-09-05 12:15:21 | 51.22410 | 17.20723 | 81° | 64km/h | 16694m | 4.2m/s | -50.2°C | 0% | 0hPa | 0V | 00:00:00 | 00:00:00 | 00:00:00 | |
| NBG1-10 | 2026-09-05 12:15:20 | 51.22410 | 17.20723 | 81° | 64km/h | 16690m | 2.8m/s | 0°C | 0% | 0hPa | 0V | 00:00:00 | 00:00:00 | 00:00:00 | |
| SQ6EMJ | 2026-09-05 12:15:16 | 51.22396 | 17.20609 | 86° | 62km/h | 16674m | 4.6m/s | -50.2°C | 0% | 0hPa | 0V | 00:00:00 | 00:00:00 | 00:00:00 | |
| POL1PZ | 2026-09-05 12:15:13 | 51.22394 | 17.20556 | 87° | 60km/h | 16667m | 3.8m/s | -50.1°C | 0% | 0hPa | 0V | 00:00:00 | 00:00:00 | 00:00:00 | |
| SQ6EMJ | 2026-09-05 12:15:10 | 51.22388 | 17.20464 | 89° | 60km/h | 16653m | 3.2m/s | -50.0°C | 0% | 0hPa | 0V | 00:00:00 | 00:00:00 | 00:00:00 | |
| SQ6EMJ | 2026-09-05 12:15:05 | 51.22387 | 17.20344 | 87° | 57km/h | 16635m | 4.3m/s | -50.1°C | 0% | 0hPa | 0V | 00:00:00 | 00:00:00 | 00:00:00 | |
| EDDB2-11 | 2026-09-05 12:15:04 | 51.22387 | 17.20320 | 94° | 60km/h | 16631m | 4.0m/s | -50.6°C | -1.0% | -1.0hPa | 0V | 00:00:00 | 00:00:00 | 00:00:00 | |
| SQ6EMJ | 2026-09-05 12:14:59 | 51.22385 | 17.20194 | 90° | 57km/h | 16613m | 2.9m/s | -50.3°C | 0% | 0hPa | 0V | 00:00:00 | 00:00:00 | 00:00:00 | |
| POL1PZ | 2026-09-05 12:14:53 | 51.22390 | 17.20034 | 92° | 66km/h | 16593m | 4.2m/s | -50.3°C | 0% | 0hPa | 0V | 00:00:00 | 00:00:00 | 00:00:00 | |
| SQ6EMJ | 2026-09-05 12:14:47 | 51.22397 | 17.19868 | 103° | 77km/h | 16574m | 2.8m/s | -50.7°C | 0% | 0hPa | 0V | 00:00:00 | 00:00:00 | 00:00:00 | |
| SQ6EMJ | 2026-09-05 12:14:40 | 51.22410 | 17.19662 | 91° | 71km/h | 16551m | 3.3m/s | -51.2°C | 0% | 0hPa | 0V | 00:00:00 | 00:00:00 | 00:00:00 | |
| SQ6EMJ | 2026-09-05 12:14:34 | 51.22421 | 17.19478 | 101° | 82km/h | 16532m | 3.7m/s | -51.3°C | 0% | 0hPa | 0V | 00:00:00 | 00:00:00 | 00:00:00 | |
| SP6BVK | 2026-09-05 12:14:33 | 51.22425 | 17.19445 | 101° | 82km/h | 16529m | 2.3m/s | -51.4°C | 0% | 0hPa | 0V | 00:00:00 | 00:00:00 | 00:00:00 | |
| POL1PZ | 2026-09-05 12:14:32 | 51.22425 | 17.19445 | 101° | 82km/h | 16529m | 2.3m/s | -51.4°C | 0% | 0hPa | 0V | 00:00:00 | 00:00:00 | 00:00:00 | |
| NBG1-10 | 2026-09-05 12:14:14 | 51.22450 | 17.18899 | 97° | 75km/h | 16471m | 2.2m/s | 0°C | 0% | 0hPa | 0V | 00:00:00 | 00:00:00 | 00:00:00 | |
| SP6BVK | 2026-09-05 12:14:12 | 51.22452 | 17.18810 | 94° | 75km/h | 16468m | 3.6m/s | -51.3°C | 0% | 0hPa | 0V | 00:00:00 | 00:00:00 | 00:00:00 | |
| SQ6EMJ | 2026-09-05 12:14:07 | 51.22458 | 17.18662 | 97° | 80km/h | 16454m | 2.6m/s | -51.4°C | 0% | 0hPa | 0V | 00:00:00 | 00:00:00 | 00:00:00 | |
| EDDB2-11 | 2026-09-05 12:14:02 | 51.22462 | 17.18514 | 95° | 80km/h | 16441m | 2.3m/s | -52.3°C | -1.0% | -1.0hPa | 0V | 00:00:00 | 00:00:00 | 00:00:00 | |
| SQ6EMJ | 2026-09-05 12:14:01 | 51.22463 | 17.18482 | 94° | 75km/h | 16438m | 3.1m/s | -51.6°C | 0% | 0hPa | 0V | 00:00:00 | 00:00:00 | 00:00:00 | |
| SQ6EMJ | 2026-09-05 12:13:55 | 51.22462 | 17.18307 | 86° | 68km/h | 16421m | 2.1m/s | -51.5°C | 0% | 0hPa | 0V | 00:00:00 | 00:00:00 | 00:00:00 | |
| SP6BVK | 2026-09-05 12:13:52 | 51.22462 | 17.18217 | 91° | 75km/h | 16413m | 3.0m/s | -51.6°C | 0% | 0hPa | 0V | 00:00:00 | 00:00:00 | 00:00:00 | |
| POL1PZ | 2026-09-05 12:13:51 | 51.22462 | 17.18217 | 91° | 75km/h | 16413m | 3.0m/s | -51.6°C | 0% | 0hPa | 0V | 00:00:00 | 00:00:00 | 00:00:00 | |
| SQ6EMJ | 2026-09-05 12:13:50 | 51.22458 | 17.18161 | 88° | 71km/h | 16408m | 2.6m/s | -51.4°C | 0% | 0hPa | 0V | 00:00:00 | 00:00:00 | 00:00:00 | |
| SQ6EMJ | 2026-09-05 12:13:44 | 51.22455 | 17.17984 | 92° | 80km/h | 16392m | 2.4m/s | -51.4°C | 0% | 0hPa | 0V | 00:00:00 | 00:00:00 | 00:00:00 | |
| NBG1-10 | 2026-09-05 12:13:41 | 51.22454 | 17.17923 | 83° | 73km/h | 16385m | 2.0m/s | 0°C | 0% | 0hPa | 0V | 00:00:00 | 00:00:00 | 00:00:00 | |
| SQ6EMJ | 2026-09-05 12:13:38 | 51.22451 | 17.17805 | 86° | 66km/h | 16377m | 3.1m/s | -51.3°C | 0% | 0hPa | 0V | 00:00:00 | 00:00:00 | 00:00:00 | |
| SP6BVK | 2026-09-05 12:13:31 | 51.22443 | 17.17602 | 91° | 82km/h | 16359m | 2.9m/s | -51.4°C | 0% | 0hPa | 0V | 00:00:00 | 00:00:00 | 00:00:00 | |
| POL1PZ | 2026-09-05 12:13:30 | 51.22443 | 17.17602 | 91° | 82km/h | 16359m | 2.9m/s | -51.4°C | 0% | 0hPa | 0V | 00:00:00 | 00:00:00 | 00:00:00 | |
| SQ6EMJ | 2026-09-05 12:13:26 | 51.22439 | 17.17484 | 91° | 78km/h | 16346m | 2.5m/s | -51.3°C | 0% | 0hPa | 0V | 00:00:00 | 00:00:00 | 00:00:00 | |
| SQ6EMJ | 2026-09-05 12:13:20 | 51.22430 | 17.17278 | 82° | 66km/h | 16331m | 2.0m/s | -51.2°C | 0% | 0hPa | 0V | 00:00:00 | 00:00:00 | 00:00:00 | |
| SQ6EMJ | 2026-09-05 12:13:14 | 51.22420 | 17.17106 | 80° | 68km/h | 16316m | 1.7m/s | -51.2°C | 0% | 0hPa | 0V | 00:00:00 | 00:00:00 | 00:00:00 | |
| POL1PZ | 2026-09-05 12:13:10 | 51.22415 | 17.17020 | 88° | 73km/h | 16309m | 2.5m/s | -51.3°C | 0% | 0hPa | 0V | 00:00:00 | 00:00:00 | 00:00:00 | |
| SQ6EMJ | 2026-09-05 12:13:09 | 51.22410 | 17.16966 | 81° | 66km/h | 16304m | 2.1m/s | -51.3°C | 0% | 0hPa | 0V | 00:00:00 | 00:00:00 | 00:00:00 | |
| NBG1-10 | 2026-09-05 12:13:08 | 51.22409 | 17.16966 | 81° | 73km/h | 16304m | 2.1m/s | 0°C | 0% | 0hPa | 0V | 00:00:00 | 00:00:00 | 00:00:00 | |
| SQ6EMJ | 2026-09-05 12:13:01 | 51.22406 | 17.16736 | 91° | 69km/h | 16282m | 3.1m/s | -51.4°C | 0% | 0hPa | 0V | 00:00:00 | 00:00:00 | 00:00:00 | |
| SQ6EMJ | 2026-09-05 12:12:55 | 51.22405 | 17.16594 | 85° | 69km/h | 16270m | 2.6m/s | -51.7°C | 0% | 0hPa | 0V | 00:00:00 | 00:00:00 | 00:00:00 | |
| POL1PZ | 2026-09-05 12:12:50 | 51.22410 | 17.16418 | 98° | 77km/h | 16253m | 3.2m/s | -52.1°C | 0% | 0hPa | 0V | 00:00:00 | 00:00:00 | 00:00:00 | |
| SQ6EMJ | 2026-09-05 12:12:45 | 51.22414 | 17.16267 | 97° | 84km/h | 16241m | 2.4m/s | -52.1°C | 0% | 0hPa | 0V | 00:00:00 | 00:00:00 | 00:00:00 | |
| SQ6EMJ | 2026-09-05 12:12:39 | 51.22418 | 17.16083 | 91° | 71km/h | 16225m | 3.0m/s | -52.5°C | 0% | 0hPa | 0V | 00:00:00 | 00:00:00 | 00:00:00 | |
| NBG1-10 | 2026-09-05 12:12:35 | 51.22420 | 17.15993 | 97° | 73km/h | 16214m | 3.5m/s | 0°C | 0% | 0hPa | 0V | 00:00:00 | 00:00:00 | 00:00:00 | |
| SQ6EMJ | 2026-09-05 12:12:33 | 51.22422 | 17.15906 | 95° | 73km/h | 16208m | 3.0m/s | -52.6°C | 0% | 0hPa | 0V | 00:00:00 | 00:00:00 | 00:00:00 | |
| SP6BVK | 2026-09-05 12:12:29 | 51.22427 | 17.15815 | 91° | 68km/h | 16201m | 3.0m/s | -52.5°C | 0% | 0hPa | 0V | 00:00:00 | 00:00:00 | 00:00:00 | |
| SQ6EMJ | 2026-09-05 12:12:27 | 51.22428 | 17.15759 | 93° | 75km/h | 16196m | 3.0m/s | -52.6°C | 0% | 0hPa | 0V | 00:00:00 | 00:00:00 | 00:00:00 | |
| SQ6EMJ | 2026-09-05 12:12:22 | 51.22437 | 17.15585 | 98° | 78km/h | 16180m | 2.5m/s | -52.6°C | 0% | 0hPa | 0V | 00:00:00 | 00:00:00 | 00:00:00 | |
| SQ6EMJ | 2026-09-05 12:12:16 | 51.22442 | 17.15440 | 100° | 78km/h | 16165m | 2.7m/s | -52.4°C | 0% | 0hPa | 0V | 00:00:00 | 00:00:00 | 00:00:00 | |
| SQ6EMJ | 2026-09-05 12:12:11 | 51.22450 | 17.15266 | 96° | 71km/h | 16147m | 3.6m/s | -52.2°C | 0% | 0hPa | 0V | 00:00:00 | 00:00:00 | 00:00:00 | |
| SP6BVK | 2026-09-05 12:12:09 | 51.22450 | 17.15212 | 92° | 68km/h | 16141m | 3.0m/s | -52.2°C | 0% | 0hPa | 0V | 00:00:00 | 00:00:00 | 00:00:00 | |
| POL1PZ | 2026-09-05 12:12:06 | 51.22454 | 17.15154 | 97° | 77km/h | 16135m | 2.4m/s | -52.2°C | 0% | 0hPa | 0V | 00:00:00 | 00:00:00 | 00:00:00 | |
| SQ6EMJ | 2026-09-05 12:12:05 | 51.22456 | 17.15099 | 91° | 66km/h | 16130m | 2.0m/s | -52.1°C | 0% | 0hPa | 0V | 00:00:00 | 00:00:00 | 00:00:00 | |
| NBG1-10 | 2026-09-05 12:12:02 | 51.22459 | 17.15041 | 97° | 71km/h | 16121m | 3.5m/s | 0°C | 0% | 0hPa | 0V | 00:00:00 | 00:00:00 | 00:00:00 | |
| SQ6EMJ | 2026-09-05 12:12:00 | 51.22462 | 17.14959 | 94° | 68km/h | 16114m | 3.3m/s | -52.0°C | 0% | 0hPa | 0V | 00:00:00 | 00:00:00 | 00:00:00 | |
| SQ6EMJ | 2026-09-05 12:11:54 | 51.22470 | 17.14788 | 96° | 75km/h | 16095m | 2.8m/s | -51.9°C | 0% | 0hPa | 0V | 00:00:00 | 00:00:00 | 00:00:00 | |
| SP6BVK | 2026-09-05 12:11:48 | 51.22475 | 17.14645 | 93° | 75km/h | 16080m | 3.0m/s | -51.7°C | 0% | 0hPa | 0V | 00:00:00 | 00:00:00 | 00:00:00 | |
| POL1PZ | 2026-09-05 12:11:46 | 51.22476 | 17.14592 | 94° | 64km/h | 16074m | 2.7m/s | -51.6°C | 0% | 0hPa | 0V | 00:00:00 | 00:00:00 | 00:00:00 | |
| SQ6EMJ | 2026-09-05 12:11:43 | 51.22480 | 17.14477 | 88° | 62km/h | 16061m | 3.3m/s | -51.4°C | 0% | 0hPa | 0V | 00:00:00 | 00:00:00 | 00:00:00 | |
| SQ6EMJ | 2026-09-05 12:11:36 | 51.22486 | 17.14310 | 97° | 77km/h | 16042m | 3.4m/s | -51.3°C | 0% | 0hPa | 0V | 00:00:00 | 00:00:00 | 00:00:00 | |
| SQ6EMJ | 2026-09-05 12:11:31 | 51.22492 | 17.14169 | 98° | 78km/h | 16026m | 2.8m/s | -51.2°C | 0% | 0hPa | 0V | 00:00:00 | 00:00:00 | 00:00:00 | |
| NBG1-10 | 2026-09-05 12:11:29 | 51.22493 | 17.14113 | 92° | 73km/h | 16019m | 2.6m/s | 0°C | 0% | 0hPa | 0V | 00:00:00 | 00:00:00 | 00:00:00 | |
| SP6BVK | 2026-09-05 12:11:27 | 51.22497 | 17.14057 | 96° | 78km/h | 16013m | 2.7m/s | -51.1°C | 0% | 0hPa | 0V | 00:00:00 | 00:00:00 | 00:00:00 | |
| POL1PZ | 2026-09-05 12:11:26 | 51.22499 | 17.13999 | 94° | 68km/h | 16006m | 3.7m/s | -51.0°C | 0% | 0hPa | 0V | 00:00:00 | 00:00:00 | 00:00:00 | |
| SQ6EMJ | 2026-09-05 12:11:20 | 51.22505 | 17.13862 | 91° | 62km/h | 15989m | 3.0m/s | -51.1°C | 0% | 0hPa | 0V | 00:00:00 | 00:00:00 | 00:00:00 | |
| SQ6EMJ | 2026-09-05 12:11:15 | 51.22512 | 17.13695 | 94° | 71km/h | 15969m | 3.8m/s | -50.9°C | 0% | 0hPa | 0V | 00:00:00 | 00:00:00 | 00:00:00 | |
| SQ6EMJ | 2026-09-05 12:11:09 | 51.22518 | 17.13547 | 94° | 78km/h | 15952m | 4.0m/s | -51.0°C | 0% | 0hPa | 0V | 00:00:00 | 00:00:00 | 00:00:00 | |
| SP6BVK | 2026-09-05 12:11:07 | 51.22521 | 17.13485 | 93° | 73km/h | 15946m | 3.9m/s | -51.0°C | 0% | 0hPa | 0V | 00:00:00 | 00:00:00 | 00:00:00 | |
| POL1PZ | 2026-09-05 12:11:05 | 51.22521 | 17.13429 | 92° | 73km/h | 15939m | 3.2m/s | -50.9°C | 0% | 0hPa | 0V | 00:00:00 | 00:00:00 | 00:00:00 | |
| SQ6EMJ | 2026-09-05 12:11:04 | 51.22523 | 17.13365 | 95° | 86km/h | 15932m | 2.7m/s | -51.1°C | 0% | 0hPa | 0V | 00:00:00 | 00:00:00 | 00:00:00 | |
| SQ6EMJ | 2026-09-05 12:10:58 | 51.22528 | 17.13177 | 95° | 75km/h | 15912m | 4.2m/s | -51.1°C | 0% | 0hPa | 0V | 00:00:00 | 00:00:00 | 00:00:00 | |
| SQ6EMJ | 2026-09-05 12:10:52 | 51.22533 | 17.13024 | 95° | 78km/h | 15895m | 4.0m/s | -51.0°C | 0% | 0hPa | 0V | 00:00:00 | 00:00:00 | 00:00:00 | |
| SQ6EMJ | 2026-09-05 12:10:47 | 51.22540 | 17.12846 | 94° | 68km/h | 15874m | 2.5m/s | -50.9°C | 0% | 0hPa | 0V | 00:00:00 | 00:00:00 | 00:00:00 | |
| SP6BVK | 2026-09-05 12:10:46 | 51.22540 | 17.12846 | 94° | 68km/h | 15874m | 2.5m/s | -50.9°C | 0% | 0hPa | 0V | 00:00:00 | 00:00:00 | 00:00:00 | |
| POL1PZ | 2026-09-05 12:10:45 | 51.22543 | 17.12784 | 95° | 84km/h | 15867m | 3.4m/s | -50.9°C | 0% | 0hPa | 0V | 00:00:00 | 00:00:00 | 00:00:00 | |
| SQ6EMJ | 2026-09-05 12:10:41 | 51.22551 | 17.12666 | 97° | 84km/h | 15852m | 3.2m/s | -50.6°C | 0% | 0hPa | 0V | 00:00:00 | 00:00:00 | 00:00:00 | |
| SQ6EMJ | 2026-09-05 12:10:36 | 51.22563 | 17.12514 | 98° | 78km/h | 15834m | 2.8m/s | -50.6°C | 0% | 0hPa | 0V | 00:00:00 | 00:00:00 | 00:00:00 | |
| SQ6EMJ | 2026-09-05 12:10:30 | 51.22582 | 17.12331 | 101° | 73km/h | 15812m | 4.5m/s | -50.6°C | 0% | 0hPa | 0V | 00:00:00 | 00:00:00 | 00:00:00 | |
| SP6BVK | 2026-09-05 12:10:25 | 51.22596 | 17.12208 | 101° | 77km/h | 15797m | 4.2m/s | -50.6°C | 0% | 0hPa | 0V | 00:00:00 | 00:00:00 | 00:00:00 | |
| SQ6EMJ | 2026-09-05 12:10:24 | 51.22599 | 17.12179 | 101° | 69km/h | 15794m | 3.1m/s | -50.5°C | 0% | 0hPa | 0V | 00:00:00 | 00:00:00 | 00:00:00 | |
| POL1PZ | 2026-09-05 12:10:23 | 51.22603 | 17.12151 | 103° | 75km/h | 15790m | 4.2m/s | -50.6°C | 0% | 0hPa | 0V | 00:00:00 | 00:00:00 | 00:00:00 | |
| SQ6EMJ | 2026-09-05 12:10:19 | 51.22620 | 17.11994 | 99° | 84km/h | 15771m | 3.8m/s | -50.7°C | 0% | 0hPa | 0V | 00:00:00 | 00:00:00 | 00:00:00 | |
| SQ6EMJ | 2026-09-05 12:10:13 | 51.22638 | 17.11802 | 99° | 80km/h | 15750m | 4.1m/s | -50.6°C | 0% | 0hPa | 0V | 00:00:00 | 00:00:00 | 00:00:00 | |
| SQ6EMJ | 2026-09-05 12:10:08 | 51.22653 | 17.11643 | 99° | 71km/h | 15732m | 4.0m/s | -50.5°C | 0% | 0hPa | 0V | 00:00:00 | 00:00:00 | 00:00:00 | |
| SP6BVK | 2026-09-05 12:10:05 | 51.22660 | 17.11581 | 103° | 88km/h | 15724m | 3.8m/s | -50.6°C | 0% | 0hPa | 0V | 00:00:00 | 00:00:00 | 00:00:00 | |
| POL1PZ | 2026-09-05 12:10:02 | 51.22671 | 17.11485 | 99° | 69km/h | 15713m | 3.1m/s | -50.7°C | 0% | 0hPa | 0V | 00:00:00 | 00:00:00 | 00:00:00 | |
| SQ6EMJ | 2026-09-05 12:10:00 | 51.22681 | 17.11387 | 99° | 84km/h | 15702m | 3.9m/s | -50.6°C | 0% | 0hPa | 0V | 00:00:00 | 00:00:00 | 00:00:00 | |
| SQ6EMJ | 2026-09-05 12:09:55 | 51.22694 | 17.11230 | 95° | 71km/h | 15683m | 4.0m/s | -50.5°C | 0% | 0hPa | 0V | 00:00:00 | 00:00:00 | 00:00:00 | |
| SQ6EMJ | 2026-09-05 12:09:49 | 51.22708 | 17.11045 | 99° | 82km/h | 15660m | 4.0m/s | -50.5°C | 0% | 0hPa | 0V | 00:00:00 | 00:00:00 | 00:00:00 | |
| SP6BVK | 2026-09-05 12:09:45 | 51.22717 | 17.10921 | 98° | 77km/h | 15644m | 3.9m/s | -50.7°C | 0% | 0hPa | 0V | 00:00:00 | 00:00:00 | 00:00:00 | |
| SQ6EMJ | 2026-09-05 12:09:42 | 51.22723 | 17.10856 | 98° | 75km/h | 15637m | 4.2m/s | -50.7°C | 0% | 0hPa | 0V | 00:00:00 | 00:00:00 | 00:00:00 | |
| POL1PZ | 2026-09-05 12:09:41 | 51.22726 | 17.10799 | 97° | 75km/h | 15630m | 3.8m/s | -50.6°C | 0% | 0hPa | 0V | 00:00:00 | 00:00:00 | 00:00:00 | |
| SQ6EMJ | 2026-09-05 12:09:38 | 51.22733 | 17.10706 | 93° | 68km/h | 15617m | 3.4m/s | -50.5°C | 0% | 0hPa | 0V | 00:00:00 | 00:00:00 | 00:00:00 | |
| SQ6EMJ | 2026-09-05 12:09:32 | 51.22746 | 17.10529 | 98° | 73km/h | 15595m | 4.1m/s | -50.5°C | 0% | 0hPa | 0V | 00:00:00 | 00:00:00 | 00:00:00 | |
| SQ6EMJ | 2026-09-05 12:09:26 | 51.22758 | 17.10379 | 100° | 80km/h | 15576m | 3.8m/s | -50.2°C | 0% | 0hPa | 0V | 00:00:00 | 00:00:00 | 00:00:00 | |
| SP6BVK | 2026-09-05 12:09:24 | 51.22763 | 17.10316 | 99° | 73km/h | 15569m | 4.1m/s | -50.1°C | 0% | 0hPa | 0V | 00:00:00 | 00:00:00 | 00:00:00 | |
| SQ6EMJ | 2026-09-05 12:09:21 | 51.22773 | 17.10201 | 98° | 75km/h | 15553m | 4.3m/s | -50.0°C | 0% | 0hPa | 0V | 00:00:00 | 00:00:00 | 00:00:00 | |
| POL1PZ | 2026-09-05 12:09:18 | 51.22775 | 17.10146 | 95° | 69km/h | 15545m | 3.8m/s | -50.0°C | 0% | 0hPa | 0V | 00:00:00 | 00:00:00 | 00:00:00 | |
| SQ6EMJ | 2026-09-05 12:09:15 | 51.22786 | 17.10030 | 99° | 69km/h | 15529m | 3.7m/s | -49.8°C | 0% | 0hPa | 0V | 00:00:00 | 00:00:00 | 00:00:00 | |
| SQ6EMJ | 2026-09-05 12:09:09 | 51.22799 | 17.09884 | 98° | 73km/h | 15510m | 4.0m/s | -49.6°C | 0% | 0hPa | 0V | 00:00:00 | 00:00:00 | 00:00:00 | |
| SQ6EMJ | 2026-09-05 12:09:04 | 51.22815 | 17.09708 | 103° | 82km/h | 15488m | 3.8m/s | -49.6°C | 0% | 0hPa | 0V | 00:00:00 | 00:00:00 | 00:00:00 | |
| SP6BVK | 2026-09-05 12:09:03 | 51.22815 | 17.09708 | 103° | 82km/h | 15488m | 3.8m/s | -49.6°C | 0% | 0hPa | 0V | 00:00:00 | 00:00:00 | 00:00:00 | |
| SQ6EMJ | 2026-09-05 12:08:59 | 51.22832 | 17.09562 | 103° | 77km/h | 15469m | 3.5m/s | -49.8°C | 0% | 0hPa | 0V | 00:00:00 | 00:00:00 | 00:00:00 | |
| POL1PZ | 2026-09-05 12:08:58 | 51.22832 | 17.09562 | 103° | 77km/h | 15469m | 3.5m/s | -49.8°C | 0% | 0hPa | 0V | 00:00:00 | 00:00:00 | 00:00:00 | |
| SQ6EMJ | 2026-09-05 12:08:53 | 51.22850 | 17.09385 | 95° | 69km/h | 15447m | 3.6m/s | -49.7°C | 0% | 0hPa | 0V | 00:00:00 | 00:00:00 | 00:00:00 | |
| SQ6EMJ | 2026-09-05 12:08:47 | 51.22868 | 17.09204 | 103° | 82km/h | 15426m | 4.3m/s | -49.6°C | 0% | 0hPa | 0V | 00:00:00 | 00:00:00 | 00:00:00 | |
| SP6BVK | 2026-09-05 12:08:43 | 51.22878 | 17.09112 | 94° | 73km/h | 15412m | 3.2m/s | -49.7°C | 0% | 0hPa | 0V | 00:00:00 | 00:00:00 | 00:00:00 | |
| SQ6EMJ | 2026-09-05 12:08:41 | 51.22882 | 17.09049 | 103° | 84km/h | 15405m | 4.1m/s | -49.7°C | 0% | 0hPa | 0V | 00:00:00 | 00:00:00 | 00:00:00 | |
| POL1PZ | 2026-09-05 12:08:38 | 51.22895 | 17.08924 | 104° | 82km/h | 15389m | 4.3m/s | -49.6°C | 0% | 0hPa | 0V | 00:00:00 | 00:00:00 | 00:00:00 | |
| SQ6EMJ | 2026-09-05 12:08:35 | 51.22904 | 17.08860 | 101° | 77km/h | 15382m | 4.5m/s | -49.6°C | 0% | 0hPa | 0V | 00:00:00 | 00:00:00 | 00:00:00 | |
| SQ6EMJ | 2026-09-05 12:08:31 | 51.22921 | 17.08700 | 95° | 80km/h | 15363m | 4.1m/s | -49.6°C | 0% | 0hPa | 0V | 00:00:00 | 00:00:00 | 00:00:00 | |
| SQ6EMJ | 2026-09-05 12:08:25 | 51.22942 | 17.08505 | 101° | 82km/h | 15339m | 3.6m/s | -49.4°C | 0% | 0hPa | 0V | 00:00:00 | 00:00:00 | 00:00:00 | |
| SP6BVK | 2026-09-05 12:08:23 | 51.22951 | 17.08437 | 104° | 88km/h | 15331m | 3.9m/s | -49.5°C | 0% | 0hPa | 0V | 00:00:00 | 00:00:00 | 00:00:00 | |
| POL1PZ | 2026-09-05 12:08:18 | 51.22973 | 17.08263 | 106° | 93km/h | 15312m | 3.5m/s | -49.7°C | 0% | 0hPa | 0V | 00:00:00 | 00:00:00 | 00:00:00 | |
| SQ6EMJ | 2026-09-05 12:08:12 | 51.23000 | 17.08045 | 99° | 93km/h | 15290m | 3.3m/s | -49.6°C | 0% | 0hPa | 0V | 00:00:00 | 00:00:00 | 00:00:00 | |
| SQ6EMJ | 2026-09-05 12:08:06 | 51.23032 | 17.07823 | 105° | 95km/h | 15268m | 4.3m/s | -49.7°C | 0% | 0hPa | 0V | 00:00:00 | 00:00:00 | 00:00:00 | |
| SP6BVK | 2026-09-05 12:08:02 | 51.23049 | 17.07710 | 99° | 97km/h | 15257m | 3.5m/s | -49.8°C | 0% | 0hPa | 0V | 00:00:00 | 00:00:00 | 00:00:00 | |
| SQ6EMJ | 2026-09-05 12:08:00 | 51.23061 | 17.07632 | 109° | 99km/h | 15249m | 3.3m/s | -50.0°C | 0% | 0hPa | 0V | 00:00:00 | 00:00:00 | 00:00:00 | |
| POL1PZ | 2026-09-05 12:07:57 | 51.23082 | 17.07476 | 107° | 104km/h | 15234m | 3.8m/s | -50.2°C | 0% | 0hPa | 0V | 00:00:00 | 00:00:00 | 00:00:00 | |
| SQ6EMJ | 2026-09-05 12:07:55 | 51.23092 | 17.07399 | 98° | 95km/h | 15227m | 3.9m/s | -50.3°C | 0% | 0hPa | 0V | 00:00:00 | 00:00:00 | 00:00:00 | |
| SQ6EMJ | 2026-09-05 12:07:50 | 51.23115 | 17.07203 | 96° | 93km/h | 15209m | 3.7m/s | -50.5°C | 0% | 0hPa | 0V | 00:00:00 | 00:00:00 | 00:00:00 | |
| SQ6EMJ | 2026-09-05 12:07:44 | 51.23136 | 17.06964 | 101° | 106km/h | 15186m | 3.5m/s | -50.6°C | 0% | 0hPa | 0V | 00:00:00 | 00:00:00 | 00:00:00 | |
| SP6BVK | 2026-09-05 12:07:41 | 51.23144 | 17.06882 | 96° | 97km/h | 15179m | 4.7m/s | -50.7°C | 0% | 0hPa | 0V | 00:00:00 | 00:00:00 | 00:00:00 | |
| POL1PZ | 2026-09-05 12:07:37 | 51.23158 | 17.06682 | 95° | 97km/h | 15162m | 2.9m/s | -50.7°C | 0% | 0hPa | 0V | 00:00:00 | 00:00:00 | 00:00:00 | |
| SQ6EMJ | 2026-09-05 12:07:34 | 51.23170 | 17.06517 | 91° | 100km/h | 15149m | 3.4m/s | -50.7°C | 0% | 0hPa | 0V | 00:00:00 | 00:00:00 | 00:00:00 | |
| SQ6EMJ | 2026-09-05 12:07:23 | 51.23188 | 17.06112 | 94° | 97km/h | 15116m | 3.6m/s | -50.9°C | 0% | 0hPa | 0V | 00:00:00 | 00:00:00 | 00:00:00 | |
| SP6BVK | 2026-09-05 12:07:22 | 51.23190 | 17.06073 | 100° | 100km/h | 15112m | 3.6m/s | -51.0°C | 0% | 0hPa | 0V | 00:00:00 | 00:00:00 | 00:00:00 | |
| SQ6EMJ | 2026-09-05 12:07:18 | 51.23196 | 17.05919 | 98° | 99km/h | 15098m | 3.3m/s | -50.9°C | 0% | 0hPa | 0V | 00:00:00 | 00:00:00 | 00:00:00 | |
| POL1PZ | 2026-09-05 12:07:16 | 51.23201 | 17.05843 | 91° | 95km/h | 15092m | 4.0m/s | -50.9°C | 0% | 0hPa | 0V | 00:00:00 | 00:00:00 | 00:00:00 | |
| SQ6EMJ | 2026-09-05 12:07:12 | 51.23206 | 17.05690 | 92° | 93km/h | 15078m | 4.0m/s | -50.8°C | 0% | 0hPa | 0V | 00:00:00 | 00:00:00 | 00:00:00 | |
| SQ6EMJ | 2026-09-05 12:07:06 | 51.23210 | 17.05462 | 90° | 93km/h | 15058m | 2.8m/s | -50.8°C | 0% | 0hPa | 0V | 00:00:00 | 00:00:00 | 00:00:00 | |
| SP6BVK | 2026-09-05 12:07:01 | 51.23214 | 17.05274 | 98° | 89km/h | 15042m | 3.6m/s | -50.6°C | 0% | 0hPa | 0V | 00:00:00 | 00:00:00 | 00:00:00 | |
| SQ6EMJ | 2026-09-05 12:06:59 | 51.23217 | 17.05201 | 89° | 95km/h | 15035m | 3.6m/s | -50.6°C | 0% | 0hPa | 0V | 00:00:00 | 00:00:00 | 00:00:00 | |
| POL1PZ | 2026-09-05 12:06:54 | 51.23219 | 17.05053 | 91° | 93km/h | 15022m | 3.8m/s | -50.5°C | 0% | 0hPa | 0V | 00:00:00 | 00:00:00 | 00:00:00 | |
| SQ6EMJ | 2026-09-05 12:06:53 | 51.23219 | 17.04977 | 94° | 91km/h | 15015m | 3.5m/s | -50.5°C | 0% | 0hPa | 0V | 00:00:00 | 00:00:00 | 00:00:00 | |
| SQ6EMJ | 2026-09-05 12:06:46 | 51.23221 | 17.04759 | 93° | 88km/h | 14996m | 3.0m/s | -50.3°C | 0% | 0hPa | 0V | 00:00:00 | 00:00:00 | 00:00:00 | |
| SP6BVK | 2026-09-05 12:06:40 | 51.23220 | 17.04539 | 86° | 97km/h | 14977m | 2.8m/s | -50.2°C | 0% | 0hPa | 0V | 00:00:00 | 00:00:00 | 00:00:00 | |
| SQ6EMJ | 2026-09-05 12:06:38 | 51.23219 | 17.04467 | 95° | 82km/h | 14970m | 3.5m/s | -50.3°C | 0% | 0hPa | 0V | 00:00:00 | 00:00:00 | 00:00:00 | |
| SQ6EMJ | 2026-09-05 12:06:33 | 51.23217 | 17.04253 | 87° | 91km/h | 14950m | 3.5m/s | -50.2°C | 0% | 0hPa | 0V | 00:00:00 | 00:00:00 | 00:00:00 | |
| SQ6EMJ | 2026-09-05 12:06:26 | 51.23210 | 17.04037 | 86° | 89km/h | 14932m | 3.9m/s | -50.0°C | 0% | 0hPa | 0V | 00:00:00 | 00:00:00 | 00:00:00 | |
| SP6BVK | 2026-09-05 12:06:19 | 51.23202 | 17.03790 | 87° | 89km/h | 14909m | 3.8m/s | -49.9°C | 0% | 0hPa | 0V | 00:00:00 | 00:00:00 | 00:00:00 | |
| SQ6EMJ | 2026-09-05 12:06:18 | 51.23197 | 17.03716 | 88° | 88km/h | 14903m | 4.0m/s | -50.0°C | 0% | 0hPa | 0V | 00:00:00 | 00:00:00 | 00:00:00 | |
| SQ6EMJ | 2026-09-05 12:06:13 | 51.23187 | 17.03536 | 91° | 84km/h | 14886m | 2.7m/s | -50.0°C | 0% | 0hPa | 0V | 00:00:00 | 00:00:00 | 00:00:00 | |
| POL1PZ | 2026-09-05 12:06:12 | 51.23187 | 17.03536 | 91° | 84km/h | 14886m | 2.7m/s | -50.0°C | 0% | 0hPa | 0V | 00:00:00 | 00:00:00 | 00:00:00 | |
| SQ6EMJ | 2026-09-05 12:06:07 | 51.23175 | 17.03322 | 83° | 91km/h | 14867m | 2.9m/s | -49.8°C | 0% | 0hPa | 0V | 00:00:00 | 00:00:00 | 00:00:00 | |
| SP6BVK | 2026-09-05 12:05:59 | 51.23156 | 17.03070 | 91° | 84km/h | 14844m | 3.3m/s | -49.8°C | 0% | 0hPa | 0V | 00:00:00 | 00:00:00 | 00:00:00 | |
| SQ6EMJ | 2026-09-05 12:05:55 | 51.23144 | 17.02894 | 87° | 86km/h | 14828m | 2.5m/s | -49.8°C | 0% | 0hPa | 0V | 00:00:00 | 00:00:00 | 00:00:00 | |
| POL1PZ | 2026-09-05 12:05:50 | 51.23132 | 17.02754 | 86° | 84km/h | 14815m | 2.9m/s | -49.8°C | 0% | 0hPa | 0V | 00:00:00 | 00:00:00 | 00:00:00 | |
| SP6BVK | 2026-09-05 12:05:39 | 51.23096 | 17.02341 | 84° | 77km/h | 14776m | 3.4m/s | -49.4°C | 0% | 0hPa | 0V | 00:00:00 | 00:00:00 | 00:00:00 | |
| SQ6EMJ | 2026-09-05 12:05:35 | 51.23083 | 17.02205 | 83° | 80km/h | 14763m | 3.6m/s | -49.4°C | 0% | 0hPa | 0V | 00:00:00 | 00:00:00 | 00:00:00 | |
| POL1PZ | 2026-09-05 12:05:29 | 51.23067 | 17.02039 | 84° | 73km/h | 14747m | 2.8m/s | -49.4°C | 0% | 0hPa | 0V | 00:00:00 | 00:00:00 | 00:00:00 | |
| SQ6EMJ | 2026-09-05 12:05:24 | 51.23047 | 17.01844 | 78° | 86km/h | 14726m | 4.2m/s | -49.4°C | 0% | 0hPa | 0V | 00:00:00 | 00:00:00 | 00:00:00 | |
| SQ6EMJ | 2026-09-05 12:05:18 | 51.23024 | 17.01649 | 80° | 78km/h | 14705m | 3.9m/s | -49.3°C | 0% | 0hPa | 0V | 00:00:00 | 00:00:00 | 00:00:00 | |
| SP6BVK | 2026-09-05 12:05:17 | 51.23024 | 17.01649 | 80° | 78km/h | 14705m | 3.9m/s | -49.3°C | 0% | 0hPa | 0V | 00:00:00 | 00:00:00 | 00:00:00 | |
| SQ6EMJ | 2026-09-05 12:05:12 | 51.23009 | 17.01498 | 84° | 69km/h | 14686m | 2.9m/s | -49.3°C | 0% | 0hPa | 0V | 00:00:00 | 00:00:00 | 00:00:00 | |
| POL1PZ | 2026-09-05 12:05:09 | 51.22995 | 17.01377 | 86° | 68km/h | 14673m | 3.2m/s | -49.3°C | 0% | 0hPa | 0V | 00:00:00 | 00:00:00 | 00:00:00 | |
| SQ6EMJ | 2026-09-05 12:05:05 | 51.22982 | 17.01258 | 86° | 68km/h | 14659m | 2.7m/s | -49.1°C | 0% | 0hPa | 0V | 00:00:00 | 00:00:00 | 00:00:00 | |
| SQ6EMJ | 2026-09-05 12:04:59 | 51.22968 | 17.01112 | 80° | 71km/h | 14642m | 3.8m/s | -48.9°C | 0% | 0hPa | 0V | 00:00:00 | 00:00:00 | 00:00:00 | |
| SQ6EMJ | 2026-09-05 12:04:54 | 51.22949 | 17.00934 | 82° | 86km/h | 14622m | 4.1m/s | -48.8°C | 0% | 0hPa | 0V | 00:00:00 | 00:00:00 | 00:00:00 | |
| SQ6EMJ | 2026-09-05 12:04:49 | 51.22936 | 17.00783 | 83° | 86km/h | 14605m | 1.8m/s | -48.5°C | 0% | 0hPa | 0V | 00:00:00 | 00:00:00 | 00:00:00 | |
| POL1PZ | 2026-09-05 12:04:48 | 51.22936 | 17.00783 | 83° | 86km/h | 14605m | 1.8m/s | -48.5°C | 0% | 0hPa | 0V | 00:00:00 | 00:00:00 | 00:00:00 | |
| SQ6EMJ | 2026-09-05 12:04:43 | 51.22923 | 17.00597 | 87° | 71km/h | 14585m | 3.5m/s | -48.3°C | 0% | 0hPa | 0V | 00:00:00 | 00:00:00 | 00:00:00 | |
| SQ6EMJ | 2026-09-05 12:04:37 | 51.22911 | 17.00415 | 85° | 77km/h | 14566m | 3.3m/s | -48.4°C | 0% | 0hPa | 0V | 00:00:00 | 00:00:00 | 00:00:00 | |
| SP6BVK | 2026-09-05 12:04:36 | 51.22911 | 17.00415 | 85° | 77km/h | 14566m | 3.3m/s | -48.4°C | 0% | 0hPa | 0V | 00:00:00 | 00:00:00 | 00:00:00 | |
| SQ6EMJ | 2026-09-05 12:04:31 | 51.22904 | 17.00258 | 87° | 84km/h | 14549m | 3.9m/s | -48.3°C | 0% | 0hPa | 0V | 00:00:00 | 00:00:00 | 00:00:00 | |
| POL1PZ | 2026-09-05 12:04:27 | 51.22898 | 17.00134 | 88° | 78km/h | 14537m | 3.8m/s | -48.0°C | 0% | 0hPa | 0V | 00:00:00 | 00:00:00 | 00:00:00 | |
| SQ6EMJ | 2026-09-05 12:04:25 | 51.22895 | 17.00067 | 87° | 82km/h | 14530m | 3.4m/s | -48.1°C | 0% | 0hPa | 0V | 00:00:00 | 00:00:00 | 00:00:00 | |
| SQ6EMJ | 2026-09-05 12:04:20 | 51.22887 | 16.99906 | 91° | 88km/h | 14513m | 3.3m/s | -47.9°C | 0% | 0hPa | 0V | 00:00:00 | 00:00:00 | 00:00:00 | |
| SP6BVK | 2026-09-05 12:04:16 | 51.22885 | 16.99777 | 80° | 91km/h | 14501m | 2.7m/s | -48.0°C | 0% | 0hPa | 0V | 00:00:00 | 00:00:00 | 00:00:00 | |
| SQ6EMJ | 2026-09-05 12:04:15 | 51.22884 | 16.99711 | 90° | 78km/h | 14494m | 2.8m/s | -47.9°C | 0% | 0hPa | 0V | 00:00:00 | 00:00:00 | 00:00:00 | |
| SQ6EMJ | 2026-09-05 12:04:09 | 51.22889 | 16.99515 | 101° | 84km/h | 14476m | 3.4m/s | -48.5°C | 0% | 0hPa | 0V | 00:00:00 | 00:00:00 | 00:00:00 | |
| POL1PZ | 2026-09-05 12:04:08 | 51.22892 | 16.99483 | 96° | 78km/h | 14473m | 3.2m/s | -48.4°C | 0% | 0hPa | 0V | 00:00:00 | 00:00:00 | 00:00:00 | |
| SQ6EMJ | 2026-09-05 12:04:03 | 51.22890 | 16.99338 | 89° | 95km/h | 14460m | 3.4m/s | -48.2°C | 0% | 0hPa | 0V | 00:00:00 | 00:00:00 | 00:00:00 | |
| SQ6EMJ | 2026-09-05 12:03:58 | 51.22897 | 16.99129 | 88° | 89km/h | 14437m | 2.7m/s | -48.5°C | 0% | 0hPa | 0V | 00:00:00 | 00:00:00 | 00:00:00 | |
| SP6BVK | 2026-09-05 12:03:56 | 51.22902 | 16.99057 | 101° | 82km/h | 14430m | 3.6m/s | -48.7°C | 0% | 0hPa | 0V | 00:00:00 | 00:00:00 | 00:00:00 | |
| SQ6EMJ | 2026-09-05 12:03:52 | 51.22912 | 16.98952 | 95° | 91km/h | 14422m | 2.5m/s | -48.7°C | 0% | 0hPa | 0V | 00:00:00 | 00:00:00 | 00:00:00 | |
| SQ6EMJ | 2026-09-05 12:03:47 | 51.22933 | 16.98737 | 100° | 89km/h | 14403m | 3.4m/s | -48.7°C | 0% | 0hPa | 0V | 00:00:00 | 00:00:00 | 00:00:00 | |
| POL1PZ | 2026-09-05 12:03:46 | 51.22933 | 16.98737 | 100° | 89km/h | 14403m | 3.4m/s | -48.7°C | 0% | 0hPa | 0V | 00:00:00 | 00:00:00 | 00:00:00 | |
| SQ6EMJ | 2026-09-05 12:03:41 | 51.22958 | 16.98531 | 105° | 78km/h | 14384m | 3.0m/s | -48.8°C | 0% | 0hPa | 0V | 00:00:00 | 00:00:00 | 00:00:00 | |
| SP6BVK | 2026-09-05 12:03:36 | 51.22975 | 16.98366 | 104° | 80km/h | 14367m | 3.6m/s | -49.0°C | 0% | 0hPa | 0V | 00:00:00 | 00:00:00 | 00:00:00 | |
| SQ6EMJ | 2026-09-05 12:03:35 | 51.22979 | 16.98333 | 102° | 88km/h | 14363m | 3.9m/s | -49.0°C | 0% | 0hPa | 0V | 00:00:00 | 00:00:00 | 00:00:00 | |
| SQ6EMJ | 2026-09-05 12:03:28 | 51.23012 | 16.98094 | 105° | 80km/h | 14338m | 2.5m/s | -49.2°C | 0% | 0hPa | 0V | 00:00:00 | 00:00:00 | 00:00:00 | |
| POL1PZ | 2026-09-05 12:03:25 | 51.23024 | 16.98023 | 106° | 97km/h | 14331m | 3.1m/s | -49.2°C | 0% | 0hPa | 0V | 00:00:00 | 00:00:00 | 00:00:00 | |
| SQ6EMJ | 2026-09-05 12:03:17 | 51.23079 | 16.97702 | 107° | 93km/h | 14301m | 4.0m/s | -49.2°C | 0% | 0hPa | 0V | 00:00:00 | 00:00:00 | 00:00:00 | |
| SP6BVK | 2026-09-05 12:03:14 | 51.23091 | 16.97633 | 106° | 89km/h | 14294m | 3.8m/s | -49.2°C | 0% | 0hPa | 0V | 00:00:00 | 00:00:00 | 00:00:00 | |
| SQ6EMJ | 2026-09-05 12:03:11 | 51.23117 | 16.97484 | 108° | 88km/h | 14280m | 2.9m/s | -49.3°C | 0% | 0hPa | 0V | 00:00:00 | 00:00:00 | 00:00:00 | |
| OE3JTB-15 | 2026-09-05 12:03:06 | 51.23143 | 16.97332 | 104° | 95km/h | 14255m | 4.2m/s | 0°C | 0% | 0hPa | 0V | 00:00:00 | 00:00:00 | 00:00:00 | |
| POL1PZ | 2026-09-05 12:03:05 | 51.23149 | 16.97297 | 107° | 97km/h | 14262m | 4.1m/s | -49.3°C | 0% | 0hPa | 0V | 00:00:00 | 00:00:00 | 00:00:00 | |
| EDDB2-12 | 2026-09-05 12:03:04 | 51.23168 | 16.97182 | 102° | 88km/h | 14251m | 3.3m/s | -49.8°C | -1.0% | -1.0hPa | 0V | 00:00:00 | 00:00:00 | 00:00:00 | |
| SQ6EMJ | 2026-09-05 12:03:00 | 51.23185 | 16.97070 | 106° | 106km/h | 14241m | 3.5m/s | -49.3°C | 0% | 0hPa | 0V | 00:00:00 | 00:00:00 | 00:00:00 | |
| SP6BVK | 2026-09-05 12:02:54 | 51.23212 | 16.96879 | 105° | 106km/h | 14223m | 2.8m/s | -49.3°C | 0% | 0hPa | 0V | 00:00:00 | 00:00:00 | 00:00:00 | |
| SQ6EMJ | 2026-09-05 12:02:49 | 51.23244 | 16.96647 | 102° | 89km/h | 14201m | 3.1m/s | -49.1°C | 0% | 0hPa | 0V | 00:00:00 | 00:00:00 | 00:00:00 | |
| POL1PZ | 2026-09-05 12:02:45 | 51.23264 | 16.96490 | 100° | 89km/h | 14186m | 3.4m/s | -48.9°C | 0% | 0hPa | 0V | 00:00:00 | 00:00:00 | 00:00:00 | |
| SQ6EMJ | 2026-09-05 12:02:42 | 51.23272 | 16.96412 | 101° | 108km/h | 14179m | 3.2m/s | -48.8°C | 0% | 0hPa | 0V | 00:00:00 | 00:00:00 | 00:00:00 | |
| SQ6EMJ | 2026-09-05 12:02:38 | 51.23294 | 16.96215 | 101° | 108km/h | 14162m | 3.1m/s | -48.9°C | 0% | 0hPa | 0V | 00:00:00 | 00:00:00 | 00:00:00 | |
| OE3JTB-15 | 2026-09-05 12:02:36 | 51.23298 | 16.96174 | 101° | 102km/h | 14155m | 3.1m/s | 0°C | 0% | 0hPa | 0V | 00:00:00 | 00:00:00 | 00:00:00 | |
| SP6BVK | 2026-09-05 12:02:33 | 51.23312 | 16.96057 | 101° | 110km/h | 14148m | 3.3m/s | -48.9°C | 0% | 0hPa | 0V | 00:00:00 | 00:00:00 | 00:00:00 | |
| SQ6EMJ | 2026-09-05 12:02:32 | 51.23321 | 16.95975 | 101° | 95km/h | 14141m | 3.8m/s | -48.9°C | 0% | 0hPa | 0V | 00:00:00 | 00:00:00 | 00:00:00 | |
| SQ6EMJ | 2026-09-05 12:02:26 | 51.23341 | 16.95774 | 99° | 97km/h | 14123m | 3.0m/s | -48.8°C | 0% | 0hPa | 0V | 00:00:00 | 00:00:00 | 00:00:00 | |
| POL1PZ | 2026-09-05 12:02:25 | 51.23348 | 16.95691 | 98° | 110km/h | 14116m | 2.8m/s | -49.0°C | 0% | 0hPa | 0V | 00:00:00 | 00:00:00 | 00:00:00 | |
| SQ6EMJ | 2026-09-05 12:02:21 | 51.23362 | 16.95525 | 98° | 115km/h | 14102m | 3.5m/s | -49.0°C | 0% | 0hPa | 0V | 00:00:00 | 00:00:00 | 00:00:00 | |
| SQ6EMJ | 2026-09-05 12:02:15 | 51.23389 | 16.95270 | 99° | 106km/h | 14081m | 3.8m/s | -49.2°C | 0% | 0hPa | 0V | 00:00:00 | 00:00:00 | 00:00:00 | |
| SP6BVK | 2026-09-05 12:02:13 | 51.23393 | 16.95230 | 102° | 99km/h | 14077m | 3.0m/s | -49.2°C | 0% | 0hPa | 0V | 00:00:00 | 00:00:00 | 00:00:00 | |
| SQ6EMJ | 2026-09-05 12:02:10 | 51.23414 | 16.95061 | 100° | 108km/h | 14063m | 3.7m/s | -49.0°C | 0% | 0hPa | 0V | 00:00:00 | 00:00:00 | 00:00:00 | |
| OE3JTB-15 | 2026-09-05 12:02:07 | 51.23424 | 16.94981 | 102° | 106km/h | 14010m | 3.0m/s | 0°C | 0% | 0hPa | 0V | 00:00:00 | 00:00:00 | 00:00:00 | |
| POL1PZ | 2026-09-05 12:02:03 | 51.23447 | 16.94813 | 103° | 100km/h | 14042m | 2.6m/s | -48.8°C | 0% | 0hPa | 0V | 00:00:00 | 00:00:00 | 00:00:00 | |
| EDDB2-12 | 2026-09-05 12:02:02 | 51.23457 | 16.94730 | 99° | 113km/h | 14035m | 3.5m/s | -49.4°C | -1.0% | -1.0hPa | 0V | 00:00:00 | 00:00:00 | 00:00:00 | |
| SQ6EMJ | 2026-09-05 12:01:59 | 51.23475 | 16.94606 | 105° | 102km/h | 14024m | 3.6m/s | -48.9°C | 0% | 0hPa | 0V | 00:00:00 | 00:00:00 | 00:00:00 | |
| SP6BVK | 2026-09-05 12:01:53 | 51.23512 | 16.94358 | 103° | 113km/h | 14003m | 3.0m/s | -49.0°C | 0% | 0hPa | 0V | 00:00:00 | 00:00:00 | 00:00:00 | |
| SQ6EMJ | 2026-09-05 12:01:47 | 51.23550 | 16.94109 | 105° | 106km/h | 13982m | 3.9m/s | -49.2°C | 0% | 0hPa | 0V | 00:00:00 | 00:00:00 | 00:00:00 | |
| POL1PZ | 2026-09-05 12:01:43 | 51.23570 | 16.93984 | 101° | 115km/h | 13972m | 3.4m/s | -49.3°C | 0% | 0hPa | 0V | 00:00:00 | 00:00:00 | 00:00:00 | |
| SQ6EMJ | 2026-09-05 12:01:41 | 51.23583 | 16.93899 | 108° | 104km/h | 13963m | 3.3m/s | -49.3°C | 0% | 0hPa | 0V | 00:00:00 | 00:00:00 | 00:00:00 | |
| SQ6EMJ | 2026-09-05 12:01:36 | 51.23623 | 16.93639 | 102° | 120km/h | 13943m | 2.9m/s | -49.3°C | 0% | 0hPa | 0V | 00:00:00 | 00:00:00 | 00:00:00 | |
| SP6BVK | 2026-09-05 12:01:32 | 51.23643 | 16.93508 | 102° | 115km/h | 13932m | 3.9m/s | -49.2°C | 0% | 0hPa | 0V | 00:00:00 | 00:00:00 | 00:00:00 | |
| SQ6EMJ | 2026-09-05 12:01:29 | 51.23660 | 16.93376 | 105° | 104km/h | 13922m | 2.8m/s | -49.3°C | 0% | 0hPa | 0V | 00:00:00 | 00:00:00 | 00:00:00 | |
| SQ6EMJ | 2026-09-05 12:01:23 | 51.23697 | 16.93068 | 100° | 111km/h | 13899m | 3.3m/s | -49.5°C | 0% | 0hPa | 0V | 00:00:00 | 00:00:00 | 00:00:00 | |
| POL1PZ | 2026-09-05 12:01:22 | 51.23697 | 16.93068 | 100° | 111km/h | 13899m | 3.3m/s | -49.5°C | 0% | 0hPa | 0V | 00:00:00 | 00:00:00 | 00:00:00 | |
| SQ6EMJ | 2026-09-05 12:01:17 | 51.23721 | 16.92855 | 101° | 108km/h | 13882m | 3.4m/s | -49.4°C | 0% | 0hPa | 0V | 00:00:00 | 00:00:00 | 00:00:00 | |
| SQ6EMJ | 2026-09-05 12:01:12 | 51.23751 | 16.92606 | 105° | 99km/h | 13863m | 2.9m/s | -49.5°C | 0% | 0hPa | 0V | 00:00:00 | 00:00:00 | 00:00:00 | |
| SP6BVK | 2026-09-05 12:01:11 | 51.23751 | 16.92606 | 105° | 99km/h | 13863m | 2.9m/s | -49.5°C | 0% | 0hPa | 0V | 00:00:00 | 00:00:00 | 00:00:00 | |
| SQ6EMJ | 2026-09-05 12:01:08 | 51.23790 | 16.92318 | 103° | 111km/h | 13840m | 2.4m/s | -49.6°C | 0% | 0hPa | 0V | 00:00:00 | 00:00:00 | 00:00:00 | |
| POL1PZ | 2026-09-05 12:01:02 | 51.23801 | 16.92234 | 104° | 102km/h | 13834m | 3.4m/s | -49.6°C | 0% | 0hPa | 0V | 00:00:00 | 00:00:00 | 00:00:00 | |
| SQ6EMJ | 2026-09-05 12:00:59 | 51.23825 | 16.92072 | 104° | 104km/h | 13821m | 3.2m/s | -49.6°C | 0% | 0hPa | 0V | 00:00:00 | 00:00:00 | 00:00:00 | |
| SQ6EMJ | 2026-09-05 12:00:53 | 51.23864 | 16.91830 | 107° | 99km/h | 13802m | 2.3m/s | -49.5°C | 0% | 0hPa | 0V | 00:00:00 | 00:00:00 | 00:00:00 | |
| SP6BVK | 2026-09-05 12:00:51 | 51.23871 | 16.91791 | 106° | 104km/h | 13799m | 3.5m/s | -49.5°C | 0% | 0hPa | 0V | 00:00:00 | 00:00:00 | 00:00:00 | |
| SQ6EMJ | 2026-09-05 12:00:48 | 51.23942 | 16.91381 | 106° | 110km/h | 13767m | 3.3m/s | -49.4°C | 0% | 0hPa | 0V | 00:00:00 | 00:00:00 | 00:00:00 | |
| POL1PZ | 2026-09-05 12:00:42 | 51.23942 | 16.91381 | 106° | 110km/h | 13767m | 3.3m/s | -49.4°C | 0% | 0hPa | 0V | 00:00:00 | 00:00:00 | 00:00:00 | |
| SP6BVK | 2026-09-05 12:00:31 | 51.24026 | 16.90916 | 107° | 110km/h | 13732m | 4.4m/s | -49.1°C | 0% | 0hPa | 0V | 00:00:00 | 00:00:00 | 00:00:00 | |
| OE3JTB-15 | 2026-09-05 12:00:25 | 51.24065 | 16.90710 | 106° | 117km/h | 13709m | 3.6m/s | 0°C | 0% | 0hPa | 0V | 00:00:00 | 00:00:00 | 00:00:00 | |
| POL1PZ | 2026-09-05 12:00:21 | 51.24096 | 16.90528 | 108° | 108km/h | 13703m | 3.9m/s | -49.0°C | 0% | 0hPa | 0V | 00:00:00 | 00:00:00 | 00:00:00 | |
| SQ6EMJ | 2026-09-05 12:00:19 | 51.24127 | 16.90351 | 106° | 115km/h | 13691m | 4.0m/s | -48.7°C | 0% | 0hPa | 0V | 00:00:00 | 00:00:00 | 00:00:00 | |
| SP6BVK | 2026-09-05 12:00:09 | 51.24187 | 16.89995 | 107° | 113km/h | 13665m | 15.9m/s | -48.7°C | 0% | 0hPa | 0V | 00:00:00 | 00:00:00 | 00:00:00 | |
| SQ6EMJ | 2026-09-05 12:00:06 | 51.24210 | 16.89864 | 104° | 122km/h | 13650m | 4.6m/s | -48.6°C | 0% | 0hPa | 0V | 00:00:00 | 00:00:00 | 00:00:00 | |
| EDDB2-11 | 2026-09-05 12:00:04 | 51.24232 | 16.89728 | 105° | 113km/h | 13639m | 3.0m/s | -49.2°C | -1.0% | -1.0hPa | 0V | 00:00:00 | 00:00:00 | 00:00:00 | |
| SONDE2-11 | 2026-09-05 12:00:02 | 51.24246 | 16.89633 | 103° | 122km/h | 13633m | 2.4m/s | -49.1°C | -1.0% | -1.0hPa | 0V | 00:00:00 | 00:00:00 | 00:00:00 | |
| POL1PZ | 2026-09-05 12:00:01 | 51.24253 | 16.89587 | 106° | 113km/h | 13630m | 4.2m/s | -48.6°C | 0% | 0hPa | 0V | 00:00:00 | 00:00:00 | 00:00:00 | |
| OE3JTB-15 | 2026-09-05 11:59:55 | 51.24297 | 16.89310 | 105° | 128km/h | 13605m | 3.0m/s | 0°C | 0% | 0hPa | 0V | 00:00:00 | 00:00:00 | 00:00:00 | |
| SP6BVK | 2026-09-05 11:59:49 | 51.24332 | 16.89073 | 104° | 124km/h | 13591m | 3.7m/s | -48.6°C | 0% | 0hPa | 0V | 00:00:00 | 00:00:00 | 00:00:00 | |
| SQ6EMJ | 2026-09-05 11:59:44 | 51.24371 | 16.88780 | 106° | 124km/h | 13572m | 3.2m/s | -48.8°C | 0% | 0hPa | 0V | 00:00:00 | 00:00:00 | 00:00:00 | |
| POL1PZ | 2026-09-05 11:59:40 | 51.24388 | 16.88631 | 102° | 126km/h | 13561m | 3.5m/s | -48.9°C | 0% | 0hPa | 0V | 00:00:00 | 00:00:00 | 00:00:00 | |
| SQ6EMJ | 2026-09-05 11:59:39 | 51.24403 | 16.88532 | 101° | 126km/h | 13554m | 4.2m/s | -49.0°C | 0% | 0hPa | 0V | 00:00:00 | 00:00:00 | 00:00:00 | |
| SQ6EMJ | 2026-09-05 11:59:33 | 51.24436 | 16.88225 | 99° | 131km/h | 13535m | 3.6m/s | -49.1°C | 0% | 0hPa | 0V | 00:00:00 | 00:00:00 | 00:00:00 | |
| SP6BVK | 2026-09-05 11:59:28 | 51.24459 | 16.88019 | 95° | 133km/h | 13522m | 2.9m/s | -49.2°C | 0% | 0hPa | 0V | 00:00:00 | 00:00:00 | 00:00:00 | |
| SQ6EMJ | 2026-09-05 11:59:26 | 51.24468 | 16.87916 | 103° | 124km/h | 13515m | 3.0m/s | -49.4°C | 0% | 0hPa | 0V | 00:00:00 | 00:00:00 | 00:00:00 | |
| OE3JTB-15 | 2026-09-05 11:59:25 | 51.24473 | 16.87865 | 95° | 128km/h | 13508m | 2.7m/s | 0°C | 0% | 0hPa | 0V | 00:00:00 | 00:00:00 | 00:00:00 | |
| SQ6EMJ | 2026-09-05 11:59:22 | 51.24491 | 16.87661 | 100° | 126km/h | 13497m | 3.5m/s | -49.4°C | 0% | 0hPa | 0V | 00:00:00 | 00:00:00 | 00:00:00 | |
| POL1PZ | 2026-09-05 11:59:19 | 51.24497 | 16.87557 | 98° | 130km/h | 13490m | 3.8m/s | -49.4°C | 0% | 0hPa | 0V | 00:00:00 | 00:00:00 | 00:00:00 | |
| SQ6EMJ | 2026-09-05 11:59:16 | 51.24514 | 16.87353 | 98° | 128km/h | 13476m | 3.8m/s | -49.3°C | 0% | 0hPa | 0V | 00:00:00 | 00:00:00 | 00:00:00 | |
| SQ6EMJ | 2026-09-05 11:59:10 | 51.24536 | 16.87100 | 103° | 122km/h | 13458m | 3.0m/s | -49.4°C | 0% | 0hPa | 0V | 00:00:00 | 00:00:00 | 00:00:00 | |
| SP6BVK | 2026-09-05 11:59:08 | 51.24545 | 16.87000 | 94° | 131km/h | 13451m | 3.4m/s | -49.3°C | 0% | 0hPa | 0V | 00:00:00 | 00:00:00 | 00:00:00 | |
| SQ6EMJ | 2026-09-05 11:59:05 | 51.24562 | 16.86797 | 95° | 130km/h | 13437m | 2.9m/s | -49.1°C | 0% | 0hPa | 0V | 00:00:00 | 00:00:00 | 00:00:00 | |
| EDDB2-11 | 2026-09-05 11:59:02 | 51.24573 | 16.86646 | 99° | 122km/h | 13428m | 2.9m/s | -49.8°C | -1.0% | -1.0hPa | 0V | 00:00:00 | 00:00:00 | 00:00:00 | |
| POL1PZ | 2026-09-05 11:58:59 | 51.24580 | 16.86545 | 95° | 128km/h | 13421m | 2.9m/s | -49.2°C | 0% | 0hPa | 0V | 00:00:00 | 00:00:00 | 00:00:00 | |
| SQ6EMJ | 2026-09-05 11:58:58 | 51.24583 | 16.86494 | 99° | 126km/h | 13418m | 3.7m/s | -49.2°C | 0% | 0hPa | 0V | 00:00:00 | 00:00:00 | 00:00:00 | |
| OE3JTB-15 | 2026-09-05 11:58:56 | 51.24593 | 16.86395 | 98° | 128km/h | 13405m | 3.5m/s | 0°C | 0% | 0hPa | 0V | 00:00:00 | 00:00:00 | 00:00:00 | |
| SQ6EMJ | 2026-09-05 11:58:53 | 51.24603 | 16.86243 | 101° | 120km/h | 13401m | 3.8m/s | -49.5°C | 0% | 0hPa | 0V | 00:00:00 | 00:00:00 | 00:00:00 | |
| SP6BVK | 2026-09-05 11:58:47 | 51.24623 | 16.85946 | 94° | 128km/h | 13380m | 3.2m/s | -49.4°C | 0% | 0hPa | 0V | 00:00:00 | 00:00:00 | 00:00:00 | |
| SQ6EMJ | 2026-09-05 11:58:45 | 51.24635 | 16.85794 | 100° | 124km/h | 13370m | 2.8m/s | -49.5°C | 0% | 0hPa | 0V | 00:00:00 | 00:00:00 | 00:00:00 | |
| AM1SDL-15 | 2026-09-05 11:58:44 | 51.24634 | 16.85794 | 100° | 130km/h | 13370m | 2.7m/s | 0°C | 0% | 0hPa | 0V | 00:00:00 | 00:00:00 | 00:00:00 | |
| SQ6EMJ | 2026-09-05 11:58:39 | 51.24657 | 16.85490 | 94° | 128km/h | 13350m | 2.8m/s | -49.5°C | 0% | 0hPa | 0V | 00:00:00 | 00:00:00 | 00:00:00 | |
| POL1PZ | 2026-09-05 11:58:38 | 51.24657 | 16.85490 | 94° | 128km/h | 13350m | 2.8m/s | -49.5°C | 0% | 0hPa | 0V | 00:00:00 | 00:00:00 | 00:00:00 | |
| SQ6EMJ | 2026-09-05 11:58:33 | 51.24681 | 16.85177 | 101° | 135km/h | 13328m | 3.2m/s | -49.6°C | 0% | 0hPa | 0V | 00:00:00 | 00:00:00 | 00:00:00 | |
| AM1SDL-15 | 2026-09-05 11:58:32 | 51.24681 | 16.85177 | 100° | 130km/h | 13315m | 4.1m/s | 0°C | 0% | 0hPa | 0V | 00:00:00 | 00:00:00 | 00:00:00 | |
| OE3JTB-15 | 2026-09-05 11:58:27 | 51.24700 | 16.84917 | 98° | 126km/h | 13311m | 2.9m/s | 0°C | 0% | 0hPa | 0V | 00:00:00 | 00:00:00 | 00:00:00 | |
| SQ6EMJ | 2026-09-05 11:58:22 | 51.24716 | 16.84612 | 92° | 122km/h | 13291m | 3.1m/s | -49.4°C | 0% | 0hPa | 0V | 00:00:00 | 00:00:00 | 00:00:00 | |
| AM1SDL-15 | 2026-09-05 11:58:18 | 51.24724 | 16.84457 | 93° | 126km/h | 13275m | 3.2m/s | 0°C | 0% | 0hPa | 0V | 00:00:00 | 00:00:00 | 00:00:00 | |
| POL1PZ | 2026-09-05 11:58:17 | 51.24726 | 16.84407 | 91° | 126km/h | 13278m | 3.3m/s | -49.4°C | 0% | 0hPa | 0V | 00:00:00 | 00:00:00 | 00:00:00 | |
| SQ6EMJ | 2026-09-05 11:58:16 | 51.24726 | 16.84357 | 94° | 124km/h | 13275m | 3.3m/s | -49.4°C | 0% | 0hPa | 0V | 00:00:00 | 00:00:00 | 00:00:00 | |
| SQ6EMJ | 2026-09-05 11:58:11 | 51.24738 | 16.84055 | 97° | 124km/h | 13255m | 2.5m/s | -49.4°C | 0% | 0hPa | 0V | 00:00:00 | 00:00:00 | 00:00:00 | |
| AM1SDL-15 | 2026-09-05 11:58:06 | 51.24743 | 16.83856 | 96° | 122km/h | 13238m | 3.1m/s | 0°C | 0% | 0hPa | 0V | 00:00:00 | 00:00:00 | 00:00:00 | |
| SQ6EMJ | 2026-09-05 11:58:04 | 51.24747 | 16.83759 | 92° | 124km/h | 13235m | 3.5m/s | -49.5°C | 0% | 0hPa | 0V | 00:00:00 | 00:00:00 | 00:00:00 | |
| SQ6EMJ | 2026-09-05 11:58:00 | 51.24747 | 16.83516 | 88° | 122km/h | 13219m | 3.7m/s | -50.1°C | 0% | 0hPa | 0V | 00:00:00 | 00:00:00 | 00:00:00 | |
| OE3JTB-15 | 2026-09-05 11:57:58 | 51.24746 | 16.83467 | 90° | 117km/h | 13212m | 2.9m/s | 0°C | 0% | 0hPa | 0V | 00:00:00 | 00:00:00 | 00:00:00 | |
| POL1PZ | 2026-09-05 11:57:57 | 51.24747 | 16.83420 | 95° | 111km/h | 13212m | 2.9m/s | -50.0°C | 0% | 0hPa | 0V | 00:00:00 | 00:00:00 | 00:00:00 | |
| SQ6EMJ | 2026-09-05 11:57:54 | 51.24750 | 16.83230 | 95° | 115km/h | 13199m | 3.8m/s | -50.2°C | 0% | 0hPa | 0V | 00:00:00 | 00:00:00 | 00:00:00 | |
| SQ6EMJ | 2026-09-05 11:57:49 | 51.24756 | 16.82996 | 96° | 113km/h | 13183m | 3.7m/s | -50.3°C | 0% | 0hPa | 0V | 00:00:00 | 00:00:00 | 00:00:00 | |
| SP6BVK | 2026-09-05 11:57:46 | 51.24760 | 16.82904 | 93° | 119km/h | 13177m | 3.6m/s | -50.2°C | 0% | 0hPa | 0V | 00:00:00 | 00:00:00 | 00:00:00 | |
| SQ6EMJ | 2026-09-05 11:57:43 | 51.24767 | 16.82719 | 94° | 113km/h | 13164m | 3.8m/s | -50.1°C | 0% | 0hPa | 0V | 00:00:00 | 00:00:00 | 00:00:00 | |
| SQ6EMJ | 2026-09-05 11:57:37 | 51.24778 | 16.82439 | 94° | 119km/h | 13145m | 2.7m/s | -50.2°C | 0% | 0hPa | 0V | 00:00:00 | 00:00:00 | 00:00:00 | |
| POL1PZ | 2026-09-05 11:57:36 | 51.24778 | 16.82439 | 94° | 119km/h | 13145m | 2.7m/s | -50.2°C | 0% | 0hPa | 0V | 00:00:00 | 00:00:00 | 00:00:00 | |
| SQ6EMJ | 2026-09-05 11:57:32 | 51.24792 | 16.82206 | 96° | 117km/h | 13129m | 3.6m/s | -50.2°C | 0% | 0hPa | 0V | 00:00:00 | 00:00:00 | 00:00:00 | |
| OE3JTB-15 | 2026-09-05 11:57:29 | 51.24800 | 16.82114 | 97° | 122km/h | 13116m | 2.4m/s | 0°C | 0% | 0hPa | 0V | 00:00:00 | 00:00:00 | 00:00:00 | |
| SQ6EMJ | 2026-09-05 11:57:26 | 51.24816 | 16.81927 | 102° | 113km/h | 13110m | 2.7m/s | -50.4°C | 0% | 0hPa | 0V | 00:00:00 | 00:00:00 | 00:00:00 | |
| SP6BVK | 2026-09-05 11:57:25 | 51.24816 | 16.81927 | 102° | 113km/h | 13110m | 2.7m/s | -50.4°C | 0% | 0hPa | 0V | 00:00:00 | 00:00:00 | 00:00:00 | |
| SQ6EMJ | 2026-09-05 11:57:21 | 51.24838 | 16.81690 | 100° | 119km/h | 13094m | 3.5m/s | -50.4°C | 0% | 0hPa | 0V | 00:00:00 | 00:00:00 | 00:00:00 | |
| POL1PZ | 2026-09-05 11:57:16 | 51.24858 | 16.81498 | 101° | 119km/h | 13081m | 2.9m/s | -50.4°C | 0% | 0hPa | 0V | 00:00:00 | 00:00:00 | 00:00:00 | |
| SQ6EMJ | 2026-09-05 11:57:15 | 51.24868 | 16.81399 | 100° | 126km/h | 13075m | 2.5m/s | -50.5°C | 0% | 0hPa | 0V | 00:00:00 | 00:00:00 | 00:00:00 | |
| SQ6EMJ | 2026-09-05 11:57:08 | 51.24901 | 16.81111 | 102° | 122km/h | 13057m | 3.1m/s | -50.4°C | 0% | 0hPa | 0V | 00:00:00 | 00:00:00 | 00:00:00 | |
| SP6BVK | 2026-09-05 11:57:05 | 51.24919 | 16.80960 | 103° | 117km/h | 13048m | 3.8m/s | -50.4°C | 0% | 0hPa | 0V | 00:00:00 | 00:00:00 | 00:00:00 | |
| SQ6EMJ | 2026-09-05 11:57:03 | 51.24931 | 16.80862 | 100° | 135km/h | 13041m | 3.7m/s | -50.3°C | 0% | 0hPa | 0V | 00:00:00 | 00:00:00 | 00:00:00 | |
| SQ6EMJ | 2026-09-05 11:56:58 | 51.24966 | 16.80559 | 101° | 124km/h | 13023m | 3.2m/s | -50.2°C | 0% | 0hPa | 0V | 00:00:00 | 00:00:00 | 00:00:00 | |
| POL1PZ | 2026-09-05 11:56:56 | 51.24978 | 16.80462 | 102° | 128km/h | 13016m | 3.4m/s | -50.3°C | 0% | 0hPa | 0V | 00:00:00 | 00:00:00 | 00:00:00 | |
| SQ6EMJ | 2026-09-05 11:56:52 | 51.25001 | 16.80258 | 101° | 131km/h | 13004m | 3.4m/s | -50.2°C | 0% | 0hPa | 0V | 00:00:00 | 00:00:00 | 00:00:00 | |
| SQ6EMJ | 2026-09-05 11:56:47 | 51.25030 | 16.79998 | 101° | 137km/h | 12988m | 2.5m/s | -50.3°C | 0% | 0hPa | 0V | 00:00:00 | 00:00:00 | 00:00:00 | |
| SP6BVK | 2026-09-05 11:56:44 | 51.25042 | 16.79895 | 102° | 126km/h | 12982m | 2.2m/s | -50.3°C | 0% | 0hPa | 0V | 00:00:00 | 00:00:00 | 00:00:00 | |
| SQ6EMJ | 2026-09-05 11:56:40 | 51.25065 | 16.79684 | 102° | 124km/h | 12970m | 2.6m/s | -50.5°C | 0% | 0hPa | 0V | 00:00:00 | 00:00:00 | 00:00:00 | |
| POL1PZ | 2026-09-05 11:56:35 | 51.25094 | 16.79419 | 101° | 131km/h | 12955m | 3.2m/s | -50.4°C | 0% | 0hPa | 0V | 00:00:00 | 00:00:00 | 00:00:00 | |
| SQ6EMJ | 2026-09-05 11:56:30 | 51.25127 | 16.79097 | 101° | 137km/h | 12936m | 2.7m/s | -50.3°C | 0% | 0hPa | 0V | 00:00:00 | 00:00:00 | 00:00:00 | |
| SP6BVK | 2026-09-05 11:56:24 | 51.25154 | 16.78836 | 100° | 126km/h | 12920m | 3.5m/s | -50.3°C | 0% | 0hPa | 0V | 00:00:00 | 00:00:00 | 00:00:00 | |
| SQ6EMJ | 2026-09-05 11:56:19 | 51.25184 | 16.78529 | 101° | 131km/h | 12903m | 3.2m/s | -50.2°C | 0% | 0hPa | 0V | 00:00:00 | 00:00:00 | 00:00:00 | |
| POL1PZ | 2026-09-05 11:56:14 | 51.25204 | 16.78325 | 101° | 130km/h | 12891m | 4.6m/s | -50.1°C | 0% | 0hPa | 0V | 00:00:00 | 00:00:00 | 00:00:00 | |
| SQ6EMJ | 2026-09-05 11:56:12 | 51.25216 | 16.78222 | 99° | 126km/h | 12884m | 4.0m/s | -50.1°C | 0% | 0hPa | 0V | 00:00:00 | 00:00:00 | 00:00:00 | |
| SQ6EMJ | 2026-09-05 11:56:07 | 51.25241 | 16.77971 | 98° | 122km/h | 12869m | 3.2m/s | -49.9°C | 0% | 0hPa | 0V | 00:00:00 | 00:00:00 | 00:00:00 | |
| SP6BVK | 2026-09-05 11:56:03 | 51.25262 | 16.77769 | 100° | 126km/h | 12856m | 3.6m/s | -49.9°C | 0% | 0hPa | 0V | 00:00:00 | 00:00:00 | 00:00:00 | |
| SQ6EMJ | 2026-09-05 11:55:57 | 51.25298 | 16.77425 | 104° | 128km/h | 12833m | 2.7m/s | -49.5°C | 0% | 0hPa | 0V | 00:00:00 | 00:00:00 | 00:00:00 | |
| POL1PZ | 2026-09-05 11:55:54 | 51.25309 | 16.77326 | 98° | 122km/h | 12827m | 3.3m/s | -49.6°C | 0% | 0hPa | 0V | 00:00:00 | 00:00:00 | 00:00:00 | |
| SQ6EMJ | 2026-09-05 11:55:51 | 51.25331 | 16.77129 | 101° | 130km/h | 12815m | 2.6m/s | -49.5°C | 0% | 0hPa | 0V | 00:00:00 | 00:00:00 | 00:00:00 | |
| SQ6EMJ | 2026-09-05 11:55:45 | 51.25363 | 16.76832 | 97° | 122km/h | 12796m | 3.2m/s | -49.4°C | 0% | 0hPa | 0V | 00:00:00 | 00:00:00 | 00:00:00 | |
| SP6BVK | 2026-09-05 11:55:43 | 51.25367 | 16.76782 | 100° | 124km/h | 12793m | 3.0m/s | -49.4°C | 0% | 0hPa | 0V | 00:00:00 | 00:00:00 | 00:00:00 | |
| SQ6EMJ | 2026-09-05 11:55:39 | 51.25392 | 16.76539 | 100° | 122km/h | 12778m | 3.6m/s | -49.6°C | 0% | 0hPa | 0V | 00:00:00 | 00:00:00 | 00:00:00 | |
| POL1PZ | 2026-09-05 11:55:34 | 51.25418 | 16.76302 | 105° | 122km/h | 12763m | 3.3m/s | -49.6°C | 0% | 0hPa | 0V | 00:00:00 | 00:00:00 | 00:00:00 | |
| SQ6EMJ | 2026-09-05 11:55:33 | 51.25424 | 16.76254 | 101° | 122km/h | 12760m | 3.5m/s | -49.5°C | 0% | 0hPa | 0V | 00:00:00 | 00:00:00 | 00:00:00 | |
| SQ6EMJ | 2026-09-05 11:55:27 | 51.25450 | 16.75965 | 97° | 115km/h | 12743m | 3.4m/s | -49.4°C | 0% | 0hPa | 0V | 00:00:00 | 00:00:00 | 00:00:00 | |
| SP6BVK | 2026-09-05 11:55:22 | 51.25468 | 16.75771 | 94° | 115km/h | 12728m | 3.1m/s | -49.5°C | 0% | 0hPa | 0V | 00:00:00 | 00:00:00 | 00:00:00 | |
| SQ6EMJ | 2026-09-05 11:55:21 | 51.25476 | 16.75675 | 103° | 124km/h | 12721m | 2.9m/s | -49.5°C | 0% | 0hPa | 0V | 00:00:00 | 00:00:00 | 00:00:00 | |
| SQ6EMJ | 2026-09-05 11:55:15 | 51.25501 | 16.75386 | 95° | 117km/h | 12702m | 2.8m/s | -49.4°C | 0% | 0hPa | 0V | 00:00:00 | 00:00:00 | 00:00:00 | |
| POL1PZ | 2026-09-05 11:55:13 | 51.25505 | 16.75339 | 98° | 119km/h | 12699m | 3.3m/s | -49.4°C | 0% | 0hPa | 0V | 00:00:00 | 00:00:00 | 00:00:00 | |
| SQ6EMJ | 2026-09-05 11:55:09 | 51.25521 | 16.75148 | 99° | 120km/h | 12687m | 3.3m/s | -49.4°C | 0% | 0hPa | 0V | 00:00:00 | 00:00:00 | 00:00:00 | |
| SQ6EMJ | 2026-09-05 11:55:04 | 51.25549 | 16.74858 | 99° | 120km/h | 12668m | 3.6m/s | -49.3°C | 0% | 0hPa | 0V | 00:00:00 | 00:00:00 | 00:00:00 | |
| SP6BVK | 2026-09-05 11:55:01 | 51.25555 | 16.74762 | 100° | 120km/h | 12663m | 3.9m/s | -49.3°C | 0% | 0hPa | 0V | 00:00:00 | 00:00:00 | 00:00:00 | |
| SQ6EMJ | 2026-09-05 11:54:58 | 51.25569 | 16.74617 | 95° | 115km/h | 12652m | 3.0m/s | -49.2°C | 0% | 0hPa | 0V | 00:00:00 | 00:00:00 | 00:00:00 | |
| SQ6EMJ | 2026-09-05 11:54:53 | 51.25592 | 16.74330 | 99° | 120km/h | 12634m | 4.1m/s | -49.2°C | 0% | 0hPa | 0V | 00:00:00 | 00:00:00 | 00:00:00 | |
| POL1PZ | 2026-09-05 11:54:52 | 51.25592 | 16.74330 | 99° | 120km/h | 12634m | 4.1m/s | -49.2°C | 0% | 0hPa | 0V | 00:00:00 | 00:00:00 | 00:00:00 | |
| SQ6EMJ | 2026-09-05 11:54:47 | 51.25616 | 16.74040 | 97° | 113km/h | 12614m | 3.4m/s | -49.2°C | 0% | 0hPa | 0V | 00:00:00 | 00:00:00 | 00:00:00 | |
| OE3JTB-15 | 2026-09-05 11:54:45 | 51.25630 | 16.73847 | 97° | 122km/h | 12591m | 2.4m/s | 0°C | 0% | 0hPa | 0V | 00:00:00 | 00:00:00 | 00:00:00 | |
| SP6BVK | 2026-09-05 11:54:41 | 51.25634 | 16.73800 | 98° | 117km/h | 12597m | 2.9m/s | -49.1°C | 0% | 0hPa | 0V | 00:00:00 | 00:00:00 | 00:00:00 | |
| SQ6EMJ | 2026-09-05 11:54:36 | 51.25661 | 16.73507 | 101° | 128km/h | 12578m | 2.4m/s | -49.1°C | 0% | 0hPa | 0V | 00:00:00 | 00:00:00 | 00:00:00 | |
| POL1PZ | 2026-09-05 11:54:32 | 51.25674 | 16.73363 | 101° | 126km/h | 12570m | 3.4m/s | -49.0°C | 0% | 0hPa | 0V | 00:00:00 | 00:00:00 | 00:00:00 | |
| SQ6EMJ | 2026-09-05 11:54:30 | 51.25686 | 16.73262 | 100° | 124km/h | 12564m | 3.2m/s | -49.1°C | 0% | 0hPa | 0V | 00:00:00 | 00:00:00 | 00:00:00 | |
| SQ6EMJ | 2026-09-05 11:54:21 | 51.25733 | 16.72818 | 102° | 122km/h | 12536m | 3.3m/s | -49.4°C | 0% | 0hPa | 0V | 00:00:00 | 00:00:00 | 00:00:00 | |
| OE3JTB-15 | 2026-09-05 11:54:15 | 51.25783 | 16.72376 | 101° | 131km/h | 12507m | 3.5m/s | 0°C | 0% | 0hPa | 0V | 00:00:00 | 00:00:00 | 00:00:00 | |
| POL1PZ | 2026-09-05 11:54:11 | 51.25789 | 16.72326 | 103° | 131km/h | 12507m | 3.6m/s | -49.2°C | 0% | 0hPa | 0V | 00:00:00 | 00:00:00 | 00:00:00 | |
| SQ6EMJ | 2026-09-05 11:54:06 | 51.25825 | 16.72026 | 100° | 122km/h | 12488m | 3.3m/s | -49.3°C | 0% | 0hPa | 0V | 00:00:00 | 00:00:00 | 00:00:00 | |
| SP6BVK | 2026-09-05 11:54:00 | 51.25853 | 16.71778 | 100° | 119km/h | 12472m | 2.2m/s | -49.3°C | 0% | 0hPa | 0V | 00:00:00 | 00:00:00 | 00:00:00 | |
| SQ6EMJ | 2026-09-05 11:53:55 | 51.25887 | 16.71477 | 103° | 133km/h | 12454m | 3.1m/s | -49.0°C | 0% | 0hPa | 0V | 00:00:00 | 00:00:00 | 00:00:00 | |
| POL1PZ | 2026-09-05 11:53:51 | 51.25906 | 16.71326 | 101° | 124km/h | 12445m | 2.5m/s | -49.2°C | 0% | 0hPa | 0V | 00:00:00 | 00:00:00 | 00:00:00 | |
| SQ6EMJ | 2026-09-05 11:53:49 | 51.25919 | 16.71223 | 105° | 133km/h | 12439m | 2.8m/s | -49.4°C | 0% | 0hPa | 0V | 00:00:00 | 00:00:00 | 00:00:00 | |
| SQ6EMJ | 2026-09-05 11:53:43 | 51.25975 | 16.70764 | 101° | 128km/h | 12411m | 3.4m/s | -49.4°C | 0% | 0hPa | 0V | 00:00:00 | 00:00:00 | 00:00:00 | |
| SP6BVK | 2026-09-05 11:53:39 | 51.25980 | 16.70714 | 100° | 124km/h | 12407m | 2.6m/s | -49.5°C | 0% | 0hPa | 0V | 00:00:00 | 00:00:00 | 00:00:00 | |
| SQ6EMJ | 2026-09-05 11:53:34 | 51.26013 | 16.70456 | 105° | 135km/h | 12391m | 3.6m/s | -49.6°C | 0% | 0hPa | 0V | 00:00:00 | 00:00:00 | 00:00:00 | |
| POL1PZ | 2026-09-05 11:53:31 | 51.26040 | 16.70249 | 105° | 137km/h | 12379m | 3.8m/s | -49.4°C | 0% | 0hPa | 0V | 00:00:00 | 00:00:00 | 00:00:00 | |
| SQ6EMJ | 2026-09-05 11:53:28 | 51.26056 | 16.70145 | 101° | 126km/h | 12372m | 3.6m/s | -49.4°C | 0% | 0hPa | 0V | 00:00:00 | 00:00:00 | 00:00:00 | |
| SQ6EMJ | 2026-09-05 11:53:23 | 51.26099 | 16.69838 | 107° | 133km/h | 12354m | 3.3m/s | -49.4°C | 0% | 0hPa | 0V | 00:00:00 | 00:00:00 | 00:00:00 | |
| SP6BVK | 2026-09-05 11:53:19 | 51.26121 | 16.69685 | 103° | 130km/h | 12344m | 2.9m/s | -49.4°C | 0% | 0hPa | 0V | 00:00:00 | 00:00:00 | 00:00:00 | |
| SQ6EMJ | 2026-09-05 11:53:17 | 51.26138 | 16.69581 | 107° | 135km/h | 12338m | 2.7m/s | -49.4°C | 0% | 0hPa | 0V | 00:00:00 | 00:00:00 | 00:00:00 | |
| SQ6EMJ | 2026-09-05 11:53:12 | 51.26182 | 16.69264 | 102° | 135km/h | 12319m | 3.1m/s | -49.3°C | 0% | 0hPa | 0V | 00:00:00 | 00:00:00 | 00:00:00 | |
| POL1PZ | 2026-09-05 11:53:09 | 51.26199 | 16.69156 | 105° | 137km/h | 12313m | 2.8m/s | -49.4°C | 0% | 0hPa | 0V | 00:00:00 | 00:00:00 | 00:00:00 | |
| SQ6EMJ | 2026-09-05 11:53:07 | 51.26220 | 16.68996 | 106° | 137km/h | 12303m | 3.5m/s | -49.3°C | 0% | 0hPa | 0V | 00:00:00 | 00:00:00 | 00:00:00 | |
| SQ6EMJ | 2026-09-05 11:53:01 | 51.26264 | 16.68670 | 101° | 137km/h | 12284m | 4.0m/s | -49.6°C | 0% | 0hPa | 0V | 00:00:00 | 00:00:00 | 00:00:00 | |
| SP6BVK | 2026-09-05 11:52:58 | 51.26278 | 16.68562 | 105° | 141km/h | 12277m | 3.8m/s | -49.5°C | 0% | 0hPa | 0V | 00:00:00 | 00:00:00 | 00:00:00 | |
| SQ6EMJ | 2026-09-05 11:52:54 | 51.26307 | 16.68343 | 105° | 139km/h | 12264m | 3.6m/s | -49.5°C | 0% | 0hPa | 0V | 00:00:00 | 00:00:00 | 00:00:00 | |
| SQ6EMJ | 2026-09-05 11:52:49 | 51.26356 | 16.68015 | 103° | 141km/h | 12243m | 4.0m/s | -49.7°C | 0% | 0hPa | 0V | 00:00:00 | 00:00:00 | 00:00:00 | |
| SP6BVK | 2026-09-05 11:52:38 | 51.26438 | 16.67464 | 106° | 139km/h | 12209m | 3.7m/s | -50.0°C | 0% | 0hPa | 0V | 00:00:00 | 00:00:00 | 00:00:00 | |
| SQ6EMJ | 2026-09-05 11:52:34 | 51.26483 | 16.67183 | 106° | 144km/h | 12193m | 3.7m/s | -50.0°C | 0% | 0hPa | 0V | 00:00:00 | 00:00:00 | 00:00:00 | |
| AM1SDL-15 | 2026-09-05 11:52:32 | 51.26493 | 16.67127 | 108° | 153km/h | 12152m | 3.4m/s | 0°C | 0% | 0hPa | 0V | 00:00:00 | 00:00:00 | 00:00:00 | |
| SQ6EMJ | 2026-09-05 11:52:28 | 51.26542 | 16.66843 | 107° | 146km/h | 12177m | 3.3m/s | -50.0°C | 0% | 0hPa | 0V | 00:00:00 | 00:00:00 | 00:00:00 | |
| SQ6EMJ | 2026-09-05 11:52:18 | 51.26630 | 16.66331 | 105° | 148km/h | 12142m | 2.9m/s | -50.0°C | 0% | 0hPa | 0V | 00:00:00 | 00:00:00 | 00:00:00 | |
| SP6BVK | 2026-09-05 11:52:17 | 51.26639 | 16.66274 | 105° | 146km/h | 12139m | 2.7m/s | -50.1°C | 0% | 0hPa | 0V | 00:00:00 | 00:00:00 | 00:00:00 | |
| OE3JTB-15 | 2026-09-05 11:52:12 | 51.26713 | 16.65868 | 107° | 150km/h | 12111m | 2.9m/s | 0°C | 0% | 0hPa | 0V | 00:00:00 | 00:00:00 | 00:00:00 | |
| POL1PZ | 2026-09-05 11:52:08 | 51.26733 | 16.65752 | 108° | 155km/h | 12107m | 3.4m/s | -50.1°C | 0% | 0hPa | 0V | 00:00:00 | 00:00:00 | 00:00:00 | |
| SQ6EMJ | 2026-09-05 11:51:57 | 51.26855 | 16.65041 | 106° | 151km/h | 12067m | 3.4m/s | -50.2°C | 0% | 0hPa | 0V | 00:00:00 | 00:00:00 | 00:00:00 | |
| SQ6EMJ | 2026-09-05 11:51:50 | 51.26925 | 16.64616 | 107° | 150km/h | 12042m | 3.9m/s | -50.2°C | 0% | 0hPa | 0V | 00:00:00 | 00:00:00 | 00:00:00 | |
| POL1PZ | 2026-09-05 11:51:47 | 51.26945 | 16.64495 | 105° | 164km/h | 12035m | 3.4m/s | -50.1°C | 0% | 0hPa | 0V | 00:00:00 | 00:00:00 | 00:00:00 | |
| SQ6EMJ | 2026-09-05 11:51:40 | 51.27014 | 16.64063 | 106° | 155km/h | 12011m | 3.1m/s | -50.3°C | 0% | 0hPa | 0V | 00:00:00 | 00:00:00 | 00:00:00 | |
| SP6BVK | 2026-09-05 11:51:37 | 51.27054 | 16.63809 | 105° | 155km/h | 11997m | 3.7m/s | -50.3°C | 0% | 0hPa | 0V | 00:00:00 | 00:00:00 | 00:00:00 | |
| SQ6EMJ | 2026-09-05 11:51:33 | 51.27092 | 16.63552 | 105° | 164km/h | 11984m | 4.0m/s | -50.3°C | 0% | 0hPa | 0V | 00:00:00 | 00:00:00 | 00:00:00 | |
| POL1PZ | 2026-09-05 11:51:27 | 51.27140 | 16.63229 | 104° | 157km/h | 11966m | 2.7m/s | -50.3°C | 0% | 0hPa | 0V | 00:00:00 | 00:00:00 | 00:00:00 | |
| SQ6EMJ | 2026-09-05 11:51:19 | 51.27215 | 16.62704 | 103° | 161km/h | 11940m | 2.5m/s | -50.4°C | 0% | 0hPa | 0V | 00:00:00 | 00:00:00 | 00:00:00 | |
| SP6BVK | 2026-09-05 11:51:16 | 51.27243 | 16.62504 | 103° | 164km/h | 11930m | 3.2m/s | -50.4°C | 0% | 0hPa | 0V | 00:00:00 | 00:00:00 | 00:00:00 | |
| POL1PZ | 2026-09-05 11:51:06 | 51.27334 | 16.61844 | 103° | 173km/h | 11899m | 3.5m/s | -50.5°C | 0% | 0hPa | 0V | 00:00:00 | 00:00:00 | 00:00:00 | |
| SQ6EMJ | 2026-09-05 11:50:59 | 51.27395 | 16.61379 | 104° | 161km/h | 11878m | 2.4m/s | -50.9°C | 0% | 0hPa | 0V | 00:00:00 | 00:00:00 | 00:00:00 | |
| SP6BVK | 2026-09-05 11:50:56 | 51.27428 | 16.61113 | 103° | 162km/h | 11866m | 2.4m/s | -50.8°C | 0% | 0hPa | 0V | 00:00:00 | 00:00:00 | 00:00:00 | |
| SQ6EMJ | 2026-09-05 11:50:54 | 51.27444 | 16.60979 | 100° | 175km/h | 11860m | 2.5m/s | -50.8°C | 0% | 0hPa | 0V | 00:00:00 | 00:00:00 | 00:00:00 | |
| SQ6EMJ | 2026-09-05 11:50:48 | 51.27501 | 16.60513 | 102° | 168km/h | 11839m | 3.6m/s | -50.6°C | 0% | 0hPa | 0V | 00:00:00 | 00:00:00 | 00:00:00 | |
| POL1PZ | 2026-09-05 11:50:46 | 51.27501 | 16.60513 | 102° | 168km/h | 11839m | 3.6m/s | -50.6°C | 0% | 0hPa | 0V | 00:00:00 | 00:00:00 | 00:00:00 | |
| SQ6EMJ | 2026-09-05 11:50:41 | 51.27548 | 16.60114 | 103° | 166km/h | 11822m | 3.6m/s | -50.6°C | 0% | 0hPa | 0V | 00:00:00 | 00:00:00 | 00:00:00 | |
| SP6BVK | 2026-09-05 11:50:35 | 51.27589 | 16.59786 | 104° | 162km/h | 11807m | 3.5m/s | -50.6°C | 0% | 0hPa | 0V | 00:00:00 | 00:00:00 | 00:00:00 | |
| SQ6EMJ | 2026-09-05 11:50:34 | 51.27606 | 16.59656 | 100° | 170km/h | 11801m | 3.2m/s | -50.5°C | 0% | 0hPa | 0V | 00:00:00 | 00:00:00 | 00:00:00 | |
| SQ6EMJ | 2026-09-05 11:50:25 | 51.27677 | 16.59066 | 99° | 170km/h | 11774m | 2.7m/s | -50.4°C | 0% | 0hPa | 0V | 00:00:00 | 00:00:00 | 00:00:00 | |
| SQ6EMJ | 2026-09-05 11:50:16 | 51.27739 | 16.58543 | 101° | 170km/h | 11751m | 2.2m/s | -50.3°C | 0% | 0hPa | 0V | 00:00:00 | 00:00:00 | 00:00:00 | |
| SP6BVK | 2026-09-05 11:50:15 | 51.27754 | 16.58415 | 103° | 159km/h | 11745m | 2.4m/s | -50.3°C | 0% | 0hPa | 0V | 00:00:00 | 00:00:00 | 00:00:00 | |
| POL1PZ | 2026-09-05 11:50:05 | 51.27823 | 16.57829 | 100° | 172km/h | 11717m | 3.2m/s | -50.4°C | 0% | 0hPa | 0V | 00:00:00 | 00:00:00 | 00:00:00 | |
| SQ6EMJ | 2026-09-05 11:50:04 | 51.27838 | 16.57697 | 104° | 159km/h | 11711m | 2.8m/s | -50.5°C | 0% | 0hPa | 0V | 00:00:00 | 00:00:00 | 00:00:00 | |
| SP6BVK | 2026-09-05 11:49:54 | 51.27909 | 16.57111 | 100° | 170km/h | 11682m | 3.5m/s | -50.3°C | 0% | 0hPa | 0V | 00:00:00 | 00:00:00 | 00:00:00 | |
| SQ6EMJ | 2026-09-05 11:49:53 | 51.27924 | 16.56979 | 103° | 157km/h | 11676m | 3.3m/s | -50.3°C | 0% | 0hPa | 0V | 00:00:00 | 00:00:00 | 00:00:00 | |
| SQ6EMJ | 2026-09-05 11:49:47 | 51.27971 | 16.56592 | 102° | 162km/h | 11657m | 3.3m/s | -50.1°C | 0% | 0hPa | 0V | 00:00:00 | 00:00:00 | 00:00:00 | |
| POL1PZ | 2026-09-05 11:49:44 | 51.27986 | 16.56460 | 102° | 162km/h | 11651m | 3.5m/s | -50.1°C | 0% | 0hPa | 0V | 00:00:00 | 00:00:00 | 00:00:00 | |
| SQ6EMJ | 2026-09-05 11:49:41 | 51.28009 | 16.56269 | 101° | 170km/h | 11642m | 2.4m/s | -50.0°C | 0% | 0hPa | 0V | 00:00:00 | 00:00:00 | 00:00:00 | |
| SP6BVK | 2026-09-05 11:49:34 | 51.28069 | 16.55758 | 101° | 172km/h | 11617m | 2.8m/s | -50.2°C | 0% | 0hPa | 0V | 00:00:00 | 00:00:00 | 00:00:00 | |
| AM1SDL-15 | 2026-09-05 11:49:30 | 51.28092 | 16.55567 | 102° | 166km/h | 11596m | 2.7m/s | 0°C | 0% | 0hPa | 0V | 00:00:00 | 00:00:00 | 00:00:00 | |
| SQ6EMJ | 2026-09-05 11:49:25 | 51.28134 | 16.55242 | 103° | 173km/h | 11593m | 2.3m/s | -50.4°C | 0% | 0hPa | 0V | 00:00:00 | 00:00:00 | 00:00:00 | |
| POL1PZ | 2026-09-05 11:49:24 | 51.28143 | 16.55176 | 103° | 161km/h | 11590m | 3.8m/s | -50.4°C | 0% | 0hPa | 0V | 00:00:00 | 00:00:00 | 00:00:00 | |
| SQ6EMJ | 2026-09-05 11:49:19 | 51.28193 | 16.54788 | 102° | 172km/h | 11570m | 3.6m/s | -50.6°C | 0% | 0hPa | 0V | 00:00:00 | 00:00:00 | 00:00:00 | |
| AM1SDL-15 | 2026-09-05 11:49:16 | 51.28209 | 16.54656 | 102° | 162km/h | 11548m | 3.3m/s | 0°C | 0% | 0hPa | 0V | 00:00:00 | 00:00:00 | 00:00:00 | |
| EDDB2-11 | 2026-09-05 11:49:12 | 51.28249 | 16.54331 | 101° | 164km/h | 11548m | 3.3m/s | -51.3°C | -1.0% | -1.0hPa | 0V | 00:00:00 | 00:00:00 | 00:00:00 | |
| SONDE2-11 | 2026-09-05 11:49:10 | 51.28264 | 16.54197 | 99° | 168km/h | 11542m | 2.4m/s | -51.3°C | -1.0% | -1.0hPa | 0V | 00:00:00 | 00:00:00 | 00:00:00 | |
| EDDB2-12 | 2026-09-05 11:49:06 | 51.28296 | 16.53936 | 98° | 173km/h | 11529m | 3.0m/s | -51.3°C | -1.0% | -1.0hPa | 0V | 00:00:00 | 00:00:00 | 00:00:00 | |
| SP3WXH-11 | 2026-09-05 11:49:03 | 51.28318 | 16.53741 | 100° | 161km/h | 11520m | 2.7m/s | -51.3°C | -1.0% | -1.0hPa | 0V | 00:00:00 | 00:00:00 | 00:00:00 | |
| SQ6EMJ | 2026-09-05 11:48:58 | 51.28354 | 16.53409 | 101° | 172km/h | 11504m | 2.2m/s | -50.6°C | 0% | 0hPa | 0V | 00:00:00 | 00:00:00 | 00:00:00 | |
| SP6BVK | 2026-09-05 11:48:52 | 51.28393 | 16.53081 | 102° | 159km/h | 11488m | 3.3m/s | -50.4°C | 0% | 0hPa | 0V | 00:00:00 | 00:00:00 | 00:00:00 | |
| OE3JTB-15 | 2026-09-05 11:48:48 | 51.28448 | 16.52627 | 102° | 168km/h | 11458m | 3.9m/s | 0°C | 0% | 0hPa | 0V | 00:00:00 | 00:00:00 | 00:00:00 | |
| SQ6EMJ | 2026-09-05 11:48:45 | 51.28456 | 16.52622 | 100° | 162km/h | 11467m | 2.3m/s | -50.3°C | 0% | 0hPa | 0V | 00:00:00 | 00:00:00 | 00:00:00 | |
| POL1PZ | 2026-09-05 11:48:43 | 51.28464 | 16.52492 | 103° | 161km/h | 11461m | 2.5m/s | -50.3°C | 0% | 0hPa | 0V | 00:00:00 | 00:00:00 | 00:00:00 | |
| SQ6EMJ | 2026-09-05 11:48:38 | 51.28511 | 16.52095 | 102° | 166km/h | 11441m | 3.7m/s | -50.1°C | 0% | 0hPa | 0V | 00:00:00 | 00:00:00 | 00:00:00 | |
| SP6BVK | 2026-09-05 11:48:31 | 51.28560 | 16.51702 | 101° | 173km/h | 11423m | 3.3m/s | -50.1°C | 0% | 0hPa | 0V | 00:00:00 | 00:00:00 | 00:00:00 | |
| AM1SDL-15 | 2026-09-05 11:48:25 | 51.28608 | 16.51306 | 104° | 164km/h | 11389m | 2.7m/s | 0°C | 0% | 0hPa | 0V | 00:00:00 | 00:00:00 | 00:00:00 | |
| POL1PZ | 2026-09-05 11:48:23 | 51.28633 | 16.51108 | 101° | 168km/h | 11395m | 2.5m/s | -50.2°C | 0% | 0hPa | 0V | 00:00:00 | 00:00:00 | 00:00:00 | |
| SQ6EMJ | 2026-09-05 11:48:21 | 51.28650 | 16.50978 | 103° | 164km/h | 11389m | 2.7m/s | -50.2°C | 0% | 0hPa | 0V | 00:00:00 | 00:00:00 | 00:00:00 | |
| OE3JTB-15 | 2026-09-05 11:48:18 | 51.28689 | 16.50645 | 99° | 166km/h | 11367m | 3.1m/s | 0°C | 0% | 0hPa | 0V | 00:00:00 | 00:00:00 | 00:00:00 | |
| SQ6EMJ | 2026-09-05 11:48:15 | 51.28689 | 16.50648 | 99° | 173km/h | 11373m | 3.6m/s | -50.2°C | 0% | 0hPa | 0V | 00:00:00 | 00:00:00 | 00:00:00 | |
| SP6BVK | 2026-09-05 11:48:11 | 51.28719 | 16.50385 | 100° | 168km/h | 11360m | 3.5m/s | -50.1°C | 0% | 0hPa | 0V | 00:00:00 | 00:00:00 | 00:00:00 | |
| AM1SDL-15 | 2026-09-05 11:48:08 | 51.28743 | 16.50187 | 104° | 162km/h | 11341m | 3.4m/s | 0°C | 0% | 0hPa | 0V | 00:00:00 | 00:00:00 | 00:00:00 | |
| SQ6EMJ | 2026-09-05 11:48:06 | 51.28765 | 16.49990 | 105° | 161km/h | 11341m | 3.5m/s | -50.3°C | 0% | 0hPa | 0V | 00:00:00 | 00:00:00 | 00:00:00 | |
| POL1PZ | 2026-09-05 11:48:02 | 51.28796 | 16.49726 | 104° | 164km/h | 11328m | 3.2m/s | -50.3°C | 0% | 0hPa | 0V | 00:00:00 | 00:00:00 | 00:00:00 | |
| SQ6EMJ | 2026-09-05 11:48:00 | 51.28806 | 16.49662 | 104° | 162km/h | 11325m | 2.7m/s | -50.4°C | 0% | 0hPa | 0V | 00:00:00 | 00:00:00 | 00:00:00 | |
| AM1SDL-15 | 2026-09-05 11:47:56 | 51.28841 | 16.49401 | 105° | 162km/h | 11313m | 2.6m/s | 0°C | 0% | 0hPa | 0V | 00:00:00 | 00:00:00 | 00:00:00 | |
| SP6BVK | 2026-09-05 11:47:50 | 51.28889 | 16.49008 | 101° | 168km/h | 11293m | 2.8m/s | -50.5°C | 0% | 0hPa | 0V | 00:00:00 | 00:00:00 | 00:00:00 | |
| SQ6EMJ | 2026-09-05 11:47:45 | 51.28930 | 16.48683 | 104° | 162km/h | 11277m | 3.1m/s | -50.4°C | 0% | 0hPa | 0V | 00:00:00 | 00:00:00 | 00:00:00 | |
| AM1SDL-15 | 2026-09-05 11:47:41 | 51.28959 | 16.48426 | 102° | 161km/h | 11261m | 2.9m/s | 0°C | 0% | 0hPa | 0V | 00:00:00 | 00:00:00 | 00:00:00 | |
| SQ6EMJ | 2026-09-05 11:47:40 | 51.28975 | 16.48295 | 100° | 166km/h | 11258m | 3.3m/s | -50.4°C | 0% | 0hPa | 0V | 00:00:00 | 00:00:00 | 00:00:00 | |
| SQ6EMJ | 2026-09-05 11:47:34 | 51.29018 | 16.47903 | 103° | 159km/h | 11239m | 3.2m/s | -50.5°C | 0% | 0hPa | 0V | 00:00:00 | 00:00:00 | 00:00:00 | |
| SP6BVK | 2026-09-05 11:47:30 | 51.29038 | 16.47710 | 99° | 164km/h | 11230m | 2.6m/s | -50.4°C | 0% | 0hPa | 0V | 00:00:00 | 00:00:00 | 00:00:00 | |
| SQ6EMJ | 2026-09-05 11:47:28 | 51.29053 | 16.47582 | 103° | 164km/h | 11223m | 2.7m/s | -50.5°C | 0% | 0hPa | 0V | 00:00:00 | 00:00:00 | 00:00:00 | |
| SQ6EMJ | 2026-09-05 11:47:23 | 51.29094 | 16.47194 | 98° | 161km/h | 11205m | 2.6m/s | -50.6°C | 0% | 0hPa | 0V | 00:00:00 | 00:00:00 | 00:00:00 | |
| POL1PZ | 2026-09-05 11:47:20 | 51.29117 | 16.47000 | 100° | 164km/h | 11196m | 3.6m/s | -50.6°C | 0% | 0hPa | 0V | 00:00:00 | 00:00:00 | 00:00:00 | |
| SQ6EMJ | 2026-09-05 11:47:17 | 51.29129 | 16.46870 | 102° | 164km/h | 11190m | 3.7m/s | -50.5°C | 0% | 0hPa | 0V | 00:00:00 | 00:00:00 | 00:00:00 | |
| OE3JTB-15 | 2026-09-05 11:47:15 | 51.29166 | 16.46547 | 101° | 164km/h | 11168m | 2.5m/s | 0°C | 0% | 0hPa | 0V | 00:00:00 | 00:00:00 | 00:00:00 | |
| SQ6EMJ | 2026-09-05 11:47:12 | 51.29173 | 16.46482 | 99° | 164km/h | 11171m | 3.5m/s | -50.8°C | 0% | 0hPa | 0V | 00:00:00 | 00:00:00 | 00:00:00 | |
| SP6BVK | 2026-09-05 11:47:10 | 51.29186 | 16.46352 | 104° | 159km/h | 11165m | 3.7m/s | -50.8°C | 0% | 0hPa | 0V | 00:00:00 | 00:00:00 | 00:00:00 | |
| SQ6EMJ | 2026-09-05 11:47:06 | 51.29215 | 16.46094 | 104° | 162km/h | 11152m | 2.7m/s | -50.9°C | 0% | 0hPa | 0V | 00:00:00 | 00:00:00 | 00:00:00 | |
| SONDE2-11 | 2026-09-05 11:47:05 | 51.29224 | 16.46030 | 101° | 161km/h | 11149m | 3.2m/s | -51.6°C | -1.0% | -1.0hPa | 0V | 00:00:00 | 00:00:00 | 00:00:00 | |
| EDDB2-12 | 2026-09-05 11:47:02 | 51.29245 | 16.45833 | 102° | 161km/h | 11140m | 4.0m/s | -51.7°C | -1.0% | -1.0hPa | 0V | 00:00:00 | 00:00:00 | 00:00:00 | |
| SQ6EMJ | 2026-09-05 11:47:00 | 51.29254 | 16.45769 | 103° | 164km/h | 11136m | 3.0m/s | -51.0°C | 0% | 0hPa | 0V | 00:00:00 | 00:00:00 | 00:00:00 | |
| POL1PZ | 2026-09-05 11:46:59 | 51.29267 | 16.45638 | 100° | 164km/h | 11130m | 2.9m/s | -51.0°C | 0% | 0hPa | 0V | 00:00:00 | 00:00:00 | 00:00:00 | |
| SQ6EMJ | 2026-09-05 11:46:55 | 51.29298 | 16.45377 | 103° | 166km/h | 11117m | 3.6m/s | -51.0°C | 0% | 0hPa | 0V | 00:00:00 | 00:00:00 | 00:00:00 | |
| SQ6EMJ | 2026-09-05 11:46:49 | 51.29338 | 16.45050 | 102° | 162km/h | 11102m | 3.1m/s | -51.0°C | 0% | 0hPa | 0V | 00:00:00 | 00:00:00 | 00:00:00 | |
| OE3JTB-15 | 2026-09-05 11:46:45 | 51.29389 | 16.44589 | 102° | 166km/h | 11076m | 2.4m/s | 0°C | 0% | 0hPa | 0V | 00:00:00 | 00:00:00 | 00:00:00 | |
| SQ6EMJ | 2026-09-05 11:46:38 | 51.29427 | 16.44264 | 102° | 164km/h | 11063m | 2.9m/s | -51.0°C | 0% | 0hPa | 0V | 00:00:00 | 00:00:00 | 00:00:00 | |
| POL1PZ | 2026-09-05 11:46:37 | 51.29427 | 16.44264 | 102° | 164km/h | 11063m | 2.9m/s | -51.0°C | 0% | 0hPa | 0V | 00:00:00 | 00:00:00 | 00:00:00 | |
| SQ6EMJ | 2026-09-05 11:46:32 | 51.29464 | 16.43933 | 100° | 172km/h | 11048m | 2.6m/s | -51.0°C | 0% | 0hPa | 0V | 00:00:00 | 00:00:00 | 00:00:00 | |
| SP6BVK | 2026-09-05 11:46:29 | 51.29495 | 16.43669 | 100° | 172km/h | 11035m | 2.5m/s | -51.0°C | 0% | 0hPa | 0V | 00:00:00 | 00:00:00 | 00:00:00 | |
| SQ6EMJ | 2026-09-05 11:46:27 | 51.29511 | 16.43537 | 103° | 162km/h | 11029m | 2.4m/s | -51.0°C | 0% | 0hPa | 0V | 00:00:00 | 00:00:00 | 00:00:00 | |
| SQ6EMJ | 2026-09-05 11:46:22 | 51.29551 | 16.43204 | 101° | 166km/h | 11013m | 2.9m/s | -51.0°C | 0% | 0hPa | 0V | 00:00:00 | 00:00:00 | 00:00:00 | |
| POL1PZ | 2026-09-05 11:46:17 | 51.29582 | 16.42938 | 101° | 170km/h | 11000m | 3.8m/s | -51.1°C | 0% | 0hPa | 0V | 00:00:00 | 00:00:00 | 00:00:00 | |
| SQ6EMJ | 2026-09-05 11:46:16 | 51.29597 | 16.42803 | 104° | 168km/h | 10994m | 3.6m/s | -51.1°C | 0% | 0hPa | 0V | 00:00:00 | 00:00:00 | 00:00:00 | |
| OE3JTB-15 | 2026-09-05 11:46:14 | 51.29628 | 16.42538 | 103° | 168km/h | 10978m | 2.8m/s | 0°C | 0% | 0hPa | 0V | 00:00:00 | 00:00:00 | 00:00:00 | |
| SQ6EMJ | 2026-09-05 11:46:10 | 51.29650 | 16.42473 | 103° | 168km/h | 10978m | 2.9m/s | -51.1°C | 0% | 0hPa | 0V | 00:00:00 | 00:00:00 | 00:00:00 | |
| SP6BVK | 2026-09-05 11:46:08 | 51.29650 | 16.42340 | 101° | 168km/h | 10972m | 3.5m/s | -51.0°C | 0% | 0hPa | 0V | 00:00:00 | 00:00:00 | 00:00:00 | |
| SQ6EMJ | 2026-09-05 11:46:05 | 51.29675 | 16.42074 | 101° | 170km/h | 10960m | 2.8m/s | -51.0°C | 0% | 0hPa | 0V | 00:00:00 | 00:00:00 | 00:00:00 | |
| SONDE2-11 | 2026-09-05 11:46:03 | 51.29707 | 16.41876 | 97° | 164km/h | 10951m | 3.1m/s | -51.7°C | -1.0% | -1.0hPa | 0V | 00:00:00 | 00:00:00 | 00:00:00 | |
| SQ6EMJ | 2026-09-05 11:45:59 | 51.29730 | 16.41677 | 101° | 168km/h | 10940m | 3.6m/s | -50.9°C | 0% | 0hPa | 0V | 00:00:00 | 00:00:00 | 00:00:00 | |
| POL1PZ | 2026-09-05 11:45:56 | 51.29745 | 16.41544 | 103° | 168km/h | 10935m | 3.7m/s | -50.8°C | 0% | 0hPa | 0V | 00:00:00 | 00:00:00 | 00:00:00 | |
| SQ6EMJ | 2026-09-05 11:45:54 | 51.29769 | 16.41348 | 100° | 168km/h | 10925m | 2.5m/s | -50.9°C | 0% | 0hPa | 0V | 00:00:00 | 00:00:00 | 00:00:00 | |
| SP6BVK | 2026-09-05 11:45:48 | 51.29815 | 16.40957 | 104° | 159km/h | 10906m | 2.0m/s | -50.9°C | 0% | 0hPa | 0V | 00:00:00 | 00:00:00 | 00:00:00 | |
| OE3JTB-15 | 2026-09-05 11:45:44 | 51.29855 | 16.40631 | 100° | 166km/h | 10887m | 2.5m/s | 0°C | 0% | 0hPa | 0V | 00:00:00 | 00:00:00 | 00:00:00 | |
| SQ6EMJ | 2026-09-05 11:45:41 | 51.29862 | 16.40566 | 100° | 164km/h | 10887m | 2.5m/s | -50.8°C | 0% | 0hPa | 0V | 00:00:00 | 00:00:00 | 00:00:00 | |
| POL1PZ | 2026-09-05 11:45:36 | 51.29900 | 16.40242 | 102° | 164km/h | 10870m | 3.8m/s | -50.6°C | 0% | 0hPa | 0V | 00:00:00 | 00:00:00 | 00:00:00 | |
| SQ6EMJ | 2026-09-05 11:45:31 | 51.29950 | 16.39854 | 103° | 164km/h | 10851m | 3.7m/s | -50.6°C | 0% | 0hPa | 0V | 00:00:00 | 00:00:00 | 00:00:00 | |
| DL2RXE-15 | 2026-09-05 11:45:27 | 51.29984 | 16.39595 | 104° | 164km/h | 10838m | 3.4m/s | -50.6°C | 0% | 0hPa | 0V | 00:00:00 | 00:00:00 | 00:00:00 | |
| SQ6EMJ | 2026-09-05 11:45:25 | 51.29992 | 16.39528 | 101° | 170km/h | 10835m | 3.0m/s | -50.5°C | 0% | 0hPa | 0V | 00:00:00 | 00:00:00 | 00:00:00 | |
| SQ6EMJ | 2026-09-05 11:45:19 | 51.30047 | 16.39135 | 105° | 168km/h | 10816m | 3.0m/s | -50.4°C | 0% | 0hPa | 0V | 00:00:00 | 00:00:00 | 00:00:00 | |
| POL1PZ | 2026-09-05 11:45:17 | 51.30084 | 16.38874 | 106° | 164km/h | 10803m | 3.5m/s | -50.4°C | 0% | 0hPa | 0V | 00:00:00 | 00:00:00 | 00:00:00 | |
| SQ6EMJ | 2026-09-05 11:45:13 | 51.30103 | 16.38742 | 101° | 172km/h | 10796m | 2.7m/s | -50.4°C | 0% | 0hPa | 0V | 00:00:00 | 00:00:00 | 00:00:00 | |
| SQ6EMJ | 2026-09-05 11:45:08 | 51.30149 | 16.38410 | 102° | 170km/h | 10780m | 2.9m/s | -50.3°C | 0% | 0hPa | 0V | 00:00:00 | 00:00:00 | 00:00:00 | |
| SP6BVK | 2026-09-05 11:45:07 | 51.30168 | 16.38279 | 105° | 166km/h | 10774m | 2.2m/s | -50.3°C | 0% | 0hPa | 0V | 00:00:00 | 00:00:00 | 00:00:00 | |
| EDDB2-11 | 2026-09-05 11:45:04 | 51.30195 | 16.38077 | 105° | 166km/h | 10764m | 3.5m/s | -50.9°C | -1.0% | -1.0hPa | 0V | 00:00:00 | 00:00:00 | 00:00:00 | |
| SQ6EMJ | 2026-09-05 11:44:57 | 51.30250 | 16.37673 | 101° | 175km/h | 10745m | 2.7m/s | -50.1°C | 0% | 0hPa | 0V | 00:00:00 | 00:00:00 | 00:00:00 | |
| SQ6EMJ | 2026-09-05 11:44:52 | 51.30308 | 16.37264 | 106° | 172km/h | 10724m | 3.0m/s | -50.1°C | 0% | 0hPa | 0V | 00:00:00 | 00:00:00 | 00:00:00 | |
| SQ6EMJ | 2026-09-05 11:44:46 | 51.30366 | 16.36852 | 101° | 183km/h | 10705m | 3.6m/s | -50.1°C | 0% | 0hPa | 0V | 00:00:00 | 00:00:00 | 00:00:00 | |
| OE3JTB-15 | 2026-09-05 11:44:45 | 51.30395 | 16.36644 | 101° | 179km/h | 10685m | 3.8m/s | 0°C | 0% | 0hPa | 0V | 00:00:00 | 00:00:00 | 00:00:00 | |
| SQ6EMJ | 2026-09-05 11:44:40 | 51.30413 | 16.36502 | 102° | 181km/h | 10689m | 3.0m/s | -50.1°C | 0% | 0hPa | 0V | 00:00:00 | 00:00:00 | 00:00:00 | |
| SQ6EMJ | 2026-09-05 11:44:35 | 51.30473 | 16.36081 | 104° | 181km/h | 10668m | 3.2m/s | -50.0°C | 0% | 0hPa | 0V | 00:00:00 | 00:00:00 | 00:00:00 | |
| POL1PZ | 2026-09-05 11:44:34 | 51.30473 | 16.36081 | 104° | 181km/h | 10668m | 3.2m/s | -50.0°C | 0% | 0hPa | 0V | 00:00:00 | 00:00:00 | 00:00:00 | |
| SQ6EMJ | 2026-09-05 11:44:30 | 51.30519 | 16.35730 | 101° | 177km/h | 10651m | 3.1m/s | -49.8°C | 0% | 0hPa | 0V | 00:00:00 | 00:00:00 | 00:00:00 | |
| SP6BVK | 2026-09-05 11:44:25 | 51.30558 | 16.35449 | 100° | 177km/h | 10637m | 3.3m/s | -49.8°C | 0% | 0hPa | 0V | 00:00:00 | 00:00:00 | 00:00:00 | |
| SQ6EMJ | 2026-09-05 11:44:16 | 51.30639 | 16.34813 | 101° | 177km/h | 10606m | 3.2m/s | -49.7°C | 0% | 0hPa | 0V | 00:00:00 | 00:00:00 | 00:00:00 | |
| POL1PZ | 2026-09-05 11:44:14 | 51.30659 | 16.34673 | 102° | 181km/h | 10599m | 4.6m/s | -49.6°C | 0% | 0hPa | 0V | 00:00:00 | 00:00:00 | 00:00:00 | |
| SQ6EMJ | 2026-09-05 11:44:11 | 51.30694 | 16.34390 | 101° | 177km/h | 10585m | 3.5m/s | -49.5°C | 0% | 0hPa | 0V | 00:00:00 | 00:00:00 | 00:00:00 | |
| SP6BVK | 2026-09-05 11:44:05 | 51.30743 | 16.33968 | 105° | 179km/h | 10564m | 3.1m/s | -49.4°C | 0% | 0hPa | 0V | 00:00:00 | 00:00:00 | 00:00:00 | |
| EDDB2-11 | 2026-09-05 11:44:02 | 51.30768 | 16.33757 | 101° | 177km/h | 10554m | 3.9m/s | -49.9°C | -1.0% | -1.0hPa | 0V | 00:00:00 | 00:00:00 | 00:00:00 | |
| SQ6EMJ | 2026-09-05 11:43:59 | 51.30796 | 16.33545 | 100° | 181km/h | 10544m | 3.2m/s | -49.3°C | 0% | 0hPa | 0V | 00:00:00 | 00:00:00 | 00:00:00 | |
| SQ6EMJ | 2026-09-05 11:43:52 | 51.30847 | 16.33120 | 104° | 175km/h | 10524m | 3.3m/s | -49.2°C | 0% | 0hPa | 0V | 00:00:00 | 00:00:00 | 00:00:00 | |
| SP6BVK | 2026-09-05 11:43:44 | 51.30914 | 16.32554 | 102° | 175km/h | 10496m | 3.5m/s | -49.0°C | 0% | 0hPa | 0V | 00:00:00 | 00:00:00 | 00:00:00 | |
| SQ6EMJ | 2026-09-05 11:43:36 | 51.30978 | 16.31995 | 101° | 172km/h | 10469m | 3.6m/s | -48.8°C | 0% | 0hPa | 0V | 00:00:00 | 00:00:00 | 00:00:00 | |
| SQ6EMJ | 2026-09-05 11:43:31 | 51.31019 | 16.31652 | 103° | 172km/h | 10451m | 3.1m/s | -48.8°C | 0% | 0hPa | 0V | 00:00:00 | 00:00:00 | 00:00:00 | |
| SQ6EMJ | 2026-09-05 11:43:26 | 51.31065 | 16.31238 | 102° | 173km/h | 10431m | 3.8m/s | -48.6°C | 0% | 0hPa | 0V | 00:00:00 | 00:00:00 | 00:00:00 | |
| SP6BVK | 2026-09-05 11:43:23 | 51.31083 | 16.31102 | 101° | 175km/h | 10423m | 4.2m/s | -48.6°C | 0% | 0hPa | 0V | 00:00:00 | 00:00:00 | 00:00:00 | |
| SQ6EMJ | 2026-09-05 11:43:20 | 51.31115 | 16.30826 | 100° | 179km/h | 10409m | 3.5m/s | -48.5°C | 0% | 0hPa | 0V | 00:00:00 | 00:00:00 | 00:00:00 | |
| SQ6EMJ | 2026-09-05 11:43:14 | 51.31166 | 16.30414 | 103° | 170km/h | 10386m | 3.1m/s | -48.4°C | 0% | 0hPa | 0V | 00:00:00 | 00:00:00 | 00:00:00 | |
| SQ6EMJ | 2026-09-05 11:43:08 | 51.31224 | 16.29931 | 104° | 168km/h | 10361m | 3.0m/s | -48.2°C | 0% | 0hPa | 0V | 00:00:00 | 00:00:00 | 00:00:00 | |
| SP6BVK | 2026-09-05 11:43:04 | 51.31250 | 16.29725 | 102° | 173km/h | 10351m | 3.3m/s | -48.2°C | 0% | 0hPa | 0V | 00:00:00 | 00:00:00 | 00:00:00 | |
| SQ6EMJ | 2026-09-05 11:42:52 | 51.31346 | 16.28979 | 103° | 168km/h | 10315m | 3.2m/s | -48.3°C | 0% | 0hPa | 0V | 00:00:00 | 00:00:00 | 00:00:00 | |
| SQ6EMJ | 2026-09-05 11:42:47 | 51.31402 | 16.28569 | 103° | 175km/h | 10293m | 3.7m/s | -48.3°C | 0% | 0hPa | 0V | 00:00:00 | 00:00:00 | 00:00:00 | |
| SP6BVK | 2026-09-05 11:42:42 | 51.31439 | 16.28295 | 103° | 175km/h | 10279m | 3.6m/s | -48.1°C | 0% | 0hPa | 0V | 00:00:00 | 00:00:00 | 00:00:00 | |
| SQ6EMJ | 2026-09-05 11:42:41 | 51.31458 | 16.28162 | 103° | 172km/h | 10272m | 3.8m/s | -48.1°C | 0% | 0hPa | 0V | 00:00:00 | 00:00:00 | 00:00:00 | |
| SQ6EMJ | 2026-09-05 11:42:34 | 51.31514 | 16.27749 | 102° | 177km/h | 10252m | 3.0m/s | -48.0°C | 0% | 0hPa | 0V | 00:00:00 | 00:00:00 | 00:00:00 | |
| SQ6EMJ | 2026-09-05 11:42:26 | 51.31595 | 16.27136 | 106° | 170km/h | 10222m | 3.3m/s | -47.8°C | 0% | 0hPa | 0V | 00:00:00 | 00:00:00 | 00:00:00 | |
| SP6BVK | 2026-09-05 11:42:22 | 51.31623 | 16.26931 | 103° | 175km/h | 10211m | 3.8m/s | -47.7°C | 0% | 0hPa | 0V | 00:00:00 | 00:00:00 | 00:00:00 | |
| SQ6EMJ | 2026-09-05 11:42:20 | 51.31642 | 16.26797 | 103° | 173km/h | 10205m | 3.6m/s | -47.7°C | 0% | 0hPa | 0V | 00:00:00 | 00:00:00 | 00:00:00 | |
| SQ6EMJ | 2026-09-05 11:42:14 | 51.31699 | 16.26384 | 106° | 170km/h | 10185m | 3.5m/s | -47.5°C | 0% | 0hPa | 0V | 00:00:00 | 00:00:00 | 00:00:00 | |
| SQ6EMJ | 2026-09-05 11:42:09 | 51.31759 | 16.25973 | 104° | 183km/h | 10164m | 3.7m/s | -47.3°C | 0% | 0hPa | 0V | 00:00:00 | 00:00:00 | 00:00:00 | |
| SQ6EMJ | 2026-09-05 11:42:03 | 51.31819 | 16.25557 | 104° | 170km/h | 10143m | 2.8m/s | -47.3°C | 0% | 0hPa | 0V | 00:00:00 | 00:00:00 | 00:00:00 | |
| SQ6EMJ | 2026-09-05 11:41:50 | 51.31965 | 16.24577 | 105° | 181km/h | 10098m | 3.3m/s | -46.9°C | 0% | 0hPa | 0V | 00:00:00 | 00:00:00 | 00:00:00 | |
| SP6BVK | 2026-09-05 11:41:41 | 51.32036 | 16.24086 | 104° | 188km/h | 10074m | 3.0m/s | -46.8°C | 0% | 0hPa | 0V | 00:00:00 | 00:00:00 | 00:00:00 | |
| SQ6EMJ | 2026-09-05 11:41:35 | 51.32097 | 16.23660 | 105° | 172km/h | 10055m | 3.5m/s | -46.7°C | 0% | 0hPa | 0V | 00:00:00 | 00:00:00 | 00:00:00 | |
| SP6BVK | 2026-09-05 11:41:20 | 51.32249 | 16.22584 | 105° | 184km/h | 10008m | 3.2m/s | -46.4°C | 0% | 0hPa | 0V | 00:00:00 | 00:00:00 | 00:00:00 | |
| SQ6EMJ | 2026-09-05 11:41:08 | 51.32374 | 16.21645 | 104° | 173km/h | 9967m | 2.9m/s | -45.9°C | 0% | 0hPa | 0V | 00:00:00 | 00:00:00 | 00:00:00 | |
| SQ6EMJ | 2026-09-05 11:41:02 | 51.32432 | 16.21213 | 100° | 190km/h | 9949m | 2.7m/s | -45.9°C | 0% | 0hPa | 0V | 00:00:00 | 00:00:00 | 00:00:00 | |
| SP6BVK | 2026-09-05 11:41:00 | 51.32440 | 16.21139 | 102° | 183km/h | 9946m | 3.5m/s | -45.9°C | 0% | 0hPa | 0V | 00:00:00 | 00:00:00 | 00:00:00 | |
| SP6BVK | 2026-09-05 11:40:40 | 51.32630 | 16.19636 | 101° | 184km/h | 9881m | 2.9m/s | -45.6°C | 0% | 0hPa | 0V | 00:00:00 | 00:00:00 | 00:00:00 | |
| SQ6EMJ | 2026-09-05 11:40:33 | 51.32682 | 16.19204 | 103° | 175km/h | 9863m | 3.7m/s | -45.4°C | 0% | 0hPa | 0V | 00:00:00 | 00:00:00 | 00:00:00 | |
| SQ6EMJ | 2026-09-05 11:40:28 | 51.32724 | 16.18848 | 102° | 175km/h | 9848m | 2.4m/s | -45.4°C | 0% | 0hPa | 0V | 00:00:00 | 00:00:00 | 00:00:00 | |
| SQ6EMJ | 2026-09-05 11:40:23 | 51.32775 | 16.18419 | 103° | 181km/h | 9829m | 3.5m/s | -45.3°C | 0% | 0hPa | 0V | 00:00:00 | 00:00:00 | 00:00:00 | |
| SP6BVK | 2026-09-05 11:40:19 | 51.32802 | 16.18207 | 102° | 190km/h | 9820m | 2.4m/s | -45.2°C | 0% | 0hPa | 0V | 00:00:00 | 00:00:00 | 00:00:00 | |
| SQ6EMJ | 2026-09-05 11:40:17 | 51.32820 | 16.18064 | 103° | 173km/h | 9814m | 2.3m/s | -45.2°C | 0% | 0hPa | 0V | 00:00:00 | 00:00:00 | 00:00:00 | |
| SQ6EMJ | 2026-09-05 11:40:12 | 51.32873 | 16.17638 | 102° | 188km/h | 9796m | 3.1m/s | -45.1°C | 0% | 0hPa | 0V | 00:00:00 | 00:00:00 | 00:00:00 | |
| SQ6EMJ | 2026-09-05 11:40:05 | 51.32932 | 16.17212 | 104° | 172km/h | 9777m | 2.1m/s | -45.0°C | 0% | 0hPa | 0V | 00:00:00 | 00:00:00 | 00:00:00 | |
| SQ6EMJ | 2026-09-05 11:40:01 | 51.32981 | 16.16860 | 103° | 179km/h | 9763m | 2.8m/s | -44.9°C | 0% | 0hPa | 0V | 00:00:00 | 00:00:00 | 00:00:00 | |
| SP6BVK | 2026-09-05 11:39:59 | 51.33001 | 16.16716 | 104° | 175km/h | 9757m | 4.0m/s | -44.9°C | 0% | 0hPa | 0V | 00:00:00 | 00:00:00 | 00:00:00 | |
| SQ6EMJ | 2026-09-05 11:39:53 | 51.33059 | 16.16293 | 102° | 188km/h | 9738m | 2.9m/s | -44.8°C | 0% | 0hPa | 0V | 00:00:00 | 00:00:00 | 00:00:00 | |
| SQ6EMJ | 2026-09-05 11:39:47 | 51.33116 | 16.15868 | 103° | 173km/h | 9719m | 2.4m/s | -44.7°C | 0% | 0hPa | 0V | 00:00:00 | 00:00:00 | 00:00:00 | |
| SQ6EMJ | 2026-09-05 11:39:39 | 51.33182 | 16.15366 | 105° | 179km/h | 9699m | 3.7m/s | -44.8°C | 0% | 0hPa | 0V | 00:00:00 | 00:00:00 | 00:00:00 | |
| SP6BVK | 2026-09-05 11:39:37 | 51.33201 | 16.15224 | 101° | 190km/h | 9693m | 3.1m/s | -44.8°C | 0% | 0hPa | 0V | 00:00:00 | 00:00:00 | 00:00:00 | |
| SQ6EMJ | 2026-09-05 11:39:34 | 51.33229 | 16.15009 | 103° | 181km/h | 9684m | 3.7m/s | -44.7°C | 0% | 0hPa | 0V | 00:00:00 | 00:00:00 | 00:00:00 | |
| SQ6EMJ | 2026-09-05 11:39:28 | 51.33282 | 16.14575 | 103° | 175km/h | 9666m | 2.7m/s | -44.6°C | 0% | 0hPa | 0V | 00:00:00 | 00:00:00 | 00:00:00 | |
| SQ6EMJ | 2026-09-05 11:39:22 | 51.33337 | 16.14143 | 101° | 186km/h | 9649m | 2.5m/s | -44.6°C | 0% | 0hPa | 0V | 00:00:00 | 00:00:00 | 00:00:00 | |
| SQ6EMJ | 2026-09-05 11:39:18 | 51.33382 | 16.13777 | 102° | 183km/h | 9634m | 3.2m/s | -44.4°C | 0% | 0hPa | 0V | 00:00:00 | 00:00:00 | 00:00:00 | |
| SP6BVK | 2026-09-05 11:39:17 | 51.33392 | 16.13706 | 105° | 181km/h | 9631m | 2.6m/s | -44.4°C | 0% | 0hPa | 0V | 00:00:00 | 00:00:00 | 00:00:00 | |
| SQ6EMJ | 2026-09-05 11:39:12 | 51.33438 | 16.13345 | 103° | 183km/h | 9616m | 3.0m/s | -44.3°C | 0% | 0hPa | 0V | 00:00:00 | 00:00:00 | 00:00:00 | |
| OE3JTB-15 | 2026-09-05 11:39:08 | 51.33465 | 16.13129 | 103° | 186km/h | 9600m | 3.2m/s | 0°C | 0% | 0hPa | 0V | 00:00:00 | 00:00:00 | 00:00:00 | |
| SQ6EMJ | 2026-09-05 11:39:06 | 51.33492 | 16.12906 | 102° | 184km/h | 9597m | 3.4m/s | -44.2°C | 0% | 0hPa | 0V | 00:00:00 | 00:00:00 | 00:00:00 | |
| SQ6EMJ | 2026-09-05 11:38:58 | 51.33558 | 16.12393 | 102° | 188km/h | 9576m | 3.0m/s | -44.2°C | 0% | 0hPa | 0V | 00:00:00 | 00:00:00 | 00:00:00 | |
| SP6BVK | 2026-09-05 11:38:54 | 51.33595 | 16.12099 | 103° | 186km/h | 9564m | 3.7m/s | -44.0°C | 0% | 0hPa | 0V | 00:00:00 | 00:00:00 | 00:00:00 | |
| SQ6EMJ | 2026-09-05 11:38:53 | 51.33606 | 16.12027 | 104° | 183km/h | 9561m | 2.3m/s | -44.0°C | 0% | 0hPa | 0V | 00:00:00 | 00:00:00 | 00:00:00 | |
| SQ6EMJ | 2026-09-05 11:38:48 | 51.33662 | 16.11584 | 102° | 190km/h | 9542m | 2.7m/s | -43.9°C | 0% | 0hPa | 0V | 00:00:00 | 00:00:00 | 00:00:00 | |
| SQ6EMJ | 2026-09-05 11:38:42 | 51.33722 | 16.11148 | 104° | 183km/h | 9524m | 3.1m/s | -44.0°C | 0% | 0hPa | 0V | 00:00:00 | 00:00:00 | 00:00:00 | |
| OE3JTB-15 | 2026-09-05 11:38:39 | 51.33741 | 16.10999 | 102° | 183km/h | 9514m | 3.0m/s | 0°C | 0% | 0hPa | 0V | 00:00:00 | 00:00:00 | 00:00:00 | |
| SQ6EMJ | 2026-09-05 11:38:36 | 51.33771 | 16.10782 | 102° | 190km/h | 9508m | 2.6m/s | -44.0°C | 0% | 0hPa | 0V | 00:00:00 | 00:00:00 | 00:00:00 | |
| SP6BVK | 2026-09-05 11:38:33 | 51.33801 | 16.10567 | 103° | 183km/h | 9498m | 3.5m/s | -43.8°C | 0% | 0hPa | 0V | 00:00:00 | 00:00:00 | 00:00:00 | |
| SQ6EMJ | 2026-09-05 11:38:29 | 51.33842 | 16.10277 | 103° | 192km/h | 9486m | 3.5m/s | -43.8°C | 0% | 0hPa | 0V | 00:00:00 | 00:00:00 | 00:00:00 | |
| SQ6EMJ | 2026-09-05 11:38:16 | 51.33973 | 16.09347 | 103° | 186km/h | 9447m | 2.8m/s | -43.7°C | 0% | 0hPa | 0V | 00:00:00 | 00:00:00 | 00:00:00 | |
| SP6BVK | 2026-09-05 11:38:12 | 51.34013 | 16.09064 | 103° | 184km/h | 9435m | 2.5m/s | -43.5°C | 0% | 0hPa | 0V | 00:00:00 | 00:00:00 | 00:00:00 | |
| OE3JTB-15 | 2026-09-05 11:38:10 | 51.34033 | 16.08925 | 104° | 179km/h | 9429m | 2.2m/s | 0°C | 0% | 0hPa | 0V | 00:00:00 | 00:00:00 | 00:00:00 | |
| SQ6EMJ | 2026-09-05 11:38:07 | 51.34072 | 16.08644 | 104° | 175km/h | 9417m | 2.6m/s | -43.6°C | 0% | 0hPa | 0V | 00:00:00 | 00:00:00 | 00:00:00 | |
| SQ6EMJ | 2026-09-05 11:38:01 | 51.34130 | 16.08222 | 102° | 183km/h | 9401m | 2.4m/s | -43.4°C | 0% | 0hPa | 0V | 00:00:00 | 00:00:00 | 00:00:00 | |
| SQ6EMJ | 2026-09-05 11:37:55 | 51.34178 | 16.07872 | 107° | 179km/h | 9387m | 3.3m/s | -43.4°C | 0% | 0hPa | 0V | 00:00:00 | 00:00:00 | 00:00:00 | |
| SP6BVK | 2026-09-05 11:37:51 | 51.34217 | 16.07592 | 107° | 181km/h | 9375m | 2.6m/s | -43.4°C | 0% | 0hPa | 0V | 00:00:00 | 00:00:00 | 00:00:00 | |
| SQ6EMJ | 2026-09-05 11:37:49 | 51.34236 | 16.07452 | 102° | 175km/h | 9368m | 2.4m/s | -43.3°C | 0% | 0hPa | 0V | 00:00:00 | 00:00:00 | 00:00:00 | |
| SQ6EMJ | 2026-09-05 11:37:44 | 51.34285 | 16.07099 | 106° | 181km/h | 9352m | 3.0m/s | -43.2°C | 0% | 0hPa | 0V | 00:00:00 | 00:00:00 | 00:00:00 | |
| OE3JTB-15 | 2026-09-05 11:37:41 | 51.34314 | 16.06889 | 102° | 177km/h | 9339m | 3.1m/s | 0°C | 0% | 0hPa | 0V | 00:00:00 | 00:00:00 | 00:00:00 | |
| SQ6EMJ | 2026-09-05 11:37:39 | 51.34345 | 16.06679 | 102° | 177km/h | 9333m | 2.7m/s | -42.9°C | 0% | 0hPa | 0V | 00:00:00 | 00:00:00 | 00:00:00 | |
| SQ6EMJ | 2026-09-05 11:37:33 | 51.34406 | 16.06258 | 106° | 181km/h | 9314m | 2.4m/s | -42.9°C | 0% | 0hPa | 0V | 00:00:00 | 00:00:00 | 00:00:00 | |
| SQ6EMJ | 2026-09-05 11:37:27 | 51.34457 | 16.05908 | 103° | 177km/h | 9299m | 3.7m/s | -42.8°C | 0% | 0hPa | 0V | 00:00:00 | 00:00:00 | 00:00:00 | |
| SQ6EMJ | 2026-09-05 11:37:21 | 51.34518 | 16.05490 | 106° | 173km/h | 9281m | 3.2m/s | -42.7°C | 0% | 0hPa | 0V | 00:00:00 | 00:00:00 | 00:00:00 | |
| SQ6EMJ | 2026-09-05 11:37:16 | 51.34571 | 16.05142 | 104° | 177km/h | 9267m | 3.4m/s | -42.6°C | 0% | 0hPa | 0V | 00:00:00 | 00:00:00 | 00:00:00 | |
| OE3JTB-15 | 2026-09-05 11:37:12 | 51.34611 | 16.04862 | 102° | 179km/h | 9251m | 2.3m/s | 0°C | 0% | 0hPa | 0V | 00:00:00 | 00:00:00 | 00:00:00 | |
| SQ6EMJ | 2026-09-05 11:37:11 | 51.34630 | 16.04721 | 104° | 177km/h | 9248m | 3.4m/s | -42.3°C | 0% | 0hPa | 0V | 00:00:00 | 00:00:00 | 00:00:00 | |
| SP6BVK | 2026-09-05 11:37:10 | 51.34630 | 16.04721 | 104° | 177km/h | 9248m | 3.4m/s | -42.3°C | 0% | 0hPa | 0V | 00:00:00 | 00:00:00 | 00:00:00 | |
| SQ6EMJ | 2026-09-05 11:37:05 | 51.34691 | 16.04302 | 102° | 183km/h | 9230m | 4.0m/s | -42.3°C | 0% | 0hPa | 0V | 00:00:00 | 00:00:00 | 00:00:00 | |
| SQ6EMJ | 2026-09-05 11:36:59 | 51.34741 | 16.03950 | 104° | 181km/h | 9213m | 3.3m/s | -42.1°C | 0% | 0hPa | 0V | 00:00:00 | 00:00:00 | 00:00:00 | |
| SQ6EMJ | 2026-09-05 11:36:54 | 51.34805 | 16.03531 | 104° | 183km/h | 9194m | 3.5m/s | -41.9°C | 0% | 0hPa | 0V | 00:00:00 | 00:00:00 | 00:00:00 | |
| SP6BVK | 2026-09-05 11:36:49 | 51.34847 | 16.03251 | 103° | 179km/h | 9182m | 3.3m/s | -41.9°C | 0% | 0hPa | 0V | 00:00:00 | 00:00:00 | 00:00:00 | |
| SQ6EMJ | 2026-09-05 11:36:48 | 51.34857 | 16.03180 | 103° | 183km/h | 9180m | 2.4m/s | -41.9°C | 0% | 0hPa | 0V | 00:00:00 | 00:00:00 | 00:00:00 | |
| SQ6EMJ | 2026-09-05 11:36:43 | 51.34921 | 16.02765 | 106° | 175km/h | 9163m | 2.7m/s | -41.7°C | 0% | 0hPa | 0V | 00:00:00 | 00:00:00 | 00:00:00 | |
| SQ6EMJ | 2026-09-05 11:36:37 | 51.34985 | 16.02343 | 103° | 179km/h | 9146m | 2.9m/s | -41.7°C | 0% | 0hPa | 0V | 00:00:00 | 00:00:00 | 00:00:00 | |
| SQ6EMJ | 2026-09-05 11:36:31 | 51.35040 | 16.01993 | 108° | 183km/h | 9129m | 3.6m/s | -41.5°C | 0% | 0hPa | 0V | 00:00:00 | 00:00:00 | 00:00:00 | |
| SP6BVK | 2026-09-05 11:36:29 | 51.35063 | 16.01852 | 103° | 179km/h | 9123m | 3.3m/s | -41.5°C | 0% | 0hPa | 0V | 00:00:00 | 00:00:00 | 00:00:00 | |
| SQ6EMJ | 2026-09-05 11:36:25 | 51.35107 | 16.01570 | 103° | 177km/h | 9110m | 2.6m/s | -41.4°C | 0% | 0hPa | 0V | 00:00:00 | 00:00:00 | 00:00:00 | |
| SQ6EMJ | 2026-09-05 11:36:20 | 51.35162 | 16.01218 | 107° | 184km/h | 9094m | 3.1m/s | -41.4°C | 0% | 0hPa | 0V | 00:00:00 | 00:00:00 | 00:00:00 | |
| SQ6EMJ | 2026-09-05 11:36:15 | 51.35226 | 16.00796 | 102° | 179km/h | 9074m | 2.4m/s | -41.3°C | 0% | 0hPa | 0V | 00:00:00 | 00:00:00 | 00:00:00 | |
| OE3JTB-15 | 2026-09-05 11:36:14 | 51.35226 | 16.00795 | 102° | 181km/h | 9071m | 3.5m/s | 0°C | 0% | 0hPa | 0V | 00:00:00 | 00:00:00 | 00:00:00 | |
| SP6BVK | 2026-09-05 11:36:08 | 51.35289 | 16.00369 | 103° | 181km/h | 9054m | 3.8m/s | -41.1°C | 0% | 0hPa | 0V | 00:00:00 | 00:00:00 | 00:00:00 | |
| SQ6EMJ | 2026-09-05 11:36:03 | 51.35339 | 16.00011 | 103° | 181km/h | 9037m | 3.1m/s | -40.9°C | 0% | 0hPa | 0V | 00:00:00 | 00:00:00 | 00:00:00 | |
| SQ6EMJ | 2026-09-05 11:35:58 | 51.35402 | 15.99581 | 104° | 183km/h | 9017m | 3.6m/s | -40.9°C | 0% | 0hPa | 0V | 00:00:00 | 00:00:00 | 00:00:00 | |
| SQ6EMJ | 2026-09-05 11:35:52 | 51.35449 | 15.99224 | 102° | 177km/h | 9000m | 2.8m/s | -40.7°C | 0% | 0hPa | 0V | 00:00:00 | 00:00:00 | 00:00:00 | |
| SP6BVK | 2026-09-05 11:35:48 | 51.35490 | 15.98938 | 101° | 181km/h | 8989m | 2.3m/s | -40.6°C | 0% | 0hPa | 0V | 00:00:00 | 00:00:00 | 00:00:00 | |
| SQ6EMJ | 2026-09-05 11:35:47 | 51.35509 | 15.98794 | 104° | 192km/h | 8984m | 2.9m/s | -40.6°C | 0% | 0hPa | 0V | 00:00:00 | 00:00:00 | 00:00:00 | |
| OE3JTB-15 | 2026-09-05 11:35:45 | 51.35519 | 15.98721 | 103° | 181km/h | 8936m | 3.4m/s | 0°C | 0% | 0hPa | 0V | 00:00:00 | 00:00:00 | 00:00:00 | |
| SQ6EMJ | 2026-09-05 11:35:40 | 51.35567 | 15.98362 | 102° | 175km/h | 8964m | 2.8m/s | -40.4°C | 0% | 0hPa | 0V | 00:00:00 | 00:00:00 | 00:00:00 | |
| SQ6EMJ | 2026-09-05 11:35:35 | 51.35617 | 15.98001 | 105° | 190km/h | 8947m | 3.3m/s | -40.2°C | 0% | 0hPa | 0V | 00:00:00 | 00:00:00 | 00:00:00 | |
| SQ6EMJ | 2026-09-05 11:35:29 | 51.35675 | 15.97566 | 101° | 179km/h | 8925m | 3.1m/s | -40.1°C | 0% | 0hPa | 0V | 00:00:00 | 00:00:00 | 00:00:00 | |
| SQ6EMJ | 2026-09-05 11:35:24 | 51.35721 | 15.97202 | 101° | 190km/h | 8908m | 3.1m/s | -40.0°C | 0% | 0hPa | 0V | 00:00:00 | 00:00:00 | 00:00:00 | |
| SQ6EMJ | 2026-09-05 11:35:19 | 51.35773 | 15.96760 | 102° | 188km/h | 8886m | 2.7m/s | -39.8°C | 0% | 0hPa | 0V | 00:00:00 | 00:00:00 | 00:00:00 | |
| SQ6EMJ | 2026-09-05 11:35:13 | 51.35828 | 15.96325 | 102° | 175km/h | 8867m | 2.5m/s | -39.6°C | 0% | 0hPa | 0V | 00:00:00 | 00:00:00 | 00:00:00 | |
| OE3JTB-15 | 2026-09-05 11:35:07 | 51.35871 | 15.95965 | 102° | 179km/h | 8850m | 4.1m/s | 0°C | 0% | 0hPa | 0V | 00:00:00 | 00:00:00 | 00:00:00 | |
| SQ6EMJ | 2026-09-05 11:34:57 | 51.35964 | 15.95177 | 102° | 184km/h | 8810m | 4.2m/s | -39.1°C | 0% | 0hPa | 0V | 00:00:00 | 00:00:00 | 00:00:00 | |
| SQ6EMJ | 2026-09-05 11:34:51 | 51.36015 | 15.94750 | 102° | 177km/h | 8788m | 3.8m/s | -39.1°C | 0% | 0hPa | 0V | 00:00:00 | 00:00:00 | 00:00:00 | |
| SP6BVK | 2026-09-05 11:34:46 | 51.36048 | 15.94466 | 103° | 177km/h | 8772m | 3.5m/s | -39.0°C | 0% | 0hPa | 0V | 00:00:00 | 00:00:00 | 00:00:00 | |
| SQ6EMJ | 2026-09-05 11:34:45 | 51.36064 | 15.94325 | 99° | 177km/h | 8765m | 3.4m/s | -38.9°C | 0% | 0hPa | 0V | 00:00:00 | 00:00:00 | 00:00:00 | |
| OE3JTB-15 | 2026-09-05 11:34:37 | 51.36122 | 15.93833 | 100° | 172km/h | 8735m | 4.2m/s | 0°C | 0% | 0hPa | 0V | 00:00:00 | 00:00:00 | 00:00:00 | |
| SQ6EMJ | 2026-09-05 11:34:34 | 51.36155 | 15.93551 | 103° | 177km/h | 8724m | 3.2m/s | -38.6°C | 0% | 0hPa | 0V | 00:00:00 | 00:00:00 | 00:00:00 | |
| SQ6EMJ | 2026-09-05 11:34:29 | 51.36197 | 15.93204 | 104° | 170km/h | 8707m | 3.5m/s | -38.7°C | 0% | 0hPa | 0V | 00:00:00 | 00:00:00 | 00:00:00 | |
| SP6BVK | 2026-09-05 11:34:26 | 51.36216 | 15.93067 | 101° | 173km/h | 8700m | 4.3m/s | -38.6°C | 0% | 0hPa | 0V | 00:00:00 | 00:00:00 | 00:00:00 | |
| SQ6EMJ | 2026-09-05 11:34:23 | 51.36246 | 15.92792 | 105° | 173km/h | 8684m | 3.8m/s | -38.5°C | 0% | 0hPa | 0V | 00:00:00 | 00:00:00 | 00:00:00 | |
| SQ6EMJ | 2026-09-05 11:34:17 | 51.36295 | 15.92388 | 102° | 175km/h | 8660m | 4.1m/s | -38.4°C | 0% | 0hPa | 0V | 00:00:00 | 00:00:00 | 00:00:00 | |
| SQ6EMJ | 2026-09-05 11:34:11 | 51.36342 | 15.92052 | 103° | 173km/h | 8641m | 3.0m/s | -38.4°C | 0% | 0hPa | 0V | 00:00:00 | 00:00:00 | 00:00:00 | |
| OE3JTB-15 | 2026-09-05 11:34:08 | 51.36369 | 15.91854 | 103° | 170km/h | 8626m | 4.0m/s | 0°C | 0% | 0hPa | 0V | 00:00:00 | 00:00:00 | 00:00:00 | |
| SQ6EMJ | 2026-09-05 11:34:06 | 51.36397 | 15.91656 | 104° | 172km/h | 8619m | 3.9m/s | -38.0°C | 0% | 0hPa | 0V | 00:00:00 | 00:00:00 | 00:00:00 | |
| SP6BVK | 2026-09-05 11:34:05 | 51.36397 | 15.91656 | 104° | 172km/h | 8619m | 3.9m/s | -38.0°C | 0% | 0hPa | 0V | 00:00:00 | 00:00:00 | 00:00:00 | |
| SQ6EMJ | 2026-09-05 11:34:00 | 51.36445 | 15.91322 | 104° | 179km/h | 8602m | 2.7m/s | -38.1°C | 0% | 0hPa | 0V | 00:00:00 | 00:00:00 | 00:00:00 | |
| SQ6EMJ | 2026-09-05 11:33:55 | 51.36502 | 15.90923 | 103° | 164km/h | 8581m | 3.5m/s | -37.9°C | 0% | 0hPa | 0V | 00:00:00 | 00:00:00 | 00:00:00 | |
| SQ6EMJ | 2026-09-05 11:33:49 | 51.36560 | 15.90519 | 103° | 164km/h | 8559m | 3.7m/s | -37.7°C | 0% | 0hPa | 0V | 00:00:00 | 00:00:00 | 00:00:00 | |
| SP6BVK | 2026-09-05 11:33:45 | 51.36589 | 15.90316 | 103° | 173km/h | 8549m | 4.2m/s | -37.6°C | 0% | 0hPa | 0V | 00:00:00 | 00:00:00 | 00:00:00 | |
| SQ6EMJ | 2026-09-05 11:33:43 | 51.36607 | 15.90183 | 104° | 172km/h | 8542m | 4.5m/s | -37.6°C | 0% | 0hPa | 0V | 00:00:00 | 00:00:00 | 00:00:00 | |
| OE3JTB-15 | 2026-09-05 11:33:39 | 51.36646 | 15.89912 | 103° | 172km/h | 8524m | 3.6m/s | 0°C | 0% | 0hPa | 0V | 00:00:00 | 00:00:00 | 00:00:00 | |
| SQ6EMJ | 2026-09-05 11:33:38 | 51.36665 | 15.89776 | 104° | 161km/h | 8520m | 3.5m/s | -37.4°C | 0% | 0hPa | 0V | 00:00:00 | 00:00:00 | 00:00:00 | |
| SQ6EMJ | 2026-09-05 11:33:32 | 51.36713 | 15.89440 | 103° | 172km/h | 8503m | 3.8m/s | -37.3°C | 0% | 0hPa | 0V | 00:00:00 | 00:00:00 | 00:00:00 | |
| SQ6EMJ | 2026-09-05 11:33:27 | 51.36770 | 15.89032 | 104° | 164km/h | 8482m | 4.2m/s | -37.0°C | 0% | 0hPa | 0V | 00:00:00 | 00:00:00 | 00:00:00 | |
| SP6BVK | 2026-09-05 11:33:25 | 51.36789 | 15.88898 | 105° | 179km/h | 8475m | 3.5m/s | -37.0°C | 0% | 0hPa | 0V | 00:00:00 | 00:00:00 | 00:00:00 | |
| SQ6EMJ | 2026-09-05 11:33:21 | 51.36826 | 15.88627 | 104° | 177km/h | 8462m | 3.7m/s | -37.0°C | 0% | 0hPa | 0V | 00:00:00 | 00:00:00 | 00:00:00 | |
| SQ6EMJ | 2026-09-05 11:33:10 | 51.36928 | 15.87888 | 104° | 168km/h | 8424m | 3.8m/s | -36.6°C | 0% | 0hPa | 0V | 00:00:00 | 00:00:00 | 00:00:00 | |
| SP6BVK | 2026-09-05 11:33:04 | 51.36971 | 15.87550 | 102° | 173km/h | 8406m | 3.1m/s | -36.6°C | 0% | 0hPa | 0V | 00:00:00 | 00:00:00 | 00:00:00 | |
| EDDB2-12 | 2026-09-05 11:33:03 | 51.36979 | 15.87484 | 101° | 161km/h | 8402m | 4.1m/s | -36.6°C | -1.0% | -1.0hPa | 0V | 00:00:00 | 00:00:00 | 00:00:00 | |
| SQ6EMJ | 2026-09-05 11:32:52 | 51.37073 | 15.86756 | 103° | 161km/h | 8363m | 3.4m/s | -36.2°C | 0% | 0hPa | 0V | 00:00:00 | 00:00:00 | 00:00:00 | |
| SQ6EMJ | 2026-09-05 11:32:47 | 51.37115 | 15.86429 | 104° | 164km/h | 8345m | 3.2m/s | -36.2°C | 0% | 0hPa | 0V | 00:00:00 | 00:00:00 | 00:00:00 | |
| SP6BVK | 2026-09-05 11:32:43 | 51.37149 | 15.86166 | 104° | 164km/h | 8331m | 3.4m/s | -36.0°C | 0% | 0hPa | 0V | 00:00:00 | 00:00:00 | 00:00:00 | |
| SQ6EMJ | 2026-09-05 11:32:42 | 51.37164 | 15.86032 | 102° | 168km/h | 8325m | 3.2m/s | -36.0°C | 0% | 0hPa | 0V | 00:00:00 | 00:00:00 | 00:00:00 | |
| OE3JTB-15 | 2026-09-05 11:32:41 | 51.37164 | 15.86032 | 101° | 162km/h | 8322m | 3.7m/s | 0°C | 0% | 0hPa | 0V | 00:00:00 | 00:00:00 | 00:00:00 | |
| SQ6EMJ | 2026-09-05 11:32:36 | 51.37206 | 15.85708 | 104° | 157km/h | 8309m | 3.5m/s | -35.9°C | 0% | 0hPa | 0V | 00:00:00 | 00:00:00 | 00:00:00 | |
| SQ6EMJ | 2026-09-05 11:32:31 | 51.37252 | 15.85320 | 101° | 170km/h | 8289m | 3.4m/s | -35.7°C | 0% | 0hPa | 0V | 00:00:00 | 00:00:00 | 00:00:00 | |
| SQ6EMJ | 2026-09-05 11:32:24 | 51.37300 | 15.84934 | 105° | 155km/h | 8267m | 3.2m/s | -35.5°C | 0% | 0hPa | 0V | 00:00:00 | 00:00:00 | 00:00:00 | |
| SQ6EMJ | 2026-09-05 11:32:19 | 51.37340 | 15.84613 | 99° | 168km/h | 8250m | 3.5m/s | -35.4°C | 0% | 0hPa | 0V | 00:00:00 | 00:00:00 | 00:00:00 | |
| SQ6EMJ | 2026-09-05 11:32:14 | 51.37387 | 15.84227 | 105° | 161km/h | 8230m | 3.0m/s | -35.3°C | 0% | 0hPa | 0V | 00:00:00 | 00:00:00 | 00:00:00 | |
| OE3JTB-15 | 2026-09-05 11:32:12 | 51.37395 | 15.84161 | 100° | 159km/h | 8223m | 3.2m/s | 0°C | 0% | 0hPa | 0V | 00:00:00 | 00:00:00 | 00:00:00 | |
| SQ6EMJ | 2026-09-05 11:32:08 | 51.37426 | 15.83906 | 100° | 159km/h | 8212m | 3.1m/s | -35.2°C | 0% | 0hPa | 0V | 00:00:00 | 00:00:00 | 00:00:00 | |
| SP6BVK | 2026-09-05 11:32:03 | 51.37474 | 15.83527 | 104° | 162km/h | 8191m | 3.4m/s | -35.0°C | 0% | 0hPa | 0V | 00:00:00 | 00:00:00 | 00:00:00 | |
| SQ6EMJ | 2026-09-05 11:31:56 | 51.37521 | 15.83147 | 105° | 155km/h | 8170m | 3.7m/s | -34.8°C | 0% | 0hPa | 0V | 00:00:00 | 00:00:00 | 00:00:00 | |
| SQ6EMJ | 2026-09-05 11:31:51 | 51.37560 | 15.82835 | 103° | 157km/h | 8152m | 3.6m/s | -34.6°C | 0% | 0hPa | 0V | 00:00:00 | 00:00:00 | 00:00:00 | |
| SQ6EMJ | 2026-09-05 11:31:45 | 51.37608 | 15.82457 | 103° | 155km/h | 8132m | 3.4m/s | -34.5°C | 0% | 0hPa | 0V | 00:00:00 | 00:00:00 | 00:00:00 | |
| OE3JTB-15 | 2026-09-05 11:31:43 | 51.37624 | 15.82334 | 101° | 159km/h | 8122m | 2.9m/s | 0°C | 0% | 0hPa | 0V | 00:00:00 | 00:00:00 | 00:00:00 | |
| SP6BVK | 2026-09-05 11:31:41 | 51.37641 | 15.82208 | 104° | 150km/h | 8119m | 3.6m/s | -34.4°C | 0% | 0hPa | 0V | 00:00:00 | 00:00:00 | 00:00:00 | |
| SQ6EMJ | 2026-09-05 11:31:40 | 51.37649 | 15.82148 | 104° | 153km/h | 8116m | 3.2m/s | -34.4°C | 0% | 0hPa | 0V | 00:00:00 | 00:00:00 | 00:00:00 | |
| SQ6EMJ | 2026-09-05 11:31:28 | 51.37751 | 15.81400 | 103° | 159km/h | 8075m | 3.6m/s | -34.1°C | 0% | 0hPa | 0V | 00:00:00 | 00:00:00 | 00:00:00 | |
| SQ6EMJ | 2026-09-05 11:31:24 | 51.37795 | 15.81086 | 103° | 162km/h | 8058m | 2.6m/s | -33.9°C | 0% | 0hPa | 0V | 00:00:00 | 00:00:00 | 00:00:00 | |
| SP6BVK | 2026-09-05 11:31:22 | 51.37814 | 15.80963 | 105° | 150km/h | 8052m | 2.4m/s | -33.9°C | 0% | 0hPa | 0V | 00:00:00 | 00:00:00 | 00:00:00 | |
| SQ6EMJ | 2026-09-05 11:31:18 | 51.37849 | 15.80713 | 105° | 151km/h | 8038m | 3.5m/s | -33.8°C | 0% | 0hPa | 0V | 00:00:00 | 00:00:00 | 00:00:00 | |
| OE3JTB-15 | 2026-09-05 11:31:14 | 51.37875 | 15.80525 | 105° | 159km/h | 8025m | 2.5m/s | 0°C | 0% | 0hPa | 0V | 00:00:00 | 00:00:00 | 00:00:00 | |
| SQ6EMJ | 2026-09-05 11:31:12 | 51.37894 | 15.80403 | 104° | 153km/h | 8023m | 2.8m/s | -33.7°C | 0% | 0hPa | 0V | 00:00:00 | 00:00:00 | 00:00:00 | |
| SQ6EMJ | 2026-09-05 11:31:07 | 51.37949 | 15.80027 | 104° | 150km/h | 8003m | 3.3m/s | -33.6°C | 0% | 0hPa | 0V | 00:00:00 | 00:00:00 | 00:00:00 | |
| EDDB2-11 | 2026-09-05 11:31:06 | 51.37957 | 15.79967 | 103° | 155km/h | 7999m | 3.2m/s | -33.4°C | -1.0% | -1.0hPa | 0V | 00:00:00 | 00:00:00 | 00:00:00 | |
| S3001 | 2026-09-05 11:31:04 | 51.37985 | 15.79778 | 104° | 150km/h | 7989m | 2.8m/s | -33.4°C | -1.0% | -1.0hPa | 0V | 00:00:00 | 00:00:00 | 00:00:00 | |
| SONDE2-11 | 2026-09-05 11:31:03 | 51.37985 | 15.79778 | 104° | 150km/h | 7989m | 2.8m/s | -33.3°C | -1.0% | -1.0hPa | 0V | 00:00:00 | 00:00:00 | 00:00:00 | |
| SQ6EMJ | 2026-09-05 11:30:56 | 51.38048 | 15.79341 | 104° | 153km/h | 7967m | 3.7m/s | -33.4°C | 0% | 0hPa | 0V | 00:00:00 | 00:00:00 | 00:00:00 | |
| SQ6EMJ | 2026-09-05 11:30:50 | 51.38101 | 15.78970 | 103° | 162km/h | 7947m | 2.6m/s | -33.3°C | 0% | 0hPa | 0V | 00:00:00 | 00:00:00 | 00:00:00 | |
| OE3JTB-15 | 2026-09-05 11:30:45 | 51.38134 | 15.78723 | 103° | 153km/h | 7930m | 3.1m/s | 0°C | 0% | 0hPa | 0V | 00:00:00 | 00:00:00 | 00:00:00 | |
| SQ6EMJ | 2026-09-05 11:30:44 | 51.38142 | 15.78662 | 102° | 146km/h | 7930m | 3.2m/s | -33.2°C | 0% | 0hPa | 0V | 00:00:00 | 00:00:00 | 00:00:00 | |
| SP6BVK | 2026-09-05 11:30:40 | 51.38176 | 15.78418 | 103° | 146km/h | 7918m | 2.8m/s | -33.1°C | 0% | 0hPa | 0V | 00:00:00 | 00:00:00 | 00:00:00 | |
| SQ6EMJ | 2026-09-05 11:30:39 | 51.38192 | 15.78295 | 103° | 162km/h | 7912m | 2.6m/s | -33.0°C | 0% | 0hPa | 0V | 00:00:00 | 00:00:00 | 00:00:00 | |
| SQ6EMJ | 2026-09-05 11:30:33 | 51.38239 | 15.77928 | 102° | 150km/h | 7893m | 2.5m/s | -32.9°C | 0% | 0hPa | 0V | 00:00:00 | 00:00:00 | 00:00:00 | |
| SQ6EMJ | 2026-09-05 11:30:27 | 51.38276 | 15.77624 | 103° | 159km/h | 7878m | 3.2m/s | -32.7°C | 0% | 0hPa | 0V | 00:00:00 | 00:00:00 | 00:00:00 | |
| SQ6EMJ | 2026-09-05 11:30:21 | 51.38322 | 15.77257 | 101° | 146km/h | 7860m | 2.6m/s | -32.6°C | 0% | 0hPa | 0V | 00:00:00 | 00:00:00 | 00:00:00 | |
| SQ6EMJ | 2026-09-05 11:30:19 | 51.38361 | 15.76953 | 103° | 155km/h | 7845m | 3.2m/s | -32.6°C | 0% | 0hPa | 0V | 00:00:00 | 00:00:00 | 00:00:00 | |
| OE3JTB-15 | 2026-09-05 11:30:18 | 51.38361 | 15.76952 | 104° | 153km/h | 7842m | 2.4m/s | 0°C | 0% | 0hPa | 0V | 00:00:00 | 00:00:00 | 00:00:00 | |
| SQ6EMJ | 2026-09-05 11:30:05 | 51.38457 | 15.76224 | 104° | 159km/h | 7808m | 2.5m/s | -32.4°C | 0% | 0hPa | 0V | 00:00:00 | 00:00:00 | 00:00:00 | |
| EDDB2-11 | 2026-09-05 11:30:04 | 51.38466 | 15.76162 | 102° | 151km/h | 7805m | 3.4m/s | -32.1°C | -1.0% | -1.0hPa | 0V | 00:00:00 | 00:00:00 | 00:00:00 | |
| SP6BVK | 2026-09-05 11:29:59 | 51.38498 | 15.75920 | 104° | 155km/h | 7794m | 3.2m/s | -32.3°C | 0% | 0hPa | 0V | 00:00:00 | 00:00:00 | 00:00:00 | |
| SQ6EMJ | 2026-09-05 11:29:54 | 51.38544 | 15.75556 | 105° | 159km/h | 7775m | 2.8m/s | -32.2°C | 0% | 0hPa | 0V | 00:00:00 | 00:00:00 | 00:00:00 | |
| SQ6EMJ | 2026-09-05 11:29:48 | 51.38583 | 15.75252 | 102° | 151km/h | 7761m | 3.2m/s | -32.1°C | 0% | 0hPa | 0V | 00:00:00 | 00:00:00 | 00:00:00 | |
| OE3JTB-15 | 2026-09-05 11:29:47 | 51.38590 | 15.75192 | 100° | 151km/h | 7755m | 3.5m/s | 0°C | 0% | 0hPa | 0V | 00:00:00 | 00:00:00 | 00:00:00 | |
| SQ6EMJ | 2026-09-05 11:29:43 | 51.38628 | 15.74890 | 102° | 155km/h | 7743m | 3.2m/s | -32.0°C | 0% | 0hPa | 0V | 00:00:00 | 00:00:00 | 00:00:00 | |
| SP6BVK | 2026-09-05 11:29:38 | 51.38658 | 15.74649 | 101° | 151km/h | 7731m | 2.7m/s | -32.0°C | 0% | 0hPa | 0V | 00:00:00 | 00:00:00 | 00:00:00 | |
| SQ6EMJ | 2026-09-05 11:29:36 | 51.38673 | 15.74525 | 101° | 153km/h | 7725m | 3.6m/s | -31.9°C | 0% | 0hPa | 0V | 00:00:00 | 00:00:00 | 00:00:00 | |
| SQ6EMJ | 2026-09-05 11:29:31 | 51.38707 | 15.74224 | 101° | 146km/h | 7710m | 3.0m/s | -31.7°C | 0% | 0hPa | 0V | 00:00:00 | 00:00:00 | 00:00:00 | |
| SQ6EMJ | 2026-09-05 11:29:26 | 51.38747 | 15.73864 | 101° | 153km/h | 7692m | 3.8m/s | -31.7°C | 0% | 0hPa | 0V | 00:00:00 | 00:00:00 | 00:00:00 | |
| SQ6EMJ | 2026-09-05 11:29:21 | 51.38777 | 15.73559 | 100° | 151km/h | 7677m | 3.0m/s | -31.7°C | 0% | 0hPa | 0V | 00:00:00 | 00:00:00 | 00:00:00 | |
| SP6BVK | 2026-09-05 11:29:19 | 51.38790 | 15.73440 | 100° | 155km/h | 7671m | 3.7m/s | -31.6°C | 0% | 0hPa | 0V | 00:00:00 | 00:00:00 | 00:00:00 | |
| OE3JTB-15 | 2026-09-05 11:29:18 | 51.38790 | 15.73438 | 100° | 150km/h | 7668m | 2.5m/s | 0°C | 0% | 0hPa | 0V | 00:00:00 | 00:00:00 | 00:00:00 | |
| SQ6EMJ | 2026-09-05 11:29:15 | 51.38816 | 15.73200 | 100° | 157km/h | 7660m | 3.1m/s | -31.4°C | 0% | 0hPa | 0V | 00:00:00 | 00:00:00 | 00:00:00 | |
| SQ6EMJ | 2026-09-05 11:29:09 | 51.38853 | 15.72838 | 99° | 144km/h | 7642m | 2.2m/s | -31.5°C | 0% | 0hPa | 0V | 00:00:00 | 00:00:00 | 00:00:00 | |
| SQ6EMJ | 2026-09-05 11:29:03 | 51.38884 | 15.72540 | 101° | 159km/h | 7627m | 2.6m/s | -31.3°C | 0% | 0hPa | 0V | 00:00:00 | 00:00:00 | 00:00:00 | |
| EDDB2-11 | 2026-09-05 11:29:01 | 51.38897 | 15.72421 | 99° | 142km/h | 7621m | 2.4m/s | -31.1°C | -1.0% | -1.0hPa | 0V | 00:00:00 | 00:00:00 | 00:00:00 | |
| SQ6EMJ | 2026-09-05 11:28:58 | 51.38923 | 15.72182 | 101° | 142km/h | 7610m | 2.3m/s | -31.2°C | 0% | 0hPa | 0V | 00:00:00 | 00:00:00 | 00:00:00 | |
| SP6BVK | 2026-09-05 11:28:57 | 51.38923 | 15.72182 | 101° | 142km/h | 7610m | 2.3m/s | -31.2°C | 0% | 0hPa | 0V | 00:00:00 | 00:00:00 | 00:00:00 | |
| SQ6EMJ | 2026-09-05 11:28:53 | 51.38955 | 15.71886 | 101° | 151km/h | 7596m | 3.0m/s | -31.0°C | 0% | 0hPa | 0V | 00:00:00 | 00:00:00 | 00:00:00 | |
| OE3JTB-15 | 2026-09-05 11:28:49 | 51.38974 | 15.71706 | 101° | 150km/h | 7585m | 3.7m/s | 0°C | 0% | 0hPa | 0V | 00:00:00 | 00:00:00 | 00:00:00 | |
| SQ6EMJ | 2026-09-05 11:28:47 | 51.38993 | 15.71525 | 102° | 142km/h | 7579m | 3.3m/s | -31.0°C | 0% | 0hPa | 0V | 00:00:00 | 00:00:00 | 00:00:00 | |
| SQ6EMJ | 2026-09-05 11:28:41 | 51.39031 | 15.71168 | 101° | 155km/h | 7561m | 1.9m/s | -30.9°C | 0% | 0hPa | 0V | 00:00:00 | 00:00:00 | 00:00:00 | |
| SP6BVK | 2026-09-05 11:28:37 | 51.39049 | 15.70989 | 100° | 161km/h | 7553m | 2.5m/s | -30.8°C | 0% | 0hPa | 0V | 00:00:00 | 00:00:00 | 00:00:00 | |
| SQ6EMJ | 2026-09-05 11:28:35 | 51.39062 | 15.70870 | 101° | 144km/h | 7547m | 2.4m/s | -30.7°C | 0% | 0hPa | 0V | 00:00:00 | 00:00:00 | 00:00:00 | |
| SQ6EMJ | 2026-09-05 11:28:30 | 51.39098 | 15.70510 | 101° | 144km/h | 7528m | 3.9m/s | -30.6°C | 0% | 0hPa | 0V | 00:00:00 | 00:00:00 | 00:00:00 | |
| SQ6EMJ | 2026-09-05 11:28:24 | 51.39130 | 15.70212 | 101° | 148km/h | 7514m | 3.2m/s | -30.5°C | 0% | 0hPa | 0V | 00:00:00 | 00:00:00 | 00:00:00 | |
| OE3JTB-15 | 2026-09-05 11:28:20 | 51.39153 | 15.69970 | 100° | 150km/h | 7500m | 2.9m/s | 0°C | 0% | 0hPa | 0V | 00:00:00 | 00:00:00 | 00:00:00 | |
| SQ6EMJ | 2026-09-05 11:28:19 | 51.39165 | 15.69852 | 101° | 146km/h | 7497m | 2.6m/s | -30.3°C | 0% | 0hPa | 0V | 00:00:00 | 00:00:00 | 00:00:00 | |
| SP6BVK | 2026-09-05 11:28:16 | 51.39177 | 15.69734 | 101° | 155km/h | 7492m | 2.9m/s | -30.3°C | 0% | 0hPa | 0V | 00:00:00 | 00:00:00 | 00:00:00 | |
| SQ6EMJ | 2026-09-05 11:28:12 | 51.39202 | 15.69496 | 99° | 151km/h | 7480m | 3.3m/s | -30.3°C | 0% | 0hPa | 0V | 00:00:00 | 00:00:00 | 00:00:00 | |
| SQ6EMJ | 2026-09-05 11:28:07 | 51.39231 | 15.69195 | 99° | 151km/h | 7467m | 2.9m/s | -30.2°C | 0% | 0hPa | 0V | 00:00:00 | 00:00:00 | 00:00:00 | |
| SQ6EMJ | 2026-09-05 11:27:58 | 51.39286 | 15.68659 | 102° | 146km/h | 7442m | 2.2m/s | -29.9°C | 0% | 0hPa | 0V | 00:00:00 | 00:00:00 | 00:00:00 | |
| SP6BVK | 2026-09-05 11:27:56 | 51.39298 | 15.68537 | 100° | 155km/h | 7436m | 2.8m/s | -29.9°C | 0% | 0hPa | 0V | 00:00:00 | 00:00:00 | 00:00:00 | |
| OE3JTB-15 | 2026-09-05 11:27:51 | 51.39330 | 15.68236 | 104° | 150km/h | 7418m | 3.0m/s | 0°C | 0% | 0hPa | 0V | 00:00:00 | 00:00:00 | 00:00:00 | |
| SQ6EMJ | 2026-09-05 11:27:49 | 51.39349 | 15.68056 | 102° | 150km/h | 7415m | 2.6m/s | -29.6°C | 0% | 0hPa | 0V | 00:00:00 | 00:00:00 | 00:00:00 | |
| SP6BVK | 2026-09-05 11:27:35 | 51.39430 | 15.67273 | 98° | 151km/h | 7373m | 3.6m/s | -29.5°C | 0% | 0hPa | 0V | 00:00:00 | 00:00:00 | 00:00:00 | |
| SQ6EMJ | 2026-09-05 11:27:28 | 51.39469 | 15.66856 | 101° | 148km/h | 7352m | 2.5m/s | -29.4°C | 0% | 0hPa | 0V | 00:00:00 | 00:00:00 | 00:00:00 | |
| SQ6EMJ | 2026-09-05 11:27:23 | 51.39501 | 15.66495 | 97° | 151km/h | 7335m | 2.5m/s | -29.3°C | 0% | 0hPa | 0V | 00:00:00 | 00:00:00 | 00:00:00 | |
| OE3JTB-15 | 2026-09-05 11:27:22 | 51.39501 | 15.66495 | 96° | 148km/h | 7332m | 2.6m/s | 0°C | 0% | 0hPa | 0V | 00:00:00 | 00:00:00 | 00:00:00 | |
| SQ6EMJ | 2026-09-05 11:27:16 | 51.39531 | 15.66138 | 98° | 144km/h | 7317m | 2.7m/s | -29.0°C | 0% | 0hPa | 0V | 00:00:00 | 00:00:00 | 00:00:00 | |
| SP6BVK | 2026-09-05 11:27:15 | 51.39536 | 15.66079 | 99° | 155km/h | 7314m | 3.5m/s | -28.9°C | 0% | 0hPa | 0V | 00:00:00 | 00:00:00 | 00:00:00 | |
| SQ6EMJ | 2026-09-05 11:27:11 | 51.39556 | 15.65839 | 100° | 157km/h | 7301m | 2.7m/s | -28.7°C | 0% | 0hPa | 0V | 00:00:00 | 00:00:00 | 00:00:00 | |
| SQ6EMJ | 2026-09-05 11:27:06 | 51.39585 | 15.65485 | 98° | 144km/h | 7283m | 2.6m/s | -28.9°C | 0% | 0hPa | 0V | 00:00:00 | 00:00:00 | 00:00:00 | |
| SQ6EMJ | 2026-09-05 11:27:00 | 51.39608 | 15.65188 | 101° | 153km/h | 7268m | 2.7m/s | -28.7°C | 0% | 0hPa | 0V | 00:00:00 | 00:00:00 | 00:00:00 | |
| SQ6EMJ | 2026-09-05 11:26:55 | 51.39634 | 15.64833 | 97° | 144km/h | 7249m | 3.4m/s | -28.6°C | 0% | 0hPa | 0V | 00:00:00 | 00:00:00 | 00:00:00 | |
| SP6BVK | 2026-09-05 11:26:54 | 51.39634 | 15.64833 | 97° | 144km/h | 7249m | 3.4m/s | -28.6°C | 0% | 0hPa | 0V | 00:00:00 | 00:00:00 | 00:00:00 | |
| OE3JTB-15 | 2026-09-05 11:26:53 | 51.39638 | 15.64773 | 100° | 148km/h | 7243m | 3.3m/s | 0°C | 0% | 0hPa | 0V | 00:00:00 | 00:00:00 | 00:00:00 | |
| SQ6EMJ | 2026-09-05 11:26:49 | 51.39659 | 15.64477 | 95° | 142km/h | 7230m | 3.9m/s | -28.5°C | 0% | 0hPa | 0V | 00:00:00 | 00:00:00 | 00:00:00 | |
| DL2RXE-15 | 2026-09-05 11:26:46 | 51.39667 | 15.64360 | 100° | 153km/h | 7224m | 3.1m/s | -28.4°C | 0% | 0hPa | 0V | 00:00:00 | 00:00:00 | 00:00:00 | |
| SQ6EMJ | 2026-09-05 11:26:44 | 51.39677 | 15.64182 | 97° | 148km/h | 7215m | 3.5m/s | -28.3°C | 0% | 0hPa | 0V | 00:00:00 | 00:00:00 | 00:00:00 | |
| SP6BVK | 2026-09-05 11:26:33 | 51.39718 | 15.63584 | 94° | 144km/h | 7184m | 2.7m/s | -28.1°C | 0% | 0hPa | 0V | 00:00:00 | 00:00:00 | 00:00:00 | |
| SQ6EMJ | 2026-09-05 11:26:31 | 51.39730 | 15.63405 | 98° | 150km/h | 7175m | 3.4m/s | -27.9°C | 0% | 0hPa | 0V | 00:00:00 | 00:00:00 | 00:00:00 | |
| SQ6EMJ | 2026-09-05 11:26:25 | 51.39752 | 15.63046 | 96° | 148km/h | 7157m | 3.0m/s | -27.7°C | 0% | 0hPa | 0V | 00:00:00 | 00:00:00 | 00:00:00 | |
| OE3JTB-15 | 2026-09-05 11:26:24 | 51.39751 | 15.63046 | 96° | 148km/h | 7154m | 2.2m/s | 0°C | 0% | 0hPa | 0V | 00:00:00 | 00:00:00 | 00:00:00 | |
| SQ6EMJ | 2026-09-05 11:26:19 | 51.39777 | 15.62684 | 97° | 150km/h | 7138m | 3.6m/s | -27.9°C | 0% | 0hPa | 0V | 00:00:00 | 00:00:00 | 00:00:00 | |
| SP6BVK | 2026-09-05 11:26:13 | 51.39796 | 15.62390 | 95° | 142km/h | 7121m | 2.8m/s | -27.8°C | 0% | 0hPa | 0V | 00:00:00 | 00:00:00 | 00:00:00 | |
| SQ6EMJ | 2026-09-05 11:26:08 | 51.39821 | 15.62038 | 98° | 146km/h | 7101m | 3.6m/s | -27.7°C | 0% | 0hPa | 0V | 00:00:00 | 00:00:00 | 00:00:00 | |
| SQ6EMJ | 2026-09-05 11:26:02 | 51.39843 | 15.61687 | 98° | 150km/h | 7081m | 3.4m/s | 0°C | 0% | 0hPa | 0V | 00:00:00 | 00:00:00 | 00:00:00 | |
| OE3JTB-15 | 2026-09-05 11:25:55 | 51.39866 | 15.61333 | 95° | 148km/h | 7059m | 3.4m/s | 0°C | 0% | 0hPa | 0V | 00:00:00 | 00:00:00 | 00:00:00 | |
| SONDE2-11 | 2026-09-05 11:25:52 | 51.39879 | 15.61097 | 93° | 142km/h | 7049m | 3.1m/s | -27.1°C | -1.0% | -1.0hPa | 0V | 00:00:00 | 00:00:00 | 00:00:00 | |
| SP6BVK | 2026-09-05 11:25:32 | 51.39941 | 15.59968 | 97° | 155km/h | 6987m | 2.8m/s | -27.1°C | 0% | 0hPa | 0V | 00:00:00 | 00:00:00 | 00:00:00 | |
| OE3JTB-15 | 2026-09-05 11:25:26 | 51.39959 | 15.59608 | 94° | 150km/h | 6965m | 2.5m/s | 0°C | 0% | 0hPa | 0V | 00:00:00 | 00:00:00 | 00:00:00 | |
| SP6BVK | 2026-09-05 11:25:11 | 51.40006 | 15.58710 | 96° | 150km/h | 6920m | 3.9m/s | -26.6°C | 0% | 0hPa | 0V | 00:00:00 | 00:00:00 | 00:00:00 | |
| OE3JTB-15 | 2026-09-05 11:24:57 | 51.40060 | 15.57867 | 100° | 148km/h | 6871m | 3.2m/s | 0°C | 0% | 0hPa | 0V | 00:00:00 | 00:00:00 | 00:00:00 | |
| SP6BVK | 2026-09-05 11:24:51 | 51.40092 | 15.57508 | 98° | 151km/h | 6854m | 3.9m/s | -26.3°C | 0% | 0hPa | 0V | 00:00:00 | 00:00:00 | 00:00:00 | |
| SQ6EMJ | 2026-09-05 11:24:37 | 51.40158 | 15.56613 | 98° | 146km/h | 6804m | 3.7m/s | -26.0°C | 0% | 0hPa | 0V | 00:00:00 | 00:00:00 | 00:00:00 | |
| SP6BVK | 2026-09-05 11:24:30 | 51.40185 | 15.56257 | 97° | 146km/h | 6784m | 3.6m/s | -25.9°C | 0% | 0hPa | 0V | 00:00:00 | 00:00:00 | 00:00:00 | |
| SQ6EMJ | 2026-09-05 11:24:29 | 51.40195 | 15.56138 | 99° | 148km/h | 6778m | 3.7m/s | -25.9°C | 0% | 0hPa | 0V | 00:00:00 | 00:00:00 | 00:00:00 | |
| OE3JTB-15 | 2026-09-05 11:24:28 | 51.40195 | 15.56138 | 98° | 146km/h | 6774m | 3.2m/s | 0°C | 0% | 0hPa | 0V | 00:00:00 | 00:00:00 | 00:00:00 | |
| SQ6EMJ | 2026-09-05 11:24:23 | 51.40217 | 15.55784 | 99° | 141km/h | 6757m | 4.0m/s | -25.7°C | 0% | 0hPa | 0V | 00:00:00 | 00:00:00 | 00:00:00 | |
| SQ6EMJ | 2026-09-05 11:24:12 | 51.40273 | 15.55140 | 98° | 146km/h | 6719m | 4.1m/s | -25.5°C | 0% | 0hPa | 0V | 00:00:00 | 00:00:00 | 00:00:00 | |
| SP6BVK | 2026-09-05 11:24:10 | 51.40279 | 15.55080 | 100° | 150km/h | 6715m | 2.6m/s | -25.4°C | 0% | 0hPa | 0V | 00:00:00 | 00:00:00 | 00:00:00 | |
| SQ6EMJ | 2026-09-05 11:24:05 | 51.40303 | 15.54789 | 97° | 139km/h | 6698m | 4.5m/s | -25.3°C | 0% | 0hPa | 0V | 00:00:00 | 00:00:00 | 00:00:00 | |
| SP6BVK | 2026-09-05 11:23:49 | 51.40381 | 15.53863 | 98° | 137km/h | 6643m | 3.2m/s | -25.0°C | 0% | 0hPa | 0V | 00:00:00 | 00:00:00 | 00:00:00 | |
| OE3JTB-15 | 2026-09-05 11:23:30 | 51.40482 | 15.52789 | 99° | 141km/h | 6572m | 2.8m/s | 0°C | 0% | 0hPa | 0V | 00:00:00 | 00:00:00 | 00:00:00 | |
| SP6BVK | 2026-09-05 11:23:29 | 51.40488 | 15.52732 | 102° | 144km/h | 6572m | 2.8m/s | -24.5°C | 0% | 0hPa | 0V | 00:00:00 | 00:00:00 | 00:00:00 | |
| SP6BVK | 2026-09-05 11:23:09 | 51.40586 | 15.51540 | 98° | 141km/h | 6499m | 4.0m/s | -23.9°C | 0% | 0hPa | 0V | 00:00:00 | 00:00:00 | 00:00:00 | |
| OE3JTB-15 | 2026-09-05 11:23:01 | 51.40613 | 15.51141 | 97° | 137km/h | 6471m | 3.7m/s | 0°C | 0% | 0hPa | 0V | 00:00:00 | 00:00:00 | 00:00:00 | |
| OE3JTB-15 | 2026-09-05 11:22:32 | 51.40750 | 15.49556 | 100° | 131km/h | 6376m | 2.7m/s | 0°C | 0% | 0hPa | 0V | 00:00:00 | 00:00:00 | 00:00:00 | |
| SP6BVK | 2026-09-05 11:22:27 | 51.40779 | 15.49291 | 102° | 133km/h | 6363m | 2.5m/s | -23.6°C | 0% | 0hPa | 0V | 00:00:00 | 00:00:00 | 00:00:00 | |
| SP6BVK | 2026-09-05 11:22:07 | 51.40899 | 15.48246 | 103° | 131km/h | 6304m | 3.7m/s | -23.1°C | 0% | 0hPa | 0V | 00:00:00 | 00:00:00 | 00:00:00 | |
| OE3JTB-15 | 2026-09-05 11:22:03 | 51.40925 | 15.48036 | 103° | 131km/h | 6290m | 2.8m/s | 0°C | 0% | 0hPa | 0V | 00:00:00 | 00:00:00 | 00:00:00 | |
| SP6BVK | 2026-09-05 11:21:46 | 51.41031 | 15.47148 | 100° | 131km/h | 6247m | 2.4m/s | -22.7°C | 0% | 0hPa | 0V | 00:00:00 | 00:00:00 | 00:00:00 | |
| OE3JTB-15 | 2026-09-05 11:21:34 | 51.41106 | 15.46522 | 103° | 131km/h | 6215m | 2.4m/s | 0°C | 0% | 0hPa | 0V | 00:00:00 | 00:00:00 | 00:00:00 | |
| SP6BVK | 2026-09-05 11:21:25 | 51.41158 | 15.46051 | 97° | 133km/h | 6196m | 2.1m/s | -22.4°C | 0% | 0hPa | 0V | 00:00:00 | 00:00:00 | 00:00:00 | |
| OE3JTB-15 | 2026-09-05 11:21:05 | 51.41264 | 15.45011 | 101° | 130km/h | 6152m | 1.9m/s | 0°C | 0% | 0hPa | 0V | 00:00:00 | 00:00:00 | 00:00:00 | |
| SP6BVK | 2026-09-05 11:20:44 | 51.41374 | 15.43922 | 99° | 133km/h | 6113m | 2.7m/s | -22.0°C | 0% | 0hPa | 0V | 00:00:00 | 00:00:00 | 00:00:00 | |
| OE3JTB-15 | 2026-09-05 11:20:36 | 51.41413 | 15.43501 | 99° | 131km/h | 6096m | 2.2m/s | 0°C | 0% | 0hPa | 0V | 00:00:00 | 00:00:00 | 00:00:00 | |
| SP6BVK | 2026-09-05 11:20:24 | 51.41467 | 15.42869 | 97° | 137km/h | 6078m | 1.3m/s | -22.2°C | 0% | 0hPa | 0V | 00:00:00 | 00:00:00 | 00:00:00 | |
| OE3JTB-15 | 2026-09-05 11:20:07 | 51.41534 | 15.41964 | 96° | 133km/h | 6043m | 1.4m/s | 0°C | 0% | 0hPa | 0V | 00:00:00 | 00:00:00 | 00:00:00 | |
| SP6BVK | 2026-09-05 11:20:03 | 51.41550 | 15.41750 | 96° | 135km/h | 6037m | 2.4m/s | -21.9°C | 0% | 0hPa | 0V | 00:00:00 | 00:00:00 | 00:00:00 | |
| SP6BVK | 2026-09-05 11:19:43 | 51.41638 | 15.40667 | 101° | 144km/h | 5995m | 2.3m/s | -21.8°C | 0% | 0hPa | 0V | 00:00:00 | 00:00:00 | 00:00:00 | |
| DAC517 | 2026-09-05 11:19:35 | 51.41682 | 15.40230 | 100° | 144km/h | 5977m | 2.4m/s | -22.2°C | 0% | 0hPa | 0V | 00:00:00 | 00:00:00 | 00:00:00 | |
| SP6BVK | 2026-09-05 11:19:22 | 51.41762 | 15.39538 | 105° | 128km/h | 5946m | 2.2m/s | -22.5°C | 0% | 0hPa | 0V | 00:00:00 | 00:00:00 | 00:00:00 | |
| DAC517 | 2026-09-05 11:19:04 | 51.41883 | 15.38634 | 105° | 130km/h | 5895m | 3.4m/s | -22.5°C | 0% | 0hPa | 0V | 00:00:00 | 00:00:00 | 00:00:00 | |
| SP6BVK | 2026-09-05 11:19:02 | 51.41899 | 15.38534 | 104° | 122km/h | 5888m | 2.6m/s | -22.4°C | 0% | 0hPa | 0V | 00:00:00 | 00:00:00 | 00:00:00 | |
| EDDB2-11 | 2026-09-05 11:18:41 | 51.42069 | 15.37490 | 106° | 111km/h | 5821m | 2.1m/s | -21.7°C | -1.0% | -1.0hPa | 0V | 00:00:00 | 00:00:00 | 00:00:00 | |
| SP6BVK | 2026-09-05 11:18:21 | 51.42225 | 15.36619 | 108° | 113km/h | 5760m | 3.0m/s | -21.8°C | 0% | 0hPa | 0V | 00:00:00 | 00:00:00 | 00:00:00 | |
| DAC517 | 2026-09-05 11:18:05 | 51.42364 | 15.35897 | 108° | 117km/h | 5709m | 3.7m/s | -21.3°C | 0% | 0hPa | 0V | 00:00:00 | 00:00:00 | 00:00:00 | |
| EDDB2-12 | 2026-09-05 11:18:03 | 51.42398 | 15.35721 | 107° | 108km/h | 5696m | 3.6m/s | -20.6°C | -1.0% | -1.0hPa | 0V | 00:00:00 | 00:00:00 | 00:00:00 | |
| SP6BVK | 2026-09-05 11:18:01 | 51.42406 | 15.35679 | 107° | 111km/h | 5693m | 2.8m/s | -21.1°C | 0% | 0hPa | 0V | 00:00:00 | 00:00:00 | 00:00:00 | |
| DAC517 | 2026-09-05 11:17:43 | 51.42559 | 15.34886 | 109° | 111km/h | 5633m | 3.8m/s | -20.5°C | 0% | 0hPa | 0V | 00:00:00 | 00:00:00 | 00:00:00 | |
| SP6BVK | 2026-09-05 11:17:40 | 51.42577 | 15.34797 | 108° | 113km/h | 5627m | 3.7m/s | -20.4°C | 0% | 0hPa | 0V | 00:00:00 | 00:00:00 | 00:00:00 | |
| DAC517 | 2026-09-05 11:17:22 | 51.42732 | 15.34009 | 109° | 115km/h | 5570m | 3.6m/s | -19.9°C | 0% | 0hPa | 0V | 00:00:00 | 00:00:00 | 00:00:00 | |
| SP6BVK | 2026-09-05 11:17:20 | 51.42758 | 15.33878 | 107° | 115km/h | 5560m | 2.9m/s | -19.9°C | 0% | 0hPa | 0V | 00:00:00 | 00:00:00 | 00:00:00 | |
| EDDB2-11 | 2026-09-05 11:17:08 | 51.42870 | 15.33357 | 110° | 113km/h | 5522m | 3.3m/s | -19.1°C | -1.0% | -1.0hPa | 0V | 00:00:00 | 00:00:00 | 00:00:00 | |
| SONDE2-11 | 2026-09-05 11:17:04 | 51.42908 | 15.33183 | 109° | 113km/h | 5510m | 3.6m/s | -19.0°C | -1.0% | -1.0hPa | 0V | 00:00:00 | 00:00:00 | 00:00:00 | |
| DAC517 | 2026-09-05 11:17:00 | 51.42947 | 15.33007 | 112° | 122km/h | 5497m | 2.8m/s | -19.4°C | 0% | 0hPa | 0V | 00:00:00 | 00:00:00 | 00:00:00 | |
| SP6BVK | 2026-09-05 11:16:59 | 51.42947 | 15.33007 | 112° | 122km/h | 5497m | 2.8m/s | -19.4°C | 0% | 0hPa | 0V | 00:00:00 | 00:00:00 | 00:00:00 | |
| SP6BVK | 2026-09-05 11:16:39 | 51.43148 | 15.32094 | 110° | 111km/h | 5431m | 2.9m/s | -18.8°C | 0% | 0hPa | 0V | 00:00:00 | 00:00:00 | 00:00:00 | |
| EDDB2-11 | 2026-09-05 11:16:37 | 51.43178 | 15.31962 | 108° | 111km/h | 5422m | 2.8m/s | -18.2°C | -1.0% | -1.0hPa | 0V | 00:00:00 | 00:00:00 | 00:00:00 | |
| SP6BVK | 2026-09-05 11:16:17 | 51.43347 | 15.31178 | 109° | 106km/h | 5365m | 2.5m/s | -18.2°C | 0% | 0hPa | 0V | 00:00:00 | 00:00:00 | 00:00:00 | |
| DAC517 | 2026-09-05 11:16:16 | 51.43356 | 15.31136 | 111° | 113km/h | 5362m | 3.2m/s | -18.1°C | 0% | 0hPa | 0V | 00:00:00 | 00:00:00 | 00:00:00 | |
| EDDB2-11 | 2026-09-05 11:16:05 | 51.43459 | 15.30659 | 107° | 110km/h | 5331m | 3.2m/s | -17.2°C | -1.0% | -1.0hPa | 0V | 00:00:00 | 00:00:00 | 00:00:00 | |
| SONDE2-11 | 2026-09-05 11:16:02 | 51.43495 | 15.30487 | 108° | 110km/h | 5319m | 3.1m/s | -17.2°C | -1.0% | -1.0hPa | 0V | 00:00:00 | 00:00:00 | 00:00:00 | |
| SP6BVK | 2026-09-05 11:15:57 | 51.43532 | 15.30314 | 109° | 119km/h | 5307m | 4.1m/s | -17.6°C | 0% | 0hPa | 0V | 00:00:00 | 00:00:00 | 00:00:00 | |
| DAC517 | 2026-09-05 11:15:39 | 51.43697 | 15.29535 | 109° | 113km/h | 5252m | 2.8m/s | -17.1°C | 0% | 0hPa | 0V | 00:00:00 | 00:00:00 | 00:00:00 | |
| SP6BVK | 2026-09-05 11:15:36 | 51.43724 | 15.29403 | 112° | 104km/h | 5244m | 2.7m/s | -17.0°C | 0% | 0hPa | 0V | 00:00:00 | 00:00:00 | 00:00:00 | |
| DAC517 | 2026-09-05 11:15:19 | 51.43887 | 15.28623 | 107° | 119km/h | 5187m | 2.4m/s | -16.5°C | 0% | 0hPa | 0V | 00:00:00 | 00:00:00 | 00:00:00 | |
| SP6BVK | 2026-09-05 11:15:16 | 51.43905 | 15.28538 | 110° | 108km/h | 5181m | 2.5m/s | -16.5°C | 0% | 0hPa | 0V | 00:00:00 | 00:00:00 | 00:00:00 | |
| EDDB2-11 | 2026-09-05 11:15:03 | 51.44020 | 15.27972 | 107° | 117km/h | 5144m | 2.5m/s | -15.6°C | -1.0% | -1.0hPa | 0V | 00:00:00 | 00:00:00 | 00:00:00 | |
| SP6BVK | 2026-09-05 11:14:55 | 51.44092 | 15.27627 | 107° | 117km/h | 5121m | 2.1m/s | -16.0°C | 0% | 0hPa | 0V | 00:00:00 | 00:00:00 | 00:00:00 | |
| SP6BVK | 2026-09-05 11:14:35 | 51.44275 | 15.26772 | 110° | 113km/h | 5059m | 3.2m/s | -15.4°C | 0% | 0hPa | 0V | 00:00:00 | 00:00:00 | 00:00:00 | |
| SP6BVK | 2026-09-05 11:14:14 | 51.44465 | 15.25885 | 110° | 110km/h | 4997m | 3.3m/s | -14.9°C | 0% | 0hPa | 0V | 00:00:00 | 00:00:00 | 00:00:00 | |
| SP6BVK | 2026-09-05 11:13:54 | 51.44645 | 15.25042 | 108° | 113km/h | 4939m | 3.0m/s | -14.3°C | 0% | 0hPa | 0V | 00:00:00 | 00:00:00 | 00:00:00 | |
| SP6BVK | 2026-09-05 11:13:33 | 51.44823 | 15.24171 | 109° | 108km/h | 4875m | 3.3m/s | -14.0°C | 0% | 0hPa | 0V | 00:00:00 | 00:00:00 | 00:00:00 | |
| SP6BVK | 2026-09-05 11:13:13 | 51.44981 | 15.23340 | 104° | 106km/h | 4817m | 2.7m/s | -13.8°C | 0% | 0hPa | 0V | 00:00:00 | 00:00:00 | 00:00:00 | |
| SP6BVK | 2026-09-05 11:12:52 | 51.45139 | 15.22478 | 111° | 102km/h | 4748m | 3.4m/s | -13.6°C | 0% | 0hPa | 0V | 00:00:00 | 00:00:00 | 00:00:00 | |
| SP6BVK | 2026-09-05 11:12:32 | 51.45276 | 15.21686 | 108° | 106km/h | 4682m | 3.5m/s | -13.1°C | 0% | 0hPa | 0V | 00:00:00 | 00:00:00 | 00:00:00 | |
| SP6BVK | 2026-09-05 11:12:11 | 51.45410 | 15.20860 | 103° | 95km/h | 4612m | 2.9m/s | -12.4°C | 0% | 0hPa | 0V | 00:00:00 | 00:00:00 | 00:00:00 | |
| EDDB2-11 | 2026-09-05 11:11:57 | 51.45509 | 15.20234 | 99° | 99km/h | 4561m | 2.4m/s | -11.4°C | -1.0% | -1.0hPa | 0V | 00:00:00 | 00:00:00 | 00:00:00 | |
| SONDE2-11 | 2026-09-05 11:11:54 | 51.45521 | 15.20155 | 106° | 100km/h | 4554m | 2.8m/s | -11.3°C | -1.0% | -1.0hPa | 0V | 00:00:00 | 00:00:00 | 00:00:00 | |
| EDDB2-12 | 2026-09-05 11:11:51 | 51.45538 | 15.20036 | 105° | 99km/h | 4545m | 3.2m/s | -11.1°C | -1.0% | -1.0hPa | 0V | 00:00:00 | 00:00:00 | 00:00:00 | |
| SP6BVK | 2026-09-05 11:11:31 | 51.45659 | 15.19242 | 108° | 100km/h | 4482m | 3.1m/s | -11.2°C | 0% | 0hPa | 0V | 00:00:00 | 00:00:00 | 00:00:00 | |
| SP6BVK | 2026-09-05 11:11:09 | 51.45787 | 15.18406 | 104° | 97km/h | 4414m | 3.0m/s | -10.6°C | 0% | 0hPa | 0V | 00:00:00 | 00:00:00 | 00:00:00 | |
| EDDB2-11 | 2026-09-05 11:10:55 | 51.45874 | 15.17798 | 104° | 93km/h | 4365m | 2.7m/s | -9.4°C | -1.0% | -1.0hPa | 0V | 00:00:00 | 00:00:00 | 00:00:00 | |
| SONDE2-11 | 2026-09-05 11:10:52 | 51.45893 | 15.17676 | 102° | 102km/h | 4356m | 3.4m/s | -9.4°C | -1.0% | -1.0hPa | 0V | 00:00:00 | 00:00:00 | 00:00:00 | |
| EDDB2-12 | 2026-09-05 11:10:49 | 51.45909 | 15.17557 | 104° | 108km/h | 4346m | 2.7m/s | -9.3°C | -1.0% | -1.0hPa | 0V | 00:00:00 | 00:00:00 | 00:00:00 | |
| SP6BVK | 2026-09-05 11:10:28 | 51.46023 | 15.16751 | 102° | 99km/h | 4283m | 3.0m/s | -9.4°C | 0% | 0hPa | 0V | 00:00:00 | 00:00:00 | 00:00:00 | |
| SP6BVK | 2026-09-05 11:10:08 | 51.46133 | 15.15934 | 106° | 102km/h | 4221m | 3.3m/s | -8.9°C | 0% | 0hPa | 0V | 00:00:00 | 00:00:00 | 00:00:00 | |
| EDDB2-11 | 2026-09-05 11:09:53 | 51.46215 | 15.15295 | 98° | 106km/h | 4172m | 2.9m/s | -8.1°C | -1.0% | -1.0hPa | 0V | 00:00:00 | 00:00:00 | 00:00:00 | |
| SONDE2-11 | 2026-09-05 11:09:50 | 51.46234 | 15.15136 | 100° | 100km/h | 4160m | 3.5m/s | -8.0°C | -1.0% | -1.0hPa | 0V | 00:00:00 | 00:00:00 | 00:00:00 | |
| EDDB2-12 | 2026-09-05 11:09:47 | 51.46243 | 15.15053 | 100° | 99km/h | 4154m | 3.6m/s | -7.9°C | -1.0% | -1.0hPa | 0V | 00:00:00 | 00:00:00 | 00:00:00 | |
| SP6BVK | 2026-09-05 11:09:27 | 51.46327 | 15.14296 | 101° | 102km/h | 4101m | 2.5m/s | -8.2°C | 0% | 0hPa | 0V | 00:00:00 | 00:00:00 | 00:00:00 | |
| SP6BVK | 2026-09-05 11:09:06 | 51.46418 | 15.13462 | 98° | 97km/h | 4045m | 2.1m/s | -7.6°C | 0% | 0hPa | 0V | 00:00:00 | 00:00:00 | 00:00:00 | |
| SP6BVK | 2026-09-05 11:08:46 | 51.46505 | 15.12673 | 103° | 99km/h | 3994m | 3.3m/s | -7.1°C | 0% | 0hPa | 0V | 00:00:00 | 00:00:00 | 00:00:00 | |
| EDDB2-12 | 2026-09-05 11:08:44 | 51.46518 | 15.12556 | 96° | 95km/h | 3987m | 2.3m/s | -6.5°C | -1.0% | -1.0hPa | 0V | 00:00:00 | 00:00:00 | 00:00:00 | |
| SP6BVK | 2026-09-05 11:08:25 | 51.46600 | 15.11853 | 101° | 97km/h | 3940m | 2.9m/s | -6.7°C | 0% | 0hPa | 0V | 00:00:00 | 00:00:00 | 00:00:00 | |
| SP6BVK | 2026-09-05 11:08:05 | 51.46684 | 15.11085 | 100° | 95km/h | 3893m | 2.4m/s | -6.1°C | 0% | 0hPa | 0V | 00:00:00 | 00:00:00 | 00:00:00 | |
| SP6BVK | 2026-09-05 11:07:44 | 51.46762 | 15.10295 | 97° | 93km/h | 3847m | 2.1m/s | -5.9°C | 0% | 0hPa | 0V | 00:00:00 | 00:00:00 | 00:00:00 | |
| SP6BVK | 2026-09-05 11:07:24 | 51.46827 | 15.09553 | 101° | 89km/h | 3811m | 1.3m/s | -5.7°C | 0% | 0hPa | 0V | 00:00:00 | 00:00:00 | 00:00:00 | |
| SP6BVK | 2026-09-05 11:07:03 | 51.46897 | 15.08782 | 100° | 100km/h | 3771m | 1.5m/s | -5.7°C | 0% | 0hPa | 0V | 00:00:00 | 00:00:00 | 00:00:00 | |
| SP6BVK | 2026-09-05 11:06:43 | 51.46959 | 15.08032 | 100° | 95km/h | 3736m | 1.6m/s | -6.0°C | 0% | 0hPa | 0V | 00:00:00 | 00:00:00 | 00:00:00 | |
| SP6BVK | 2026-09-05 11:06:23 | 51.47019 | 15.07244 | 97° | 91km/h | 3699m | 1.6m/s | -5.9°C | 0% | 0hPa | 0V | 00:00:00 | 00:00:00 | 00:00:00 | |
| SP6BVK | 2026-09-05 11:06:02 | 51.47081 | 15.06516 | 98° | 97km/h | 3664m | 1.6m/s | -5.9°C | 0% | 0hPa | 0V | 00:00:00 | 00:00:00 | 00:00:00 | |
| SP6BVK | 2026-09-05 11:05:42 | 51.47148 | 15.05756 | 102° | 84km/h | 3625m | 2.3m/s | -5.6°C | 0% | 0hPa | 0V | 00:00:00 | 00:00:00 | 00:00:00 | |
| SONDE2-11 | 2026-09-05 11:05:41 | 51.47152 | 15.05722 | 98° | 86km/h | 3623m | 1.9m/s | -5.0°C | -1.0% | -1.0hPa | 0V | 00:00:00 | 00:00:00 | 00:00:00 | |
| SP6BVK | 2026-09-05 11:05:20 | 51.47204 | 15.05015 | 95° | 86km/h | 3583m | 2.1m/s | -5.6°C | 0% | 0hPa | 0V | 00:00:00 | 00:00:00 | 00:00:00 | |
| EDDB2-11 | 2026-09-05 11:05:14 | 51.47221 | 15.04776 | 97° | 88km/h | 3568m | 2.0m/s | -4.9°C | -1.0% | -1.0hPa | 0V | 00:00:00 | 00:00:00 | 00:00:00 | |
| SONDE2-11 | 2026-09-05 11:05:10 | 51.47230 | 15.04606 | 92° | 91km/h | 3557m | 1.9m/s | -4.8°C | -1.0% | -1.0hPa | 0V | 00:00:00 | 00:00:00 | 00:00:00 | |
| EDDB2-12 | 2026-09-05 11:05:07 | 51.47235 | 15.04539 | 97° | 78km/h | 3552m | 1.4m/s | -4.8°C | -1.0% | -1.0hPa | 0V | 00:00:00 | 00:00:00 | 00:00:00 | |
| SP6BVK | 2026-09-05 11:05:00 | 51.47248 | 15.04331 | 97° | 84km/h | 3537m | 2.8m/s | -5.2°C | 0% | 0hPa | 0V | 00:00:00 | 00:00:00 | 00:00:00 | |
| EDDB2-11 | 2026-09-05 11:04:43 | 51.47285 | 15.03719 | 98° | 84km/h | 3494m | 2.7m/s | -4.6°C | -1.0% | -1.0hPa | 0V | 00:00:00 | 00:00:00 | 00:00:00 | |
| SONDE2-11 | 2026-09-05 11:04:39 | 51.47294 | 15.03583 | 96° | 82km/h | 3484m | 3.0m/s | -4.5°C | -1.0% | -1.0hPa | 0V | 00:00:00 | 00:00:00 | 00:00:00 | |
| SP6BVK | 2026-09-05 11:04:19 | 51.47339 | 15.02960 | 93° | 77km/h | 3433m | 2.0m/s | -5.0°C | 0% | 0hPa | 0V | 00:00:00 | 00:00:00 | 00:00:00 | |
| EDDB2-11 | 2026-09-05 11:04:12 | 51.47356 | 15.02708 | 90° | 82km/h | 3410m | 3.3m/s | -4.3°C | -1.0% | -1.0hPa | 0V | 00:00:00 | 00:00:00 | 00:00:00 | |
| SONDE2-11 | 2026-09-05 11:04:08 | 51.47364 | 15.02583 | 92° | 78km/h | 3398m | 2.3m/s | -4.3°C | -1.0% | -1.0hPa | 0V | 00:00:00 | 00:00:00 | 00:00:00 | |
| EDDB2-12 | 2026-09-05 11:04:05 | 51.47369 | 15.02493 | 93° | 78km/h | 3388m | 2.9m/s | -4.2°C | -1.0% | -1.0hPa | 0V | 00:00:00 | 00:00:00 | 00:00:00 | |
| SP6BVK | 2026-09-05 11:03:58 | 51.47380 | 15.02308 | 100° | 77km/h | 3371m | 2.5m/s | -4.8°C | 0% | 0hPa | 0V | 00:00:00 | 00:00:00 | 00:00:00 | |
| SP6BVK | 2026-09-05 11:03:38 | 51.47421 | 15.01710 | 98° | 66km/h | 3311m | 2.4m/s | -4.6°C | 0% | 0hPa | 0V | 00:00:00 | 00:00:00 | 00:00:00 | |
| SONDE2-11 | 2026-09-05 11:03:37 | 51.47426 | 15.01650 | 97° | 75km/h | 3305m | 2.7m/s | -3.9°C | -1.0% | -1.0hPa | 0V | 00:00:00 | 00:00:00 | 00:00:00 | |
| SP6BVK | 2026-09-05 11:03:17 | 51.47461 | 15.01127 | 99° | 68km/h | 3250m | 2.1m/s | -4.8°C | 0% | 0hPa | 0V | 00:00:00 | 00:00:00 | 00:00:00 | |
| EDDB2-11 | 2026-09-05 11:03:09 | 51.47471 | 15.00892 | 86° | 62km/h | 3225m | 2.8m/s | -3.9°C | -1.0% | -1.0hPa | 0V | 00:00:00 | 00:00:00 | 00:00:00 | |
| SONDE2-11 | 2026-09-05 11:03:06 | 51.47475 | 15.00813 | 96° | 64km/h | 3216m | 2.6m/s | -3.9°C | -1.0% | -1.0hPa | 0V | 00:00:00 | 00:00:00 | 00:00:00 | |
| EDDB2-12 | 2026-09-05 11:03:03 | 51.47479 | 15.00734 | 97° | 66km/h | 3208m | 2.5m/s | -3.9°C | -1.0% | -1.0hPa | 0V | 00:00:00 | 00:00:00 | 00:00:00 | |
| SP6BVK | 2026-09-05 11:02:57 | 51.47485 | 15.00601 | 88° | 71km/h | 3195m | 2.5m/s | -4.3°C | 0% | 0hPa | 0V | 00:00:00 | 00:00:00 | 00:00:00 | |
| SP6BVK | 2026-09-05 11:02:36 | 51.47502 | 15.00043 | 95° | 73km/h | 3142m | 2.5m/s | -3.9°C | 0% | 0hPa | 0V | 00:00:00 | 00:00:00 | 00:00:00 | |
| SONDE2-11 | 2026-09-05 11:02:35 | 51.47503 | 14.99991 | 91° | 57km/h | 3137m | 1.4m/s | -3.2°C | -1.0% | -1.0hPa | 0V | 00:00:00 | 00:00:00 | 00:00:00 | |
| SP6BVK | 2026-09-05 11:02:16 | 51.47511 | 14.99507 | 92° | 68km/h | 3093m | 2.9m/s | -3.6°C | 0% | 0hPa | 0V | 00:00:00 | 00:00:00 | 00:00:00 | |
| EDDB2-11 | 2026-09-05 11:02:07 | 51.47515 | 14.99264 | 94° | 66km/h | 3070m | 3.1m/s | -3.0°C | -1.0% | -1.0hPa | 0V | 00:00:00 | 00:00:00 | 00:00:00 | |
| SONDE2-11 | 2026-09-05 11:02:04 | 51.47518 | 14.99163 | 94° | 66km/h | 3055m | 3.2m/s | -3.1°C | -1.0% | -1.0hPa | 0V | 00:00:00 | 00:00:00 | 00:00:00 | |
| SP6BVK | 2026-09-05 11:01:55 | 51.47525 | 14.98963 | 86° | 53km/h | 3032m | 2.5m/s | -3.8°C | 0% | 0hPa | 0V | 00:00:00 | 00:00:00 | 00:00:00 | |
| SP6BVK | 2026-09-05 11:01:35 | 51.47540 | 14.98531 | 102° | 53km/h | 2984m | 3.1m/s | -4.3°C | 0% | 0hPa | 0V | 00:00:00 | 00:00:00 | 00:00:00 | |
| SONDE2-11 | 2026-09-05 11:01:33 | 51.47544 | 14.98474 | 86° | 49km/h | 2975m | 3.4m/s | -3.7°C | -1.0% | -1.0hPa | 0V | 00:00:00 | 00:00:00 | 00:00:00 | |
| SP6BVK | 2026-09-05 11:01:14 | 51.47593 | 14.98078 | 101° | 58km/h | 2929m | 1.9m/s | -4.1°C | 0% | 0hPa | 0V | 00:00:00 | 00:00:00 | 00:00:00 | |
| EDDB2-11 | 2026-09-05 11:01:05 | 51.47629 | 14.97843 | 95° | 62km/h | 2902m | 2.0m/s | -3.6°C | -1.0% | -1.0hPa | 0V | 00:00:00 | 00:00:00 | 00:00:00 | |
| SP6BVK | 2026-09-05 11:01:00 | 51.47666 | 14.97612 | 96° | 57km/h | 2871m | 2.4m/s | -4.0°C | 0% | 0hPa | 0V | 00:00:00 | 00:00:00 | 00:00:00 | |
| SP6BVK | 2026-09-05 11:00:47 | 51.47751 | 14.97130 | 112° | 51km/h | 2797m | 3.6m/s | -3.8°C | 0% | 0hPa | 0V | 00:00:00 | 00:00:00 | 00:00:00 | |
| SONDE2-11 | 2026-09-05 11:00:40 | 51.47762 | 14.97062 | 110° | 53km/h | 2787m | 2.5m/s | -3.1°C | -1.0% | -1.0hPa | 0V | 00:00:00 | 00:00:00 | 00:00:00 | |
| SP6BVK | 2026-09-05 11:00:12 | 51.47837 | 14.96642 | 108° | 49km/h | 2714m | 4.2m/s | -3.4°C | 0% | 0hPa | 0V | 00:00:00 | 00:00:00 | 00:00:00 | |
| EDDB2-11 | 2026-09-05 11:00:03 | 51.47874 | 14.96410 | 109° | 64km/h | 2671m | 4.1m/s | -2.4°C | -1.0% | -1.0hPa | 0V | 00:00:00 | 00:00:00 | 00:00:00 | |
| SP6BVK | 2026-09-05 10:59:52 | 51.47908 | 14.96169 | 106° | 62km/h | 2631m | 4.9m/s | -3.0°C | 0% | 0hPa | 0V | 00:00:00 | 00:00:00 | 00:00:00 | |
| SP6BVK | 2026-09-05 10:59:31 | 51.47979 | 14.95657 | 102° | 71km/h | 2534m | 4.9m/s | -2.9°C | 0% | 0hPa | 0V | 00:00:00 | 00:00:00 | 00:00:00 | |
| SP6BVK | 2026-09-05 10:59:11 | 51.48031 | 14.95180 | 93° | 49km/h | 2443m | 5.3m/s | -2.6°C | 0% | 0hPa | 0V | 00:00:00 | 00:00:00 | 00:00:00 | |
| SP6BVK | 2026-09-05 10:58:50 | 51.48060 | 14.94723 | 94° | 46km/h | 2359m | 5.2m/s | -1.7°C | 0% | 0hPa | 0V | 00:00:00 | 00:00:00 | 00:00:00 | |
| EDDB2-11 | 2026-09-05 10:58:30 | 51.48094 | 14.94272 | 102° | 51km/h | 2265m | 2.7m/s | -0.3°C | -1.0% | -1.0hPa | 0V | 00:00:00 | 00:00:00 | 00:00:00 | |
| SP6BVK | 2026-09-05 10:58:09 | 51.48112 | 14.93864 | 90° | 49km/h | 2208m | 4.2m/s | -0.4°C | 0% | 0hPa | 0V | 00:00:00 | 00:00:00 | 00:00:00 | |
| SP6BVK | 2026-09-05 10:57:49 | 51.48129 | 14.93460 | 102° | 46km/h | 2099m | 6.9m/s | 2.1°C | 0% | 0hPa | 0V | 00:00:00 | 00:00:00 | 00:00:00 | |
| SP6BVK | 2026-09-05 10:57:28 | 51.48130 | 14.93060 | 101° | 47km/h | 1950m | 6.7m/s | 3.1°C | 0% | 0hPa | 0V | 00:00:00 | 00:00:00 | 00:00:00 | |
| SP6BVK | 2026-09-05 10:57:07 | 51.48114 | 14.92762 | 73° | 27km/h | 1747m | 8.5m/s | 4.3°C | 0% | 0hPa | 0V | 00:00:00 | 00:00:00 | 00:00:00 | |
| SP6BVK | 2026-09-05 10:56:46 | 51.48130 | 14.92464 | 103° | 49km/h | 1558m | 7.7m/s | 0°C | 0% | 0hPa | 0V | 00:00:00 | 00:00:00 | 00:00:00 |